<?xml version="1.0" encoding="UTF-8" standalone="no" ?>
<gpx xmlns="http://www.topografix.com/GPX/1/1" xmlns:xsi="http://www.w3.org/2001/XMLSchema-instance" xsi:schemaLocation="http://www.topografix.com/GPX/1/1 http://www.topografix.com/GPX/1/1/gpx.xsd" version="1.1" creator="VisuGPX - https://www.visugpx.com">
  <metadata>
    <name>Rando VTT Faye l'Abbesse 2024</name>
    <desc><![CDATA[Rando roulante,boue+++]]></desc>
  </metadata>
  <trk>
    <name><![CDATA[Rando VTT Faye l'Abbesse 2024_1]]></name>
    <trkseg>
      <trkpt lat="46.82723" lon="-0.34508">
        <ele>144.6</ele>
        <time>2024-03-10T07:03:54Z</time>
      </trkpt>
      <trkpt lat="46.82719" lon="-0.34504">
        <ele>144.2</ele>
        <time>2024-03-10T07:04:02Z</time>
      </trkpt>
      <trkpt lat="46.82714" lon="-0.34503">
        <ele>144.4</ele>
        <time>2024-03-10T07:04:06Z</time>
      </trkpt>
      <trkpt lat="46.82712" lon="-0.34505">
        <ele>144.6</ele>
        <time>2024-03-10T07:04:07Z</time>
      </trkpt>
      <trkpt lat="46.82711" lon="-0.34507">
        <ele>144.6</ele>
        <time>2024-03-10T07:04:08Z</time>
      </trkpt>
      <trkpt lat="46.82703" lon="-0.34523">
        <ele>144.2</ele>
        <time>2024-03-10T07:04:12Z</time>
      </trkpt>
      <trkpt lat="46.82698" lon="-0.34535">
        <ele>144</ele>
        <time>2024-03-10T07:04:15Z</time>
      </trkpt>
      <trkpt lat="46.82697" lon="-0.34539">
        <ele>143.8</ele>
        <time>2024-03-10T07:04:16Z</time>
      </trkpt>
      <trkpt lat="46.82698" lon="-0.34544">
        <ele>143.8</ele>
        <time>2024-03-10T07:04:17Z</time>
      </trkpt>
      <trkpt lat="46.82705" lon="-0.34561">
        <ele>143.8</ele>
        <time>2024-03-10T07:04:20Z</time>
      </trkpt>
      <trkpt lat="46.82708" lon="-0.34567">
        <ele>143.6</ele>
        <time>2024-03-10T07:04:21Z</time>
      </trkpt>
      <trkpt lat="46.82719" lon="-0.34588">
        <ele>143.6</ele>
        <time>2024-03-10T07:04:24Z</time>
      </trkpt>
      <trkpt lat="46.82723" lon="-0.34595">
        <ele>143.4</ele>
        <time>2024-03-10T07:04:25Z</time>
      </trkpt>
      <trkpt lat="46.82731" lon="-0.34608">
        <ele>143.2</ele>
        <time>2024-03-10T07:04:27Z</time>
      </trkpt>
      <trkpt lat="46.8274" lon="-0.34622">
        <ele>143</ele>
        <time>2024-03-10T07:04:29Z</time>
      </trkpt>
      <trkpt lat="46.82762" lon="-0.34652">
        <ele>142.8</ele>
        <time>2024-03-10T07:04:33Z</time>
      </trkpt>
      <trkpt lat="46.82785" lon="-0.3468">
        <ele>142.6</ele>
        <time>2024-03-10T07:04:37Z</time>
      </trkpt>
      <trkpt lat="46.8281" lon="-0.34706">
        <ele>142.2</ele>
        <time>2024-03-10T07:04:41Z</time>
      </trkpt>
      <trkpt lat="46.82838" lon="-0.34724">
        <ele>142</ele>
        <time>2024-03-10T07:04:45Z</time>
      </trkpt>
      <trkpt lat="46.8286" lon="-0.34738">
        <ele>141.4</ele>
        <time>2024-03-10T07:04:48Z</time>
      </trkpt>
      <trkpt lat="46.82868" lon="-0.34741">
        <ele>141.4</ele>
        <time>2024-03-10T07:04:49Z</time>
      </trkpt>
      <trkpt lat="46.82905" lon="-0.34751">
        <ele>140.8</ele>
        <time>2024-03-10T07:04:54Z</time>
      </trkpt>
      <trkpt lat="46.82912" lon="-0.34753">
        <ele>140.6</ele>
        <time>2024-03-10T07:04:55Z</time>
      </trkpt>
      <trkpt lat="46.82925" lon="-0.34762">
        <ele>140.4</ele>
        <time>2024-03-10T07:04:57Z</time>
      </trkpt>
      <trkpt lat="46.82936" lon="-0.34775">
        <ele>140.4</ele>
        <time>2024-03-10T07:04:59Z</time>
      </trkpt>
      <trkpt lat="46.82964" lon="-0.34807">
        <ele>140.4</ele>
        <time>2024-03-10T07:05:04Z</time>
      </trkpt>
      <trkpt lat="46.82969" lon="-0.3481">
        <ele>140.4</ele>
        <time>2024-03-10T07:05:05Z</time>
      </trkpt>
      <trkpt lat="46.82975" lon="-0.34813">
        <ele>140.4</ele>
        <time>2024-03-10T07:05:06Z</time>
      </trkpt>
      <trkpt lat="46.82985" lon="-0.34816">
        <ele>140.4</ele>
        <time>2024-03-10T07:05:08Z</time>
      </trkpt>
      <trkpt lat="46.82988" lon="-0.34817">
        <ele>140.4</ele>
        <time>2024-03-10T07:05:09Z</time>
      </trkpt>
      <trkpt lat="46.82994" lon="-0.34822">
        <ele>140.2</ele>
        <time>2024-03-10T07:05:11Z</time>
      </trkpt>
      <trkpt lat="46.82995" lon="-0.34826">
        <ele>140.2</ele>
        <time>2024-03-10T07:05:12Z</time>
      </trkpt>
      <trkpt lat="46.82997" lon="-0.34854">
        <ele>140</ele>
        <time>2024-03-10T07:05:16Z</time>
      </trkpt>
      <trkpt lat="46.82998" lon="-0.34887">
        <ele>140</ele>
        <time>2024-03-10T07:05:20Z</time>
      </trkpt>
      <trkpt lat="46.82999" lon="-0.34911">
        <ele>140</ele>
        <time>2024-03-10T07:05:23Z</time>
      </trkpt>
      <trkpt lat="46.83" lon="-0.34949">
        <ele>140.8</ele>
        <time>2024-03-10T07:05:28Z</time>
      </trkpt>
      <trkpt lat="46.83" lon="-0.34962">
        <ele>141</ele>
        <time>2024-03-10T07:05:30Z</time>
      </trkpt>
      <trkpt lat="46.83002" lon="-0.34976">
        <ele>141.6</ele>
        <time>2024-03-10T07:05:32Z</time>
      </trkpt>
      <trkpt lat="46.83002" lon="-0.34982">
        <ele>142</ele>
        <time>2024-03-10T07:05:33Z</time>
      </trkpt>
      <trkpt lat="46.83002" lon="-0.35007">
        <ele>142.8</ele>
        <time>2024-03-10T07:05:37Z</time>
      </trkpt>
      <trkpt lat="46.83001" lon="-0.35032">
        <ele>144</ele>
        <time>2024-03-10T07:05:41Z</time>
      </trkpt>
      <trkpt lat="46.83" lon="-0.3505">
        <ele>145</ele>
        <time>2024-03-10T07:05:44Z</time>
      </trkpt>
      <trkpt lat="46.82999" lon="-0.35055">
        <ele>145.2</ele>
        <time>2024-03-10T07:05:45Z</time>
      </trkpt>
      <trkpt lat="46.82999" lon="-0.35065">
        <ele>145.4</ele>
        <time>2024-03-10T07:05:47Z</time>
      </trkpt>
      <trkpt lat="46.82997" lon="-0.35078">
        <ele>146</ele>
        <time>2024-03-10T07:05:50Z</time>
      </trkpt>
      <trkpt lat="46.82997" lon="-0.35086">
        <ele>146.2</ele>
        <time>2024-03-10T07:05:52Z</time>
      </trkpt>
      <trkpt lat="46.82996" lon="-0.351">
        <ele>147</ele>
        <time>2024-03-10T07:05:56Z</time>
      </trkpt>
      <trkpt lat="46.82997" lon="-0.3512">
        <ele>148</ele>
        <time>2024-03-10T07:06:00Z</time>
      </trkpt>
      <trkpt lat="46.82997" lon="-0.35125">
        <ele>148.4</ele>
        <time>2024-03-10T07:06:01Z</time>
      </trkpt>
      <trkpt lat="46.82998" lon="-0.35148">
        <ele>149.4</ele>
        <time>2024-03-10T07:06:06Z</time>
      </trkpt>
      <trkpt lat="46.82999" lon="-0.35157">
        <ele>150</ele>
        <time>2024-03-10T07:06:08Z</time>
      </trkpt>
      <trkpt lat="46.83" lon="-0.35172">
        <ele>150.6</ele>
        <time>2024-03-10T07:06:11Z</time>
      </trkpt>
      <trkpt lat="46.83" lon="-0.35176">
        <ele>151</ele>
        <time>2024-03-10T07:06:12Z</time>
      </trkpt>
      <trkpt lat="46.83001" lon="-0.35187">
        <ele>151.6</ele>
        <time>2024-03-10T07:06:14Z</time>
      </trkpt>
      <trkpt lat="46.83001" lon="-0.35192">
        <ele>151.8</ele>
        <time>2024-03-10T07:06:15Z</time>
      </trkpt>
      <trkpt lat="46.83007" lon="-0.35219">
        <ele>152.6</ele>
        <time>2024-03-10T07:06:20Z</time>
      </trkpt>
      <trkpt lat="46.83014" lon="-0.35239">
        <ele>153.2</ele>
        <time>2024-03-10T07:06:24Z</time>
      </trkpt>
      <trkpt lat="46.83017" lon="-0.35244">
        <ele>153.2</ele>
        <time>2024-03-10T07:06:25Z</time>
      </trkpt>
      <trkpt lat="46.83027" lon="-0.35274">
        <ele>153.8</ele>
        <time>2024-03-10T07:06:30Z</time>
      </trkpt>
      <trkpt lat="46.83039" lon="-0.35316">
        <ele>154.8</ele>
        <time>2024-03-10T07:06:37Z</time>
      </trkpt>
      <trkpt lat="46.8304" lon="-0.35321">
        <ele>155</ele>
        <time>2024-03-10T07:06:38Z</time>
      </trkpt>
      <trkpt lat="46.83043" lon="-0.35351">
        <ele>155.4</ele>
        <time>2024-03-10T07:06:43Z</time>
      </trkpt>
      <trkpt lat="46.83046" lon="-0.35363">
        <ele>155.6</ele>
        <time>2024-03-10T07:06:45Z</time>
      </trkpt>
      <trkpt lat="46.83049" lon="-0.35375">
        <ele>156</ele>
        <time>2024-03-10T07:06:47Z</time>
      </trkpt>
      <trkpt lat="46.83053" lon="-0.35387">
        <ele>156.4</ele>
        <time>2024-03-10T07:06:49Z</time>
      </trkpt>
      <trkpt lat="46.83058" lon="-0.35404">
        <ele>157</ele>
        <time>2024-03-10T07:06:52Z</time>
      </trkpt>
      <trkpt lat="46.8306" lon="-0.3541">
        <ele>157.4</ele>
        <time>2024-03-10T07:06:53Z</time>
      </trkpt>
      <trkpt lat="46.83069" lon="-0.35446">
        <ele>158.2</ele>
        <time>2024-03-10T07:06:59Z</time>
      </trkpt>
      <trkpt lat="46.83073" lon="-0.35457">
        <ele>158.4</ele>
        <time>2024-03-10T07:07:01Z</time>
      </trkpt>
      <trkpt lat="46.83074" lon="-0.35463">
        <ele>158.6</ele>
        <time>2024-03-10T07:07:02Z</time>
      </trkpt>
      <trkpt lat="46.83085" lon="-0.35503">
        <ele>158.8</ele>
        <time>2024-03-10T07:07:09Z</time>
      </trkpt>
      <trkpt lat="46.83088" lon="-0.35515">
        <ele>159</ele>
        <time>2024-03-10T07:07:11Z</time>
      </trkpt>
      <trkpt lat="46.83087" lon="-0.35522">
        <ele>158.8</ele>
        <time>2024-03-10T07:07:13Z</time>
      </trkpt>
      <trkpt lat="46.83079" lon="-0.35525">
        <ele>158.2</ele>
        <time>2024-03-10T07:07:16Z</time>
      </trkpt>
      <trkpt lat="46.83073" lon="-0.35527">
        <ele>158.2</ele>
        <time>2024-03-10T07:07:18Z</time>
      </trkpt>
      <trkpt lat="46.83058" lon="-0.35538">
        <ele>158</ele>
        <time>2024-03-10T07:07:24Z</time>
      </trkpt>
      <trkpt lat="46.83047" lon="-0.3555">
        <ele>157.4</ele>
        <time>2024-03-10T07:07:30Z</time>
      </trkpt>
      <trkpt lat="46.83039" lon="-0.35558">
        <ele>157.2</ele>
        <time>2024-03-10T07:07:33Z</time>
      </trkpt>
      <trkpt lat="46.8303" lon="-0.35569">
        <ele>157</ele>
        <time>2024-03-10T07:07:36Z</time>
      </trkpt>
      <trkpt lat="46.83028" lon="-0.3558">
        <ele>156.4</ele>
        <time>2024-03-10T07:07:39Z</time>
      </trkpt>
      <trkpt lat="46.83028" lon="-0.35584">
        <ele>156.2</ele>
        <time>2024-03-10T07:07:40Z</time>
      </trkpt>
      <trkpt lat="46.83029" lon="-0.35589">
        <ele>156</ele>
        <time>2024-03-10T07:07:41Z</time>
      </trkpt>
      <trkpt lat="46.83025" lon="-0.35606">
        <ele>155.2</ele>
        <time>2024-03-10T07:07:44Z</time>
      </trkpt>
      <trkpt lat="46.83024" lon="-0.35611">
        <ele>154.8</ele>
        <time>2024-03-10T07:07:45Z</time>
      </trkpt>
      <trkpt lat="46.83022" lon="-0.35621">
        <ele>153.4</ele>
        <time>2024-03-10T07:07:48Z</time>
      </trkpt>
      <trkpt lat="46.83021" lon="-0.35623">
        <ele>152.6</ele>
        <time>2024-03-10T07:07:51Z</time>
      </trkpt>
      <trkpt lat="46.83021" lon="-0.35625">
        <ele>152.4</ele>
        <time>2024-03-10T07:07:54Z</time>
      </trkpt>
      <trkpt lat="46.83021" lon="-0.35621">
        <ele>152.8</ele>
        <time>2024-03-10T07:08:00Z</time>
      </trkpt>
      <trkpt lat="46.83017" lon="-0.35611">
        <ele>153.2</ele>
        <time>2024-03-10T07:08:06Z</time>
      </trkpt>
      <trkpt lat="46.83015" lon="-0.35606">
        <ele>153.4</ele>
        <time>2024-03-10T07:08:09Z</time>
      </trkpt>
      <trkpt lat="46.83015" lon="-0.35604">
        <ele>153.2</ele>
        <time>2024-03-10T07:08:11Z</time>
      </trkpt>
      <trkpt lat="46.83015" lon="-0.35604">
        <ele>153.2</ele>
        <time>2024-03-10T07:08:12Z</time>
      </trkpt>
      <trkpt lat="46.83015" lon="-0.35605">
        <ele>153</ele>
        <time>2024-03-10T07:08:25Z</time>
      </trkpt>
      <trkpt lat="46.83015" lon="-0.35605">
        <ele>153</ele>
        <time>2024-03-10T07:08:29Z</time>
      </trkpt>
      <trkpt lat="46.83015" lon="-0.35605">
        <ele>152.8</ele>
        <time>2024-03-10T07:09:16Z</time>
      </trkpt>
      <trkpt lat="46.83015" lon="-0.35605">
        <ele>152.8</ele>
        <time>2024-03-10T07:09:30Z</time>
      </trkpt>
      <trkpt lat="46.83015" lon="-0.35605">
        <ele>152.8</ele>
        <time>2024-03-10T07:10:24Z</time>
      </trkpt>
      <trkpt lat="46.83015" lon="-0.35605">
        <ele>152.8</ele>
        <time>2024-03-10T07:10:39Z</time>
      </trkpt>
      <trkpt lat="46.83015" lon="-0.35605">
        <ele>152.8</ele>
        <time>2024-03-10T07:11:13Z</time>
      </trkpt>
      <trkpt lat="46.83015" lon="-0.35605">
        <ele>152.8</ele>
        <time>2024-03-10T07:11:55Z</time>
      </trkpt>
      <trkpt lat="46.83015" lon="-0.35605">
        <ele>152.8</ele>
        <time>2024-03-10T07:12:13Z</time>
      </trkpt>
      <trkpt lat="46.83015" lon="-0.35605">
        <ele>152.8</ele>
        <time>2024-03-10T07:12:55Z</time>
      </trkpt>
      <trkpt lat="46.83015" lon="-0.35605">
        <ele>152.8</ele>
        <time>2024-03-10T07:13:33Z</time>
      </trkpt>
      <trkpt lat="46.83015" lon="-0.35606">
        <ele>152.8</ele>
        <time>2024-03-10T07:14:59Z</time>
      </trkpt>
      <trkpt lat="46.83015" lon="-0.3561">
        <ele>152.8</ele>
        <time>2024-03-10T07:15:09Z</time>
      </trkpt>
      <trkpt lat="46.83019" lon="-0.35613">
        <ele>152.8</ele>
        <time>2024-03-10T07:15:17Z</time>
      </trkpt>
      <trkpt lat="46.83023" lon="-0.35609">
        <ele>154.8</ele>
        <time>2024-03-10T07:15:20Z</time>
      </trkpt>
      <trkpt lat="46.83024" lon="-0.35606">
        <ele>154.8</ele>
        <time>2024-03-10T07:15:21Z</time>
      </trkpt>
      <trkpt lat="46.83025" lon="-0.35591">
        <ele>154.8</ele>
        <time>2024-03-10T07:15:25Z</time>
      </trkpt>
      <trkpt lat="46.83026" lon="-0.35579">
        <ele>156</ele>
        <time>2024-03-10T07:15:29Z</time>
      </trkpt>
      <trkpt lat="46.83026" lon="-0.35577">
        <ele>156.2</ele>
        <time>2024-03-10T07:15:30Z</time>
      </trkpt>
      <trkpt lat="46.83027" lon="-0.35575">
        <ele>156.4</ele>
        <time>2024-03-10T07:15:31Z</time>
      </trkpt>
      <trkpt lat="46.83033" lon="-0.35565">
        <ele>157</ele>
        <time>2024-03-10T07:15:36Z</time>
      </trkpt>
      <trkpt lat="46.83034" lon="-0.35564">
        <ele>157</ele>
        <time>2024-03-10T07:15:37Z</time>
      </trkpt>
      <trkpt lat="46.83043" lon="-0.35554">
        <ele>156.8</ele>
        <time>2024-03-10T07:15:44Z</time>
      </trkpt>
      <trkpt lat="46.83044" lon="-0.35553">
        <ele>156.8</ele>
        <time>2024-03-10T07:15:45Z</time>
      </trkpt>
      <trkpt lat="46.83046" lon="-0.35549">
        <ele>157</ele>
        <time>2024-03-10T07:15:48Z</time>
      </trkpt>
      <trkpt lat="46.83048" lon="-0.35545">
        <ele>157.2</ele>
        <time>2024-03-10T07:15:50Z</time>
      </trkpt>
      <trkpt lat="46.83053" lon="-0.35534">
        <ele>157.8</ele>
        <time>2024-03-10T07:15:58Z</time>
      </trkpt>
      <trkpt lat="46.83056" lon="-0.35531">
        <ele>158</ele>
        <time>2024-03-10T07:16:00Z</time>
      </trkpt>
      <trkpt lat="46.83063" lon="-0.35526">
        <ele>158.2</ele>
        <time>2024-03-10T07:16:03Z</time>
      </trkpt>
      <trkpt lat="46.8307" lon="-0.35522">
        <ele>158.4</ele>
        <time>2024-03-10T07:16:07Z</time>
      </trkpt>
      <trkpt lat="46.83071" lon="-0.35521">
        <ele>158.4</ele>
        <time>2024-03-10T07:16:08Z</time>
      </trkpt>
      <trkpt lat="46.83072" lon="-0.35518">
        <ele>158.6</ele>
        <time>2024-03-10T07:16:09Z</time>
      </trkpt>
      <trkpt lat="46.83072" lon="-0.3551">
        <ele>158.8</ele>
        <time>2024-03-10T07:16:13Z</time>
      </trkpt>
      <trkpt lat="46.83072" lon="-0.35503">
        <ele>159</ele>
        <time>2024-03-10T07:16:15Z</time>
      </trkpt>
      <trkpt lat="46.83069" lon="-0.35486">
        <ele>159.2</ele>
        <time>2024-03-10T07:16:19Z</time>
      </trkpt>
      <trkpt lat="46.83068" lon="-0.35478">
        <ele>159.4</ele>
        <time>2024-03-10T07:16:21Z</time>
      </trkpt>
      <trkpt lat="46.83064" lon="-0.3546">
        <ele>159.4</ele>
        <time>2024-03-10T07:16:25Z</time>
      </trkpt>
      <trkpt lat="46.83055" lon="-0.35425">
        <ele>159.4</ele>
        <time>2024-03-10T07:16:32Z</time>
      </trkpt>
      <trkpt lat="46.83049" lon="-0.35409">
        <ele>159</ele>
        <time>2024-03-10T07:16:36Z</time>
      </trkpt>
      <trkpt lat="46.83047" lon="-0.35405">
        <ele>159</ele>
        <time>2024-03-10T07:16:37Z</time>
      </trkpt>
      <trkpt lat="46.8304" lon="-0.35402">
        <ele>158.8</ele>
        <time>2024-03-10T07:16:39Z</time>
      </trkpt>
      <trkpt lat="46.83025" lon="-0.35399">
        <ele>158.2</ele>
        <time>2024-03-10T07:16:43Z</time>
      </trkpt>
      <trkpt lat="46.83014" lon="-0.35391">
        <ele>158.2</ele>
        <time>2024-03-10T07:16:46Z</time>
      </trkpt>
      <trkpt lat="46.83006" lon="-0.35388">
        <ele>158.2</ele>
        <time>2024-03-10T07:16:48Z</time>
      </trkpt>
      <trkpt lat="46.82997" lon="-0.35386">
        <ele>158.2</ele>
        <time>2024-03-10T07:16:50Z</time>
      </trkpt>
      <trkpt lat="46.82993" lon="-0.35385">
        <ele>158</ele>
        <time>2024-03-10T07:16:51Z</time>
      </trkpt>
      <trkpt lat="46.82988" lon="-0.35384">
        <ele>157.8</ele>
        <time>2024-03-10T07:16:52Z</time>
      </trkpt>
      <trkpt lat="46.82971" lon="-0.35375">
        <ele>157.2</ele>
        <time>2024-03-10T07:16:56Z</time>
      </trkpt>
      <trkpt lat="46.82968" lon="-0.35375">
        <ele>156.8</ele>
        <time>2024-03-10T07:16:57Z</time>
      </trkpt>
      <trkpt lat="46.82964" lon="-0.35377">
        <ele>156.6</ele>
        <time>2024-03-10T07:16:59Z</time>
      </trkpt>
      <trkpt lat="46.82964" lon="-0.35375">
        <ele>156.4</ele>
        <time>2024-03-10T07:17:01Z</time>
      </trkpt>
      <trkpt lat="46.82965" lon="-0.35373">
        <ele>156.2</ele>
        <time>2024-03-10T07:17:03Z</time>
      </trkpt>
      <trkpt lat="46.82963" lon="-0.35368">
        <ele>156.2</ele>
        <time>2024-03-10T07:17:07Z</time>
      </trkpt>
      <trkpt lat="46.82962" lon="-0.35364">
        <ele>156.2</ele>
        <time>2024-03-10T07:17:11Z</time>
      </trkpt>
      <trkpt lat="46.82962" lon="-0.35362">
        <ele>156</ele>
        <time>2024-03-10T07:17:13Z</time>
      </trkpt>
      <trkpt lat="46.82952" lon="-0.35354">
        <ele>156</ele>
        <time>2024-03-10T07:17:21Z</time>
      </trkpt>
      <trkpt lat="46.82953" lon="-0.35351">
        <ele>155.8</ele>
        <time>2024-03-10T07:17:23Z</time>
      </trkpt>
      <trkpt lat="46.82952" lon="-0.35347">
        <ele>155.8</ele>
        <time>2024-03-10T07:17:24Z</time>
      </trkpt>
      <trkpt lat="46.82951" lon="-0.35343">
        <ele>155.8</ele>
        <time>2024-03-10T07:17:25Z</time>
      </trkpt>
      <trkpt lat="46.82942" lon="-0.35329">
        <ele>155.4</ele>
        <time>2024-03-10T07:17:28Z</time>
      </trkpt>
      <trkpt lat="46.82933" lon="-0.35316">
        <ele>154.6</ele>
        <time>2024-03-10T07:17:31Z</time>
      </trkpt>
      <trkpt lat="46.82929" lon="-0.35312">
        <ele>154.4</ele>
        <time>2024-03-10T07:17:32Z</time>
      </trkpt>
      <trkpt lat="46.82922" lon="-0.35306">
        <ele>154.4</ele>
        <time>2024-03-10T07:17:34Z</time>
      </trkpt>
      <trkpt lat="46.82914" lon="-0.35308">
        <ele>154.4</ele>
        <time>2024-03-10T07:17:36Z</time>
      </trkpt>
      <trkpt lat="46.8291" lon="-0.35311">
        <ele>154.4</ele>
        <time>2024-03-10T07:17:37Z</time>
      </trkpt>
      <trkpt lat="46.82906" lon="-0.35314">
        <ele>154.2</ele>
        <time>2024-03-10T07:17:38Z</time>
      </trkpt>
      <trkpt lat="46.82898" lon="-0.35323">
        <ele>153.6</ele>
        <time>2024-03-10T07:17:40Z</time>
      </trkpt>
      <trkpt lat="46.82894" lon="-0.35328">
        <ele>153.4</ele>
        <time>2024-03-10T07:17:41Z</time>
      </trkpt>
      <trkpt lat="46.8289" lon="-0.35333">
        <ele>153.4</ele>
        <time>2024-03-10T07:17:42Z</time>
      </trkpt>
      <trkpt lat="46.82874" lon="-0.35354">
        <ele>153.8</ele>
        <time>2024-03-10T07:17:46Z</time>
      </trkpt>
      <trkpt lat="46.82865" lon="-0.35363">
        <ele>154.2</ele>
        <time>2024-03-10T07:17:48Z</time>
      </trkpt>
      <trkpt lat="46.8286" lon="-0.35368">
        <ele>154.2</ele>
        <time>2024-03-10T07:17:49Z</time>
      </trkpt>
      <trkpt lat="46.82835" lon="-0.35401">
        <ele>154.2</ele>
        <time>2024-03-10T07:17:55Z</time>
      </trkpt>
      <trkpt lat="46.82832" lon="-0.35407">
        <ele>154</ele>
        <time>2024-03-10T07:17:56Z</time>
      </trkpt>
      <trkpt lat="46.8283" lon="-0.35414">
        <ele>154</ele>
        <time>2024-03-10T07:17:57Z</time>
      </trkpt>
      <trkpt lat="46.82827" lon="-0.35429">
        <ele>154</ele>
        <time>2024-03-10T07:17:59Z</time>
      </trkpt>
      <trkpt lat="46.82827" lon="-0.35437">
        <ele>154</ele>
        <time>2024-03-10T07:18:00Z</time>
      </trkpt>
      <trkpt lat="46.82821" lon="-0.35492">
        <ele>153.8</ele>
        <time>2024-03-10T07:18:07Z</time>
      </trkpt>
      <trkpt lat="46.8282" lon="-0.35498">
        <ele>153.6</ele>
        <time>2024-03-10T07:18:08Z</time>
      </trkpt>
      <trkpt lat="46.82815" lon="-0.35518">
        <ele>153.4</ele>
        <time>2024-03-10T07:18:11Z</time>
      </trkpt>
      <trkpt lat="46.82811" lon="-0.35523">
        <ele>153.4</ele>
        <time>2024-03-10T07:18:12Z</time>
      </trkpt>
      <trkpt lat="46.82806" lon="-0.35526">
        <ele>153.4</ele>
        <time>2024-03-10T07:18:13Z</time>
      </trkpt>
      <trkpt lat="46.8279" lon="-0.35532">
        <ele>153.2</ele>
        <time>2024-03-10T07:18:16Z</time>
      </trkpt>
      <trkpt lat="46.82751" lon="-0.35557">
        <ele>152.4</ele>
        <time>2024-03-10T07:18:23Z</time>
      </trkpt>
      <trkpt lat="46.82721" lon="-0.35576">
        <ele>151.4</ele>
        <time>2024-03-10T07:18:28Z</time>
      </trkpt>
      <trkpt lat="46.82709" lon="-0.35584">
        <ele>151.2</ele>
        <time>2024-03-10T07:18:30Z</time>
      </trkpt>
      <trkpt lat="46.82692" lon="-0.35595">
        <ele>151</ele>
        <time>2024-03-10T07:18:33Z</time>
      </trkpt>
      <trkpt lat="46.82663" lon="-0.35613">
        <ele>150.4</ele>
        <time>2024-03-10T07:18:38Z</time>
      </trkpt>
      <trkpt lat="46.82651" lon="-0.3562">
        <ele>150</ele>
        <time>2024-03-10T07:18:40Z</time>
      </trkpt>
      <trkpt lat="46.82605" lon="-0.35651">
        <ele>149.2</ele>
        <time>2024-03-10T07:18:48Z</time>
      </trkpt>
      <trkpt lat="46.82577" lon="-0.3567">
        <ele>148</ele>
        <time>2024-03-10T07:18:52Z</time>
      </trkpt>
      <trkpt lat="46.82556" lon="-0.35684">
        <ele>147.4</ele>
        <time>2024-03-10T07:18:55Z</time>
      </trkpt>
      <trkpt lat="46.82541" lon="-0.35693">
        <ele>146.6</ele>
        <time>2024-03-10T07:18:57Z</time>
      </trkpt>
      <trkpt lat="46.82502" lon="-0.35718">
        <ele>145.6</ele>
        <time>2024-03-10T07:19:03Z</time>
      </trkpt>
      <trkpt lat="46.82469" lon="-0.35744">
        <ele>146.4</ele>
        <time>2024-03-10T07:19:09Z</time>
      </trkpt>
      <trkpt lat="46.82463" lon="-0.3575">
        <ele>146.8</ele>
        <time>2024-03-10T07:19:10Z</time>
      </trkpt>
      <trkpt lat="46.82453" lon="-0.35763">
        <ele>147.6</ele>
        <time>2024-03-10T07:19:12Z</time>
      </trkpt>
      <trkpt lat="46.82438" lon="-0.35783">
        <ele>148.8</ele>
        <time>2024-03-10T07:19:15Z</time>
      </trkpt>
      <trkpt lat="46.82433" lon="-0.35789">
        <ele>149.2</ele>
        <time>2024-03-10T07:19:16Z</time>
      </trkpt>
      <trkpt lat="46.82415" lon="-0.35814">
        <ele>150</ele>
        <time>2024-03-10T07:19:20Z</time>
      </trkpt>
      <trkpt lat="46.82398" lon="-0.35837">
        <ele>150.6</ele>
        <time>2024-03-10T07:19:24Z</time>
      </trkpt>
      <trkpt lat="46.82386" lon="-0.35837">
        <ele>150.8</ele>
        <time>2024-03-10T07:19:26Z</time>
      </trkpt>
      <trkpt lat="46.82377" lon="-0.35824">
        <ele>150.8</ele>
        <time>2024-03-10T07:19:28Z</time>
      </trkpt>
      <trkpt lat="46.82373" lon="-0.35815">
        <ele>150.8</ele>
        <time>2024-03-10T07:19:29Z</time>
      </trkpt>
      <trkpt lat="46.82364" lon="-0.35798">
        <ele>151</ele>
        <time>2024-03-10T07:19:31Z</time>
      </trkpt>
      <trkpt lat="46.82342" lon="-0.35767">
        <ele>150.8</ele>
        <time>2024-03-10T07:19:35Z</time>
      </trkpt>
      <trkpt lat="46.823" lon="-0.35715">
        <ele>149.8</ele>
        <time>2024-03-10T07:19:42Z</time>
      </trkpt>
      <trkpt lat="46.82295" lon="-0.35707">
        <ele>149.8</ele>
        <time>2024-03-10T07:19:43Z</time>
      </trkpt>
      <trkpt lat="46.82287" lon="-0.35686">
        <ele>149.4</ele>
        <time>2024-03-10T07:19:45Z</time>
      </trkpt>
      <trkpt lat="46.8228" lon="-0.35664">
        <ele>148.6</ele>
        <time>2024-03-10T07:19:47Z</time>
      </trkpt>
      <trkpt lat="46.82265" lon="-0.35619">
        <ele>147.4</ele>
        <time>2024-03-10T07:19:51Z</time>
      </trkpt>
      <trkpt lat="46.82259" lon="-0.35598">
        <ele>146.8</ele>
        <time>2024-03-10T07:19:53Z</time>
      </trkpt>
      <trkpt lat="46.82256" lon="-0.35587">
        <ele>146.4</ele>
        <time>2024-03-10T07:19:54Z</time>
      </trkpt>
      <trkpt lat="46.82253" lon="-0.35576">
        <ele>146.2</ele>
        <time>2024-03-10T07:19:55Z</time>
      </trkpt>
      <trkpt lat="46.82244" lon="-0.35544">
        <ele>145.4</ele>
        <time>2024-03-10T07:19:58Z</time>
      </trkpt>
      <trkpt lat="46.82243" lon="-0.35533">
        <ele>145</ele>
        <time>2024-03-10T07:19:59Z</time>
      </trkpt>
      <trkpt lat="46.82242" lon="-0.35521">
        <ele>144.8</ele>
        <time>2024-03-10T07:20:00Z</time>
      </trkpt>
      <trkpt lat="46.82241" lon="-0.35508">
        <ele>144.6</ele>
        <time>2024-03-10T07:20:01Z</time>
      </trkpt>
      <trkpt lat="46.82241" lon="-0.35468">
        <ele>144</ele>
        <time>2024-03-10T07:20:04Z</time>
      </trkpt>
      <trkpt lat="46.82241" lon="-0.35427">
        <ele>142.8</ele>
        <time>2024-03-10T07:20:07Z</time>
      </trkpt>
      <trkpt lat="46.82242" lon="-0.3539">
        <ele>142</ele>
        <time>2024-03-10T07:20:10Z</time>
      </trkpt>
      <trkpt lat="46.82241" lon="-0.3538">
        <ele>141.4</ele>
        <time>2024-03-10T07:20:11Z</time>
      </trkpt>
      <trkpt lat="46.82241" lon="-0.35371">
        <ele>140.8</ele>
        <time>2024-03-10T07:20:12Z</time>
      </trkpt>
      <trkpt lat="46.82242" lon="-0.35364">
        <ele>140.4</ele>
        <time>2024-03-10T07:20:13Z</time>
      </trkpt>
      <trkpt lat="46.82242" lon="-0.35356">
        <ele>140</ele>
        <time>2024-03-10T07:20:14Z</time>
      </trkpt>
      <trkpt lat="46.8224" lon="-0.35327">
        <ele>139.2</ele>
        <time>2024-03-10T07:20:18Z</time>
      </trkpt>
      <trkpt lat="46.82239" lon="-0.35319">
        <ele>139.2</ele>
        <time>2024-03-10T07:20:19Z</time>
      </trkpt>
      <trkpt lat="46.8224" lon="-0.35267">
        <ele>138.4</ele>
        <time>2024-03-10T07:20:25Z</time>
      </trkpt>
      <trkpt lat="46.82241" lon="-0.35249">
        <ele>138.2</ele>
        <time>2024-03-10T07:20:27Z</time>
      </trkpt>
      <trkpt lat="46.82243" lon="-0.35202">
        <ele>138</ele>
        <time>2024-03-10T07:20:32Z</time>
      </trkpt>
      <trkpt lat="46.82244" lon="-0.35173">
        <ele>137</ele>
        <time>2024-03-10T07:20:35Z</time>
      </trkpt>
      <trkpt lat="46.82246" lon="-0.35131">
        <ele>136.4</ele>
        <time>2024-03-10T07:20:39Z</time>
      </trkpt>
      <trkpt lat="46.82247" lon="-0.3511">
        <ele>136</ele>
        <time>2024-03-10T07:20:41Z</time>
      </trkpt>
      <trkpt lat="46.82249" lon="-0.35079">
        <ele>134.2</ele>
        <time>2024-03-10T07:20:44Z</time>
      </trkpt>
      <trkpt lat="46.8225" lon="-0.35057">
        <ele>132.8</ele>
        <time>2024-03-10T07:20:46Z</time>
      </trkpt>
      <trkpt lat="46.8225" lon="-0.35036">
        <ele>131.8</ele>
        <time>2024-03-10T07:20:48Z</time>
      </trkpt>
      <trkpt lat="46.82251" lon="-0.35014">
        <ele>130.8</ele>
        <time>2024-03-10T07:20:50Z</time>
      </trkpt>
      <trkpt lat="46.82252" lon="-0.35003">
        <ele>130</ele>
        <time>2024-03-10T07:20:51Z</time>
      </trkpt>
      <trkpt lat="46.82252" lon="-0.3498">
        <ele>129</ele>
        <time>2024-03-10T07:20:53Z</time>
      </trkpt>
      <trkpt lat="46.82253" lon="-0.34957">
        <ele>127</ele>
        <time>2024-03-10T07:20:55Z</time>
      </trkpt>
      <trkpt lat="46.82253" lon="-0.34946">
        <ele>125.6</ele>
        <time>2024-03-10T07:20:56Z</time>
      </trkpt>
      <trkpt lat="46.82254" lon="-0.34926">
        <ele>123.4</ele>
        <time>2024-03-10T07:20:58Z</time>
      </trkpt>
      <trkpt lat="46.82254" lon="-0.34917">
        <ele>122.6</ele>
        <time>2024-03-10T07:20:59Z</time>
      </trkpt>
      <trkpt lat="46.82255" lon="-0.3491">
        <ele>121.8</ele>
        <time>2024-03-10T07:21:00Z</time>
      </trkpt>
      <trkpt lat="46.82255" lon="-0.34904">
        <ele>121.2</ele>
        <time>2024-03-10T07:21:01Z</time>
      </trkpt>
      <trkpt lat="46.82254" lon="-0.34901">
        <ele>120.8</ele>
        <time>2024-03-10T07:21:02Z</time>
      </trkpt>
      <trkpt lat="46.82252" lon="-0.34899">
        <ele>120.2</ele>
        <time>2024-03-10T07:21:03Z</time>
      </trkpt>
      <trkpt lat="46.82248" lon="-0.34896">
        <ele>119</ele>
        <time>2024-03-10T07:21:05Z</time>
      </trkpt>
      <trkpt lat="46.82245" lon="-0.34896">
        <ele>118.8</ele>
        <time>2024-03-10T07:21:06Z</time>
      </trkpt>
      <trkpt lat="46.82234" lon="-0.3491">
        <ele>118.2</ele>
        <time>2024-03-10T07:21:11Z</time>
      </trkpt>
      <trkpt lat="46.82218" lon="-0.34932">
        <ele>118.4</ele>
        <time>2024-03-10T07:21:16Z</time>
      </trkpt>
      <trkpt lat="46.82206" lon="-0.34948">
        <ele>118.4</ele>
        <time>2024-03-10T07:21:20Z</time>
      </trkpt>
      <trkpt lat="46.82206" lon="-0.34948">
        <ele>118.4</ele>
        <time>2024-03-10T07:21:21Z</time>
      </trkpt>
      <trkpt lat="46.82194" lon="-0.34966">
        <ele>118.4</ele>
        <time>2024-03-10T07:21:26Z</time>
      </trkpt>
      <trkpt lat="46.82183" lon="-0.34978">
        <ele>118.2</ele>
        <time>2024-03-10T07:21:31Z</time>
      </trkpt>
      <trkpt lat="46.8217" lon="-0.35005">
        <ele>118</ele>
        <time>2024-03-10T07:21:37Z</time>
      </trkpt>
      <trkpt lat="46.8216" lon="-0.35026">
        <ele>117.6</ele>
        <time>2024-03-10T07:21:41Z</time>
      </trkpt>
      <trkpt lat="46.82156" lon="-0.35036">
        <ele>117.6</ele>
        <time>2024-03-10T07:21:43Z</time>
      </trkpt>
      <trkpt lat="46.82141" lon="-0.35058">
        <ele>117.8</ele>
        <time>2024-03-10T07:21:49Z</time>
      </trkpt>
      <trkpt lat="46.82128" lon="-0.35059">
        <ele>118</ele>
        <time>2024-03-10T07:21:54Z</time>
      </trkpt>
      <trkpt lat="46.82121" lon="-0.35061">
        <ele>118.4</ele>
        <time>2024-03-10T07:21:58Z</time>
      </trkpt>
      <trkpt lat="46.82119" lon="-0.35066">
        <ele>118.4</ele>
        <time>2024-03-10T07:22:00Z</time>
      </trkpt>
      <trkpt lat="46.82118" lon="-0.35077">
        <ele>118.4</ele>
        <time>2024-03-10T07:22:03Z</time>
      </trkpt>
      <trkpt lat="46.82114" lon="-0.35081">
        <ele>118.4</ele>
        <time>2024-03-10T07:22:05Z</time>
      </trkpt>
      <trkpt lat="46.82101" lon="-0.35082">
        <ele>118.4</ele>
        <time>2024-03-10T07:22:10Z</time>
      </trkpt>
      <trkpt lat="46.82088" lon="-0.35081">
        <ele>118.2</ele>
        <time>2024-03-10T07:22:15Z</time>
      </trkpt>
      <trkpt lat="46.82081" lon="-0.35098">
        <ele>118.4</ele>
        <time>2024-03-10T07:22:20Z</time>
      </trkpt>
      <trkpt lat="46.82076" lon="-0.35125">
        <ele>118.2</ele>
        <time>2024-03-10T07:22:26Z</time>
      </trkpt>
      <trkpt lat="46.82074" lon="-0.35142">
        <ele>118</ele>
        <time>2024-03-10T07:22:32Z</time>
      </trkpt>
      <trkpt lat="46.82073" lon="-0.35167">
        <ele>118</ele>
        <time>2024-03-10T07:22:38Z</time>
      </trkpt>
      <trkpt lat="46.82071" lon="-0.3519">
        <ele>118.4</ele>
        <time>2024-03-10T07:22:42Z</time>
      </trkpt>
      <trkpt lat="46.8207" lon="-0.35196">
        <ele>118.6</ele>
        <time>2024-03-10T07:22:43Z</time>
      </trkpt>
      <trkpt lat="46.82067" lon="-0.35208">
        <ele>118.8</ele>
        <time>2024-03-10T07:22:45Z</time>
      </trkpt>
      <trkpt lat="46.82061" lon="-0.35228">
        <ele>118.8</ele>
        <time>2024-03-10T07:22:48Z</time>
      </trkpt>
      <trkpt lat="46.82053" lon="-0.35257">
        <ele>119</ele>
        <time>2024-03-10T07:22:52Z</time>
      </trkpt>
      <trkpt lat="46.8205" lon="-0.35274">
        <ele>119</ele>
        <time>2024-03-10T07:22:54Z</time>
      </trkpt>
      <trkpt lat="46.82036" lon="-0.35335">
        <ele>119.2</ele>
        <time>2024-03-10T07:23:02Z</time>
      </trkpt>
      <trkpt lat="46.82033" lon="-0.35343">
        <ele>119.2</ele>
        <time>2024-03-10T07:23:03Z</time>
      </trkpt>
      <trkpt lat="46.82021" lon="-0.35369">
        <ele>119.2</ele>
        <time>2024-03-10T07:23:07Z</time>
      </trkpt>
      <trkpt lat="46.82017" lon="-0.35375">
        <ele>119.2</ele>
        <time>2024-03-10T07:23:08Z</time>
      </trkpt>
      <trkpt lat="46.81993" lon="-0.35402">
        <ele>119.4</ele>
        <time>2024-03-10T07:23:14Z</time>
      </trkpt>
      <trkpt lat="46.81971" lon="-0.35426">
        <ele>119.4</ele>
        <time>2024-03-10T07:23:20Z</time>
      </trkpt>
      <trkpt lat="46.81966" lon="-0.3543">
        <ele>119.4</ele>
        <time>2024-03-10T07:23:21Z</time>
      </trkpt>
      <trkpt lat="46.81951" lon="-0.35445">
        <ele>119.4</ele>
        <time>2024-03-10T07:23:26Z</time>
      </trkpt>
      <trkpt lat="46.81938" lon="-0.35456">
        <ele>120</ele>
        <time>2024-03-10T07:23:31Z</time>
      </trkpt>
      <trkpt lat="46.81929" lon="-0.35461">
        <ele>120.2</ele>
        <time>2024-03-10T07:23:34Z</time>
      </trkpt>
      <trkpt lat="46.81914" lon="-0.35467">
        <ele>119.8</ele>
        <time>2024-03-10T07:23:40Z</time>
      </trkpt>
      <trkpt lat="46.81907" lon="-0.35461">
        <ele>120.8</ele>
        <time>2024-03-10T07:23:45Z</time>
      </trkpt>
      <trkpt lat="46.81906" lon="-0.3546">
        <ele>121.2</ele>
        <time>2024-03-10T07:23:46Z</time>
      </trkpt>
      <trkpt lat="46.81905" lon="-0.35458">
        <ele>122.4</ele>
        <time>2024-03-10T07:23:48Z</time>
      </trkpt>
      <trkpt lat="46.81901" lon="-0.35454">
        <ele>123.2</ele>
        <time>2024-03-10T07:23:52Z</time>
      </trkpt>
      <trkpt lat="46.819" lon="-0.35453">
        <ele>123.8</ele>
        <time>2024-03-10T07:23:53Z</time>
      </trkpt>
      <trkpt lat="46.81894" lon="-0.35451">
        <ele>124.8</ele>
        <time>2024-03-10T07:23:58Z</time>
      </trkpt>
      <trkpt lat="46.81891" lon="-0.3545">
        <ele>125.8</ele>
        <time>2024-03-10T07:24:01Z</time>
      </trkpt>
      <trkpt lat="46.8189" lon="-0.35449">
        <ele>126</ele>
        <time>2024-03-10T07:24:02Z</time>
      </trkpt>
      <trkpt lat="46.81883" lon="-0.35447">
        <ele>127</ele>
        <time>2024-03-10T07:24:08Z</time>
      </trkpt>
      <trkpt lat="46.81883" lon="-0.35447">
        <ele>127.4</ele>
        <time>2024-03-10T07:24:09Z</time>
      </trkpt>
      <trkpt lat="46.81882" lon="-0.35446">
        <ele>127.8</ele>
        <time>2024-03-10T07:24:10Z</time>
      </trkpt>
      <trkpt lat="46.81881" lon="-0.35447">
        <ele>128.4</ele>
        <time>2024-03-10T07:24:11Z</time>
      </trkpt>
      <trkpt lat="46.81878" lon="-0.35448">
        <ele>129.4</ele>
        <time>2024-03-10T07:24:14Z</time>
      </trkpt>
      <trkpt lat="46.81877" lon="-0.35449">
        <ele>130.4</ele>
        <time>2024-03-10T07:24:17Z</time>
      </trkpt>
      <trkpt lat="46.81876" lon="-0.35449">
        <ele>130.6</ele>
        <time>2024-03-10T07:24:18Z</time>
      </trkpt>
      <trkpt lat="46.81873" lon="-0.35453">
        <ele>131.8</ele>
        <time>2024-03-10T07:24:24Z</time>
      </trkpt>
      <trkpt lat="46.81872" lon="-0.35453">
        <ele>132</ele>
        <time>2024-03-10T07:24:25Z</time>
      </trkpt>
      <trkpt lat="46.81869" lon="-0.35456">
        <ele>132.8</ele>
        <time>2024-03-10T07:24:29Z</time>
      </trkpt>
      <trkpt lat="46.81868" lon="-0.35457">
        <ele>132.8</ele>
        <time>2024-03-10T07:24:30Z</time>
      </trkpt>
      <trkpt lat="46.81866" lon="-0.35458">
        <ele>133.2</ele>
        <time>2024-03-10T07:24:32Z</time>
      </trkpt>
      <trkpt lat="46.81864" lon="-0.35459">
        <ele>134</ele>
        <time>2024-03-10T07:24:34Z</time>
      </trkpt>
      <trkpt lat="46.81859" lon="-0.3546">
        <ele>134.8</ele>
        <time>2024-03-10T07:24:39Z</time>
      </trkpt>
      <trkpt lat="46.81857" lon="-0.35459">
        <ele>135</ele>
        <time>2024-03-10T07:24:41Z</time>
      </trkpt>
      <trkpt lat="46.81855" lon="-0.35459">
        <ele>135.4</ele>
        <time>2024-03-10T07:24:45Z</time>
      </trkpt>
      <trkpt lat="46.81853" lon="-0.35459">
        <ele>135.6</ele>
        <time>2024-03-10T07:24:47Z</time>
      </trkpt>
      <trkpt lat="46.81846" lon="-0.35457">
        <ele>136.2</ele>
        <time>2024-03-10T07:24:53Z</time>
      </trkpt>
      <trkpt lat="46.81842" lon="-0.35456">
        <ele>137</ele>
        <time>2024-03-10T07:24:56Z</time>
      </trkpt>
      <trkpt lat="46.81839" lon="-0.35457">
        <ele>137.4</ele>
        <time>2024-03-10T07:24:59Z</time>
      </trkpt>
      <trkpt lat="46.81832" lon="-0.35455">
        <ele>138.4</ele>
        <time>2024-03-10T07:25:03Z</time>
      </trkpt>
      <trkpt lat="46.8183" lon="-0.35455">
        <ele>138.6</ele>
        <time>2024-03-10T07:25:04Z</time>
      </trkpt>
      <trkpt lat="46.81822" lon="-0.35457">
        <ele>139.2</ele>
        <time>2024-03-10T07:25:09Z</time>
      </trkpt>
      <trkpt lat="46.8181" lon="-0.35455">
        <ele>139.8</ele>
        <time>2024-03-10T07:25:15Z</time>
      </trkpt>
      <trkpt lat="46.81794" lon="-0.35451">
        <ele>140.4</ele>
        <time>2024-03-10T07:25:23Z</time>
      </trkpt>
      <trkpt lat="46.81791" lon="-0.35451">
        <ele>140.6</ele>
        <time>2024-03-10T07:25:27Z</time>
      </trkpt>
      <trkpt lat="46.81791" lon="-0.35451">
        <ele>140.6</ele>
        <time>2024-03-10T07:25:30Z</time>
      </trkpt>
      <trkpt lat="46.81788" lon="-0.3545">
        <ele>140.4</ele>
        <time>2024-03-10T07:25:45Z</time>
      </trkpt>
      <trkpt lat="46.81785" lon="-0.35451">
        <ele>141</ele>
        <time>2024-03-10T07:25:50Z</time>
      </trkpt>
      <trkpt lat="46.81783" lon="-0.35455">
        <ele>141.8</ele>
        <time>2024-03-10T07:25:55Z</time>
      </trkpt>
      <trkpt lat="46.81783" lon="-0.35455">
        <ele>142.2</ele>
        <time>2024-03-10T07:25:56Z</time>
      </trkpt>
      <trkpt lat="46.81782" lon="-0.35463">
        <ele>142.8</ele>
        <time>2024-03-10T07:26:03Z</time>
      </trkpt>
      <trkpt lat="46.81781" lon="-0.35467">
        <ele>143</ele>
        <time>2024-03-10T07:26:06Z</time>
      </trkpt>
      <trkpt lat="46.81781" lon="-0.35469">
        <ele>143.2</ele>
        <time>2024-03-10T07:26:07Z</time>
      </trkpt>
      <trkpt lat="46.81778" lon="-0.35479">
        <ele>143.4</ele>
        <time>2024-03-10T07:26:12Z</time>
      </trkpt>
      <trkpt lat="46.8177" lon="-0.35498">
        <ele>143.6</ele>
        <time>2024-03-10T07:26:20Z</time>
      </trkpt>
      <trkpt lat="46.81759" lon="-0.35514">
        <ele>143.4</ele>
        <time>2024-03-10T07:26:27Z</time>
      </trkpt>
      <trkpt lat="46.8174" lon="-0.35524">
        <ele>143.6</ele>
        <time>2024-03-10T07:26:35Z</time>
      </trkpt>
      <trkpt lat="46.81723" lon="-0.35523">
        <ele>143.6</ele>
        <time>2024-03-10T07:26:42Z</time>
      </trkpt>
      <trkpt lat="46.81704" lon="-0.35509">
        <ele>143.8</ele>
        <time>2024-03-10T07:26:50Z</time>
      </trkpt>
      <trkpt lat="46.8169" lon="-0.35484">
        <ele>144.2</ele>
        <time>2024-03-10T07:26:58Z</time>
      </trkpt>
      <trkpt lat="46.81686" lon="-0.35473">
        <ele>144.2</ele>
        <time>2024-03-10T07:27:01Z</time>
      </trkpt>
      <trkpt lat="46.81682" lon="-0.35456">
        <ele>144.2</ele>
        <time>2024-03-10T07:27:05Z</time>
      </trkpt>
      <trkpt lat="46.81677" lon="-0.35438">
        <ele>144.2</ele>
        <time>2024-03-10T07:27:10Z</time>
      </trkpt>
      <trkpt lat="46.81673" lon="-0.35443">
        <ele>144.2</ele>
        <time>2024-03-10T07:27:13Z</time>
      </trkpt>
      <trkpt lat="46.81666" lon="-0.35468">
        <ele>143</ele>
        <time>2024-03-10T07:27:18Z</time>
      </trkpt>
      <trkpt lat="46.81662" lon="-0.35477">
        <ele>142</ele>
        <time>2024-03-10T07:27:21Z</time>
      </trkpt>
      <trkpt lat="46.8166" lon="-0.3548">
        <ele>141.6</ele>
        <time>2024-03-10T07:27:22Z</time>
      </trkpt>
      <trkpt lat="46.81656" lon="-0.35499">
        <ele>140.6</ele>
        <time>2024-03-10T07:27:26Z</time>
      </trkpt>
      <trkpt lat="46.81656" lon="-0.35499">
        <ele>140.2</ele>
        <time>2024-03-10T07:27:27Z</time>
      </trkpt>
      <trkpt lat="46.81651" lon="-0.35536">
        <ele>138.2</ele>
        <time>2024-03-10T07:27:32Z</time>
      </trkpt>
      <trkpt lat="46.81651" lon="-0.35542">
        <ele>137.8</ele>
        <time>2024-03-10T07:27:33Z</time>
      </trkpt>
      <trkpt lat="46.81651" lon="-0.35547">
        <ele>137</ele>
        <time>2024-03-10T07:27:34Z</time>
      </trkpt>
      <trkpt lat="46.81652" lon="-0.35552">
        <ele>135.8</ele>
        <time>2024-03-10T07:27:35Z</time>
      </trkpt>
      <trkpt lat="46.81655" lon="-0.35562">
        <ele>134.6</ele>
        <time>2024-03-10T07:27:37Z</time>
      </trkpt>
      <trkpt lat="46.8166" lon="-0.35574">
        <ele>133.2</ele>
        <time>2024-03-10T07:27:40Z</time>
      </trkpt>
      <trkpt lat="46.81667" lon="-0.35587">
        <ele>132.2</ele>
        <time>2024-03-10T07:27:43Z</time>
      </trkpt>
      <trkpt lat="46.81675" lon="-0.35607">
        <ele>131</ele>
        <time>2024-03-10T07:27:47Z</time>
      </trkpt>
      <trkpt lat="46.81678" lon="-0.35611">
        <ele>130.4</ele>
        <time>2024-03-10T07:27:48Z</time>
      </trkpt>
      <trkpt lat="46.8168" lon="-0.35614">
        <ele>129.6</ele>
        <time>2024-03-10T07:27:49Z</time>
      </trkpt>
      <trkpt lat="46.81688" lon="-0.35618">
        <ele>128.6</ele>
        <time>2024-03-10T07:27:52Z</time>
      </trkpt>
      <trkpt lat="46.81694" lon="-0.35618">
        <ele>128.4</ele>
        <time>2024-03-10T07:27:54Z</time>
      </trkpt>
      <trkpt lat="46.8171" lon="-0.35622">
        <ele>128.2</ele>
        <time>2024-03-10T07:27:59Z</time>
      </trkpt>
      <trkpt lat="46.81727" lon="-0.35632">
        <ele>128</ele>
        <time>2024-03-10T07:28:05Z</time>
      </trkpt>
      <trkpt lat="46.81733" lon="-0.35629">
        <ele>127.4</ele>
        <time>2024-03-10T07:28:07Z</time>
      </trkpt>
      <trkpt lat="46.81737" lon="-0.35623">
        <ele>126.2</ele>
        <time>2024-03-10T07:28:09Z</time>
      </trkpt>
      <trkpt lat="46.81741" lon="-0.3562">
        <ele>125.4</ele>
        <time>2024-03-10T07:28:11Z</time>
      </trkpt>
      <trkpt lat="46.81743" lon="-0.3562">
        <ele>125.2</ele>
        <time>2024-03-10T07:28:12Z</time>
      </trkpt>
      <trkpt lat="46.81745" lon="-0.35621">
        <ele>125</ele>
        <time>2024-03-10T07:28:13Z</time>
      </trkpt>
      <trkpt lat="46.81748" lon="-0.35624">
        <ele>124.2</ele>
        <time>2024-03-10T07:28:15Z</time>
      </trkpt>
      <trkpt lat="46.81751" lon="-0.35628">
        <ele>122.8</ele>
        <time>2024-03-10T07:28:17Z</time>
      </trkpt>
      <trkpt lat="46.81756" lon="-0.35631">
        <ele>121.6</ele>
        <time>2024-03-10T07:28:19Z</time>
      </trkpt>
      <trkpt lat="46.81758" lon="-0.35632">
        <ele>120.8</ele>
        <time>2024-03-10T07:28:20Z</time>
      </trkpt>
      <trkpt lat="46.81759" lon="-0.35631">
        <ele>119.8</ele>
        <time>2024-03-10T07:28:21Z</time>
      </trkpt>
      <trkpt lat="46.8176" lon="-0.3563">
        <ele>119.2</ele>
        <time>2024-03-10T07:28:22Z</time>
      </trkpt>
      <trkpt lat="46.81761" lon="-0.35629">
        <ele>119</ele>
        <time>2024-03-10T07:28:23Z</time>
      </trkpt>
      <trkpt lat="46.8176" lon="-0.35629">
        <ele>118.6</ele>
        <time>2024-03-10T07:28:24Z</time>
      </trkpt>
      <trkpt lat="46.8176" lon="-0.35629">
        <ele>118.4</ele>
        <time>2024-03-10T07:28:25Z</time>
      </trkpt>
      <trkpt lat="46.8176" lon="-0.35632">
        <ele>118.4</ele>
        <time>2024-03-10T07:28:28Z</time>
      </trkpt>
      <trkpt lat="46.81758" lon="-0.3565">
        <ele>118.4</ele>
        <time>2024-03-10T07:28:34Z</time>
      </trkpt>
      <trkpt lat="46.81752" lon="-0.35673">
        <ele>118.4</ele>
        <time>2024-03-10T07:28:40Z</time>
      </trkpt>
      <trkpt lat="46.81738" lon="-0.35684">
        <ele>118.8</ele>
        <time>2024-03-10T07:28:46Z</time>
      </trkpt>
      <trkpt lat="46.81724" lon="-0.35686">
        <ele>119.4</ele>
        <time>2024-03-10T07:28:52Z</time>
      </trkpt>
      <trkpt lat="46.81718" lon="-0.35688">
        <ele>119.8</ele>
        <time>2024-03-10T07:28:55Z</time>
      </trkpt>
      <trkpt lat="46.81712" lon="-0.35691">
        <ele>120.6</ele>
        <time>2024-03-10T07:28:59Z</time>
      </trkpt>
      <trkpt lat="46.81708" lon="-0.35693">
        <ele>120.6</ele>
        <time>2024-03-10T07:29:02Z</time>
      </trkpt>
      <trkpt lat="46.81703" lon="-0.35692">
        <ele>120.2</ele>
        <time>2024-03-10T07:29:05Z</time>
      </trkpt>
      <trkpt lat="46.81701" lon="-0.35682">
        <ele>120.6</ele>
        <time>2024-03-10T07:29:10Z</time>
      </trkpt>
      <trkpt lat="46.817" lon="-0.3568">
        <ele>120.8</ele>
        <time>2024-03-10T07:29:11Z</time>
      </trkpt>
      <trkpt lat="46.81694" lon="-0.35665">
        <ele>122.2</ele>
        <time>2024-03-10T07:29:17Z</time>
      </trkpt>
      <trkpt lat="46.8169" lon="-0.35658">
        <ele>123.6</ele>
        <time>2024-03-10T07:29:21Z</time>
      </trkpt>
      <trkpt lat="46.81686" lon="-0.35655">
        <ele>124.6</ele>
        <time>2024-03-10T07:29:24Z</time>
      </trkpt>
      <trkpt lat="46.81684" lon="-0.35654">
        <ele>124.8</ele>
        <time>2024-03-10T07:29:25Z</time>
      </trkpt>
      <trkpt lat="46.81679" lon="-0.35651">
        <ele>125.8</ele>
        <time>2024-03-10T07:29:28Z</time>
      </trkpt>
      <trkpt lat="46.81677" lon="-0.35651">
        <ele>126.2</ele>
        <time>2024-03-10T07:29:29Z</time>
      </trkpt>
      <trkpt lat="46.81668" lon="-0.35655">
        <ele>127.2</ele>
        <time>2024-03-10T07:29:34Z</time>
      </trkpt>
      <trkpt lat="46.81666" lon="-0.35656">
        <ele>127.4</ele>
        <time>2024-03-10T07:29:35Z</time>
      </trkpt>
      <trkpt lat="46.81644" lon="-0.3566">
        <ele>128</ele>
        <time>2024-03-10T07:29:44Z</time>
      </trkpt>
      <trkpt lat="46.81636" lon="-0.35662">
        <ele>128.2</ele>
        <time>2024-03-10T07:29:47Z</time>
      </trkpt>
      <trkpt lat="46.81621" lon="-0.35669">
        <ele>128.2</ele>
        <time>2024-03-10T07:29:53Z</time>
      </trkpt>
      <trkpt lat="46.81605" lon="-0.35665">
        <ele>129.4</ele>
        <time>2024-03-10T07:30:00Z</time>
      </trkpt>
      <trkpt lat="46.81595" lon="-0.35663">
        <ele>130.4</ele>
        <time>2024-03-10T07:30:05Z</time>
      </trkpt>
      <trkpt lat="46.81588" lon="-0.3566">
        <ele>130.8</ele>
        <time>2024-03-10T07:30:08Z</time>
      </trkpt>
      <trkpt lat="46.81576" lon="-0.35648">
        <ele>131.4</ele>
        <time>2024-03-10T07:30:14Z</time>
      </trkpt>
      <trkpt lat="46.81574" lon="-0.35646">
        <ele>131.4</ele>
        <time>2024-03-10T07:30:15Z</time>
      </trkpt>
      <trkpt lat="46.81559" lon="-0.35628">
        <ele>132.6</ele>
        <time>2024-03-10T07:30:23Z</time>
      </trkpt>
      <trkpt lat="46.81544" lon="-0.35622">
        <ele>133</ele>
        <time>2024-03-10T07:30:29Z</time>
      </trkpt>
      <trkpt lat="46.81536" lon="-0.3562">
        <ele>133.6</ele>
        <time>2024-03-10T07:30:33Z</time>
      </trkpt>
      <trkpt lat="46.81528" lon="-0.35617">
        <ele>134</ele>
        <time>2024-03-10T07:30:37Z</time>
      </trkpt>
      <trkpt lat="46.8152" lon="-0.35614">
        <ele>134.8</ele>
        <time>2024-03-10T07:30:41Z</time>
      </trkpt>
      <trkpt lat="46.81512" lon="-0.35609">
        <ele>136</ele>
        <time>2024-03-10T07:30:46Z</time>
      </trkpt>
      <trkpt lat="46.81501" lon="-0.35602">
        <ele>137.2</ele>
        <time>2024-03-10T07:30:52Z</time>
      </trkpt>
      <trkpt lat="46.81499" lon="-0.356">
        <ele>137.2</ele>
        <time>2024-03-10T07:30:53Z</time>
      </trkpt>
      <trkpt lat="46.8149" lon="-0.35593">
        <ele>138.2</ele>
        <time>2024-03-10T07:30:58Z</time>
      </trkpt>
      <trkpt lat="46.81485" lon="-0.3559">
        <ele>138.4</ele>
        <time>2024-03-10T07:31:01Z</time>
      </trkpt>
      <trkpt lat="46.81474" lon="-0.35585">
        <ele>139.4</ele>
        <time>2024-03-10T07:31:07Z</time>
      </trkpt>
      <trkpt lat="46.81472" lon="-0.35584">
        <ele>139.6</ele>
        <time>2024-03-10T07:31:08Z</time>
      </trkpt>
      <trkpt lat="46.81453" lon="-0.3558">
        <ele>140</ele>
        <time>2024-03-10T07:31:16Z</time>
      </trkpt>
      <trkpt lat="46.81432" lon="-0.35575">
        <ele>140.4</ele>
        <time>2024-03-10T07:31:25Z</time>
      </trkpt>
      <trkpt lat="46.81417" lon="-0.35578">
        <ele>140.4</ele>
        <time>2024-03-10T07:31:31Z</time>
      </trkpt>
      <trkpt lat="46.81396" lon="-0.35584">
        <ele>139</ele>
        <time>2024-03-10T07:31:37Z</time>
      </trkpt>
      <trkpt lat="46.81387" lon="-0.35587">
        <ele>138.4</ele>
        <time>2024-03-10T07:31:39Z</time>
      </trkpt>
      <trkpt lat="46.81369" lon="-0.35593">
        <ele>137</ele>
        <time>2024-03-10T07:31:43Z</time>
      </trkpt>
      <trkpt lat="46.81359" lon="-0.35597">
        <ele>135.8</ele>
        <time>2024-03-10T07:31:45Z</time>
      </trkpt>
      <trkpt lat="46.81351" lon="-0.35601">
        <ele>134.4</ele>
        <time>2024-03-10T07:31:47Z</time>
      </trkpt>
      <trkpt lat="46.81342" lon="-0.35604">
        <ele>133.4</ele>
        <time>2024-03-10T07:31:49Z</time>
      </trkpt>
      <trkpt lat="46.81334" lon="-0.35604">
        <ele>132.6</ele>
        <time>2024-03-10T07:31:51Z</time>
      </trkpt>
      <trkpt lat="46.81327" lon="-0.35602">
        <ele>132.2</ele>
        <time>2024-03-10T07:31:53Z</time>
      </trkpt>
      <trkpt lat="46.81324" lon="-0.35601">
        <ele>132</ele>
        <time>2024-03-10T07:31:54Z</time>
      </trkpt>
      <trkpt lat="46.81302" lon="-0.356">
        <ele>132.2</ele>
        <time>2024-03-10T07:32:00Z</time>
      </trkpt>
      <trkpt lat="46.81284" lon="-0.3561">
        <ele>131.8</ele>
        <time>2024-03-10T07:32:06Z</time>
      </trkpt>
      <trkpt lat="46.8127" lon="-0.35619">
        <ele>131.6</ele>
        <time>2024-03-10T07:32:11Z</time>
      </trkpt>
      <trkpt lat="46.81247" lon="-0.35626">
        <ele>131.2</ele>
        <time>2024-03-10T07:32:18Z</time>
      </trkpt>
      <trkpt lat="46.81244" lon="-0.35626">
        <ele>131.2</ele>
        <time>2024-03-10T07:32:19Z</time>
      </trkpt>
      <trkpt lat="46.81228" lon="-0.3563">
        <ele>130.2</ele>
        <time>2024-03-10T07:32:24Z</time>
      </trkpt>
      <trkpt lat="46.81227" lon="-0.35628">
        <ele>130.2</ele>
        <time>2024-03-10T07:32:25Z</time>
      </trkpt>
      <trkpt lat="46.81224" lon="-0.35619">
        <ele>130</ele>
        <time>2024-03-10T07:32:27Z</time>
      </trkpt>
      <trkpt lat="46.81215" lon="-0.35581">
        <ele>130.4</ele>
        <time>2024-03-10T07:32:34Z</time>
      </trkpt>
      <trkpt lat="46.81205" lon="-0.35546">
        <ele>131.2</ele>
        <time>2024-03-10T07:32:40Z</time>
      </trkpt>
      <trkpt lat="46.81199" lon="-0.35529">
        <ele>131.4</ele>
        <time>2024-03-10T07:32:43Z</time>
      </trkpt>
      <trkpt lat="46.81183" lon="-0.35481">
        <ele>132</ele>
        <time>2024-03-10T07:32:51Z</time>
      </trkpt>
      <trkpt lat="46.81175" lon="-0.35463">
        <ele>132.2</ele>
        <time>2024-03-10T07:32:54Z</time>
      </trkpt>
      <trkpt lat="46.81161" lon="-0.35426">
        <ele>133.2</ele>
        <time>2024-03-10T07:33:00Z</time>
      </trkpt>
      <trkpt lat="46.81152" lon="-0.35402">
        <ele>133.2</ele>
        <time>2024-03-10T07:33:04Z</time>
      </trkpt>
      <trkpt lat="46.8115" lon="-0.35396">
        <ele>133.4</ele>
        <time>2024-03-10T07:33:05Z</time>
      </trkpt>
      <trkpt lat="46.81146" lon="-0.35392">
        <ele>133.4</ele>
        <time>2024-03-10T07:33:06Z</time>
      </trkpt>
      <trkpt lat="46.81138" lon="-0.35385">
        <ele>133.8</ele>
        <time>2024-03-10T07:33:08Z</time>
      </trkpt>
      <trkpt lat="46.81128" lon="-0.35382">
        <ele>134</ele>
        <time>2024-03-10T07:33:10Z</time>
      </trkpt>
      <trkpt lat="46.81096" lon="-0.35379">
        <ele>134</ele>
        <time>2024-03-10T07:33:16Z</time>
      </trkpt>
      <trkpt lat="46.81063" lon="-0.35392">
        <ele>134</ele>
        <time>2024-03-10T07:33:22Z</time>
      </trkpt>
      <trkpt lat="46.81042" lon="-0.35404">
        <ele>134.4</ele>
        <time>2024-03-10T07:33:26Z</time>
      </trkpt>
      <trkpt lat="46.81024" lon="-0.35413">
        <ele>134.6</ele>
        <time>2024-03-10T07:33:29Z</time>
      </trkpt>
      <trkpt lat="46.80971" lon="-0.35432">
        <ele>135</ele>
        <time>2024-03-10T07:33:38Z</time>
      </trkpt>
      <trkpt lat="46.80935" lon="-0.35445">
        <ele>135.4</ele>
        <time>2024-03-10T07:33:44Z</time>
      </trkpt>
      <trkpt lat="46.80916" lon="-0.35449">
        <ele>135.6</ele>
        <time>2024-03-10T07:33:47Z</time>
      </trkpt>
      <trkpt lat="46.80868" lon="-0.35461">
        <ele>136.2</ele>
        <time>2024-03-10T07:33:55Z</time>
      </trkpt>
      <trkpt lat="46.80857" lon="-0.35467">
        <ele>136.6</ele>
        <time>2024-03-10T07:33:57Z</time>
      </trkpt>
      <trkpt lat="46.80837" lon="-0.35483">
        <ele>137.2</ele>
        <time>2024-03-10T07:34:01Z</time>
      </trkpt>
      <trkpt lat="46.80818" lon="-0.355">
        <ele>137.6</ele>
        <time>2024-03-10T07:34:05Z</time>
      </trkpt>
      <trkpt lat="46.80804" lon="-0.3551">
        <ele>137.8</ele>
        <time>2024-03-10T07:34:08Z</time>
      </trkpt>
      <trkpt lat="46.80774" lon="-0.35522">
        <ele>138.8</ele>
        <time>2024-03-10T07:34:14Z</time>
      </trkpt>
      <trkpt lat="46.8076" lon="-0.35528">
        <ele>139.2</ele>
        <time>2024-03-10T07:34:17Z</time>
      </trkpt>
      <trkpt lat="46.80746" lon="-0.35534">
        <ele>139.8</ele>
        <time>2024-03-10T07:34:20Z</time>
      </trkpt>
      <trkpt lat="46.80719" lon="-0.35544">
        <ele>141</ele>
        <time>2024-03-10T07:34:26Z</time>
      </trkpt>
      <trkpt lat="46.80699" lon="-0.35553">
        <ele>142.2</ele>
        <time>2024-03-10T07:34:31Z</time>
      </trkpt>
      <trkpt lat="46.80687" lon="-0.35561">
        <ele>142.8</ele>
        <time>2024-03-10T07:34:34Z</time>
      </trkpt>
      <trkpt lat="46.80675" lon="-0.35569">
        <ele>143.4</ele>
        <time>2024-03-10T07:34:37Z</time>
      </trkpt>
      <trkpt lat="46.80662" lon="-0.35582">
        <ele>143.8</ele>
        <time>2024-03-10T07:34:41Z</time>
      </trkpt>
      <trkpt lat="46.80661" lon="-0.35586">
        <ele>144.4</ele>
        <time>2024-03-10T07:34:42Z</time>
      </trkpt>
      <trkpt lat="46.80662" lon="-0.35598">
        <ele>144.6</ele>
        <time>2024-03-10T07:34:44Z</time>
      </trkpt>
      <trkpt lat="46.80679" lon="-0.3563">
        <ele>145</ele>
        <time>2024-03-10T07:34:50Z</time>
      </trkpt>
      <trkpt lat="46.80688" lon="-0.35647">
        <ele>144.8</ele>
        <time>2024-03-10T07:34:53Z</time>
      </trkpt>
      <trkpt lat="46.80701" lon="-0.3567">
        <ele>144.4</ele>
        <time>2024-03-10T07:34:57Z</time>
      </trkpt>
      <trkpt lat="46.80713" lon="-0.35699">
        <ele>143.6</ele>
        <time>2024-03-10T07:35:01Z</time>
      </trkpt>
      <trkpt lat="46.80718" lon="-0.35717">
        <ele>143.2</ele>
        <time>2024-03-10T07:35:03Z</time>
      </trkpt>
      <trkpt lat="46.80723" lon="-0.35737">
        <ele>142.6</ele>
        <time>2024-03-10T07:35:05Z</time>
      </trkpt>
      <trkpt lat="46.80727" lon="-0.35758">
        <ele>141.8</ele>
        <time>2024-03-10T07:35:07Z</time>
      </trkpt>
      <trkpt lat="46.80728" lon="-0.35781">
        <ele>141</ele>
        <time>2024-03-10T07:35:09Z</time>
      </trkpt>
      <trkpt lat="46.80728" lon="-0.35814">
        <ele>139.8</ele>
        <time>2024-03-10T07:35:12Z</time>
      </trkpt>
      <trkpt lat="46.80727" lon="-0.35855">
        <ele>138.8</ele>
        <time>2024-03-10T07:35:16Z</time>
      </trkpt>
      <trkpt lat="46.8072" lon="-0.35898">
        <ele>138</ele>
        <time>2024-03-10T07:35:21Z</time>
      </trkpt>
      <trkpt lat="46.80715" lon="-0.35935">
        <ele>137.8</ele>
        <time>2024-03-10T07:35:26Z</time>
      </trkpt>
      <trkpt lat="46.80715" lon="-0.35942">
        <ele>137.6</ele>
        <time>2024-03-10T07:35:27Z</time>
      </trkpt>
      <trkpt lat="46.80712" lon="-0.35979">
        <ele>136.6</ele>
        <time>2024-03-10T07:35:33Z</time>
      </trkpt>
      <trkpt lat="46.80711" lon="-0.36012">
        <ele>135.4</ele>
        <time>2024-03-10T07:35:39Z</time>
      </trkpt>
      <trkpt lat="46.8071" lon="-0.36021">
        <ele>135</ele>
        <time>2024-03-10T07:35:42Z</time>
      </trkpt>
      <trkpt lat="46.80709" lon="-0.36022">
        <ele>134.8</ele>
        <time>2024-03-10T07:35:43Z</time>
      </trkpt>
      <trkpt lat="46.80708" lon="-0.3602">
        <ele>134.6</ele>
        <time>2024-03-10T07:35:45Z</time>
      </trkpt>
      <trkpt lat="46.80709" lon="-0.36016">
        <ele>134.4</ele>
        <time>2024-03-10T07:35:48Z</time>
      </trkpt>
      <trkpt lat="46.80708" lon="-0.36">
        <ele>134.6</ele>
        <time>2024-03-10T07:35:53Z</time>
      </trkpt>
      <trkpt lat="46.80711" lon="-0.35965">
        <ele>135.6</ele>
        <time>2024-03-10T07:36:00Z</time>
      </trkpt>
      <trkpt lat="46.80714" lon="-0.35935">
        <ele>136.6</ele>
        <time>2024-03-10T07:36:06Z</time>
      </trkpt>
      <trkpt lat="46.80715" lon="-0.3593">
        <ele>136.6</ele>
        <time>2024-03-10T07:36:07Z</time>
      </trkpt>
      <trkpt lat="46.80718" lon="-0.35901">
        <ele>137.2</ele>
        <time>2024-03-10T07:36:13Z</time>
      </trkpt>
      <trkpt lat="46.80722" lon="-0.35882">
        <ele>137.2</ele>
        <time>2024-03-10T07:36:19Z</time>
      </trkpt>
      <trkpt lat="46.80723" lon="-0.35878">
        <ele>138</ele>
        <time>2024-03-10T07:36:20Z</time>
      </trkpt>
      <trkpt lat="46.80725" lon="-0.35862">
        <ele>137.8</ele>
        <time>2024-03-10T07:36:25Z</time>
      </trkpt>
      <trkpt lat="46.80726" lon="-0.3586">
        <ele>137.6</ele>
        <time>2024-03-10T07:36:26Z</time>
      </trkpt>
      <trkpt lat="46.80728" lon="-0.35862">
        <ele>137.4</ele>
        <time>2024-03-10T07:36:28Z</time>
      </trkpt>
      <trkpt lat="46.80728" lon="-0.35865">
        <ele>137.4</ele>
        <time>2024-03-10T07:36:30Z</time>
      </trkpt>
      <trkpt lat="46.80726" lon="-0.35868">
        <ele>137.4</ele>
        <time>2024-03-10T07:36:32Z</time>
      </trkpt>
      <trkpt lat="46.80721" lon="-0.35884">
        <ele>138</ele>
        <time>2024-03-10T07:36:37Z</time>
      </trkpt>
      <trkpt lat="46.80716" lon="-0.35919">
        <ele>138</ele>
        <time>2024-03-10T07:36:44Z</time>
      </trkpt>
      <trkpt lat="46.80712" lon="-0.35961">
        <ele>137.2</ele>
        <time>2024-03-10T07:36:52Z</time>
      </trkpt>
      <trkpt lat="46.8071" lon="-0.35981">
        <ele>137</ele>
        <time>2024-03-10T07:36:55Z</time>
      </trkpt>
      <trkpt lat="46.80709" lon="-0.35995">
        <ele>137</ele>
        <time>2024-03-10T07:36:57Z</time>
      </trkpt>
      <trkpt lat="46.80708" lon="-0.36043">
        <ele>135.8</ele>
        <time>2024-03-10T07:37:03Z</time>
      </trkpt>
      <trkpt lat="46.80709" lon="-0.3606">
        <ele>135.2</ele>
        <time>2024-03-10T07:37:05Z</time>
      </trkpt>
      <trkpt lat="46.80709" lon="-0.36069">
        <ele>135</ele>
        <time>2024-03-10T07:37:06Z</time>
      </trkpt>
      <trkpt lat="46.80708" lon="-0.36078">
        <ele>134.8</ele>
        <time>2024-03-10T07:37:07Z</time>
      </trkpt>
      <trkpt lat="46.80705" lon="-0.36096">
        <ele>134.4</ele>
        <time>2024-03-10T07:37:09Z</time>
      </trkpt>
      <trkpt lat="46.80702" lon="-0.36106">
        <ele>133.4</ele>
        <time>2024-03-10T07:37:10Z</time>
      </trkpt>
      <trkpt lat="46.80698" lon="-0.36126">
        <ele>132.4</ele>
        <time>2024-03-10T07:37:12Z</time>
      </trkpt>
      <trkpt lat="46.80691" lon="-0.36156">
        <ele>131.4</ele>
        <time>2024-03-10T07:37:15Z</time>
      </trkpt>
      <trkpt lat="46.80688" lon="-0.36167">
        <ele>130.8</ele>
        <time>2024-03-10T07:37:16Z</time>
      </trkpt>
      <trkpt lat="46.80686" lon="-0.36177">
        <ele>130.4</ele>
        <time>2024-03-10T07:37:17Z</time>
      </trkpt>
      <trkpt lat="46.80682" lon="-0.36198">
        <ele>128.4</ele>
        <time>2024-03-10T07:37:19Z</time>
      </trkpt>
      <trkpt lat="46.80677" lon="-0.36217">
        <ele>127.4</ele>
        <time>2024-03-10T07:37:21Z</time>
      </trkpt>
      <trkpt lat="46.80674" lon="-0.36226">
        <ele>126.4</ele>
        <time>2024-03-10T07:37:22Z</time>
      </trkpt>
      <trkpt lat="46.80672" lon="-0.36234">
        <ele>125.6</ele>
        <time>2024-03-10T07:37:23Z</time>
      </trkpt>
      <trkpt lat="46.80668" lon="-0.36246">
        <ele>124.2</ele>
        <time>2024-03-10T07:37:25Z</time>
      </trkpt>
      <trkpt lat="46.80668" lon="-0.36251">
        <ele>123.2</ele>
        <time>2024-03-10T07:37:26Z</time>
      </trkpt>
      <trkpt lat="46.80668" lon="-0.36256">
        <ele>122.6</ele>
        <time>2024-03-10T07:37:27Z</time>
      </trkpt>
      <trkpt lat="46.8067" lon="-0.36262">
        <ele>121.8</ele>
        <time>2024-03-10T07:37:29Z</time>
      </trkpt>
      <trkpt lat="46.8067" lon="-0.36265">
        <ele>121.4</ele>
        <time>2024-03-10T07:37:30Z</time>
      </trkpt>
      <trkpt lat="46.80668" lon="-0.36272">
        <ele>121.4</ele>
        <time>2024-03-10T07:37:34Z</time>
      </trkpt>
      <trkpt lat="46.80664" lon="-0.36295">
        <ele>121.4</ele>
        <time>2024-03-10T07:37:40Z</time>
      </trkpt>
      <trkpt lat="46.80671" lon="-0.36302">
        <ele>121</ele>
        <time>2024-03-10T07:37:44Z</time>
      </trkpt>
      <trkpt lat="46.80682" lon="-0.36319">
        <ele>121.6</ele>
        <time>2024-03-10T07:37:50Z</time>
      </trkpt>
      <trkpt lat="46.80691" lon="-0.36332">
        <ele>122.6</ele>
        <time>2024-03-10T07:37:54Z</time>
      </trkpt>
      <trkpt lat="46.80699" lon="-0.36341">
        <ele>123.4</ele>
        <time>2024-03-10T07:37:57Z</time>
      </trkpt>
      <trkpt lat="46.80702" lon="-0.36344">
        <ele>124</ele>
        <time>2024-03-10T07:37:58Z</time>
      </trkpt>
      <trkpt lat="46.80716" lon="-0.36358">
        <ele>125.2</ele>
        <time>2024-03-10T07:38:02Z</time>
      </trkpt>
      <trkpt lat="46.80723" lon="-0.36363">
        <ele>125.8</ele>
        <time>2024-03-10T07:38:04Z</time>
      </trkpt>
      <trkpt lat="46.80734" lon="-0.36373">
        <ele>126.6</ele>
        <time>2024-03-10T07:38:07Z</time>
      </trkpt>
      <trkpt lat="46.80751" lon="-0.36387">
        <ele>127.4</ele>
        <time>2024-03-10T07:38:11Z</time>
      </trkpt>
      <trkpt lat="46.80756" lon="-0.3639">
        <ele>127.6</ele>
        <time>2024-03-10T07:38:12Z</time>
      </trkpt>
      <trkpt lat="46.80762" lon="-0.36397">
        <ele>127.8</ele>
        <time>2024-03-10T07:38:14Z</time>
      </trkpt>
      <trkpt lat="46.80765" lon="-0.36402">
        <ele>128.2</ele>
        <time>2024-03-10T07:38:15Z</time>
      </trkpt>
      <trkpt lat="46.80767" lon="-0.36407">
        <ele>128.8</ele>
        <time>2024-03-10T07:38:16Z</time>
      </trkpt>
      <trkpt lat="46.80771" lon="-0.36428">
        <ele>130.6</ele>
        <time>2024-03-10T07:38:20Z</time>
      </trkpt>
      <trkpt lat="46.80772" lon="-0.36445">
        <ele>131.8</ele>
        <time>2024-03-10T07:38:23Z</time>
      </trkpt>
      <trkpt lat="46.80772" lon="-0.36455">
        <ele>133</ele>
        <time>2024-03-10T07:38:25Z</time>
      </trkpt>
      <trkpt lat="46.80773" lon="-0.36469">
        <ele>134.2</ele>
        <time>2024-03-10T07:38:28Z</time>
      </trkpt>
      <trkpt lat="46.80773" lon="-0.36474">
        <ele>134.2</ele>
        <time>2024-03-10T07:38:29Z</time>
      </trkpt>
      <trkpt lat="46.80774" lon="-0.36507">
        <ele>135.2</ele>
        <time>2024-03-10T07:38:36Z</time>
      </trkpt>
      <trkpt lat="46.80776" lon="-0.36539">
        <ele>136</ele>
        <time>2024-03-10T07:38:42Z</time>
      </trkpt>
      <trkpt lat="46.80789" lon="-0.36571">
        <ele>136.2</ele>
        <time>2024-03-10T07:38:48Z</time>
      </trkpt>
      <trkpt lat="46.80801" lon="-0.36592">
        <ele>136.4</ele>
        <time>2024-03-10T07:38:52Z</time>
      </trkpt>
      <trkpt lat="46.80806" lon="-0.36603">
        <ele>136.6</ele>
        <time>2024-03-10T07:38:54Z</time>
      </trkpt>
      <trkpt lat="46.80821" lon="-0.36646">
        <ele>137.2</ele>
        <time>2024-03-10T07:39:01Z</time>
      </trkpt>
      <trkpt lat="46.80824" lon="-0.36658">
        <ele>137.4</ele>
        <time>2024-03-10T07:39:03Z</time>
      </trkpt>
      <trkpt lat="46.80828" lon="-0.36681">
        <ele>138.8</ele>
        <time>2024-03-10T07:39:07Z</time>
      </trkpt>
      <trkpt lat="46.80829" lon="-0.36687">
        <ele>139.2</ele>
        <time>2024-03-10T07:39:08Z</time>
      </trkpt>
      <trkpt lat="46.80834" lon="-0.3671">
        <ele>140</ele>
        <time>2024-03-10T07:39:12Z</time>
      </trkpt>
      <trkpt lat="46.8084" lon="-0.36732">
        <ele>140.6</ele>
        <time>2024-03-10T07:39:16Z</time>
      </trkpt>
      <trkpt lat="46.80844" lon="-0.36745">
        <ele>141.2</ele>
        <time>2024-03-10T07:39:19Z</time>
      </trkpt>
      <trkpt lat="46.80849" lon="-0.36757">
        <ele>142.4</ele>
        <time>2024-03-10T07:39:22Z</time>
      </trkpt>
      <trkpt lat="46.80852" lon="-0.36764">
        <ele>143</ele>
        <time>2024-03-10T07:39:24Z</time>
      </trkpt>
      <trkpt lat="46.80855" lon="-0.36771">
        <ele>143.4</ele>
        <time>2024-03-10T07:39:26Z</time>
      </trkpt>
      <trkpt lat="46.80865" lon="-0.36789">
        <ele>144</ele>
        <time>2024-03-10T07:39:31Z</time>
      </trkpt>
      <trkpt lat="46.80872" lon="-0.36798">
        <ele>143.8</ele>
        <time>2024-03-10T07:39:33Z</time>
      </trkpt>
      <trkpt lat="46.80881" lon="-0.36806">
        <ele>143.4</ele>
        <time>2024-03-10T07:39:35Z</time>
      </trkpt>
      <trkpt lat="46.80887" lon="-0.3681">
        <ele>143.2</ele>
        <time>2024-03-10T07:39:36Z</time>
      </trkpt>
      <trkpt lat="46.809" lon="-0.36816">
        <ele>142.4</ele>
        <time>2024-03-10T07:39:38Z</time>
      </trkpt>
      <trkpt lat="46.80922" lon="-0.36824">
        <ele>141.2</ele>
        <time>2024-03-10T07:39:41Z</time>
      </trkpt>
      <trkpt lat="46.80937" lon="-0.36828">
        <ele>140</ele>
        <time>2024-03-10T07:39:43Z</time>
      </trkpt>
      <trkpt lat="46.80968" lon="-0.36837">
        <ele>138.6</ele>
        <time>2024-03-10T07:39:47Z</time>
      </trkpt>
      <trkpt lat="46.80976" lon="-0.36841">
        <ele>138.2</ele>
        <time>2024-03-10T07:39:48Z</time>
      </trkpt>
      <trkpt lat="46.80984" lon="-0.36846">
        <ele>137.4</ele>
        <time>2024-03-10T07:39:49Z</time>
      </trkpt>
      <trkpt lat="46.81007" lon="-0.36863">
        <ele>136</ele>
        <time>2024-03-10T07:39:52Z</time>
      </trkpt>
      <trkpt lat="46.81014" lon="-0.36869">
        <ele>135.8</ele>
        <time>2024-03-10T07:39:53Z</time>
      </trkpt>
      <trkpt lat="46.81028" lon="-0.36882">
        <ele>135</ele>
        <time>2024-03-10T07:39:55Z</time>
      </trkpt>
      <trkpt lat="46.81062" lon="-0.3691">
        <ele>133.8</ele>
        <time>2024-03-10T07:40:00Z</time>
      </trkpt>
      <trkpt lat="46.81105" lon="-0.36939">
        <ele>132.6</ele>
        <time>2024-03-10T07:40:07Z</time>
      </trkpt>
      <trkpt lat="46.81142" lon="-0.36966">
        <ele>132.2</ele>
        <time>2024-03-10T07:40:13Z</time>
      </trkpt>
      <trkpt lat="46.81189" lon="-0.3702">
        <ele>132.8</ele>
        <time>2024-03-10T07:40:22Z</time>
      </trkpt>
      <trkpt lat="46.81221" lon="-0.37066">
        <ele>133.6</ele>
        <time>2024-03-10T07:40:29Z</time>
      </trkpt>
      <trkpt lat="46.81232" lon="-0.37084">
        <ele>134.8</ele>
        <time>2024-03-10T07:40:32Z</time>
      </trkpt>
      <trkpt lat="46.81234" lon="-0.37089">
        <ele>135.2</ele>
        <time>2024-03-10T07:40:33Z</time>
      </trkpt>
      <trkpt lat="46.81236" lon="-0.37094">
        <ele>135.6</ele>
        <time>2024-03-10T07:40:34Z</time>
      </trkpt>
      <trkpt lat="46.81237" lon="-0.37099">
        <ele>135.8</ele>
        <time>2024-03-10T07:40:35Z</time>
      </trkpt>
      <trkpt lat="46.81234" lon="-0.37109">
        <ele>135.8</ele>
        <time>2024-03-10T07:40:37Z</time>
      </trkpt>
      <trkpt lat="46.81232" lon="-0.37115">
        <ele>136.2</ele>
        <time>2024-03-10T07:40:38Z</time>
      </trkpt>
      <trkpt lat="46.81219" lon="-0.37141">
        <ele>137.4</ele>
        <time>2024-03-10T07:40:43Z</time>
      </trkpt>
      <trkpt lat="46.81216" lon="-0.37147">
        <ele>137.6</ele>
        <time>2024-03-10T07:40:44Z</time>
      </trkpt>
      <trkpt lat="46.81207" lon="-0.37161">
        <ele>138.4</ele>
        <time>2024-03-10T07:40:47Z</time>
      </trkpt>
      <trkpt lat="46.81187" lon="-0.37189">
        <ele>139.4</ele>
        <time>2024-03-10T07:40:53Z</time>
      </trkpt>
      <trkpt lat="46.81155" lon="-0.37219">
        <ele>139.8</ele>
        <time>2024-03-10T07:41:01Z</time>
      </trkpt>
      <trkpt lat="46.81118" lon="-0.37235">
        <ele>139</ele>
        <time>2024-03-10T07:41:08Z</time>
      </trkpt>
      <trkpt lat="46.81101" lon="-0.37238">
        <ele>138.2</ele>
        <time>2024-03-10T07:41:11Z</time>
      </trkpt>
      <trkpt lat="46.81081" lon="-0.37238">
        <ele>137.4</ele>
        <time>2024-03-10T07:41:14Z</time>
      </trkpt>
      <trkpt lat="46.81066" lon="-0.37237">
        <ele>137</ele>
        <time>2024-03-10T07:41:16Z</time>
      </trkpt>
      <trkpt lat="46.81044" lon="-0.37236">
        <ele>136</ele>
        <time>2024-03-10T07:41:19Z</time>
      </trkpt>
      <trkpt lat="46.81038" lon="-0.37237">
        <ele>135.8</ele>
        <time>2024-03-10T07:41:20Z</time>
      </trkpt>
      <trkpt lat="46.8102" lon="-0.37239">
        <ele>135.2</ele>
        <time>2024-03-10T07:41:23Z</time>
      </trkpt>
      <trkpt lat="46.81008" lon="-0.37243">
        <ele>135</ele>
        <time>2024-03-10T07:41:25Z</time>
      </trkpt>
      <trkpt lat="46.80977" lon="-0.3726">
        <ele>134.8</ele>
        <time>2024-03-10T07:41:31Z</time>
      </trkpt>
      <trkpt lat="46.80936" lon="-0.37286">
        <ele>136</ele>
        <time>2024-03-10T07:41:38Z</time>
      </trkpt>
      <trkpt lat="46.80931" lon="-0.37289">
        <ele>136</ele>
        <time>2024-03-10T07:41:39Z</time>
      </trkpt>
      <trkpt lat="46.809" lon="-0.3731">
        <ele>136.8</ele>
        <time>2024-03-10T07:41:45Z</time>
      </trkpt>
      <trkpt lat="46.80896" lon="-0.37313">
        <ele>137.2</ele>
        <time>2024-03-10T07:41:46Z</time>
      </trkpt>
      <trkpt lat="46.80873" lon="-0.37328">
        <ele>138.2</ele>
        <time>2024-03-10T07:41:51Z</time>
      </trkpt>
      <trkpt lat="46.80847" lon="-0.37345">
        <ele>139.4</ele>
        <time>2024-03-10T07:41:57Z</time>
      </trkpt>
      <trkpt lat="46.80842" lon="-0.37348">
        <ele>139.6</ele>
        <time>2024-03-10T07:41:58Z</time>
      </trkpt>
      <trkpt lat="46.80829" lon="-0.37356">
        <ele>140.4</ele>
        <time>2024-03-10T07:42:01Z</time>
      </trkpt>
      <trkpt lat="46.80817" lon="-0.37363">
        <ele>141.8</ele>
        <time>2024-03-10T07:42:04Z</time>
      </trkpt>
      <trkpt lat="46.80808" lon="-0.37367">
        <ele>142.2</ele>
        <time>2024-03-10T07:42:06Z</time>
      </trkpt>
      <trkpt lat="46.80799" lon="-0.37371">
        <ele>142.8</ele>
        <time>2024-03-10T07:42:08Z</time>
      </trkpt>
      <trkpt lat="46.80778" lon="-0.37379">
        <ele>144</ele>
        <time>2024-03-10T07:42:13Z</time>
      </trkpt>
      <trkpt lat="46.80769" lon="-0.37382">
        <ele>144.4</ele>
        <time>2024-03-10T07:42:15Z</time>
      </trkpt>
      <trkpt lat="46.80757" lon="-0.37386">
        <ele>145</ele>
        <time>2024-03-10T07:42:18Z</time>
      </trkpt>
      <trkpt lat="46.80736" lon="-0.37392">
        <ele>145.8</ele>
        <time>2024-03-10T07:42:23Z</time>
      </trkpt>
      <trkpt lat="46.80727" lon="-0.37394">
        <ele>146.2</ele>
        <time>2024-03-10T07:42:25Z</time>
      </trkpt>
      <trkpt lat="46.80702" lon="-0.37398">
        <ele>147.4</ele>
        <time>2024-03-10T07:42:31Z</time>
      </trkpt>
      <trkpt lat="46.80698" lon="-0.37399">
        <ele>147.4</ele>
        <time>2024-03-10T07:42:32Z</time>
      </trkpt>
      <trkpt lat="46.80655" lon="-0.37406">
        <ele>147.6</ele>
        <time>2024-03-10T07:42:41Z</time>
      </trkpt>
      <trkpt lat="46.80614" lon="-0.37412">
        <ele>146.8</ele>
        <time>2024-03-10T07:42:49Z</time>
      </trkpt>
      <trkpt lat="46.80592" lon="-0.37415">
        <ele>146.2</ele>
        <time>2024-03-10T07:42:53Z</time>
      </trkpt>
      <trkpt lat="46.80565" lon="-0.37421">
        <ele>145.6</ele>
        <time>2024-03-10T07:42:58Z</time>
      </trkpt>
      <trkpt lat="46.8053" lon="-0.37429">
        <ele>145</ele>
        <time>2024-03-10T07:43:04Z</time>
      </trkpt>
      <trkpt lat="46.80518" lon="-0.37431">
        <ele>144.6</ele>
        <time>2024-03-10T07:43:06Z</time>
      </trkpt>
      <trkpt lat="46.805" lon="-0.37434">
        <ele>144</ele>
        <time>2024-03-10T07:43:09Z</time>
      </trkpt>
      <trkpt lat="46.80489" lon="-0.37438">
        <ele>143.6</ele>
        <time>2024-03-10T07:43:11Z</time>
      </trkpt>
      <trkpt lat="46.80478" lon="-0.37444">
        <ele>143.2</ele>
        <time>2024-03-10T07:43:13Z</time>
      </trkpt>
      <trkpt lat="46.80473" lon="-0.37448">
        <ele>143</ele>
        <time>2024-03-10T07:43:14Z</time>
      </trkpt>
      <trkpt lat="46.8045" lon="-0.37468">
        <ele>142.2</ele>
        <time>2024-03-10T07:43:19Z</time>
      </trkpt>
      <trkpt lat="46.80445" lon="-0.37472">
        <ele>142</ele>
        <time>2024-03-10T07:43:21Z</time>
      </trkpt>
      <trkpt lat="46.80441" lon="-0.37477">
        <ele>141.6</ele>
        <time>2024-03-10T07:43:23Z</time>
      </trkpt>
      <trkpt lat="46.80425" lon="-0.37486">
        <ele>141.4</ele>
        <time>2024-03-10T07:43:27Z</time>
      </trkpt>
      <trkpt lat="46.80399" lon="-0.37507">
        <ele>140.8</ele>
        <time>2024-03-10T07:43:32Z</time>
      </trkpt>
      <trkpt lat="46.80394" lon="-0.37512">
        <ele>140.8</ele>
        <time>2024-03-10T07:43:33Z</time>
      </trkpt>
      <trkpt lat="46.80367" lon="-0.37549">
        <ele>140.6</ele>
        <time>2024-03-10T07:43:39Z</time>
      </trkpt>
      <trkpt lat="46.80325" lon="-0.37611">
        <ele>140</ele>
        <time>2024-03-10T07:43:48Z</time>
      </trkpt>
      <trkpt lat="46.80315" lon="-0.37624">
        <ele>139.8</ele>
        <time>2024-03-10T07:43:50Z</time>
      </trkpt>
      <trkpt lat="46.80288" lon="-0.37666">
        <ele>139.4</ele>
        <time>2024-03-10T07:43:56Z</time>
      </trkpt>
      <trkpt lat="46.80271" lon="-0.37706">
        <ele>138.8</ele>
        <time>2024-03-10T07:44:01Z</time>
      </trkpt>
      <trkpt lat="46.8027" lon="-0.37714">
        <ele>138.6</ele>
        <time>2024-03-10T07:44:02Z</time>
      </trkpt>
      <trkpt lat="46.80268" lon="-0.37725">
        <ele>138.2</ele>
        <time>2024-03-10T07:44:04Z</time>
      </trkpt>
      <trkpt lat="46.80267" lon="-0.37728">
        <ele>138.2</ele>
        <time>2024-03-10T07:44:05Z</time>
      </trkpt>
      <trkpt lat="46.80266" lon="-0.37729">
        <ele>138.2</ele>
        <time>2024-03-10T07:44:06Z</time>
      </trkpt>
      <trkpt lat="46.80262" lon="-0.37728">
        <ele>138</ele>
        <time>2024-03-10T07:44:09Z</time>
      </trkpt>
      <trkpt lat="46.80253" lon="-0.37723">
        <ele>137.6</ele>
        <time>2024-03-10T07:44:16Z</time>
      </trkpt>
      <trkpt lat="46.80239" lon="-0.37721">
        <ele>137.6</ele>
        <time>2024-03-10T07:44:24Z</time>
      </trkpt>
      <trkpt lat="46.80237" lon="-0.37721">
        <ele>137.6</ele>
        <time>2024-03-10T07:44:25Z</time>
      </trkpt>
      <trkpt lat="46.80221" lon="-0.37715">
        <ele>137.8</ele>
        <time>2024-03-10T07:44:30Z</time>
      </trkpt>
      <trkpt lat="46.802" lon="-0.37711">
        <ele>137.8</ele>
        <time>2024-03-10T07:44:36Z</time>
      </trkpt>
      <trkpt lat="46.80178" lon="-0.37714">
        <ele>136.8</ele>
        <time>2024-03-10T07:44:42Z</time>
      </trkpt>
      <trkpt lat="46.80171" lon="-0.37714">
        <ele>136.4</ele>
        <time>2024-03-10T07:44:45Z</time>
      </trkpt>
      <trkpt lat="46.80164" lon="-0.37715">
        <ele>136.2</ele>
        <time>2024-03-10T07:44:48Z</time>
      </trkpt>
      <trkpt lat="46.80141" lon="-0.3772">
        <ele>135.6</ele>
        <time>2024-03-10T07:44:56Z</time>
      </trkpt>
      <trkpt lat="46.80119" lon="-0.37724">
        <ele>135.8</ele>
        <time>2024-03-10T07:45:03Z</time>
      </trkpt>
      <trkpt lat="46.80111" lon="-0.37726">
        <ele>135.4</ele>
        <time>2024-03-10T07:45:07Z</time>
      </trkpt>
      <trkpt lat="46.80109" lon="-0.37727">
        <ele>135.4</ele>
        <time>2024-03-10T07:45:08Z</time>
      </trkpt>
      <trkpt lat="46.80097" lon="-0.37731">
        <ele>135.2</ele>
        <time>2024-03-10T07:45:14Z</time>
      </trkpt>
      <trkpt lat="46.80082" lon="-0.37736">
        <ele>135</ele>
        <time>2024-03-10T07:45:20Z</time>
      </trkpt>
      <trkpt lat="46.8007" lon="-0.37741">
        <ele>134.8</ele>
        <time>2024-03-10T07:45:27Z</time>
      </trkpt>
      <trkpt lat="46.80058" lon="-0.37748">
        <ele>134.8</ele>
        <time>2024-03-10T07:45:35Z</time>
      </trkpt>
      <trkpt lat="46.80049" lon="-0.37759">
        <ele>135</ele>
        <time>2024-03-10T07:45:41Z</time>
      </trkpt>
      <trkpt lat="46.80033" lon="-0.37772">
        <ele>135</ele>
        <time>2024-03-10T07:45:51Z</time>
      </trkpt>
      <trkpt lat="46.8002" lon="-0.37782">
        <ele>135</ele>
        <time>2024-03-10T07:45:58Z</time>
      </trkpt>
      <trkpt lat="46.80009" lon="-0.37791">
        <ele>135.2</ele>
        <time>2024-03-10T07:46:05Z</time>
      </trkpt>
      <trkpt lat="46.79998" lon="-0.378">
        <ele>135</ele>
        <time>2024-03-10T07:46:11Z</time>
      </trkpt>
      <trkpt lat="46.79985" lon="-0.37811">
        <ele>135.4</ele>
        <time>2024-03-10T07:46:18Z</time>
      </trkpt>
      <trkpt lat="46.79974" lon="-0.37825">
        <ele>135.6</ele>
        <time>2024-03-10T07:46:24Z</time>
      </trkpt>
      <trkpt lat="46.79957" lon="-0.37837">
        <ele>136.2</ele>
        <time>2024-03-10T07:46:31Z</time>
      </trkpt>
      <trkpt lat="46.7995" lon="-0.37843">
        <ele>136.4</ele>
        <time>2024-03-10T07:46:34Z</time>
      </trkpt>
      <trkpt lat="46.79937" lon="-0.37855">
        <ele>136.6</ele>
        <time>2024-03-10T07:46:39Z</time>
      </trkpt>
      <trkpt lat="46.79919" lon="-0.3787">
        <ele>137</ele>
        <time>2024-03-10T07:46:45Z</time>
      </trkpt>
      <trkpt lat="46.79904" lon="-0.37882">
        <ele>137.6</ele>
        <time>2024-03-10T07:46:50Z</time>
      </trkpt>
      <trkpt lat="46.79897" lon="-0.37888">
        <ele>137.2</ele>
        <time>2024-03-10T07:46:52Z</time>
      </trkpt>
      <trkpt lat="46.79871" lon="-0.37908">
        <ele>137.6</ele>
        <time>2024-03-10T07:46:59Z</time>
      </trkpt>
      <trkpt lat="46.79858" lon="-0.37913">
        <ele>137.4</ele>
        <time>2024-03-10T07:47:02Z</time>
      </trkpt>
      <trkpt lat="46.79848" lon="-0.37916">
        <ele>137.2</ele>
        <time>2024-03-10T07:47:04Z</time>
      </trkpt>
      <trkpt lat="46.79838" lon="-0.37919">
        <ele>136.4</ele>
        <time>2024-03-10T07:47:06Z</time>
      </trkpt>
      <trkpt lat="46.79828" lon="-0.37922">
        <ele>135.4</ele>
        <time>2024-03-10T07:47:09Z</time>
      </trkpt>
      <trkpt lat="46.79825" lon="-0.37923">
        <ele>135.2</ele>
        <time>2024-03-10T07:47:10Z</time>
      </trkpt>
      <trkpt lat="46.79816" lon="-0.37925">
        <ele>134</ele>
        <time>2024-03-10T07:47:14Z</time>
      </trkpt>
      <trkpt lat="46.79814" lon="-0.37926">
        <ele>133.6</ele>
        <time>2024-03-10T07:47:16Z</time>
      </trkpt>
      <trkpt lat="46.79812" lon="-0.37927">
        <ele>133.4</ele>
        <time>2024-03-10T07:47:18Z</time>
      </trkpt>
      <trkpt lat="46.79804" lon="-0.37929">
        <ele>133.2</ele>
        <time>2024-03-10T07:47:23Z</time>
      </trkpt>
      <trkpt lat="46.79792" lon="-0.37932">
        <ele>132.8</ele>
        <time>2024-03-10T07:47:28Z</time>
      </trkpt>
      <trkpt lat="46.79787" lon="-0.37933">
        <ele>132.6</ele>
        <time>2024-03-10T07:47:30Z</time>
      </trkpt>
      <trkpt lat="46.79774" lon="-0.37936">
        <ele>131.8</ele>
        <time>2024-03-10T07:47:36Z</time>
      </trkpt>
      <trkpt lat="46.7977" lon="-0.37936">
        <ele>131.6</ele>
        <time>2024-03-10T07:47:38Z</time>
      </trkpt>
      <trkpt lat="46.79759" lon="-0.3794">
        <ele>131.4</ele>
        <time>2024-03-10T07:47:46Z</time>
      </trkpt>
      <trkpt lat="46.79756" lon="-0.37941">
        <ele>131</ele>
        <time>2024-03-10T07:47:49Z</time>
      </trkpt>
      <trkpt lat="46.79753" lon="-0.37942">
        <ele>130.6</ele>
        <time>2024-03-10T07:47:54Z</time>
      </trkpt>
      <trkpt lat="46.79742" lon="-0.37941">
        <ele>130.6</ele>
        <time>2024-03-10T07:48:00Z</time>
      </trkpt>
      <trkpt lat="46.79729" lon="-0.37943">
        <ele>130.6</ele>
        <time>2024-03-10T07:48:07Z</time>
      </trkpt>
      <trkpt lat="46.79716" lon="-0.37945">
        <ele>131</ele>
        <time>2024-03-10T07:48:15Z</time>
      </trkpt>
      <trkpt lat="46.79699" lon="-0.3795">
        <ele>131</ele>
        <time>2024-03-10T07:48:23Z</time>
      </trkpt>
      <trkpt lat="46.79683" lon="-0.37953">
        <ele>131.2</ele>
        <time>2024-03-10T07:48:30Z</time>
      </trkpt>
      <trkpt lat="46.79672" lon="-0.37953">
        <ele>131.4</ele>
        <time>2024-03-10T07:48:36Z</time>
      </trkpt>
      <trkpt lat="46.79667" lon="-0.37953">
        <ele>131.4</ele>
        <time>2024-03-10T07:48:40Z</time>
      </trkpt>
      <trkpt lat="46.79661" lon="-0.37956">
        <ele>131.4</ele>
        <time>2024-03-10T07:48:44Z</time>
      </trkpt>
      <trkpt lat="46.7966" lon="-0.37958">
        <ele>131.6</ele>
        <time>2024-03-10T07:48:46Z</time>
      </trkpt>
      <trkpt lat="46.79658" lon="-0.37964">
        <ele>131.8</ele>
        <time>2024-03-10T07:48:50Z</time>
      </trkpt>
      <trkpt lat="46.79657" lon="-0.37965">
        <ele>131.6</ele>
        <time>2024-03-10T07:48:51Z</time>
      </trkpt>
      <trkpt lat="46.79657" lon="-0.37977">
        <ele>131.4</ele>
        <time>2024-03-10T07:48:57Z</time>
      </trkpt>
      <trkpt lat="46.79656" lon="-0.37995">
        <ele>131.6</ele>
        <time>2024-03-10T07:49:04Z</time>
      </trkpt>
      <trkpt lat="46.79655" lon="-0.38009">
        <ele>131.8</ele>
        <time>2024-03-10T07:49:10Z</time>
      </trkpt>
      <trkpt lat="46.79656" lon="-0.38023">
        <ele>131.6</ele>
        <time>2024-03-10T07:49:16Z</time>
      </trkpt>
      <trkpt lat="46.79656" lon="-0.38046">
        <ele>132</ele>
        <time>2024-03-10T07:49:24Z</time>
      </trkpt>
      <trkpt lat="46.79655" lon="-0.38075">
        <ele>132.4</ele>
        <time>2024-03-10T07:49:33Z</time>
      </trkpt>
      <trkpt lat="46.79655" lon="-0.3808">
        <ele>132.6</ele>
        <time>2024-03-10T07:49:35Z</time>
      </trkpt>
      <trkpt lat="46.79656" lon="-0.38086">
        <ele>132.8</ele>
        <time>2024-03-10T07:49:38Z</time>
      </trkpt>
      <trkpt lat="46.79656" lon="-0.38089">
        <ele>132.8</ele>
        <time>2024-03-10T07:49:39Z</time>
      </trkpt>
      <trkpt lat="46.79656" lon="-0.38119">
        <ele>133.2</ele>
        <time>2024-03-10T07:49:47Z</time>
      </trkpt>
      <trkpt lat="46.79658" lon="-0.38143">
        <ele>133.4</ele>
        <time>2024-03-10T07:49:54Z</time>
      </trkpt>
      <trkpt lat="46.79657" lon="-0.38176">
        <ele>133.6</ele>
        <time>2024-03-10T07:50:03Z</time>
      </trkpt>
      <trkpt lat="46.79655" lon="-0.38181">
        <ele>133.6</ele>
        <time>2024-03-10T07:50:05Z</time>
      </trkpt>
      <trkpt lat="46.79647" lon="-0.38203">
        <ele>134</ele>
        <time>2024-03-10T07:50:12Z</time>
      </trkpt>
      <trkpt lat="46.7964" lon="-0.38225">
        <ele>134.6</ele>
        <time>2024-03-10T07:50:17Z</time>
      </trkpt>
      <trkpt lat="46.79635" lon="-0.38239">
        <ele>135</ele>
        <time>2024-03-10T07:50:20Z</time>
      </trkpt>
      <trkpt lat="46.79624" lon="-0.38271">
        <ele>135.4</ele>
        <time>2024-03-10T07:50:28Z</time>
      </trkpt>
      <trkpt lat="46.79618" lon="-0.38287">
        <ele>135.8</ele>
        <time>2024-03-10T07:50:32Z</time>
      </trkpt>
      <trkpt lat="46.79611" lon="-0.38306">
        <ele>136.4</ele>
        <time>2024-03-10T07:50:37Z</time>
      </trkpt>
      <trkpt lat="46.79607" lon="-0.38317">
        <ele>136.4</ele>
        <time>2024-03-10T07:50:40Z</time>
      </trkpt>
      <trkpt lat="46.79604" lon="-0.38324">
        <ele>136.8</ele>
        <time>2024-03-10T07:50:42Z</time>
      </trkpt>
      <trkpt lat="46.79601" lon="-0.38332">
        <ele>137</ele>
        <time>2024-03-10T07:50:44Z</time>
      </trkpt>
      <trkpt lat="46.79594" lon="-0.38346">
        <ele>137.8</ele>
        <time>2024-03-10T07:50:48Z</time>
      </trkpt>
      <trkpt lat="46.79587" lon="-0.38361">
        <ele>138.4</ele>
        <time>2024-03-10T07:50:52Z</time>
      </trkpt>
      <trkpt lat="46.79578" lon="-0.38377">
        <ele>138.8</ele>
        <time>2024-03-10T07:50:57Z</time>
      </trkpt>
      <trkpt lat="46.79576" lon="-0.38381">
        <ele>138.8</ele>
        <time>2024-03-10T07:50:58Z</time>
      </trkpt>
      <trkpt lat="46.79558" lon="-0.384">
        <ele>140</ele>
        <time>2024-03-10T07:51:04Z</time>
      </trkpt>
      <trkpt lat="46.79533" lon="-0.38414">
        <ele>140.6</ele>
        <time>2024-03-10T07:51:11Z</time>
      </trkpt>
      <trkpt lat="46.79523" lon="-0.3842">
        <ele>141</ele>
        <time>2024-03-10T07:51:14Z</time>
      </trkpt>
      <trkpt lat="46.79507" lon="-0.38433">
        <ele>141.6</ele>
        <time>2024-03-10T07:51:19Z</time>
      </trkpt>
      <trkpt lat="46.79493" lon="-0.38452">
        <ele>142</ele>
        <time>2024-03-10T07:51:24Z</time>
      </trkpt>
      <trkpt lat="46.79483" lon="-0.38469">
        <ele>142.6</ele>
        <time>2024-03-10T07:51:28Z</time>
      </trkpt>
      <trkpt lat="46.79466" lon="-0.38499">
        <ele>143.2</ele>
        <time>2024-03-10T07:51:36Z</time>
      </trkpt>
      <trkpt lat="46.79449" lon="-0.38524">
        <ele>143.6</ele>
        <time>2024-03-10T07:51:44Z</time>
      </trkpt>
      <trkpt lat="46.79437" lon="-0.38537">
        <ele>144.2</ele>
        <time>2024-03-10T07:51:48Z</time>
      </trkpt>
      <trkpt lat="46.7943" lon="-0.38544">
        <ele>144.6</ele>
        <time>2024-03-10T07:51:50Z</time>
      </trkpt>
      <trkpt lat="46.79407" lon="-0.38563">
        <ele>145.2</ele>
        <time>2024-03-10T07:51:57Z</time>
      </trkpt>
      <trkpt lat="46.79404" lon="-0.38566">
        <ele>145.4</ele>
        <time>2024-03-10T07:51:58Z</time>
      </trkpt>
      <trkpt lat="46.79389" lon="-0.38581">
        <ele>146.4</ele>
        <time>2024-03-10T07:52:03Z</time>
      </trkpt>
      <trkpt lat="46.79381" lon="-0.38591">
        <ele>146.8</ele>
        <time>2024-03-10T07:52:06Z</time>
      </trkpt>
      <trkpt lat="46.79375" lon="-0.38604">
        <ele>147.4</ele>
        <time>2024-03-10T07:52:09Z</time>
      </trkpt>
      <trkpt lat="46.79366" lon="-0.38625">
        <ele>148</ele>
        <time>2024-03-10T07:52:14Z</time>
      </trkpt>
      <trkpt lat="46.79363" lon="-0.38634">
        <ele>148.6</ele>
        <time>2024-03-10T07:52:16Z</time>
      </trkpt>
      <trkpt lat="46.79356" lon="-0.38652">
        <ele>149.8</ele>
        <time>2024-03-10T07:52:20Z</time>
      </trkpt>
      <trkpt lat="46.79353" lon="-0.38661">
        <ele>150.2</ele>
        <time>2024-03-10T07:52:22Z</time>
      </trkpt>
      <trkpt lat="46.79347" lon="-0.3868">
        <ele>150.8</ele>
        <time>2024-03-10T07:52:26Z</time>
      </trkpt>
      <trkpt lat="46.79342" lon="-0.38694">
        <ele>151.6</ele>
        <time>2024-03-10T07:52:29Z</time>
      </trkpt>
      <trkpt lat="46.7933" lon="-0.38727">
        <ele>151.8</ele>
        <time>2024-03-10T07:52:35Z</time>
      </trkpt>
      <trkpt lat="46.79324" lon="-0.38744">
        <ele>151.4</ele>
        <time>2024-03-10T07:52:38Z</time>
      </trkpt>
      <trkpt lat="46.79315" lon="-0.3876">
        <ele>151</ele>
        <time>2024-03-10T07:52:41Z</time>
      </trkpt>
      <trkpt lat="46.79289" lon="-0.38794">
        <ele>150</ele>
        <time>2024-03-10T07:52:47Z</time>
      </trkpt>
      <trkpt lat="46.79284" lon="-0.38799">
        <ele>149.8</ele>
        <time>2024-03-10T07:52:48Z</time>
      </trkpt>
      <trkpt lat="46.79269" lon="-0.38817">
        <ele>148.6</ele>
        <time>2024-03-10T07:52:51Z</time>
      </trkpt>
      <trkpt lat="46.79259" lon="-0.38832">
        <ele>147.6</ele>
        <time>2024-03-10T07:52:53Z</time>
      </trkpt>
      <trkpt lat="46.79254" lon="-0.3884">
        <ele>147</ele>
        <time>2024-03-10T07:52:54Z</time>
      </trkpt>
      <trkpt lat="46.79251" lon="-0.3885">
        <ele>146</ele>
        <time>2024-03-10T07:52:55Z</time>
      </trkpt>
      <trkpt lat="46.79246" lon="-0.38869">
        <ele>144.8</ele>
        <time>2024-03-10T07:52:57Z</time>
      </trkpt>
      <trkpt lat="46.79245" lon="-0.38892">
        <ele>144</ele>
        <time>2024-03-10T07:52:59Z</time>
      </trkpt>
      <trkpt lat="46.79246" lon="-0.38904">
        <ele>143.4</ele>
        <time>2024-03-10T07:53:00Z</time>
      </trkpt>
      <trkpt lat="46.79248" lon="-0.38929">
        <ele>142.2</ele>
        <time>2024-03-10T07:53:02Z</time>
      </trkpt>
      <trkpt lat="46.79249" lon="-0.38955">
        <ele>140.8</ele>
        <time>2024-03-10T07:53:04Z</time>
      </trkpt>
      <trkpt lat="46.79251" lon="-0.38991">
        <ele>139.8</ele>
        <time>2024-03-10T07:53:07Z</time>
      </trkpt>
      <trkpt lat="46.79251" lon="-0.39001">
        <ele>139.4</ele>
        <time>2024-03-10T07:53:08Z</time>
      </trkpt>
      <trkpt lat="46.79251" lon="-0.39019">
        <ele>137.8</ele>
        <time>2024-03-10T07:53:10Z</time>
      </trkpt>
      <trkpt lat="46.79251" lon="-0.39026">
        <ele>137.4</ele>
        <time>2024-03-10T07:53:11Z</time>
      </trkpt>
      <trkpt lat="46.79252" lon="-0.3904">
        <ele>136.8</ele>
        <time>2024-03-10T07:53:13Z</time>
      </trkpt>
      <trkpt lat="46.79253" lon="-0.39046">
        <ele>136.6</ele>
        <time>2024-03-10T07:53:14Z</time>
      </trkpt>
      <trkpt lat="46.79256" lon="-0.39058">
        <ele>136.6</ele>
        <time>2024-03-10T07:53:16Z</time>
      </trkpt>
      <trkpt lat="46.79261" lon="-0.39096">
        <ele>136.8</ele>
        <time>2024-03-10T07:53:21Z</time>
      </trkpt>
      <trkpt lat="46.79263" lon="-0.39141">
        <ele>137</ele>
        <time>2024-03-10T07:53:27Z</time>
      </trkpt>
      <trkpt lat="46.79269" lon="-0.39185">
        <ele>137.6</ele>
        <time>2024-03-10T07:53:33Z</time>
      </trkpt>
      <trkpt lat="46.7927" lon="-0.392">
        <ele>137.8</ele>
        <time>2024-03-10T07:53:35Z</time>
      </trkpt>
      <trkpt lat="46.79273" lon="-0.39229">
        <ele>138</ele>
        <time>2024-03-10T07:53:39Z</time>
      </trkpt>
      <trkpt lat="46.79275" lon="-0.39262">
        <ele>138.4</ele>
        <time>2024-03-10T07:53:45Z</time>
      </trkpt>
      <trkpt lat="46.79271" lon="-0.39277">
        <ele>138.2</ele>
        <time>2024-03-10T07:53:48Z</time>
      </trkpt>
      <trkpt lat="46.79268" lon="-0.3928">
        <ele>138</ele>
        <time>2024-03-10T07:53:49Z</time>
      </trkpt>
      <trkpt lat="46.79265" lon="-0.39281">
        <ele>137.8</ele>
        <time>2024-03-10T07:53:50Z</time>
      </trkpt>
      <trkpt lat="46.79259" lon="-0.39277">
        <ele>137.2</ele>
        <time>2024-03-10T07:53:52Z</time>
      </trkpt>
      <trkpt lat="46.79255" lon="-0.39273">
        <ele>136.6</ele>
        <time>2024-03-10T07:53:53Z</time>
      </trkpt>
      <trkpt lat="46.79248" lon="-0.39265">
        <ele>135.8</ele>
        <time>2024-03-10T07:53:55Z</time>
      </trkpt>
      <trkpt lat="46.79244" lon="-0.39262">
        <ele>135.8</ele>
        <time>2024-03-10T07:53:56Z</time>
      </trkpt>
      <trkpt lat="46.79239" lon="-0.3926">
        <ele>135.4</ele>
        <time>2024-03-10T07:53:57Z</time>
      </trkpt>
      <trkpt lat="46.7923" lon="-0.39259">
        <ele>135</ele>
        <time>2024-03-10T07:53:59Z</time>
      </trkpt>
      <trkpt lat="46.79225" lon="-0.39259">
        <ele>135.2</ele>
        <time>2024-03-10T07:54:00Z</time>
      </trkpt>
      <trkpt lat="46.79221" lon="-0.39261">
        <ele>135.2</ele>
        <time>2024-03-10T07:54:01Z</time>
      </trkpt>
      <trkpt lat="46.79215" lon="-0.39268">
        <ele>135.4</ele>
        <time>2024-03-10T07:54:03Z</time>
      </trkpt>
      <trkpt lat="46.79212" lon="-0.39272">
        <ele>135.6</ele>
        <time>2024-03-10T07:54:04Z</time>
      </trkpt>
      <trkpt lat="46.79206" lon="-0.39285">
        <ele>136.6</ele>
        <time>2024-03-10T07:54:07Z</time>
      </trkpt>
      <trkpt lat="46.792" lon="-0.39302">
        <ele>137.8</ele>
        <time>2024-03-10T07:54:11Z</time>
      </trkpt>
      <trkpt lat="46.79197" lon="-0.39323">
        <ele>138.8</ele>
        <time>2024-03-10T07:54:15Z</time>
      </trkpt>
      <trkpt lat="46.79194" lon="-0.39341">
        <ele>139.4</ele>
        <time>2024-03-10T07:54:18Z</time>
      </trkpt>
      <trkpt lat="46.79194" lon="-0.39346">
        <ele>140</ele>
        <time>2024-03-10T07:54:19Z</time>
      </trkpt>
      <trkpt lat="46.79189" lon="-0.39375">
        <ele>140.6</ele>
        <time>2024-03-10T07:54:24Z</time>
      </trkpt>
      <trkpt lat="46.79181" lon="-0.39408">
        <ele>141</ele>
        <time>2024-03-10T07:54:30Z</time>
      </trkpt>
      <trkpt lat="46.79179" lon="-0.39413">
        <ele>141</ele>
        <time>2024-03-10T07:54:31Z</time>
      </trkpt>
      <trkpt lat="46.79167" lon="-0.39441">
        <ele>141.2</ele>
        <time>2024-03-10T07:54:37Z</time>
      </trkpt>
      <trkpt lat="46.79155" lon="-0.39463">
        <ele>142</ele>
        <time>2024-03-10T07:54:43Z</time>
      </trkpt>
      <trkpt lat="46.79153" lon="-0.39464">
        <ele>142.2</ele>
        <time>2024-03-10T07:54:44Z</time>
      </trkpt>
      <trkpt lat="46.79147" lon="-0.3946">
        <ele>142.6</ele>
        <time>2024-03-10T07:54:46Z</time>
      </trkpt>
      <trkpt lat="46.79143" lon="-0.39452">
        <ele>143.2</ele>
        <time>2024-03-10T07:54:48Z</time>
      </trkpt>
      <trkpt lat="46.79136" lon="-0.39439">
        <ele>143.8</ele>
        <time>2024-03-10T07:54:51Z</time>
      </trkpt>
      <trkpt lat="46.79133" lon="-0.39431">
        <ele>144.2</ele>
        <time>2024-03-10T07:54:53Z</time>
      </trkpt>
      <trkpt lat="46.79123" lon="-0.39408">
        <ele>145.4</ele>
        <time>2024-03-10T07:54:59Z</time>
      </trkpt>
      <trkpt lat="46.79121" lon="-0.39404">
        <ele>145.6</ele>
        <time>2024-03-10T07:55:00Z</time>
      </trkpt>
      <trkpt lat="46.79113" lon="-0.39383">
        <ele>146.6</ele>
        <time>2024-03-10T07:55:05Z</time>
      </trkpt>
      <trkpt lat="46.79108" lon="-0.39365">
        <ele>147.2</ele>
        <time>2024-03-10T07:55:09Z</time>
      </trkpt>
      <trkpt lat="46.79104" lon="-0.39352">
        <ele>147.8</ele>
        <time>2024-03-10T07:55:12Z</time>
      </trkpt>
      <trkpt lat="46.79097" lon="-0.39333">
        <ele>148.6</ele>
        <time>2024-03-10T07:55:16Z</time>
      </trkpt>
      <trkpt lat="46.79089" lon="-0.39306">
        <ele>148.8</ele>
        <time>2024-03-10T07:55:21Z</time>
      </trkpt>
      <trkpt lat="46.79087" lon="-0.393">
        <ele>149</ele>
        <time>2024-03-10T07:55:22Z</time>
      </trkpt>
      <trkpt lat="46.79071" lon="-0.39254">
        <ele>149.4</ele>
        <time>2024-03-10T07:55:30Z</time>
      </trkpt>
      <trkpt lat="46.79049" lon="-0.39218">
        <ele>149.8</ele>
        <time>2024-03-10T07:55:37Z</time>
      </trkpt>
      <trkpt lat="46.79027" lon="-0.39183">
        <ele>149.4</ele>
        <time>2024-03-10T07:55:43Z</time>
      </trkpt>
      <trkpt lat="46.78992" lon="-0.39136">
        <ele>148</ele>
        <time>2024-03-10T07:55:51Z</time>
      </trkpt>
      <trkpt lat="46.78988" lon="-0.39131">
        <ele>147.8</ele>
        <time>2024-03-10T07:55:52Z</time>
      </trkpt>
      <trkpt lat="46.7897" lon="-0.39117">
        <ele>147</ele>
        <time>2024-03-10T07:55:56Z</time>
      </trkpt>
      <trkpt lat="46.78967" lon="-0.39113">
        <ele>146.8</ele>
        <time>2024-03-10T07:55:57Z</time>
      </trkpt>
      <trkpt lat="46.78965" lon="-0.39102">
        <ele>146.2</ele>
        <time>2024-03-10T07:55:59Z</time>
      </trkpt>
      <trkpt lat="46.78966" lon="-0.39083">
        <ele>145.6</ele>
        <time>2024-03-10T07:56:02Z</time>
      </trkpt>
      <trkpt lat="46.78961" lon="-0.3907">
        <ele>145.4</ele>
        <time>2024-03-10T07:56:04Z</time>
      </trkpt>
      <trkpt lat="46.78951" lon="-0.39057">
        <ele>144.2</ele>
        <time>2024-03-10T07:56:06Z</time>
      </trkpt>
      <trkpt lat="46.7894" lon="-0.39043">
        <ele>143.6</ele>
        <time>2024-03-10T07:56:08Z</time>
      </trkpt>
      <trkpt lat="46.78934" lon="-0.39035">
        <ele>143.2</ele>
        <time>2024-03-10T07:56:09Z</time>
      </trkpt>
      <trkpt lat="46.78921" lon="-0.39015">
        <ele>142</ele>
        <time>2024-03-10T07:56:11Z</time>
      </trkpt>
      <trkpt lat="46.78914" lon="-0.39004">
        <ele>141.4</ele>
        <time>2024-03-10T07:56:12Z</time>
      </trkpt>
      <trkpt lat="46.78901" lon="-0.38983">
        <ele>140.6</ele>
        <time>2024-03-10T07:56:14Z</time>
      </trkpt>
      <trkpt lat="46.78894" lon="-0.38975">
        <ele>139.2</ele>
        <time>2024-03-10T07:56:15Z</time>
      </trkpt>
      <trkpt lat="46.78887" lon="-0.38971">
        <ele>137.8</ele>
        <time>2024-03-10T07:56:16Z</time>
      </trkpt>
      <trkpt lat="46.7888" lon="-0.38968">
        <ele>135.6</ele>
        <time>2024-03-10T07:56:17Z</time>
      </trkpt>
      <trkpt lat="46.78873" lon="-0.38968">
        <ele>134.4</ele>
        <time>2024-03-10T07:56:18Z</time>
      </trkpt>
      <trkpt lat="46.78873" lon="-0.38968">
        <ele>132.4</ele>
        <time>2024-03-10T07:56:19Z</time>
      </trkpt>
      <trkpt lat="46.78859" lon="-0.38974">
        <ele>132.4</ele>
        <time>2024-03-10T07:56:20Z</time>
      </trkpt>
      <trkpt lat="46.78846" lon="-0.38979">
        <ele>131.2</ele>
        <time>2024-03-10T07:56:22Z</time>
      </trkpt>
      <trkpt lat="46.78827" lon="-0.38988">
        <ele>130.2</ele>
        <time>2024-03-10T07:56:25Z</time>
      </trkpt>
      <trkpt lat="46.78823" lon="-0.3899">
        <ele>130</ele>
        <time>2024-03-10T07:56:26Z</time>
      </trkpt>
      <trkpt lat="46.78818" lon="-0.38989">
        <ele>129.4</ele>
        <time>2024-03-10T07:56:27Z</time>
      </trkpt>
      <trkpt lat="46.78814" lon="-0.38986">
        <ele>129</ele>
        <time>2024-03-10T07:56:28Z</time>
      </trkpt>
      <trkpt lat="46.78807" lon="-0.38973">
        <ele>128.4</ele>
        <time>2024-03-10T07:56:30Z</time>
      </trkpt>
      <trkpt lat="46.78797" lon="-0.38955">
        <ele>127.8</ele>
        <time>2024-03-10T07:56:33Z</time>
      </trkpt>
      <trkpt lat="46.78794" lon="-0.38948">
        <ele>127.6</ele>
        <time>2024-03-10T07:56:34Z</time>
      </trkpt>
      <trkpt lat="46.78791" lon="-0.38932">
        <ele>127.6</ele>
        <time>2024-03-10T07:56:36Z</time>
      </trkpt>
      <trkpt lat="46.78791" lon="-0.38891">
        <ele>128.6</ele>
        <time>2024-03-10T07:56:41Z</time>
      </trkpt>
      <trkpt lat="46.78791" lon="-0.38884">
        <ele>129.2</ele>
        <time>2024-03-10T07:56:42Z</time>
      </trkpt>
      <trkpt lat="46.78792" lon="-0.38854">
        <ele>130.4</ele>
        <time>2024-03-10T07:56:46Z</time>
      </trkpt>
      <trkpt lat="46.78794" lon="-0.3884">
        <ele>131</ele>
        <time>2024-03-10T07:56:48Z</time>
      </trkpt>
      <trkpt lat="46.78795" lon="-0.38827">
        <ele>131.6</ele>
        <time>2024-03-10T07:56:50Z</time>
      </trkpt>
      <trkpt lat="46.78795" lon="-0.38806">
        <ele>132.6</ele>
        <time>2024-03-10T07:56:53Z</time>
      </trkpt>
      <trkpt lat="46.78795" lon="-0.38794">
        <ele>133.2</ele>
        <time>2024-03-10T07:56:55Z</time>
      </trkpt>
      <trkpt lat="46.78794" lon="-0.38787">
        <ele>133.6</ele>
        <time>2024-03-10T07:56:56Z</time>
      </trkpt>
      <trkpt lat="46.78791" lon="-0.38762">
        <ele>134.6</ele>
        <time>2024-03-10T07:57:00Z</time>
      </trkpt>
      <trkpt lat="46.7879" lon="-0.38755">
        <ele>134.8</ele>
        <time>2024-03-10T07:57:01Z</time>
      </trkpt>
      <trkpt lat="46.78789" lon="-0.38748">
        <ele>135</ele>
        <time>2024-03-10T07:57:02Z</time>
      </trkpt>
      <trkpt lat="46.78788" lon="-0.38741">
        <ele>135.4</ele>
        <time>2024-03-10T07:57:03Z</time>
      </trkpt>
      <trkpt lat="46.78782" lon="-0.38722">
        <ele>135.8</ele>
        <time>2024-03-10T07:57:06Z</time>
      </trkpt>
      <trkpt lat="46.7878" lon="-0.38718">
        <ele>136</ele>
        <time>2024-03-10T07:57:07Z</time>
      </trkpt>
      <trkpt lat="46.78764" lon="-0.38692">
        <ele>137</ele>
        <time>2024-03-10T07:57:12Z</time>
      </trkpt>
      <trkpt lat="46.78757" lon="-0.38684">
        <ele>137.4</ele>
        <time>2024-03-10T07:57:14Z</time>
      </trkpt>
      <trkpt lat="46.78743" lon="-0.38668">
        <ele>138.2</ele>
        <time>2024-03-10T07:57:18Z</time>
      </trkpt>
      <trkpt lat="46.78732" lon="-0.38656">
        <ele>138.6</ele>
        <time>2024-03-10T07:57:21Z</time>
      </trkpt>
      <trkpt lat="46.78702" lon="-0.38625">
        <ele>139</ele>
        <time>2024-03-10T07:57:29Z</time>
      </trkpt>
      <trkpt lat="46.78682" lon="-0.38612">
        <ele>139</ele>
        <time>2024-03-10T07:57:34Z</time>
      </trkpt>
      <trkpt lat="46.78675" lon="-0.38607">
        <ele>139.2</ele>
        <time>2024-03-10T07:57:36Z</time>
      </trkpt>
      <trkpt lat="46.7866" lon="-0.3859">
        <ele>139.8</ele>
        <time>2024-03-10T07:57:41Z</time>
      </trkpt>
      <trkpt lat="46.78655" lon="-0.38585">
        <ele>140.2</ele>
        <time>2024-03-10T07:57:43Z</time>
      </trkpt>
      <trkpt lat="46.78641" lon="-0.38568">
        <ele>140.6</ele>
        <time>2024-03-10T07:57:49Z</time>
      </trkpt>
      <trkpt lat="46.78623" lon="-0.38554">
        <ele>141.2</ele>
        <time>2024-03-10T07:57:55Z</time>
      </trkpt>
      <trkpt lat="46.7862" lon="-0.38552">
        <ele>141.4</ele>
        <time>2024-03-10T07:57:56Z</time>
      </trkpt>
      <trkpt lat="46.78599" lon="-0.38542">
        <ele>142.4</ele>
        <time>2024-03-10T07:58:03Z</time>
      </trkpt>
      <trkpt lat="46.78583" lon="-0.38537">
        <ele>143.4</ele>
        <time>2024-03-10T07:58:08Z</time>
      </trkpt>
      <trkpt lat="46.78574" lon="-0.38534">
        <ele>144.2</ele>
        <time>2024-03-10T07:58:11Z</time>
      </trkpt>
      <trkpt lat="46.7857" lon="-0.38532">
        <ele>144.4</ele>
        <time>2024-03-10T07:58:12Z</time>
      </trkpt>
      <trkpt lat="46.7855" lon="-0.38525">
        <ele>145.2</ele>
        <time>2024-03-10T07:58:18Z</time>
      </trkpt>
      <trkpt lat="46.78547" lon="-0.38524">
        <ele>145.4</ele>
        <time>2024-03-10T07:58:19Z</time>
      </trkpt>
      <trkpt lat="46.78525" lon="-0.38517">
        <ele>146.6</ele>
        <time>2024-03-10T07:58:26Z</time>
      </trkpt>
      <trkpt lat="46.7852" lon="-0.38515">
        <ele>146.8</ele>
        <time>2024-03-10T07:58:28Z</time>
      </trkpt>
      <trkpt lat="46.78509" lon="-0.38512">
        <ele>147.8</ele>
        <time>2024-03-10T07:58:32Z</time>
      </trkpt>
      <trkpt lat="46.78503" lon="-0.3851">
        <ele>148.4</ele>
        <time>2024-03-10T07:58:35Z</time>
      </trkpt>
      <trkpt lat="46.78498" lon="-0.38509">
        <ele>149.2</ele>
        <time>2024-03-10T07:58:37Z</time>
      </trkpt>
      <trkpt lat="46.78489" lon="-0.38506">
        <ele>150.4</ele>
        <time>2024-03-10T07:58:41Z</time>
      </trkpt>
      <trkpt lat="46.7848" lon="-0.38503">
        <ele>151.2</ele>
        <time>2024-03-10T07:58:45Z</time>
      </trkpt>
      <trkpt lat="46.78478" lon="-0.38502">
        <ele>151.4</ele>
        <time>2024-03-10T07:58:46Z</time>
      </trkpt>
      <trkpt lat="46.78464" lon="-0.38499">
        <ele>152.6</ele>
        <time>2024-03-10T07:58:53Z</time>
      </trkpt>
      <trkpt lat="46.78461" lon="-0.38498">
        <ele>152.6</ele>
        <time>2024-03-10T07:58:54Z</time>
      </trkpt>
      <trkpt lat="46.7845" lon="-0.38495">
        <ele>153.8</ele>
        <time>2024-03-10T07:58:59Z</time>
      </trkpt>
      <trkpt lat="46.78444" lon="-0.38493">
        <ele>154.2</ele>
        <time>2024-03-10T07:59:02Z</time>
      </trkpt>
      <trkpt lat="46.7844" lon="-0.38492">
        <ele>154.8</ele>
        <time>2024-03-10T07:59:04Z</time>
      </trkpt>
      <trkpt lat="46.78428" lon="-0.38488">
        <ele>155.8</ele>
        <time>2024-03-10T07:59:09Z</time>
      </trkpt>
      <trkpt lat="46.78425" lon="-0.38487">
        <ele>156.2</ele>
        <time>2024-03-10T07:59:10Z</time>
      </trkpt>
      <trkpt lat="46.78415" lon="-0.38483">
        <ele>156.8</ele>
        <time>2024-03-10T07:59:14Z</time>
      </trkpt>
      <trkpt lat="46.78403" lon="-0.38478">
        <ele>157.4</ele>
        <time>2024-03-10T07:59:18Z</time>
      </trkpt>
      <trkpt lat="46.78392" lon="-0.38475">
        <ele>158</ele>
        <time>2024-03-10T07:59:22Z</time>
      </trkpt>
      <trkpt lat="46.78381" lon="-0.38471">
        <ele>158.4</ele>
        <time>2024-03-10T07:59:26Z</time>
      </trkpt>
      <trkpt lat="46.78367" lon="-0.38467">
        <ele>159.2</ele>
        <time>2024-03-10T07:59:31Z</time>
      </trkpt>
      <trkpt lat="46.78358" lon="-0.38465">
        <ele>159.6</ele>
        <time>2024-03-10T07:59:34Z</time>
      </trkpt>
      <trkpt lat="46.78344" lon="-0.38461">
        <ele>160.2</ele>
        <time>2024-03-10T07:59:39Z</time>
      </trkpt>
      <trkpt lat="46.78338" lon="-0.38459">
        <ele>160.6</ele>
        <time>2024-03-10T07:59:41Z</time>
      </trkpt>
      <trkpt lat="46.78326" lon="-0.38456">
        <ele>161.4</ele>
        <time>2024-03-10T07:59:45Z</time>
      </trkpt>
      <trkpt lat="46.78309" lon="-0.3845">
        <ele>162</ele>
        <time>2024-03-10T07:59:51Z</time>
      </trkpt>
      <trkpt lat="46.78303" lon="-0.38448">
        <ele>162.4</ele>
        <time>2024-03-10T07:59:53Z</time>
      </trkpt>
      <trkpt lat="46.78283" lon="-0.38445">
        <ele>163.2</ele>
        <time>2024-03-10T07:59:59Z</time>
      </trkpt>
      <trkpt lat="46.78255" lon="-0.38446">
        <ele>163.4</ele>
        <time>2024-03-10T08:00:06Z</time>
      </trkpt>
      <trkpt lat="46.78216" lon="-0.3845">
        <ele>163.2</ele>
        <time>2024-03-10T08:00:15Z</time>
      </trkpt>
      <trkpt lat="46.78174" lon="-0.38457">
        <ele>162.6</ele>
        <time>2024-03-10T08:00:23Z</time>
      </trkpt>
      <trkpt lat="46.78146" lon="-0.38461">
        <ele>161.4</ele>
        <time>2024-03-10T08:00:28Z</time>
      </trkpt>
      <trkpt lat="46.78141" lon="-0.38462">
        <ele>161.2</ele>
        <time>2024-03-10T08:00:29Z</time>
      </trkpt>
      <trkpt lat="46.78098" lon="-0.38463">
        <ele>161.6</ele>
        <time>2024-03-10T08:00:38Z</time>
      </trkpt>
      <trkpt lat="46.78063" lon="-0.38464">
        <ele>162.4</ele>
        <time>2024-03-10T08:00:45Z</time>
      </trkpt>
      <trkpt lat="46.7803" lon="-0.38461">
        <ele>163.6</ele>
        <time>2024-03-10T08:00:52Z</time>
      </trkpt>
      <trkpt lat="46.78026" lon="-0.38461">
        <ele>163.6</ele>
        <time>2024-03-10T08:00:53Z</time>
      </trkpt>
      <trkpt lat="46.78014" lon="-0.3846">
        <ele>164.8</ele>
        <time>2024-03-10T08:00:56Z</time>
      </trkpt>
      <trkpt lat="46.77994" lon="-0.38457">
        <ele>166</ele>
        <time>2024-03-10T08:01:01Z</time>
      </trkpt>
      <trkpt lat="46.77986" lon="-0.38456">
        <ele>166.4</ele>
        <time>2024-03-10T08:01:03Z</time>
      </trkpt>
      <trkpt lat="46.77975" lon="-0.38457">
        <ele>167</ele>
        <time>2024-03-10T08:01:06Z</time>
      </trkpt>
      <trkpt lat="46.77965" lon="-0.38457">
        <ele>167.8</ele>
        <time>2024-03-10T08:01:09Z</time>
      </trkpt>
      <trkpt lat="46.77962" lon="-0.38457">
        <ele>168.2</ele>
        <time>2024-03-10T08:01:10Z</time>
      </trkpt>
      <trkpt lat="46.77949" lon="-0.38461">
        <ele>169.4</ele>
        <time>2024-03-10T08:01:14Z</time>
      </trkpt>
      <trkpt lat="46.77942" lon="-0.38462">
        <ele>169.8</ele>
        <time>2024-03-10T08:01:16Z</time>
      </trkpt>
      <trkpt lat="46.77931" lon="-0.38463">
        <ele>170.4</ele>
        <time>2024-03-10T08:01:19Z</time>
      </trkpt>
      <trkpt lat="46.77911" lon="-0.38464">
        <ele>171.4</ele>
        <time>2024-03-10T08:01:25Z</time>
      </trkpt>
      <trkpt lat="46.77907" lon="-0.38464">
        <ele>171.6</ele>
        <time>2024-03-10T08:01:26Z</time>
      </trkpt>
      <trkpt lat="46.77888" lon="-0.38464">
        <ele>172.4</ele>
        <time>2024-03-10T08:01:32Z</time>
      </trkpt>
      <trkpt lat="46.77885" lon="-0.38463">
        <ele>172.6</ele>
        <time>2024-03-10T08:01:33Z</time>
      </trkpt>
      <trkpt lat="46.77853" lon="-0.38461">
        <ele>173.6</ele>
        <time>2024-03-10T08:01:42Z</time>
      </trkpt>
      <trkpt lat="46.7785" lon="-0.38461">
        <ele>173.8</ele>
        <time>2024-03-10T08:01:43Z</time>
      </trkpt>
      <trkpt lat="46.77828" lon="-0.38459">
        <ele>174.8</ele>
        <time>2024-03-10T08:01:49Z</time>
      </trkpt>
      <trkpt lat="46.77816" lon="-0.38459">
        <ele>175.2</ele>
        <time>2024-03-10T08:01:52Z</time>
      </trkpt>
      <trkpt lat="46.77797" lon="-0.38459">
        <ele>175.8</ele>
        <time>2024-03-10T08:01:57Z</time>
      </trkpt>
      <trkpt lat="46.77781" lon="-0.3846">
        <ele>176.2</ele>
        <time>2024-03-10T08:02:01Z</time>
      </trkpt>
      <trkpt lat="46.77761" lon="-0.38461">
        <ele>176.8</ele>
        <time>2024-03-10T08:02:06Z</time>
      </trkpt>
      <trkpt lat="46.77748" lon="-0.38461">
        <ele>177</ele>
        <time>2024-03-10T08:02:09Z</time>
      </trkpt>
      <trkpt lat="46.77718" lon="-0.38463">
        <ele>177.8</ele>
        <time>2024-03-10T08:02:16Z</time>
      </trkpt>
      <trkpt lat="46.777" lon="-0.38464">
        <ele>178.2</ele>
        <time>2024-03-10T08:02:20Z</time>
      </trkpt>
      <trkpt lat="46.77668" lon="-0.38465">
        <ele>179</ele>
        <time>2024-03-10T08:02:27Z</time>
      </trkpt>
      <trkpt lat="46.77659" lon="-0.38464">
        <ele>179</ele>
        <time>2024-03-10T08:02:29Z</time>
      </trkpt>
      <trkpt lat="46.7762" lon="-0.38458">
        <ele>179.6</ele>
        <time>2024-03-10T08:02:37Z</time>
      </trkpt>
      <trkpt lat="46.77605" lon="-0.38456">
        <ele>180</ele>
        <time>2024-03-10T08:02:40Z</time>
      </trkpt>
      <trkpt lat="46.7759" lon="-0.38454">
        <ele>180</ele>
        <time>2024-03-10T08:02:43Z</time>
      </trkpt>
      <trkpt lat="46.77586" lon="-0.38453">
        <ele>180</ele>
        <time>2024-03-10T08:02:44Z</time>
      </trkpt>
      <trkpt lat="46.77553" lon="-0.38447">
        <ele>180.4</ele>
        <time>2024-03-10T08:02:51Z</time>
      </trkpt>
      <trkpt lat="46.77513" lon="-0.38436">
        <ele>181</ele>
        <time>2024-03-10T08:03:00Z</time>
      </trkpt>
      <trkpt lat="46.77487" lon="-0.38425">
        <ele>182</ele>
        <time>2024-03-10T08:03:06Z</time>
      </trkpt>
      <trkpt lat="46.77478" lon="-0.38422">
        <ele>182.2</ele>
        <time>2024-03-10T08:03:08Z</time>
      </trkpt>
      <trkpt lat="46.77438" lon="-0.38403">
        <ele>183</ele>
        <time>2024-03-10T08:03:18Z</time>
      </trkpt>
      <trkpt lat="46.77408" lon="-0.3839">
        <ele>184.2</ele>
        <time>2024-03-10T08:03:26Z</time>
      </trkpt>
      <trkpt lat="46.774" lon="-0.38388">
        <ele>184.4</ele>
        <time>2024-03-10T08:03:28Z</time>
      </trkpt>
      <trkpt lat="46.7738" lon="-0.38383">
        <ele>185.4</ele>
        <time>2024-03-10T08:03:33Z</time>
      </trkpt>
      <trkpt lat="46.77376" lon="-0.38383">
        <ele>185.4</ele>
        <time>2024-03-10T08:03:34Z</time>
      </trkpt>
      <trkpt lat="46.77371" lon="-0.38382">
        <ele>185.6</ele>
        <time>2024-03-10T08:03:35Z</time>
      </trkpt>
      <trkpt lat="46.7735" lon="-0.38381">
        <ele>186</ele>
        <time>2024-03-10T08:03:40Z</time>
      </trkpt>
      <trkpt lat="46.7735" lon="-0.38381">
        <ele>186.2</ele>
        <time>2024-03-10T08:03:41Z</time>
      </trkpt>
      <trkpt lat="46.77342" lon="-0.38382">
        <ele>186.2</ele>
        <time>2024-03-10T08:03:42Z</time>
      </trkpt>
      <trkpt lat="46.77324" lon="-0.38386">
        <ele>186.2</ele>
        <time>2024-03-10T08:03:46Z</time>
      </trkpt>
      <trkpt lat="46.77319" lon="-0.38388">
        <ele>186.4</ele>
        <time>2024-03-10T08:03:47Z</time>
      </trkpt>
      <trkpt lat="46.77297" lon="-0.38402">
        <ele>185.8</ele>
        <time>2024-03-10T08:03:52Z</time>
      </trkpt>
      <trkpt lat="46.77278" lon="-0.38419">
        <ele>185.6</ele>
        <time>2024-03-10T08:03:57Z</time>
      </trkpt>
      <trkpt lat="46.77276" lon="-0.3842">
        <ele>185.4</ele>
        <time>2024-03-10T08:03:58Z</time>
      </trkpt>
      <trkpt lat="46.77275" lon="-0.38419">
        <ele>185.2</ele>
        <time>2024-03-10T08:03:59Z</time>
      </trkpt>
      <trkpt lat="46.77275" lon="-0.38419">
        <ele>185</ele>
        <time>2024-03-10T08:04:01Z</time>
      </trkpt>
      <trkpt lat="46.77274" lon="-0.38418">
        <ele>184.8</ele>
        <time>2024-03-10T08:04:02Z</time>
      </trkpt>
      <trkpt lat="46.77275" lon="-0.38405">
        <ele>185.2</ele>
        <time>2024-03-10T08:04:07Z</time>
      </trkpt>
      <trkpt lat="46.7728" lon="-0.38374">
        <ele>185.6</ele>
        <time>2024-03-10T08:04:14Z</time>
      </trkpt>
      <trkpt lat="46.77285" lon="-0.38348">
        <ele>186.4</ele>
        <time>2024-03-10T08:04:19Z</time>
      </trkpt>
      <trkpt lat="46.77289" lon="-0.38325">
        <ele>186.8</ele>
        <time>2024-03-10T08:04:23Z</time>
      </trkpt>
      <trkpt lat="46.77294" lon="-0.38301">
        <ele>187.4</ele>
        <time>2024-03-10T08:04:27Z</time>
      </trkpt>
      <trkpt lat="46.77299" lon="-0.38278">
        <ele>188.2</ele>
        <time>2024-03-10T08:04:31Z</time>
      </trkpt>
      <trkpt lat="46.77301" lon="-0.38267">
        <ele>188.6</ele>
        <time>2024-03-10T08:04:33Z</time>
      </trkpt>
      <trkpt lat="46.77308" lon="-0.38238">
        <ele>189</ele>
        <time>2024-03-10T08:04:38Z</time>
      </trkpt>
      <trkpt lat="46.77322" lon="-0.38181">
        <ele>188.6</ele>
        <time>2024-03-10T08:04:46Z</time>
      </trkpt>
      <trkpt lat="46.77323" lon="-0.38172">
        <ele>188.4</ele>
        <time>2024-03-10T08:04:48Z</time>
      </trkpt>
      <trkpt lat="46.77322" lon="-0.38169">
        <ele>188.4</ele>
        <time>2024-03-10T08:04:49Z</time>
      </trkpt>
      <trkpt lat="46.77318" lon="-0.38165">
        <ele>187.8</ele>
        <time>2024-03-10T08:04:53Z</time>
      </trkpt>
      <trkpt lat="46.77307" lon="-0.3816">
        <ele>188</ele>
        <time>2024-03-10T08:05:00Z</time>
      </trkpt>
      <trkpt lat="46.77291" lon="-0.38152">
        <ele>188.6</ele>
        <time>2024-03-10T08:05:08Z</time>
      </trkpt>
      <trkpt lat="46.77275" lon="-0.38147">
        <ele>189</ele>
        <time>2024-03-10T08:05:14Z</time>
      </trkpt>
      <trkpt lat="46.7726" lon="-0.38142">
        <ele>188.8</ele>
        <time>2024-03-10T08:05:21Z</time>
      </trkpt>
      <trkpt lat="46.77246" lon="-0.38139">
        <ele>189</ele>
        <time>2024-03-10T08:05:27Z</time>
      </trkpt>
      <trkpt lat="46.77236" lon="-0.38138">
        <ele>189.8</ele>
        <time>2024-03-10T08:05:31Z</time>
      </trkpt>
      <trkpt lat="46.7723" lon="-0.38137">
        <ele>190.2</ele>
        <time>2024-03-10T08:05:34Z</time>
      </trkpt>
      <trkpt lat="46.77215" lon="-0.38128">
        <ele>190.4</ele>
        <time>2024-03-10T08:05:41Z</time>
      </trkpt>
      <trkpt lat="46.77207" lon="-0.38125">
        <ele>190.8</ele>
        <time>2024-03-10T08:05:45Z</time>
      </trkpt>
      <trkpt lat="46.77203" lon="-0.38125">
        <ele>190.8</ele>
        <time>2024-03-10T08:05:47Z</time>
      </trkpt>
      <trkpt lat="46.7719" lon="-0.38125">
        <ele>191.2</ele>
        <time>2024-03-10T08:05:53Z</time>
      </trkpt>
      <trkpt lat="46.77187" lon="-0.38126">
        <ele>191.2</ele>
        <time>2024-03-10T08:05:54Z</time>
      </trkpt>
      <trkpt lat="46.7718" lon="-0.38135">
        <ele>191.2</ele>
        <time>2024-03-10T08:05:58Z</time>
      </trkpt>
      <trkpt lat="46.77171" lon="-0.38151">
        <ele>191.2</ele>
        <time>2024-03-10T08:06:05Z</time>
      </trkpt>
      <trkpt lat="46.77164" lon="-0.38166">
        <ele>191</ele>
        <time>2024-03-10T08:06:13Z</time>
      </trkpt>
      <trkpt lat="46.77159" lon="-0.38186">
        <ele>191</ele>
        <time>2024-03-10T08:06:20Z</time>
      </trkpt>
      <trkpt lat="46.77153" lon="-0.38197">
        <ele>191</ele>
        <time>2024-03-10T08:06:25Z</time>
      </trkpt>
      <trkpt lat="46.77151" lon="-0.38211">
        <ele>190.6</ele>
        <time>2024-03-10T08:06:32Z</time>
      </trkpt>
      <trkpt lat="46.7715" lon="-0.38226">
        <ele>190.8</ele>
        <time>2024-03-10T08:06:39Z</time>
      </trkpt>
      <trkpt lat="46.7715" lon="-0.38227">
        <ele>190.6</ele>
        <time>2024-03-10T08:06:40Z</time>
      </trkpt>
      <trkpt lat="46.7715" lon="-0.38226">
        <ele>190.4</ele>
        <time>2024-03-10T08:06:48Z</time>
      </trkpt>
      <trkpt lat="46.7715" lon="-0.38226">
        <ele>190.2</ele>
        <time>2024-03-10T08:07:02Z</time>
      </trkpt>
      <trkpt lat="46.77148" lon="-0.38231">
        <ele>190.2</ele>
        <time>2024-03-10T08:07:12Z</time>
      </trkpt>
      <trkpt lat="46.77144" lon="-0.38248">
        <ele>189.8</ele>
        <time>2024-03-10T08:07:19Z</time>
      </trkpt>
      <trkpt lat="46.77144" lon="-0.38251">
        <ele>189.6</ele>
        <time>2024-03-10T08:07:20Z</time>
      </trkpt>
      <trkpt lat="46.77139" lon="-0.38267">
        <ele>189.2</ele>
        <time>2024-03-10T08:07:25Z</time>
      </trkpt>
      <trkpt lat="46.77127" lon="-0.38294">
        <ele>188.8</ele>
        <time>2024-03-10T08:07:34Z</time>
      </trkpt>
      <trkpt lat="46.77126" lon="-0.38297">
        <ele>188.6</ele>
        <time>2024-03-10T08:07:35Z</time>
      </trkpt>
      <trkpt lat="46.77121" lon="-0.38306">
        <ele>188</ele>
        <time>2024-03-10T08:07:39Z</time>
      </trkpt>
      <trkpt lat="46.77119" lon="-0.38307">
        <ele>188</ele>
        <time>2024-03-10T08:07:40Z</time>
      </trkpt>
      <trkpt lat="46.77113" lon="-0.38311">
        <ele>187.6</ele>
        <time>2024-03-10T08:07:43Z</time>
      </trkpt>
      <trkpt lat="46.7711" lon="-0.3831">
        <ele>186.8</ele>
        <time>2024-03-10T08:07:45Z</time>
      </trkpt>
      <trkpt lat="46.77104" lon="-0.38301">
        <ele>186.8</ele>
        <time>2024-03-10T08:07:51Z</time>
      </trkpt>
      <trkpt lat="46.77096" lon="-0.38291">
        <ele>187.2</ele>
        <time>2024-03-10T08:07:57Z</time>
      </trkpt>
      <trkpt lat="46.77094" lon="-0.38289">
        <ele>187.4</ele>
        <time>2024-03-10T08:08:00Z</time>
      </trkpt>
      <trkpt lat="46.77092" lon="-0.38286">
        <ele>187.6</ele>
        <time>2024-03-10T08:08:02Z</time>
      </trkpt>
      <trkpt lat="46.7708" lon="-0.38274">
        <ele>187</ele>
        <time>2024-03-10T08:08:10Z</time>
      </trkpt>
      <trkpt lat="46.77075" lon="-0.3827">
        <ele>187.4</ele>
        <time>2024-03-10T08:08:16Z</time>
      </trkpt>
      <trkpt lat="46.77071" lon="-0.38263">
        <ele>187.4</ele>
        <time>2024-03-10T08:08:25Z</time>
      </trkpt>
      <trkpt lat="46.77065" lon="-0.38258">
        <ele>187.4</ele>
        <time>2024-03-10T08:08:34Z</time>
      </trkpt>
      <trkpt lat="46.77059" lon="-0.38252">
        <ele>187.6</ele>
        <time>2024-03-10T08:08:39Z</time>
      </trkpt>
      <trkpt lat="46.77049" lon="-0.38242">
        <ele>188</ele>
        <time>2024-03-10T08:08:46Z</time>
      </trkpt>
      <trkpt lat="46.77041" lon="-0.38234">
        <ele>188.2</ele>
        <time>2024-03-10T08:08:52Z</time>
      </trkpt>
      <trkpt lat="46.77038" lon="-0.38232">
        <ele>188.8</ele>
        <time>2024-03-10T08:08:54Z</time>
      </trkpt>
      <trkpt lat="46.77032" lon="-0.38229">
        <ele>189.4</ele>
        <time>2024-03-10T08:08:58Z</time>
      </trkpt>
      <trkpt lat="46.77017" lon="-0.38228">
        <ele>189.8</ele>
        <time>2024-03-10T08:09:04Z</time>
      </trkpt>
      <trkpt lat="46.77014" lon="-0.38228">
        <ele>190</ele>
        <time>2024-03-10T08:09:05Z</time>
      </trkpt>
      <trkpt lat="46.77002" lon="-0.38227">
        <ele>190.6</ele>
        <time>2024-03-10T08:09:10Z</time>
      </trkpt>
      <trkpt lat="46.77" lon="-0.38226">
        <ele>191</ele>
        <time>2024-03-10T08:09:11Z</time>
      </trkpt>
      <trkpt lat="46.76992" lon="-0.38222">
        <ele>191.6</ele>
        <time>2024-03-10T08:09:16Z</time>
      </trkpt>
      <trkpt lat="46.76985" lon="-0.38222">
        <ele>192.2</ele>
        <time>2024-03-10T08:09:20Z</time>
      </trkpt>
      <trkpt lat="46.7698" lon="-0.38224">
        <ele>192.4</ele>
        <time>2024-03-10T08:09:23Z</time>
      </trkpt>
      <trkpt lat="46.76968" lon="-0.38234">
        <ele>192.8</ele>
        <time>2024-03-10T08:09:28Z</time>
      </trkpt>
      <trkpt lat="46.76955" lon="-0.38253">
        <ele>192.6</ele>
        <time>2024-03-10T08:09:34Z</time>
      </trkpt>
      <trkpt lat="46.76945" lon="-0.38274">
        <ele>192.6</ele>
        <time>2024-03-10T08:09:40Z</time>
      </trkpt>
      <trkpt lat="46.76932" lon="-0.38296">
        <ele>192.6</ele>
        <time>2024-03-10T08:09:46Z</time>
      </trkpt>
      <trkpt lat="46.76926" lon="-0.38331">
        <ele>192.2</ele>
        <time>2024-03-10T08:09:53Z</time>
      </trkpt>
      <trkpt lat="46.76925" lon="-0.38357">
        <ele>191.2</ele>
        <time>2024-03-10T08:09:57Z</time>
      </trkpt>
      <trkpt lat="46.76923" lon="-0.38363">
        <ele>191</ele>
        <time>2024-03-10T08:09:58Z</time>
      </trkpt>
      <trkpt lat="46.7692" lon="-0.38367">
        <ele>190.8</ele>
        <time>2024-03-10T08:09:59Z</time>
      </trkpt>
      <trkpt lat="46.76913" lon="-0.38373">
        <ele>190.8</ele>
        <time>2024-03-10T08:10:01Z</time>
      </trkpt>
      <trkpt lat="46.7691" lon="-0.38376">
        <ele>190.8</ele>
        <time>2024-03-10T08:10:02Z</time>
      </trkpt>
      <trkpt lat="46.76886" lon="-0.38402">
        <ele>191.6</ele>
        <time>2024-03-10T08:10:09Z</time>
      </trkpt>
      <trkpt lat="46.7686" lon="-0.3843">
        <ele>191.6</ele>
        <time>2024-03-10T08:10:15Z</time>
      </trkpt>
      <trkpt lat="46.76829" lon="-0.38459">
        <ele>190.8</ele>
        <time>2024-03-10T08:10:22Z</time>
      </trkpt>
      <trkpt lat="46.76818" lon="-0.3847">
        <ele>190.8</ele>
        <time>2024-03-10T08:10:25Z</time>
      </trkpt>
      <trkpt lat="46.7681" lon="-0.38478">
        <ele>190.8</ele>
        <time>2024-03-10T08:10:27Z</time>
      </trkpt>
      <trkpt lat="46.76807" lon="-0.38482">
        <ele>190.6</ele>
        <time>2024-03-10T08:10:28Z</time>
      </trkpt>
      <trkpt lat="46.76805" lon="-0.38488">
        <ele>190.6</ele>
        <time>2024-03-10T08:10:29Z</time>
      </trkpt>
      <trkpt lat="46.76804" lon="-0.38499">
        <ele>190.6</ele>
        <time>2024-03-10T08:10:31Z</time>
      </trkpt>
      <trkpt lat="46.76803" lon="-0.38506">
        <ele>190.6</ele>
        <time>2024-03-10T08:10:32Z</time>
      </trkpt>
      <trkpt lat="46.768" lon="-0.38546">
        <ele>189.8</ele>
        <time>2024-03-10T08:10:37Z</time>
      </trkpt>
      <trkpt lat="46.76794" lon="-0.38618">
        <ele>189.4</ele>
        <time>2024-03-10T08:10:45Z</time>
      </trkpt>
      <trkpt lat="46.76792" lon="-0.38647">
        <ele>188.8</ele>
        <time>2024-03-10T08:10:48Z</time>
      </trkpt>
      <trkpt lat="46.76789" lon="-0.38702">
        <ele>188.2</ele>
        <time>2024-03-10T08:10:54Z</time>
      </trkpt>
      <trkpt lat="46.76787" lon="-0.38721">
        <ele>187.6</ele>
        <time>2024-03-10T08:10:56Z</time>
      </trkpt>
      <trkpt lat="46.76784" lon="-0.38764">
        <ele>186.6</ele>
        <time>2024-03-10T08:11:01Z</time>
      </trkpt>
      <trkpt lat="46.7678" lon="-0.38797">
        <ele>186.2</ele>
        <time>2024-03-10T08:11:05Z</time>
      </trkpt>
      <trkpt lat="46.76776" lon="-0.38809">
        <ele>186.2</ele>
        <time>2024-03-10T08:11:07Z</time>
      </trkpt>
      <trkpt lat="46.76769" lon="-0.38819">
        <ele>185.6</ele>
        <time>2024-03-10T08:11:09Z</time>
      </trkpt>
      <trkpt lat="46.76765" lon="-0.38824">
        <ele>185.4</ele>
        <time>2024-03-10T08:11:10Z</time>
      </trkpt>
      <trkpt lat="46.76761" lon="-0.38828">
        <ele>185.2</ele>
        <time>2024-03-10T08:11:11Z</time>
      </trkpt>
      <trkpt lat="46.76756" lon="-0.3883">
        <ele>185.2</ele>
        <time>2024-03-10T08:11:12Z</time>
      </trkpt>
      <trkpt lat="46.76722" lon="-0.38852">
        <ele>185.8</ele>
        <time>2024-03-10T08:11:19Z</time>
      </trkpt>
      <trkpt lat="46.76691" lon="-0.38879">
        <ele>185</ele>
        <time>2024-03-10T08:11:25Z</time>
      </trkpt>
      <trkpt lat="46.76668" lon="-0.38899">
        <ele>184.2</ele>
        <time>2024-03-10T08:11:29Z</time>
      </trkpt>
      <trkpt lat="46.7665" lon="-0.38916">
        <ele>183</ele>
        <time>2024-03-10T08:11:32Z</time>
      </trkpt>
      <trkpt lat="46.76618" lon="-0.38945">
        <ele>181.4</ele>
        <time>2024-03-10T08:11:37Z</time>
      </trkpt>
      <trkpt lat="46.76598" lon="-0.38963">
        <ele>180.6</ele>
        <time>2024-03-10T08:11:40Z</time>
      </trkpt>
      <trkpt lat="46.76591" lon="-0.3897">
        <ele>180.2</ele>
        <time>2024-03-10T08:11:41Z</time>
      </trkpt>
      <trkpt lat="46.76578" lon="-0.38984">
        <ele>179</ele>
        <time>2024-03-10T08:11:43Z</time>
      </trkpt>
      <trkpt lat="46.76556" lon="-0.39006">
        <ele>177.8</ele>
        <time>2024-03-10T08:11:46Z</time>
      </trkpt>
      <trkpt lat="46.76541" lon="-0.39022">
        <ele>176.4</ele>
        <time>2024-03-10T08:11:48Z</time>
      </trkpt>
      <trkpt lat="46.76527" lon="-0.39037">
        <ele>175</ele>
        <time>2024-03-10T08:11:50Z</time>
      </trkpt>
      <trkpt lat="46.76512" lon="-0.39051">
        <ele>174</ele>
        <time>2024-03-10T08:11:52Z</time>
      </trkpt>
      <trkpt lat="46.76505" lon="-0.39056">
        <ele>173.4</ele>
        <time>2024-03-10T08:11:53Z</time>
      </trkpt>
      <trkpt lat="46.76497" lon="-0.39058">
        <ele>172.4</ele>
        <time>2024-03-10T08:11:54Z</time>
      </trkpt>
      <trkpt lat="46.7649" lon="-0.39058">
        <ele>172</ele>
        <time>2024-03-10T08:11:55Z</time>
      </trkpt>
      <trkpt lat="46.7649" lon="-0.39058">
        <ele>171.4</ele>
        <time>2024-03-10T08:11:56Z</time>
      </trkpt>
      <trkpt lat="46.76478" lon="-0.39054">
        <ele>170.8</ele>
        <time>2024-03-10T08:11:57Z</time>
      </trkpt>
      <trkpt lat="46.76464" lon="-0.39052">
        <ele>170.4</ele>
        <time>2024-03-10T08:11:59Z</time>
      </trkpt>
      <trkpt lat="46.76457" lon="-0.3905">
        <ele>170.2</ele>
        <time>2024-03-10T08:12:00Z</time>
      </trkpt>
      <trkpt lat="46.76446" lon="-0.39043">
        <ele>170</ele>
        <time>2024-03-10T08:12:02Z</time>
      </trkpt>
      <trkpt lat="46.76435" lon="-0.39034">
        <ele>169.8</ele>
        <time>2024-03-10T08:12:04Z</time>
      </trkpt>
      <trkpt lat="46.76406" lon="-0.39008">
        <ele>170</ele>
        <time>2024-03-10T08:12:10Z</time>
      </trkpt>
      <trkpt lat="46.7638" lon="-0.38982">
        <ele>169.2</ele>
        <time>2024-03-10T08:12:15Z</time>
      </trkpt>
      <trkpt lat="46.76374" lon="-0.38976">
        <ele>168.8</ele>
        <time>2024-03-10T08:12:16Z</time>
      </trkpt>
      <trkpt lat="46.76362" lon="-0.38961">
        <ele>168</ele>
        <time>2024-03-10T08:12:18Z</time>
      </trkpt>
      <trkpt lat="46.76349" lon="-0.38947">
        <ele>166.8</ele>
        <time>2024-03-10T08:12:20Z</time>
      </trkpt>
      <trkpt lat="46.76332" lon="-0.38928">
        <ele>165.6</ele>
        <time>2024-03-10T08:12:23Z</time>
      </trkpt>
      <trkpt lat="46.76327" lon="-0.38922">
        <ele>165.2</ele>
        <time>2024-03-10T08:12:24Z</time>
      </trkpt>
      <trkpt lat="46.76322" lon="-0.38918">
        <ele>165</ele>
        <time>2024-03-10T08:12:25Z</time>
      </trkpt>
      <trkpt lat="46.76317" lon="-0.38915">
        <ele>164</ele>
        <time>2024-03-10T08:12:26Z</time>
      </trkpt>
      <trkpt lat="46.76312" lon="-0.38912">
        <ele>163.4</ele>
        <time>2024-03-10T08:12:27Z</time>
      </trkpt>
      <trkpt lat="46.76308" lon="-0.38911">
        <ele>162.8</ele>
        <time>2024-03-10T08:12:28Z</time>
      </trkpt>
      <trkpt lat="46.76298" lon="-0.3891">
        <ele>161.8</ele>
        <time>2024-03-10T08:12:30Z</time>
      </trkpt>
      <trkpt lat="46.76293" lon="-0.38908">
        <ele>161.4</ele>
        <time>2024-03-10T08:12:31Z</time>
      </trkpt>
      <trkpt lat="46.76282" lon="-0.38905">
        <ele>160.6</ele>
        <time>2024-03-10T08:12:33Z</time>
      </trkpt>
      <trkpt lat="46.76276" lon="-0.38903">
        <ele>160.2</ele>
        <time>2024-03-10T08:12:34Z</time>
      </trkpt>
      <trkpt lat="46.76263" lon="-0.38898">
        <ele>159.2</ele>
        <time>2024-03-10T08:12:36Z</time>
      </trkpt>
      <trkpt lat="46.76257" lon="-0.38894">
        <ele>158.8</ele>
        <time>2024-03-10T08:12:37Z</time>
      </trkpt>
      <trkpt lat="46.76243" lon="-0.38884">
        <ele>158.2</ele>
        <time>2024-03-10T08:12:39Z</time>
      </trkpt>
      <trkpt lat="46.76229" lon="-0.38872">
        <ele>157</ele>
        <time>2024-03-10T08:12:41Z</time>
      </trkpt>
      <trkpt lat="46.76222" lon="-0.38867">
        <ele>155.8</ele>
        <time>2024-03-10T08:12:42Z</time>
      </trkpt>
      <trkpt lat="46.76208" lon="-0.38856">
        <ele>154.2</ele>
        <time>2024-03-10T08:12:44Z</time>
      </trkpt>
      <trkpt lat="46.76202" lon="-0.3885">
        <ele>153.6</ele>
        <time>2024-03-10T08:12:45Z</time>
      </trkpt>
      <trkpt lat="46.76195" lon="-0.38844">
        <ele>152.8</ele>
        <time>2024-03-10T08:12:46Z</time>
      </trkpt>
      <trkpt lat="46.76188" lon="-0.38837">
        <ele>152.4</ele>
        <time>2024-03-10T08:12:47Z</time>
      </trkpt>
      <trkpt lat="46.76183" lon="-0.38828">
        <ele>151.8</ele>
        <time>2024-03-10T08:12:48Z</time>
      </trkpt>
      <trkpt lat="46.76178" lon="-0.38821">
        <ele>151.4</ele>
        <time>2024-03-10T08:12:49Z</time>
      </trkpt>
      <trkpt lat="46.7615" lon="-0.38777">
        <ele>150.8</ele>
        <time>2024-03-10T08:12:55Z</time>
      </trkpt>
      <trkpt lat="46.76123" lon="-0.38739">
        <ele>150.6</ele>
        <time>2024-03-10T08:13:01Z</time>
      </trkpt>
      <trkpt lat="46.7611" lon="-0.38722">
        <ele>150.2</ele>
        <time>2024-03-10T08:13:04Z</time>
      </trkpt>
      <trkpt lat="46.76083" lon="-0.3868">
        <ele>150.2</ele>
        <time>2024-03-10T08:13:11Z</time>
      </trkpt>
      <trkpt lat="46.76079" lon="-0.38674">
        <ele>150.2</ele>
        <time>2024-03-10T08:13:12Z</time>
      </trkpt>
      <trkpt lat="46.76068" lon="-0.38665">
        <ele>150.4</ele>
        <time>2024-03-10T08:13:14Z</time>
      </trkpt>
      <trkpt lat="46.76063" lon="-0.38662">
        <ele>150.4</ele>
        <time>2024-03-10T08:13:15Z</time>
      </trkpt>
      <trkpt lat="46.7604" lon="-0.38649">
        <ele>150.8</ele>
        <time>2024-03-10T08:13:19Z</time>
      </trkpt>
      <trkpt lat="46.76034" lon="-0.38644">
        <ele>150.8</ele>
        <time>2024-03-10T08:13:20Z</time>
      </trkpt>
      <trkpt lat="46.76029" lon="-0.38638">
        <ele>150.8</ele>
        <time>2024-03-10T08:13:21Z</time>
      </trkpt>
      <trkpt lat="46.76021" lon="-0.38625">
        <ele>150.8</ele>
        <time>2024-03-10T08:13:23Z</time>
      </trkpt>
      <trkpt lat="46.76019" lon="-0.38617">
        <ele>151</ele>
        <time>2024-03-10T08:13:24Z</time>
      </trkpt>
      <trkpt lat="46.76018" lon="-0.3861">
        <ele>151</ele>
        <time>2024-03-10T08:13:25Z</time>
      </trkpt>
      <trkpt lat="46.76016" lon="-0.38597">
        <ele>151.6</ele>
        <time>2024-03-10T08:13:27Z</time>
      </trkpt>
      <trkpt lat="46.76016" lon="-0.38592">
        <ele>151.6</ele>
        <time>2024-03-10T08:13:28Z</time>
      </trkpt>
      <trkpt lat="46.76016" lon="-0.38588">
        <ele>151.8</ele>
        <time>2024-03-10T08:13:29Z</time>
      </trkpt>
      <trkpt lat="46.76013" lon="-0.38571">
        <ele>152.4</ele>
        <time>2024-03-10T08:13:34Z</time>
      </trkpt>
      <trkpt lat="46.76012" lon="-0.38564">
        <ele>152.8</ele>
        <time>2024-03-10T08:13:36Z</time>
      </trkpt>
      <trkpt lat="46.7601" lon="-0.38555">
        <ele>153.8</ele>
        <time>2024-03-10T08:13:39Z</time>
      </trkpt>
      <trkpt lat="46.76008" lon="-0.38548">
        <ele>154.6</ele>
        <time>2024-03-10T08:13:42Z</time>
      </trkpt>
      <trkpt lat="46.76007" lon="-0.38544">
        <ele>155</ele>
        <time>2024-03-10T08:13:43Z</time>
      </trkpt>
      <trkpt lat="46.76002" lon="-0.38533">
        <ele>156.2</ele>
        <time>2024-03-10T08:13:47Z</time>
      </trkpt>
      <trkpt lat="46.76002" lon="-0.38529">
        <ele>156.2</ele>
        <time>2024-03-10T08:13:48Z</time>
      </trkpt>
      <trkpt lat="46.76001" lon="-0.38523">
        <ele>156.6</ele>
        <time>2024-03-10T08:13:50Z</time>
      </trkpt>
      <trkpt lat="46.75997" lon="-0.38513">
        <ele>157</ele>
        <time>2024-03-10T08:13:53Z</time>
      </trkpt>
      <trkpt lat="46.75994" lon="-0.38505">
        <ele>157.4</ele>
        <time>2024-03-10T08:13:55Z</time>
      </trkpt>
      <trkpt lat="46.75991" lon="-0.38495">
        <ele>158.6</ele>
        <time>2024-03-10T08:13:58Z</time>
      </trkpt>
      <trkpt lat="46.75988" lon="-0.38486">
        <ele>159.2</ele>
        <time>2024-03-10T08:14:01Z</time>
      </trkpt>
      <trkpt lat="46.75986" lon="-0.38479">
        <ele>159.6</ele>
        <time>2024-03-10T08:14:03Z</time>
      </trkpt>
      <trkpt lat="46.75982" lon="-0.38469">
        <ele>160.8</ele>
        <time>2024-03-10T08:14:06Z</time>
      </trkpt>
      <trkpt lat="46.7598" lon="-0.38463">
        <ele>161.2</ele>
        <time>2024-03-10T08:14:08Z</time>
      </trkpt>
      <trkpt lat="46.75975" lon="-0.38452">
        <ele>161.8</ele>
        <time>2024-03-10T08:14:11Z</time>
      </trkpt>
      <trkpt lat="46.75969" lon="-0.38441">
        <ele>162.4</ele>
        <time>2024-03-10T08:14:14Z</time>
      </trkpt>
      <trkpt lat="46.75957" lon="-0.38415">
        <ele>162.4</ele>
        <time>2024-03-10T08:14:19Z</time>
      </trkpt>
      <trkpt lat="46.75948" lon="-0.38379">
        <ele>162.4</ele>
        <time>2024-03-10T08:14:25Z</time>
      </trkpt>
      <trkpt lat="46.75944" lon="-0.38364">
        <ele>161.8</ele>
        <time>2024-03-10T08:14:27Z</time>
      </trkpt>
      <trkpt lat="46.75938" lon="-0.3835">
        <ele>161.4</ele>
        <time>2024-03-10T08:14:29Z</time>
      </trkpt>
      <trkpt lat="46.75934" lon="-0.38344">
        <ele>161.2</ele>
        <time>2024-03-10T08:14:30Z</time>
      </trkpt>
      <trkpt lat="46.75921" lon="-0.38321">
        <ele>161.2</ele>
        <time>2024-03-10T08:14:35Z</time>
      </trkpt>
      <trkpt lat="46.75904" lon="-0.38295">
        <ele>163.2</ele>
        <time>2024-03-10T08:14:42Z</time>
      </trkpt>
      <trkpt lat="46.75899" lon="-0.38285">
        <ele>164.6</ele>
        <time>2024-03-10T08:14:45Z</time>
      </trkpt>
      <trkpt lat="46.75892" lon="-0.38275">
        <ele>165.8</ele>
        <time>2024-03-10T08:14:48Z</time>
      </trkpt>
      <trkpt lat="46.75888" lon="-0.38268">
        <ele>166.6</ele>
        <time>2024-03-10T08:14:50Z</time>
      </trkpt>
      <trkpt lat="46.75885" lon="-0.38264">
        <ele>167</ele>
        <time>2024-03-10T08:14:51Z</time>
      </trkpt>
      <trkpt lat="46.75878" lon="-0.38253">
        <ele>168.2</ele>
        <time>2024-03-10T08:14:54Z</time>
      </trkpt>
      <trkpt lat="46.7587" lon="-0.38241">
        <ele>169.2</ele>
        <time>2024-03-10T08:14:57Z</time>
      </trkpt>
      <trkpt lat="46.75867" lon="-0.38237">
        <ele>169.4</ele>
        <time>2024-03-10T08:14:58Z</time>
      </trkpt>
      <trkpt lat="46.75849" lon="-0.38212">
        <ele>170.4</ele>
        <time>2024-03-10T08:15:04Z</time>
      </trkpt>
      <trkpt lat="46.75824" lon="-0.38177">
        <ele>171.2</ele>
        <time>2024-03-10T08:15:12Z</time>
      </trkpt>
      <trkpt lat="46.75815" lon="-0.38162">
        <ele>171.4</ele>
        <time>2024-03-10T08:15:15Z</time>
      </trkpt>
      <trkpt lat="46.75799" lon="-0.38138">
        <ele>171.6</ele>
        <time>2024-03-10T08:15:20Z</time>
      </trkpt>
      <trkpt lat="46.75773" lon="-0.38099">
        <ele>171.8</ele>
        <time>2024-03-10T08:15:28Z</time>
      </trkpt>
      <trkpt lat="46.75754" lon="-0.3807">
        <ele>171.8</ele>
        <time>2024-03-10T08:15:34Z</time>
      </trkpt>
      <trkpt lat="46.75741" lon="-0.38049">
        <ele>171.6</ele>
        <time>2024-03-10T08:15:38Z</time>
      </trkpt>
      <trkpt lat="46.75731" lon="-0.38032">
        <ele>171.2</ele>
        <time>2024-03-10T08:15:41Z</time>
      </trkpt>
      <trkpt lat="46.75708" lon="-0.37994">
        <ele>170.2</ele>
        <time>2024-03-10T08:15:48Z</time>
      </trkpt>
      <trkpt lat="46.75707" lon="-0.37989">
        <ele>170</ele>
        <time>2024-03-10T08:15:49Z</time>
      </trkpt>
      <trkpt lat="46.75708" lon="-0.37984">
        <ele>170</ele>
        <time>2024-03-10T08:15:50Z</time>
      </trkpt>
      <trkpt lat="46.75712" lon="-0.37979">
        <ele>169.8</ele>
        <time>2024-03-10T08:15:52Z</time>
      </trkpt>
      <trkpt lat="46.7573" lon="-0.37976">
        <ele>169.8</ele>
        <time>2024-03-10T08:15:56Z</time>
      </trkpt>
      <trkpt lat="46.75754" lon="-0.37973">
        <ele>170.4</ele>
        <time>2024-03-10T08:16:01Z</time>
      </trkpt>
      <trkpt lat="46.75764" lon="-0.37969">
        <ele>170.4</ele>
        <time>2024-03-10T08:16:03Z</time>
      </trkpt>
      <trkpt lat="46.75795" lon="-0.37963">
        <ele>171</ele>
        <time>2024-03-10T08:16:09Z</time>
      </trkpt>
      <trkpt lat="46.75835" lon="-0.37955">
        <ele>171</ele>
        <time>2024-03-10T08:16:16Z</time>
      </trkpt>
      <trkpt lat="46.75845" lon="-0.37952">
        <ele>171.2</ele>
        <time>2024-03-10T08:16:18Z</time>
      </trkpt>
      <trkpt lat="46.75871" lon="-0.37946">
        <ele>171.6</ele>
        <time>2024-03-10T08:16:23Z</time>
      </trkpt>
      <trkpt lat="46.75908" lon="-0.37936">
        <ele>172.2</ele>
        <time>2024-03-10T08:16:30Z</time>
      </trkpt>
      <trkpt lat="46.75919" lon="-0.37933">
        <ele>172.4</ele>
        <time>2024-03-10T08:16:32Z</time>
      </trkpt>
      <trkpt lat="46.75949" lon="-0.37922">
        <ele>173</ele>
        <time>2024-03-10T08:16:37Z</time>
      </trkpt>
      <trkpt lat="46.75986" lon="-0.37897">
        <ele>173.4</ele>
        <time>2024-03-10T08:16:44Z</time>
      </trkpt>
      <trkpt lat="46.7599" lon="-0.37893">
        <ele>173.4</ele>
        <time>2024-03-10T08:16:45Z</time>
      </trkpt>
      <trkpt lat="46.76025" lon="-0.3786">
        <ele>174.4</ele>
        <time>2024-03-10T08:16:53Z</time>
      </trkpt>
      <trkpt lat="46.76029" lon="-0.37857">
        <ele>174.6</ele>
        <time>2024-03-10T08:16:54Z</time>
      </trkpt>
      <trkpt lat="46.76064" lon="-0.37829">
        <ele>175.8</ele>
        <time>2024-03-10T08:17:02Z</time>
      </trkpt>
      <trkpt lat="46.76068" lon="-0.37825">
        <ele>176</ele>
        <time>2024-03-10T08:17:03Z</time>
      </trkpt>
      <trkpt lat="46.76084" lon="-0.37812">
        <ele>176.6</ele>
        <time>2024-03-10T08:17:07Z</time>
      </trkpt>
      <trkpt lat="46.76096" lon="-0.37804">
        <ele>176.8</ele>
        <time>2024-03-10T08:17:10Z</time>
      </trkpt>
      <trkpt lat="46.76127" lon="-0.37773">
        <ele>178</ele>
        <time>2024-03-10T08:17:18Z</time>
      </trkpt>
      <trkpt lat="46.76138" lon="-0.3776">
        <ele>178.4</ele>
        <time>2024-03-10T08:17:21Z</time>
      </trkpt>
      <trkpt lat="46.76145" lon="-0.3775">
        <ele>178.6</ele>
        <time>2024-03-10T08:17:23Z</time>
      </trkpt>
      <trkpt lat="46.76155" lon="-0.37737">
        <ele>179</ele>
        <time>2024-03-10T08:17:26Z</time>
      </trkpt>
      <trkpt lat="46.76155" lon="-0.37737">
        <ele>179.2</ele>
        <time>2024-03-10T08:17:27Z</time>
      </trkpt>
      <trkpt lat="46.76172" lon="-0.37716">
        <ele>179.2</ele>
        <time>2024-03-10T08:17:31Z</time>
      </trkpt>
      <trkpt lat="46.76198" lon="-0.37691">
        <ele>180.2</ele>
        <time>2024-03-10T08:17:38Z</time>
      </trkpt>
      <trkpt lat="46.76222" lon="-0.37675">
        <ele>180.8</ele>
        <time>2024-03-10T08:17:45Z</time>
      </trkpt>
      <trkpt lat="46.76226" lon="-0.37673">
        <ele>181.2</ele>
        <time>2024-03-10T08:17:46Z</time>
      </trkpt>
      <trkpt lat="46.76242" lon="-0.37665">
        <ele>182.4</ele>
        <time>2024-03-10T08:17:51Z</time>
      </trkpt>
      <trkpt lat="46.76249" lon="-0.37661">
        <ele>182.6</ele>
        <time>2024-03-10T08:17:53Z</time>
      </trkpt>
      <trkpt lat="46.76263" lon="-0.37656">
        <ele>183.4</ele>
        <time>2024-03-10T08:17:57Z</time>
      </trkpt>
      <trkpt lat="46.76273" lon="-0.37651">
        <ele>184</ele>
        <time>2024-03-10T08:18:00Z</time>
      </trkpt>
      <trkpt lat="46.76282" lon="-0.37648">
        <ele>184.6</ele>
        <time>2024-03-10T08:18:03Z</time>
      </trkpt>
      <trkpt lat="46.76294" lon="-0.37645">
        <ele>184.8</ele>
        <time>2024-03-10T08:18:07Z</time>
      </trkpt>
      <trkpt lat="46.76309" lon="-0.37649">
        <ele>184.8</ele>
        <time>2024-03-10T08:18:11Z</time>
      </trkpt>
      <trkpt lat="46.76314" lon="-0.37652">
        <ele>184.8</ele>
        <time>2024-03-10T08:18:12Z</time>
      </trkpt>
      <trkpt lat="46.76332" lon="-0.37668">
        <ele>184.2</ele>
        <time>2024-03-10T08:18:16Z</time>
      </trkpt>
      <trkpt lat="46.76343" lon="-0.37678">
        <ele>183.4</ele>
        <time>2024-03-10T08:18:18Z</time>
      </trkpt>
      <trkpt lat="46.76357" lon="-0.37692">
        <ele>182.8</ele>
        <time>2024-03-10T08:18:21Z</time>
      </trkpt>
      <trkpt lat="46.76361" lon="-0.37696">
        <ele>182.6</ele>
        <time>2024-03-10T08:18:22Z</time>
      </trkpt>
      <trkpt lat="46.76368" lon="-0.37703">
        <ele>182.2</ele>
        <time>2024-03-10T08:18:24Z</time>
      </trkpt>
      <trkpt lat="46.76387" lon="-0.37719">
        <ele>182</ele>
        <time>2024-03-10T08:18:29Z</time>
      </trkpt>
      <trkpt lat="46.76405" lon="-0.37731">
        <ele>182.4</ele>
        <time>2024-03-10T08:18:33Z</time>
      </trkpt>
      <trkpt lat="46.76416" lon="-0.37739">
        <ele>182.8</ele>
        <time>2024-03-10T08:18:36Z</time>
      </trkpt>
      <trkpt lat="46.7642" lon="-0.37741">
        <ele>182.8</ele>
        <time>2024-03-10T08:18:37Z</time>
      </trkpt>
      <trkpt lat="46.76433" lon="-0.37749">
        <ele>183.6</ele>
        <time>2024-03-10T08:18:40Z</time>
      </trkpt>
      <trkpt lat="46.76446" lon="-0.37758">
        <ele>184.4</ele>
        <time>2024-03-10T08:18:43Z</time>
      </trkpt>
      <trkpt lat="46.76455" lon="-0.37764">
        <ele>184.6</ele>
        <time>2024-03-10T08:18:45Z</time>
      </trkpt>
      <trkpt lat="46.7648" lon="-0.37782">
        <ele>185.8</ele>
        <time>2024-03-10T08:18:51Z</time>
      </trkpt>
      <trkpt lat="46.76484" lon="-0.37785">
        <ele>186</ele>
        <time>2024-03-10T08:18:52Z</time>
      </trkpt>
      <trkpt lat="46.76496" lon="-0.37794">
        <ele>187</ele>
        <time>2024-03-10T08:18:55Z</time>
      </trkpt>
      <trkpt lat="46.765" lon="-0.37796">
        <ele>187.2</ele>
        <time>2024-03-10T08:18:56Z</time>
      </trkpt>
      <trkpt lat="46.76513" lon="-0.378">
        <ele>188.2</ele>
        <time>2024-03-10T08:18:59Z</time>
      </trkpt>
      <trkpt lat="46.76542" lon="-0.37801">
        <ele>189.2</ele>
        <time>2024-03-10T08:19:06Z</time>
      </trkpt>
      <trkpt lat="46.76546" lon="-0.37801">
        <ele>189.4</ele>
        <time>2024-03-10T08:19:07Z</time>
      </trkpt>
      <trkpt lat="46.76569" lon="-0.37802">
        <ele>190.4</ele>
        <time>2024-03-10T08:19:13Z</time>
      </trkpt>
      <trkpt lat="46.76581" lon="-0.37802">
        <ele>190.8</ele>
        <time>2024-03-10T08:19:16Z</time>
      </trkpt>
      <trkpt lat="46.76592" lon="-0.37802">
        <ele>191.4</ele>
        <time>2024-03-10T08:19:19Z</time>
      </trkpt>
      <trkpt lat="46.76613" lon="-0.37798">
        <ele>192.4</ele>
        <time>2024-03-10T08:19:25Z</time>
      </trkpt>
      <trkpt lat="46.76619" lon="-0.37795">
        <ele>192.4</ele>
        <time>2024-03-10T08:19:27Z</time>
      </trkpt>
      <trkpt lat="46.76632" lon="-0.37788">
        <ele>193.6</ele>
        <time>2024-03-10T08:19:31Z</time>
      </trkpt>
      <trkpt lat="46.76638" lon="-0.37783">
        <ele>194</ele>
        <time>2024-03-10T08:19:33Z</time>
      </trkpt>
      <trkpt lat="46.76652" lon="-0.37768">
        <ele>194.6</ele>
        <time>2024-03-10T08:19:38Z</time>
      </trkpt>
      <trkpt lat="46.76661" lon="-0.37757">
        <ele>195.2</ele>
        <time>2024-03-10T08:19:41Z</time>
      </trkpt>
      <trkpt lat="46.76669" lon="-0.37747">
        <ele>195.8</ele>
        <time>2024-03-10T08:19:44Z</time>
      </trkpt>
      <trkpt lat="46.76687" lon="-0.37727">
        <ele>196.4</ele>
        <time>2024-03-10T08:19:50Z</time>
      </trkpt>
      <trkpt lat="46.76694" lon="-0.37721">
        <ele>196.4</ele>
        <time>2024-03-10T08:19:52Z</time>
      </trkpt>
      <trkpt lat="46.767" lon="-0.37715">
        <ele>196.8</ele>
        <time>2024-03-10T08:19:54Z</time>
      </trkpt>
      <trkpt lat="46.76722" lon="-0.37699">
        <ele>197.6</ele>
        <time>2024-03-10T08:20:00Z</time>
      </trkpt>
      <trkpt lat="46.76733" lon="-0.37693">
        <ele>198</ele>
        <time>2024-03-10T08:20:03Z</time>
      </trkpt>
      <trkpt lat="46.76758" lon="-0.37679">
        <ele>199</ele>
        <time>2024-03-10T08:20:10Z</time>
      </trkpt>
      <trkpt lat="46.76762" lon="-0.37677">
        <ele>199.2</ele>
        <time>2024-03-10T08:20:11Z</time>
      </trkpt>
      <trkpt lat="46.76782" lon="-0.37666">
        <ele>200.2</ele>
        <time>2024-03-10T08:20:17Z</time>
      </trkpt>
      <trkpt lat="46.76785" lon="-0.37664">
        <ele>200.2</ele>
        <time>2024-03-10T08:20:18Z</time>
      </trkpt>
      <trkpt lat="46.76806" lon="-0.37647">
        <ele>201.2</ele>
        <time>2024-03-10T08:20:25Z</time>
      </trkpt>
      <trkpt lat="46.76809" lon="-0.37645">
        <ele>201.4</ele>
        <time>2024-03-10T08:20:26Z</time>
      </trkpt>
      <trkpt lat="46.76826" lon="-0.37633">
        <ele>202</ele>
        <time>2024-03-10T08:20:31Z</time>
      </trkpt>
      <trkpt lat="46.76835" lon="-0.37625">
        <ele>202.2</ele>
        <time>2024-03-10T08:20:34Z</time>
      </trkpt>
      <trkpt lat="46.76845" lon="-0.37614">
        <ele>202.4</ele>
        <time>2024-03-10T08:20:37Z</time>
      </trkpt>
      <trkpt lat="46.76872" lon="-0.3759">
        <ele>203.2</ele>
        <time>2024-03-10T08:20:44Z</time>
      </trkpt>
      <trkpt lat="46.76876" lon="-0.37586">
        <ele>203.4</ele>
        <time>2024-03-10T08:20:45Z</time>
      </trkpt>
      <trkpt lat="46.7691" lon="-0.37558">
        <ele>203.8</ele>
        <time>2024-03-10T08:20:53Z</time>
      </trkpt>
      <trkpt lat="46.76936" lon="-0.37537">
        <ele>204</ele>
        <time>2024-03-10T08:21:00Z</time>
      </trkpt>
      <trkpt lat="46.76957" lon="-0.37517">
        <ele>203.8</ele>
        <time>2024-03-10T08:21:06Z</time>
      </trkpt>
      <trkpt lat="46.76986" lon="-0.37488">
        <ele>203.6</ele>
        <time>2024-03-10T08:21:13Z</time>
      </trkpt>
      <trkpt lat="46.77032" lon="-0.37451">
        <ele>203.6</ele>
        <time>2024-03-10T08:21:21Z</time>
      </trkpt>
      <trkpt lat="46.77084" lon="-0.37407">
        <ele>202.8</ele>
        <time>2024-03-10T08:21:30Z</time>
      </trkpt>
      <trkpt lat="46.77103" lon="-0.37391">
        <ele>202.2</ele>
        <time>2024-03-10T08:21:33Z</time>
      </trkpt>
      <trkpt lat="46.77134" lon="-0.37364">
        <ele>201.6</ele>
        <time>2024-03-10T08:21:38Z</time>
      </trkpt>
      <trkpt lat="46.77146" lon="-0.37354">
        <ele>200.6</ele>
        <time>2024-03-10T08:21:40Z</time>
      </trkpt>
      <trkpt lat="46.7715" lon="-0.37349">
        <ele>200.2</ele>
        <time>2024-03-10T08:21:41Z</time>
      </trkpt>
      <trkpt lat="46.77153" lon="-0.37343">
        <ele>199.8</ele>
        <time>2024-03-10T08:21:42Z</time>
      </trkpt>
      <trkpt lat="46.77152" lon="-0.37337">
        <ele>199.4</ele>
        <time>2024-03-10T08:21:43Z</time>
      </trkpt>
      <trkpt lat="46.7715" lon="-0.37334">
        <ele>199.2</ele>
        <time>2024-03-10T08:21:44Z</time>
      </trkpt>
      <trkpt lat="46.77139" lon="-0.37325">
        <ele>198.2</ele>
        <time>2024-03-10T08:21:47Z</time>
      </trkpt>
      <trkpt lat="46.77124" lon="-0.37311">
        <ele>198.2</ele>
        <time>2024-03-10T08:21:51Z</time>
      </trkpt>
      <trkpt lat="46.77114" lon="-0.37295">
        <ele>198.2</ele>
        <time>2024-03-10T08:21:54Z</time>
      </trkpt>
      <trkpt lat="46.77108" lon="-0.37281">
        <ele>197.8</ele>
        <time>2024-03-10T08:21:56Z</time>
      </trkpt>
      <trkpt lat="46.77101" lon="-0.37254">
        <ele>197.2</ele>
        <time>2024-03-10T08:21:59Z</time>
      </trkpt>
      <trkpt lat="46.77093" lon="-0.37237">
        <ele>197</ele>
        <time>2024-03-10T08:22:01Z</time>
      </trkpt>
      <trkpt lat="46.77077" lon="-0.37217">
        <ele>196.2</ele>
        <time>2024-03-10T08:22:04Z</time>
      </trkpt>
      <trkpt lat="46.77073" lon="-0.3721">
        <ele>196</ele>
        <time>2024-03-10T08:22:05Z</time>
      </trkpt>
      <trkpt lat="46.77069" lon="-0.37193">
        <ele>195.8</ele>
        <time>2024-03-10T08:22:07Z</time>
      </trkpt>
      <trkpt lat="46.77069" lon="-0.37185">
        <ele>195.8</ele>
        <time>2024-03-10T08:22:08Z</time>
      </trkpt>
      <trkpt lat="46.77071" lon="-0.37176">
        <ele>195.8</ele>
        <time>2024-03-10T08:22:09Z</time>
      </trkpt>
      <trkpt lat="46.77078" lon="-0.3716">
        <ele>195.8</ele>
        <time>2024-03-10T08:22:11Z</time>
      </trkpt>
      <trkpt lat="46.77093" lon="-0.37126">
        <ele>195</ele>
        <time>2024-03-10T08:22:15Z</time>
      </trkpt>
      <trkpt lat="46.77104" lon="-0.37101">
        <ele>194.4</ele>
        <time>2024-03-10T08:22:18Z</time>
      </trkpt>
      <trkpt lat="46.77113" lon="-0.37083">
        <ele>194</ele>
        <time>2024-03-10T08:22:20Z</time>
      </trkpt>
      <trkpt lat="46.77129" lon="-0.37047">
        <ele>193</ele>
        <time>2024-03-10T08:22:24Z</time>
      </trkpt>
      <trkpt lat="46.77135" lon="-0.37028">
        <ele>192.8</ele>
        <time>2024-03-10T08:22:26Z</time>
      </trkpt>
      <trkpt lat="46.77148" lon="-0.36979">
        <ele>192.4</ele>
        <time>2024-03-10T08:22:31Z</time>
      </trkpt>
      <trkpt lat="46.77159" lon="-0.3694">
        <ele>191.6</ele>
        <time>2024-03-10T08:22:35Z</time>
      </trkpt>
      <trkpt lat="46.77168" lon="-0.36912">
        <ele>190.4</ele>
        <time>2024-03-10T08:22:38Z</time>
      </trkpt>
      <trkpt lat="46.77189" lon="-0.36857">
        <ele>189.4</ele>
        <time>2024-03-10T08:22:44Z</time>
      </trkpt>
      <trkpt lat="46.77191" lon="-0.36848">
        <ele>189.4</ele>
        <time>2024-03-10T08:22:45Z</time>
      </trkpt>
      <trkpt lat="46.77193" lon="-0.36838">
        <ele>189.2</ele>
        <time>2024-03-10T08:22:46Z</time>
      </trkpt>
      <trkpt lat="46.77193" lon="-0.36818">
        <ele>188.8</ele>
        <time>2024-03-10T08:22:48Z</time>
      </trkpt>
      <trkpt lat="46.77184" lon="-0.36771">
        <ele>189</ele>
        <time>2024-03-10T08:22:53Z</time>
      </trkpt>
      <trkpt lat="46.77175" lon="-0.3672">
        <ele>190.2</ele>
        <time>2024-03-10T08:22:59Z</time>
      </trkpt>
      <trkpt lat="46.77174" lon="-0.36712">
        <ele>190.6</ele>
        <time>2024-03-10T08:23:00Z</time>
      </trkpt>
      <trkpt lat="46.77172" lon="-0.36694">
        <ele>191.2</ele>
        <time>2024-03-10T08:23:02Z</time>
      </trkpt>
      <trkpt lat="46.77172" lon="-0.36686">
        <ele>191.6</ele>
        <time>2024-03-10T08:23:03Z</time>
      </trkpt>
      <trkpt lat="46.77172" lon="-0.36679">
        <ele>192</ele>
        <time>2024-03-10T08:23:04Z</time>
      </trkpt>
      <trkpt lat="46.77176" lon="-0.36656">
        <ele>192.2</ele>
        <time>2024-03-10T08:23:07Z</time>
      </trkpt>
      <trkpt lat="46.77183" lon="-0.36644">
        <ele>191.8</ele>
        <time>2024-03-10T08:23:09Z</time>
      </trkpt>
      <trkpt lat="46.77207" lon="-0.3662">
        <ele>191</ele>
        <time>2024-03-10T08:23:14Z</time>
      </trkpt>
      <trkpt lat="46.77217" lon="-0.3661">
        <ele>190.6</ele>
        <time>2024-03-10T08:23:16Z</time>
      </trkpt>
      <trkpt lat="46.77222" lon="-0.36604">
        <ele>190.6</ele>
        <time>2024-03-10T08:23:17Z</time>
      </trkpt>
      <trkpt lat="46.77236" lon="-0.36586">
        <ele>190.4</ele>
        <time>2024-03-10T08:23:20Z</time>
      </trkpt>
      <trkpt lat="46.77249" lon="-0.36567">
        <ele>190.4</ele>
        <time>2024-03-10T08:23:23Z</time>
      </trkpt>
      <trkpt lat="46.77261" lon="-0.36545">
        <ele>190</ele>
        <time>2024-03-10T08:23:26Z</time>
      </trkpt>
      <trkpt lat="46.77264" lon="-0.36536">
        <ele>189.8</ele>
        <time>2024-03-10T08:23:27Z</time>
      </trkpt>
      <trkpt lat="46.77267" lon="-0.36527">
        <ele>189.6</ele>
        <time>2024-03-10T08:23:28Z</time>
      </trkpt>
      <trkpt lat="46.77269" lon="-0.36518">
        <ele>189.4</ele>
        <time>2024-03-10T08:23:29Z</time>
      </trkpt>
      <trkpt lat="46.77271" lon="-0.3651">
        <ele>189.2</ele>
        <time>2024-03-10T08:23:30Z</time>
      </trkpt>
      <trkpt lat="46.77272" lon="-0.36504">
        <ele>189</ele>
        <time>2024-03-10T08:23:31Z</time>
      </trkpt>
      <trkpt lat="46.77278" lon="-0.365">
        <ele>188.6</ele>
        <time>2024-03-10T08:23:33Z</time>
      </trkpt>
      <trkpt lat="46.77281" lon="-0.36502">
        <ele>188.2</ele>
        <time>2024-03-10T08:23:34Z</time>
      </trkpt>
      <trkpt lat="46.77284" lon="-0.36505">
        <ele>188</ele>
        <time>2024-03-10T08:23:35Z</time>
      </trkpt>
      <trkpt lat="46.77288" lon="-0.36508">
        <ele>188</ele>
        <time>2024-03-10T08:23:36Z</time>
      </trkpt>
      <trkpt lat="46.77294" lon="-0.36516">
        <ele>187.4</ele>
        <time>2024-03-10T08:23:38Z</time>
      </trkpt>
      <trkpt lat="46.77298" lon="-0.3652">
        <ele>187</ele>
        <time>2024-03-10T08:23:39Z</time>
      </trkpt>
      <trkpt lat="46.77306" lon="-0.36529">
        <ele>186.4</ele>
        <time>2024-03-10T08:23:41Z</time>
      </trkpt>
      <trkpt lat="46.77315" lon="-0.36538">
        <ele>186.2</ele>
        <time>2024-03-10T08:23:43Z</time>
      </trkpt>
      <trkpt lat="46.7732" lon="-0.36541">
        <ele>186</ele>
        <time>2024-03-10T08:23:44Z</time>
      </trkpt>
      <trkpt lat="46.7733" lon="-0.36545">
        <ele>185.8</ele>
        <time>2024-03-10T08:23:46Z</time>
      </trkpt>
      <trkpt lat="46.77335" lon="-0.36547">
        <ele>185.6</ele>
        <time>2024-03-10T08:23:47Z</time>
      </trkpt>
      <trkpt lat="46.7737" lon="-0.36556">
        <ele>185.6</ele>
        <time>2024-03-10T08:23:53Z</time>
      </trkpt>
      <trkpt lat="46.77382" lon="-0.36558">
        <ele>184.8</ele>
        <time>2024-03-10T08:23:55Z</time>
      </trkpt>
      <trkpt lat="46.77401" lon="-0.36562">
        <ele>183.4</ele>
        <time>2024-03-10T08:23:58Z</time>
      </trkpt>
      <trkpt lat="46.77407" lon="-0.36564">
        <ele>183.2</ele>
        <time>2024-03-10T08:23:59Z</time>
      </trkpt>
      <trkpt lat="46.77421" lon="-0.36568">
        <ele>182</ele>
        <time>2024-03-10T08:24:02Z</time>
      </trkpt>
      <trkpt lat="46.77423" lon="-0.36568">
        <ele>181.6</ele>
        <time>2024-03-10T08:24:03Z</time>
      </trkpt>
      <trkpt lat="46.77429" lon="-0.36565">
        <ele>181.2</ele>
        <time>2024-03-10T08:24:07Z</time>
      </trkpt>
      <trkpt lat="46.77432" lon="-0.36561">
        <ele>181</ele>
        <time>2024-03-10T08:24:10Z</time>
      </trkpt>
      <trkpt lat="46.77435" lon="-0.36554">
        <ele>180.8</ele>
        <time>2024-03-10T08:24:15Z</time>
      </trkpt>
      <trkpt lat="46.77435" lon="-0.36554">
        <ele>180.8</ele>
        <time>2024-03-10T08:24:16Z</time>
      </trkpt>
      <trkpt lat="46.77439" lon="-0.36546">
        <ele>180.8</ele>
        <time>2024-03-10T08:24:24Z</time>
      </trkpt>
      <trkpt lat="46.77446" lon="-0.36533">
        <ele>181</ele>
        <time>2024-03-10T08:24:36Z</time>
      </trkpt>
      <trkpt lat="46.77446" lon="-0.36532">
        <ele>181</ele>
        <time>2024-03-10T08:24:38Z</time>
      </trkpt>
      <trkpt lat="46.77447" lon="-0.3653">
        <ele>180.6</ele>
        <time>2024-03-10T08:24:45Z</time>
      </trkpt>
      <trkpt lat="46.77452" lon="-0.36516">
        <ele>180.8</ele>
        <time>2024-03-10T08:24:52Z</time>
      </trkpt>
      <trkpt lat="46.77457" lon="-0.36495">
        <ele>180.6</ele>
        <time>2024-03-10T08:24:58Z</time>
      </trkpt>
      <trkpt lat="46.7746" lon="-0.36463">
        <ele>180.4</ele>
        <time>2024-03-10T08:25:04Z</time>
      </trkpt>
      <trkpt lat="46.77464" lon="-0.36437">
        <ele>179.8</ele>
        <time>2024-03-10T08:25:09Z</time>
      </trkpt>
      <trkpt lat="46.77465" lon="-0.36426">
        <ele>179.6</ele>
        <time>2024-03-10T08:25:11Z</time>
      </trkpt>
      <trkpt lat="46.77467" lon="-0.36392">
        <ele>178.6</ele>
        <time>2024-03-10T08:25:17Z</time>
      </trkpt>
      <trkpt lat="46.77467" lon="-0.36386">
        <ele>178.6</ele>
        <time>2024-03-10T08:25:18Z</time>
      </trkpt>
      <trkpt lat="46.77468" lon="-0.36356">
        <ele>178</ele>
        <time>2024-03-10T08:25:24Z</time>
      </trkpt>
      <trkpt lat="46.77472" lon="-0.36335">
        <ele>178</ele>
        <time>2024-03-10T08:25:29Z</time>
      </trkpt>
      <trkpt lat="46.77479" lon="-0.36315">
        <ele>178</ele>
        <time>2024-03-10T08:25:33Z</time>
      </trkpt>
      <trkpt lat="46.77496" lon="-0.3627">
        <ele>177.8</ele>
        <time>2024-03-10T08:25:41Z</time>
      </trkpt>
      <trkpt lat="46.77502" lon="-0.36259">
        <ele>177.6</ele>
        <time>2024-03-10T08:25:43Z</time>
      </trkpt>
      <trkpt lat="46.77511" lon="-0.36241">
        <ele>176.4</ele>
        <time>2024-03-10T08:25:46Z</time>
      </trkpt>
      <trkpt lat="46.77517" lon="-0.36227">
        <ele>175.8</ele>
        <time>2024-03-10T08:25:48Z</time>
      </trkpt>
      <trkpt lat="46.77524" lon="-0.36212">
        <ele>175.4</ele>
        <time>2024-03-10T08:25:50Z</time>
      </trkpt>
      <trkpt lat="46.77536" lon="-0.36183">
        <ele>173.6</ele>
        <time>2024-03-10T08:25:54Z</time>
      </trkpt>
      <trkpt lat="46.77538" lon="-0.36176">
        <ele>173</ele>
        <time>2024-03-10T08:25:55Z</time>
      </trkpt>
      <trkpt lat="46.77543" lon="-0.36163">
        <ele>172.4</ele>
        <time>2024-03-10T08:25:57Z</time>
      </trkpt>
      <trkpt lat="46.77553" lon="-0.36136">
        <ele>171.2</ele>
        <time>2024-03-10T08:26:01Z</time>
      </trkpt>
      <trkpt lat="46.77556" lon="-0.36129">
        <ele>170.8</ele>
        <time>2024-03-10T08:26:02Z</time>
      </trkpt>
      <trkpt lat="46.77558" lon="-0.36123">
        <ele>170.2</ele>
        <time>2024-03-10T08:26:03Z</time>
      </trkpt>
      <trkpt lat="46.77573" lon="-0.36098">
        <ele>169.4</ele>
        <time>2024-03-10T08:26:08Z</time>
      </trkpt>
      <trkpt lat="46.77576" lon="-0.36093">
        <ele>169</ele>
        <time>2024-03-10T08:26:09Z</time>
      </trkpt>
      <trkpt lat="46.77597" lon="-0.36061">
        <ele>168.2</ele>
        <time>2024-03-10T08:26:15Z</time>
      </trkpt>
      <trkpt lat="46.77611" lon="-0.36039">
        <ele>167.8</ele>
        <time>2024-03-10T08:26:19Z</time>
      </trkpt>
      <trkpt lat="46.77624" lon="-0.36018">
        <ele>167</ele>
        <time>2024-03-10T08:26:23Z</time>
      </trkpt>
      <trkpt lat="46.77631" lon="-0.36003">
        <ele>166.6</ele>
        <time>2024-03-10T08:26:26Z</time>
      </trkpt>
      <trkpt lat="46.7764" lon="-0.35984">
        <ele>166</ele>
        <time>2024-03-10T08:26:30Z</time>
      </trkpt>
      <trkpt lat="46.77647" lon="-0.35971">
        <ele>166</ele>
        <time>2024-03-10T08:26:33Z</time>
      </trkpt>
      <trkpt lat="46.77653" lon="-0.35957">
        <ele>166</ele>
        <time>2024-03-10T08:26:36Z</time>
      </trkpt>
      <trkpt lat="46.77655" lon="-0.35951">
        <ele>165.8</ele>
        <time>2024-03-10T08:26:37Z</time>
      </trkpt>
      <trkpt lat="46.77656" lon="-0.35945">
        <ele>165.6</ele>
        <time>2024-03-10T08:26:38Z</time>
      </trkpt>
      <trkpt lat="46.7766" lon="-0.35923">
        <ele>166</ele>
        <time>2024-03-10T08:26:43Z</time>
      </trkpt>
      <trkpt lat="46.77658" lon="-0.35895">
        <ele>166.6</ele>
        <time>2024-03-10T08:26:49Z</time>
      </trkpt>
      <trkpt lat="46.77654" lon="-0.35867">
        <ele>167.4</ele>
        <time>2024-03-10T08:26:55Z</time>
      </trkpt>
      <trkpt lat="46.77652" lon="-0.35855">
        <ele>167.8</ele>
        <time>2024-03-10T08:26:58Z</time>
      </trkpt>
      <trkpt lat="46.77653" lon="-0.35848">
        <ele>167.8</ele>
        <time>2024-03-10T08:27:00Z</time>
      </trkpt>
      <trkpt lat="46.77654" lon="-0.35831">
        <ele>169</ele>
        <time>2024-03-10T08:27:04Z</time>
      </trkpt>
      <trkpt lat="46.77656" lon="-0.35818">
        <ele>169.6</ele>
        <time>2024-03-10T08:27:07Z</time>
      </trkpt>
      <trkpt lat="46.77658" lon="-0.35805">
        <ele>170.4</ele>
        <time>2024-03-10T08:27:10Z</time>
      </trkpt>
      <trkpt lat="46.77661" lon="-0.35788">
        <ele>171.2</ele>
        <time>2024-03-10T08:27:14Z</time>
      </trkpt>
      <trkpt lat="46.77662" lon="-0.35784">
        <ele>171.4</ele>
        <time>2024-03-10T08:27:15Z</time>
      </trkpt>
      <trkpt lat="46.77669" lon="-0.35762">
        <ele>172.2</ele>
        <time>2024-03-10T08:27:21Z</time>
      </trkpt>
      <trkpt lat="46.7767" lon="-0.35755">
        <ele>172.8</ele>
        <time>2024-03-10T08:27:23Z</time>
      </trkpt>
      <trkpt lat="46.77675" lon="-0.35736">
        <ele>173.8</ele>
        <time>2024-03-10T08:27:28Z</time>
      </trkpt>
      <trkpt lat="46.77685" lon="-0.35711">
        <ele>174.8</ele>
        <time>2024-03-10T08:27:35Z</time>
      </trkpt>
      <trkpt lat="46.7769" lon="-0.35701">
        <ele>174.8</ele>
        <time>2024-03-10T08:27:38Z</time>
      </trkpt>
      <trkpt lat="46.77699" lon="-0.35685">
        <ele>175</ele>
        <time>2024-03-10T08:27:42Z</time>
      </trkpt>
      <trkpt lat="46.77707" lon="-0.35672">
        <ele>175.8</ele>
        <time>2024-03-10T08:27:46Z</time>
      </trkpt>
      <trkpt lat="46.77711" lon="-0.35667">
        <ele>176</ele>
        <time>2024-03-10T08:27:48Z</time>
      </trkpt>
      <trkpt lat="46.77727" lon="-0.35647">
        <ele>176.4</ele>
        <time>2024-03-10T08:27:55Z</time>
      </trkpt>
      <trkpt lat="46.77737" lon="-0.35638">
        <ele>177</ele>
        <time>2024-03-10T08:27:59Z</time>
      </trkpt>
      <trkpt lat="46.77739" lon="-0.35636">
        <ele>177.2</ele>
        <time>2024-03-10T08:28:00Z</time>
      </trkpt>
      <trkpt lat="46.77755" lon="-0.35622">
        <ele>177.6</ele>
        <time>2024-03-10T08:28:06Z</time>
      </trkpt>
      <trkpt lat="46.77766" lon="-0.35606">
        <ele>176.2</ele>
        <time>2024-03-10T08:28:11Z</time>
      </trkpt>
      <trkpt lat="46.77768" lon="-0.35603">
        <ele>175.8</ele>
        <time>2024-03-10T08:28:12Z</time>
      </trkpt>
      <trkpt lat="46.77773" lon="-0.35594">
        <ele>174.6</ele>
        <time>2024-03-10T08:28:16Z</time>
      </trkpt>
      <trkpt lat="46.77775" lon="-0.35592">
        <ele>174.6</ele>
        <time>2024-03-10T08:28:17Z</time>
      </trkpt>
      <trkpt lat="46.77785" lon="-0.35579">
        <ele>173.6</ele>
        <time>2024-03-10T08:28:23Z</time>
      </trkpt>
      <trkpt lat="46.77793" lon="-0.35564">
        <ele>172.8</ele>
        <time>2024-03-10T08:28:28Z</time>
      </trkpt>
      <trkpt lat="46.77795" lon="-0.35559">
        <ele>172.4</ele>
        <time>2024-03-10T08:28:29Z</time>
      </trkpt>
      <trkpt lat="46.77803" lon="-0.35536">
        <ele>171.8</ele>
        <time>2024-03-10T08:28:34Z</time>
      </trkpt>
      <trkpt lat="46.77809" lon="-0.3552">
        <ele>171.2</ele>
        <time>2024-03-10T08:28:37Z</time>
      </trkpt>
      <trkpt lat="46.7781" lon="-0.35516">
        <ele>170.8</ele>
        <time>2024-03-10T08:28:38Z</time>
      </trkpt>
      <trkpt lat="46.77812" lon="-0.3551">
        <ele>170.2</ele>
        <time>2024-03-10T08:28:39Z</time>
      </trkpt>
      <trkpt lat="46.77814" lon="-0.35505">
        <ele>169.8</ele>
        <time>2024-03-10T08:28:40Z</time>
      </trkpt>
      <trkpt lat="46.77819" lon="-0.35489">
        <ele>169.6</ele>
        <time>2024-03-10T08:28:43Z</time>
      </trkpt>
      <trkpt lat="46.77822" lon="-0.35486">
        <ele>169.4</ele>
        <time>2024-03-10T08:28:44Z</time>
      </trkpt>
      <trkpt lat="46.77833" lon="-0.3548">
        <ele>169</ele>
        <time>2024-03-10T08:28:47Z</time>
      </trkpt>
      <trkpt lat="46.77841" lon="-0.35476">
        <ele>168.4</ele>
        <time>2024-03-10T08:28:49Z</time>
      </trkpt>
      <trkpt lat="46.77844" lon="-0.35476">
        <ele>168.2</ele>
        <time>2024-03-10T08:28:50Z</time>
      </trkpt>
      <trkpt lat="46.77848" lon="-0.35475">
        <ele>167.8</ele>
        <time>2024-03-10T08:28:52Z</time>
      </trkpt>
      <trkpt lat="46.77849" lon="-0.35471">
        <ele>167.6</ele>
        <time>2024-03-10T08:28:56Z</time>
      </trkpt>
      <trkpt lat="46.77849" lon="-0.35469">
        <ele>167.4</ele>
        <time>2024-03-10T08:28:57Z</time>
      </trkpt>
      <trkpt lat="46.7785" lon="-0.35459">
        <ele>167.4</ele>
        <time>2024-03-10T08:29:01Z</time>
      </trkpt>
      <trkpt lat="46.77855" lon="-0.35452">
        <ele>167</ele>
        <time>2024-03-10T08:29:05Z</time>
      </trkpt>
      <trkpt lat="46.77856" lon="-0.3545">
        <ele>166.6</ele>
        <time>2024-03-10T08:29:06Z</time>
      </trkpt>
      <trkpt lat="46.77861" lon="-0.35442">
        <ele>165.8</ele>
        <time>2024-03-10T08:29:10Z</time>
      </trkpt>
      <trkpt lat="46.77861" lon="-0.3544">
        <ele>165.6</ele>
        <time>2024-03-10T08:29:11Z</time>
      </trkpt>
      <trkpt lat="46.77868" lon="-0.3543">
        <ele>165</ele>
        <time>2024-03-10T08:29:17Z</time>
      </trkpt>
      <trkpt lat="46.77878" lon="-0.35417">
        <ele>164.2</ele>
        <time>2024-03-10T08:29:21Z</time>
      </trkpt>
      <trkpt lat="46.77882" lon="-0.35411">
        <ele>163.2</ele>
        <time>2024-03-10T08:29:23Z</time>
      </trkpt>
      <trkpt lat="46.77887" lon="-0.35404">
        <ele>162.4</ele>
        <time>2024-03-10T08:29:26Z</time>
      </trkpt>
      <trkpt lat="46.77888" lon="-0.35401">
        <ele>162.2</ele>
        <time>2024-03-10T08:29:27Z</time>
      </trkpt>
      <trkpt lat="46.77897" lon="-0.35385">
        <ele>161</ele>
        <time>2024-03-10T08:29:33Z</time>
      </trkpt>
      <trkpt lat="46.77903" lon="-0.35377">
        <ele>159.8</ele>
        <time>2024-03-10T08:29:36Z</time>
      </trkpt>
      <trkpt lat="46.77904" lon="-0.35375">
        <ele>159.2</ele>
        <time>2024-03-10T08:29:37Z</time>
      </trkpt>
      <trkpt lat="46.77905" lon="-0.35373">
        <ele>159</ele>
        <time>2024-03-10T08:29:38Z</time>
      </trkpt>
      <trkpt lat="46.77907" lon="-0.35369">
        <ele>158.6</ele>
        <time>2024-03-10T08:29:41Z</time>
      </trkpt>
      <trkpt lat="46.7791" lon="-0.35363">
        <ele>158</ele>
        <time>2024-03-10T08:29:44Z</time>
      </trkpt>
      <trkpt lat="46.77912" lon="-0.35361">
        <ele>157.4</ele>
        <time>2024-03-10T08:29:45Z</time>
      </trkpt>
      <trkpt lat="46.77918" lon="-0.3535">
        <ele>156.4</ele>
        <time>2024-03-10T08:29:50Z</time>
      </trkpt>
      <trkpt lat="46.77928" lon="-0.35336">
        <ele>155.4</ele>
        <time>2024-03-10T08:29:55Z</time>
      </trkpt>
      <trkpt lat="46.77929" lon="-0.35333">
        <ele>155</ele>
        <time>2024-03-10T08:29:56Z</time>
      </trkpt>
      <trkpt lat="46.77936" lon="-0.35321">
        <ele>154.6</ele>
        <time>2024-03-10T08:30:01Z</time>
      </trkpt>
      <trkpt lat="46.77944" lon="-0.35311">
        <ele>154</ele>
        <time>2024-03-10T08:30:05Z</time>
      </trkpt>
      <trkpt lat="46.77946" lon="-0.35308">
        <ele>153.6</ele>
        <time>2024-03-10T08:30:07Z</time>
      </trkpt>
      <trkpt lat="46.77949" lon="-0.35305">
        <ele>153.4</ele>
        <time>2024-03-10T08:30:09Z</time>
      </trkpt>
      <trkpt lat="46.77952" lon="-0.353">
        <ele>153.2</ele>
        <time>2024-03-10T08:30:12Z</time>
      </trkpt>
      <trkpt lat="46.77953" lon="-0.35298">
        <ele>153.2</ele>
        <time>2024-03-10T08:30:13Z</time>
      </trkpt>
      <trkpt lat="46.77961" lon="-0.35285">
        <ele>152.8</ele>
        <time>2024-03-10T08:30:19Z</time>
      </trkpt>
      <trkpt lat="46.77969" lon="-0.3527">
        <ele>152.8</ele>
        <time>2024-03-10T08:30:23Z</time>
      </trkpt>
      <trkpt lat="46.77977" lon="-0.35252">
        <ele>151.6</ele>
        <time>2024-03-10T08:30:27Z</time>
      </trkpt>
      <trkpt lat="46.77978" lon="-0.35248">
        <ele>151.4</ele>
        <time>2024-03-10T08:30:28Z</time>
      </trkpt>
      <trkpt lat="46.77988" lon="-0.35229">
        <ele>151.2</ele>
        <time>2024-03-10T08:30:33Z</time>
      </trkpt>
      <trkpt lat="46.77995" lon="-0.3521">
        <ele>150.8</ele>
        <time>2024-03-10T08:30:37Z</time>
      </trkpt>
      <trkpt lat="46.77997" lon="-0.35204">
        <ele>150.8</ele>
        <time>2024-03-10T08:30:38Z</time>
      </trkpt>
      <trkpt lat="46.78" lon="-0.35192">
        <ele>150.6</ele>
        <time>2024-03-10T08:30:40Z</time>
      </trkpt>
      <trkpt lat="46.78009" lon="-0.3517">
        <ele>149.8</ele>
        <time>2024-03-10T08:30:44Z</time>
      </trkpt>
      <trkpt lat="46.78014" lon="-0.35161">
        <ele>149.4</ele>
        <time>2024-03-10T08:30:46Z</time>
      </trkpt>
      <trkpt lat="46.78015" lon="-0.35156">
        <ele>149.2</ele>
        <time>2024-03-10T08:30:47Z</time>
      </trkpt>
      <trkpt lat="46.78017" lon="-0.35144">
        <ele>149.2</ele>
        <time>2024-03-10T08:30:49Z</time>
      </trkpt>
      <trkpt lat="46.78017" lon="-0.35139">
        <ele>149.2</ele>
        <time>2024-03-10T08:30:50Z</time>
      </trkpt>
      <trkpt lat="46.78012" lon="-0.35093">
        <ele>149.4</ele>
        <time>2024-03-10T08:30:57Z</time>
      </trkpt>
      <trkpt lat="46.78006" lon="-0.35055">
        <ele>149.6</ele>
        <time>2024-03-10T08:31:03Z</time>
      </trkpt>
      <trkpt lat="46.78006" lon="-0.35049">
        <ele>149.6</ele>
        <time>2024-03-10T08:31:04Z</time>
      </trkpt>
      <trkpt lat="46.78008" lon="-0.35034">
        <ele>150</ele>
        <time>2024-03-10T08:31:09Z</time>
      </trkpt>
      <trkpt lat="46.7801" lon="-0.35004">
        <ele>150.2</ele>
        <time>2024-03-10T08:31:17Z</time>
      </trkpt>
      <trkpt lat="46.7801" lon="-0.34999">
        <ele>150.4</ele>
        <time>2024-03-10T08:31:18Z</time>
      </trkpt>
      <trkpt lat="46.78015" lon="-0.34976">
        <ele>150.8</ele>
        <time>2024-03-10T08:31:23Z</time>
      </trkpt>
      <trkpt lat="46.78023" lon="-0.34951">
        <ele>151.6</ele>
        <time>2024-03-10T08:31:28Z</time>
      </trkpt>
      <trkpt lat="46.78028" lon="-0.34941">
        <ele>152</ele>
        <time>2024-03-10T08:31:30Z</time>
      </trkpt>
      <trkpt lat="46.7804" lon="-0.3492">
        <ele>152.8</ele>
        <time>2024-03-10T08:31:34Z</time>
      </trkpt>
      <trkpt lat="46.78049" lon="-0.34909">
        <ele>153</ele>
        <time>2024-03-10T08:31:36Z</time>
      </trkpt>
      <trkpt lat="46.78074" lon="-0.34881">
        <ele>151.4</ele>
        <time>2024-03-10T08:31:41Z</time>
      </trkpt>
      <trkpt lat="46.78079" lon="-0.34875">
        <ele>150.8</ele>
        <time>2024-03-10T08:31:42Z</time>
      </trkpt>
      <trkpt lat="46.7809" lon="-0.34865">
        <ele>150.2</ele>
        <time>2024-03-10T08:31:44Z</time>
      </trkpt>
      <trkpt lat="46.78111" lon="-0.34843">
        <ele>149</ele>
        <time>2024-03-10T08:31:48Z</time>
      </trkpt>
      <trkpt lat="46.78116" lon="-0.34839">
        <ele>149</ele>
        <time>2024-03-10T08:31:49Z</time>
      </trkpt>
      <trkpt lat="46.78121" lon="-0.34834">
        <ele>148.6</ele>
        <time>2024-03-10T08:31:50Z</time>
      </trkpt>
      <trkpt lat="46.78138" lon="-0.34823">
        <ele>148.2</ele>
        <time>2024-03-10T08:31:53Z</time>
      </trkpt>
      <trkpt lat="46.78143" lon="-0.34818">
        <ele>148</ele>
        <time>2024-03-10T08:31:54Z</time>
      </trkpt>
      <trkpt lat="46.78153" lon="-0.34807">
        <ele>147.6</ele>
        <time>2024-03-10T08:31:56Z</time>
      </trkpt>
      <trkpt lat="46.78167" lon="-0.34791">
        <ele>147.2</ele>
        <time>2024-03-10T08:31:59Z</time>
      </trkpt>
      <trkpt lat="46.78171" lon="-0.34786">
        <ele>147</ele>
        <time>2024-03-10T08:32:00Z</time>
      </trkpt>
      <trkpt lat="46.78175" lon="-0.34781">
        <ele>147</ele>
        <time>2024-03-10T08:32:01Z</time>
      </trkpt>
      <trkpt lat="46.78203" lon="-0.3475">
        <ele>146.2</ele>
        <time>2024-03-10T08:32:07Z</time>
      </trkpt>
      <trkpt lat="46.78228" lon="-0.34724">
        <ele>146</ele>
        <time>2024-03-10T08:32:12Z</time>
      </trkpt>
      <trkpt lat="46.78242" lon="-0.34706">
        <ele>145.6</ele>
        <time>2024-03-10T08:32:15Z</time>
      </trkpt>
      <trkpt lat="46.78272" lon="-0.34674">
        <ele>145.8</ele>
        <time>2024-03-10T08:32:21Z</time>
      </trkpt>
      <trkpt lat="46.78304" lon="-0.34628">
        <ele>145.4</ele>
        <time>2024-03-10T08:32:28Z</time>
      </trkpt>
      <trkpt lat="46.78332" lon="-0.34586">
        <ele>144.8</ele>
        <time>2024-03-10T08:32:34Z</time>
      </trkpt>
      <trkpt lat="46.78337" lon="-0.34579">
        <ele>144.6</ele>
        <time>2024-03-10T08:32:35Z</time>
      </trkpt>
      <trkpt lat="46.78365" lon="-0.34541">
        <ele>143.8</ele>
        <time>2024-03-10T08:32:40Z</time>
      </trkpt>
      <trkpt lat="46.78387" lon="-0.34512">
        <ele>142.8</ele>
        <time>2024-03-10T08:32:44Z</time>
      </trkpt>
      <trkpt lat="46.78392" lon="-0.34505">
        <ele>142.6</ele>
        <time>2024-03-10T08:32:45Z</time>
      </trkpt>
      <trkpt lat="46.78404" lon="-0.3449">
        <ele>141.4</ele>
        <time>2024-03-10T08:32:47Z</time>
      </trkpt>
      <trkpt lat="46.78426" lon="-0.34462">
        <ele>140.4</ele>
        <time>2024-03-10T08:32:51Z</time>
      </trkpt>
      <trkpt lat="46.78432" lon="-0.34454">
        <ele>140.2</ele>
        <time>2024-03-10T08:32:52Z</time>
      </trkpt>
      <trkpt lat="46.78469" lon="-0.34405">
        <ele>139.6</ele>
        <time>2024-03-10T08:32:59Z</time>
      </trkpt>
      <trkpt lat="46.78477" lon="-0.3439">
        <ele>139.4</ele>
        <time>2024-03-10T08:33:01Z</time>
      </trkpt>
      <trkpt lat="46.78481" lon="-0.34382">
        <ele>139.2</ele>
        <time>2024-03-10T08:33:02Z</time>
      </trkpt>
      <trkpt lat="46.78487" lon="-0.34365">
        <ele>139.4</ele>
        <time>2024-03-10T08:33:04Z</time>
      </trkpt>
      <trkpt lat="46.7851" lon="-0.34308">
        <ele>139.8</ele>
        <time>2024-03-10T08:33:11Z</time>
      </trkpt>
      <trkpt lat="46.78533" lon="-0.34255">
        <ele>140.4</ele>
        <time>2024-03-10T08:33:18Z</time>
      </trkpt>
      <trkpt lat="46.78552" lon="-0.34209">
        <ele>141.2</ele>
        <time>2024-03-10T08:33:25Z</time>
      </trkpt>
      <trkpt lat="46.78556" lon="-0.34196">
        <ele>141.4</ele>
        <time>2024-03-10T08:33:27Z</time>
      </trkpt>
      <trkpt lat="46.78563" lon="-0.34176">
        <ele>141.8</ele>
        <time>2024-03-10T08:33:30Z</time>
      </trkpt>
      <trkpt lat="46.78575" lon="-0.3415">
        <ele>142.4</ele>
        <time>2024-03-10T08:33:34Z</time>
      </trkpt>
      <trkpt lat="46.78584" lon="-0.34131">
        <ele>142.8</ele>
        <time>2024-03-10T08:33:37Z</time>
      </trkpt>
      <trkpt lat="46.78593" lon="-0.34112">
        <ele>142.8</ele>
        <time>2024-03-10T08:33:40Z</time>
      </trkpt>
      <trkpt lat="46.78604" lon="-0.34099">
        <ele>143</ele>
        <time>2024-03-10T08:33:43Z</time>
      </trkpt>
      <trkpt lat="46.78608" lon="-0.34095">
        <ele>143</ele>
        <time>2024-03-10T08:33:44Z</time>
      </trkpt>
      <trkpt lat="46.78617" lon="-0.34087">
        <ele>143.8</ele>
        <time>2024-03-10T08:33:46Z</time>
      </trkpt>
      <trkpt lat="46.78627" lon="-0.34076">
        <ele>144.4</ele>
        <time>2024-03-10T08:33:49Z</time>
      </trkpt>
      <trkpt lat="46.78631" lon="-0.34072">
        <ele>144.6</ele>
        <time>2024-03-10T08:33:50Z</time>
      </trkpt>
      <trkpt lat="46.78644" lon="-0.34056">
        <ele>145</ele>
        <time>2024-03-10T08:33:54Z</time>
      </trkpt>
      <trkpt lat="46.78648" lon="-0.34052">
        <ele>145</ele>
        <time>2024-03-10T08:33:55Z</time>
      </trkpt>
      <trkpt lat="46.78658" lon="-0.34041">
        <ele>145</ele>
        <time>2024-03-10T08:33:58Z</time>
      </trkpt>
      <trkpt lat="46.78661" lon="-0.34038">
        <ele>145</ele>
        <time>2024-03-10T08:33:59Z</time>
      </trkpt>
      <trkpt lat="46.7868" lon="-0.34028">
        <ele>145.6</ele>
        <time>2024-03-10T08:34:04Z</time>
      </trkpt>
      <trkpt lat="46.78691" lon="-0.34021">
        <ele>146</ele>
        <time>2024-03-10T08:34:08Z</time>
      </trkpt>
      <trkpt lat="46.78693" lon="-0.3402">
        <ele>146.2</ele>
        <time>2024-03-10T08:34:09Z</time>
      </trkpt>
      <trkpt lat="46.78693" lon="-0.34018">
        <ele>146.4</ele>
        <time>2024-03-10T08:34:11Z</time>
      </trkpt>
      <trkpt lat="46.78693" lon="-0.34018">
        <ele>146.4</ele>
        <time>2024-03-10T08:34:13Z</time>
      </trkpt>
      <trkpt lat="46.787" lon="-0.3401">
        <ele>146.8</ele>
        <time>2024-03-10T08:34:18Z</time>
      </trkpt>
      <trkpt lat="46.78717" lon="-0.33993">
        <ele>147</ele>
        <time>2024-03-10T08:34:24Z</time>
      </trkpt>
      <trkpt lat="46.78741" lon="-0.33968">
        <ele>148</ele>
        <time>2024-03-10T08:34:32Z</time>
      </trkpt>
      <trkpt lat="46.78745" lon="-0.33965">
        <ele>148.2</ele>
        <time>2024-03-10T08:34:33Z</time>
      </trkpt>
      <trkpt lat="46.78761" lon="-0.33947">
        <ele>148.8</ele>
        <time>2024-03-10T08:34:38Z</time>
      </trkpt>
      <trkpt lat="46.78764" lon="-0.33942">
        <ele>149</ele>
        <time>2024-03-10T08:34:39Z</time>
      </trkpt>
      <trkpt lat="46.7877" lon="-0.33934">
        <ele>149.2</ele>
        <time>2024-03-10T08:34:41Z</time>
      </trkpt>
      <trkpt lat="46.78776" lon="-0.33926">
        <ele>149.4</ele>
        <time>2024-03-10T08:34:43Z</time>
      </trkpt>
      <trkpt lat="46.78797" lon="-0.33888">
        <ele>150.2</ele>
        <time>2024-03-10T08:34:51Z</time>
      </trkpt>
      <trkpt lat="46.78806" lon="-0.33866">
        <ele>150.8</ele>
        <time>2024-03-10T08:34:55Z</time>
      </trkpt>
      <trkpt lat="46.78814" lon="-0.3385">
        <ele>151.2</ele>
        <time>2024-03-10T08:34:58Z</time>
      </trkpt>
      <trkpt lat="46.78823" lon="-0.33833">
        <ele>151.2</ele>
        <time>2024-03-10T08:35:01Z</time>
      </trkpt>
      <trkpt lat="46.78836" lon="-0.3381">
        <ele>152</ele>
        <time>2024-03-10T08:35:05Z</time>
      </trkpt>
      <trkpt lat="46.78846" lon="-0.33792">
        <ele>152.4</ele>
        <time>2024-03-10T08:35:08Z</time>
      </trkpt>
      <trkpt lat="46.78863" lon="-0.33762">
        <ele>152.6</ele>
        <time>2024-03-10T08:35:13Z</time>
      </trkpt>
      <trkpt lat="46.78885" lon="-0.33725">
        <ele>153.4</ele>
        <time>2024-03-10T08:35:19Z</time>
      </trkpt>
      <trkpt lat="46.78892" lon="-0.33713">
        <ele>153.6</ele>
        <time>2024-03-10T08:35:21Z</time>
      </trkpt>
      <trkpt lat="46.78905" lon="-0.33689">
        <ele>154.4</ele>
        <time>2024-03-10T08:35:25Z</time>
      </trkpt>
      <trkpt lat="46.78921" lon="-0.33662">
        <ele>154.8</ele>
        <time>2024-03-10T08:35:30Z</time>
      </trkpt>
      <trkpt lat="46.78937" lon="-0.33635">
        <ele>155.2</ele>
        <time>2024-03-10T08:35:36Z</time>
      </trkpt>
      <trkpt lat="46.78947" lon="-0.33618">
        <ele>155.4</ele>
        <time>2024-03-10T08:35:41Z</time>
      </trkpt>
      <trkpt lat="46.78951" lon="-0.33613">
        <ele>155.4</ele>
        <time>2024-03-10T08:35:43Z</time>
      </trkpt>
      <trkpt lat="46.78958" lon="-0.33604">
        <ele>155.6</ele>
        <time>2024-03-10T08:35:48Z</time>
      </trkpt>
      <trkpt lat="46.7896" lon="-0.33601">
        <ele>155.6</ele>
        <time>2024-03-10T08:35:52Z</time>
      </trkpt>
      <trkpt lat="46.7896" lon="-0.33601">
        <ele>155.4</ele>
        <time>2024-03-10T08:35:54Z</time>
      </trkpt>
      <trkpt lat="46.7896" lon="-0.33598">
        <ele>155.6</ele>
        <time>2024-03-10T08:36:03Z</time>
      </trkpt>
      <trkpt lat="46.78961" lon="-0.33593">
        <ele>155.4</ele>
        <time>2024-03-10T08:36:14Z</time>
      </trkpt>
      <trkpt lat="46.7896" lon="-0.3359">
        <ele>154.8</ele>
        <time>2024-03-10T08:36:22Z</time>
      </trkpt>
      <trkpt lat="46.7896" lon="-0.3359">
        <ele>154.4</ele>
        <time>2024-03-10T08:36:24Z</time>
      </trkpt>
      <trkpt lat="46.7896" lon="-0.3359">
        <ele>154</ele>
        <time>2024-03-10T08:36:38Z</time>
      </trkpt>
      <trkpt lat="46.7896" lon="-0.3359">
        <ele>154.2</ele>
        <time>2024-03-10T08:36:48Z</time>
      </trkpt>
      <trkpt lat="46.7896" lon="-0.3359">
        <ele>153.6</ele>
        <time>2024-03-10T08:38:05Z</time>
      </trkpt>
      <trkpt lat="46.7896" lon="-0.3359">
        <ele>153.6</ele>
        <time>2024-03-10T08:39:05Z</time>
      </trkpt>
      <trkpt lat="46.7896" lon="-0.3359">
        <ele>153.6</ele>
        <time>2024-03-10T08:40:23Z</time>
      </trkpt>
      <trkpt lat="46.7896" lon="-0.33591">
        <ele>153.6</ele>
        <time>2024-03-10T08:40:53Z</time>
      </trkpt>
      <trkpt lat="46.78963" lon="-0.33593">
        <ele>153.6</ele>
        <time>2024-03-10T08:41:04Z</time>
      </trkpt>
      <trkpt lat="46.78965" lon="-0.33592">
        <ele>153.6</ele>
        <time>2024-03-10T08:41:20Z</time>
      </trkpt>
      <trkpt lat="46.78971" lon="-0.33582">
        <ele>153.6</ele>
        <time>2024-03-10T08:41:25Z</time>
      </trkpt>
      <trkpt lat="46.78989" lon="-0.33549">
        <ele>154.4</ele>
        <time>2024-03-10T08:41:33Z</time>
      </trkpt>
      <trkpt lat="46.79011" lon="-0.3351">
        <ele>155.2</ele>
        <time>2024-03-10T08:41:41Z</time>
      </trkpt>
      <trkpt lat="46.79017" lon="-0.33499">
        <ele>155.4</ele>
        <time>2024-03-10T08:41:43Z</time>
      </trkpt>
      <trkpt lat="46.79031" lon="-0.33471">
        <ele>155.6</ele>
        <time>2024-03-10T08:41:48Z</time>
      </trkpt>
      <trkpt lat="46.79042" lon="-0.33448">
        <ele>156</ele>
        <time>2024-03-10T08:41:52Z</time>
      </trkpt>
      <trkpt lat="46.79048" lon="-0.33438">
        <ele>156</ele>
        <time>2024-03-10T08:41:54Z</time>
      </trkpt>
      <trkpt lat="46.79054" lon="-0.33428">
        <ele>156</ele>
        <time>2024-03-10T08:41:56Z</time>
      </trkpt>
      <trkpt lat="46.79065" lon="-0.33413">
        <ele>156.2</ele>
        <time>2024-03-10T08:41:59Z</time>
      </trkpt>
      <trkpt lat="46.79093" lon="-0.33371">
        <ele>155.4</ele>
        <time>2024-03-10T08:42:06Z</time>
      </trkpt>
      <trkpt lat="46.79127" lon="-0.33327">
        <ele>154.8</ele>
        <time>2024-03-10T08:42:13Z</time>
      </trkpt>
      <trkpt lat="46.79141" lon="-0.33309">
        <ele>154.4</ele>
        <time>2024-03-10T08:42:16Z</time>
      </trkpt>
      <trkpt lat="46.79158" lon="-0.33286">
        <ele>153.8</ele>
        <time>2024-03-10T08:42:20Z</time>
      </trkpt>
      <trkpt lat="46.79171" lon="-0.33268">
        <ele>153.2</ele>
        <time>2024-03-10T08:42:23Z</time>
      </trkpt>
      <trkpt lat="46.79185" lon="-0.3325">
        <ele>153.2</ele>
        <time>2024-03-10T08:42:26Z</time>
      </trkpt>
      <trkpt lat="46.79191" lon="-0.33246">
        <ele>153.4</ele>
        <time>2024-03-10T08:42:27Z</time>
      </trkpt>
      <trkpt lat="46.79197" lon="-0.33244">
        <ele>153.4</ele>
        <time>2024-03-10T08:42:28Z</time>
      </trkpt>
      <trkpt lat="46.7921" lon="-0.33244">
        <ele>153.4</ele>
        <time>2024-03-10T08:42:30Z</time>
      </trkpt>
      <trkpt lat="46.79229" lon="-0.33246">
        <ele>153.2</ele>
        <time>2024-03-10T08:42:33Z</time>
      </trkpt>
      <trkpt lat="46.7924" lon="-0.33241">
        <ele>152.8</ele>
        <time>2024-03-10T08:42:35Z</time>
      </trkpt>
      <trkpt lat="46.79249" lon="-0.3323">
        <ele>152.6</ele>
        <time>2024-03-10T08:42:37Z</time>
      </trkpt>
      <trkpt lat="46.79253" lon="-0.33224">
        <ele>152.4</ele>
        <time>2024-03-10T08:42:38Z</time>
      </trkpt>
      <trkpt lat="46.79267" lon="-0.33192">
        <ele>152.2</ele>
        <time>2024-03-10T08:42:43Z</time>
      </trkpt>
      <trkpt lat="46.7927" lon="-0.33185">
        <ele>152</ele>
        <time>2024-03-10T08:42:44Z</time>
      </trkpt>
      <trkpt lat="46.79291" lon="-0.3314">
        <ele>152</ele>
        <time>2024-03-10T08:42:51Z</time>
      </trkpt>
      <trkpt lat="46.79307" lon="-0.33094">
        <ele>152</ele>
        <time>2024-03-10T08:42:57Z</time>
      </trkpt>
      <trkpt lat="46.7931" lon="-0.33076">
        <ele>151.8</ele>
        <time>2024-03-10T08:42:59Z</time>
      </trkpt>
      <trkpt lat="46.79313" lon="-0.33056">
        <ele>151.6</ele>
        <time>2024-03-10T08:43:01Z</time>
      </trkpt>
      <trkpt lat="46.79311" lon="-0.33003">
        <ele>150.8</ele>
        <time>2024-03-10T08:43:06Z</time>
      </trkpt>
      <trkpt lat="46.79311" lon="-0.32993">
        <ele>150.4</ele>
        <time>2024-03-10T08:43:07Z</time>
      </trkpt>
      <trkpt lat="46.79309" lon="-0.32949">
        <ele>149.8</ele>
        <time>2024-03-10T08:43:11Z</time>
      </trkpt>
      <trkpt lat="46.79308" lon="-0.32916">
        <ele>149.6</ele>
        <time>2024-03-10T08:43:14Z</time>
      </trkpt>
      <trkpt lat="46.79305" lon="-0.32858">
        <ele>148.6</ele>
        <time>2024-03-10T08:43:19Z</time>
      </trkpt>
      <trkpt lat="46.79302" lon="-0.32811">
        <ele>148.2</ele>
        <time>2024-03-10T08:43:23Z</time>
      </trkpt>
      <trkpt lat="46.793" lon="-0.32789">
        <ele>147.6</ele>
        <time>2024-03-10T08:43:25Z</time>
      </trkpt>
      <trkpt lat="46.79296" lon="-0.32745">
        <ele>146.6</ele>
        <time>2024-03-10T08:43:29Z</time>
      </trkpt>
      <trkpt lat="46.79294" lon="-0.32734">
        <ele>146.6</ele>
        <time>2024-03-10T08:43:30Z</time>
      </trkpt>
      <trkpt lat="46.79287" lon="-0.32704">
        <ele>146</ele>
        <time>2024-03-10T08:43:33Z</time>
      </trkpt>
      <trkpt lat="46.79284" lon="-0.32695">
        <ele>146</ele>
        <time>2024-03-10T08:43:34Z</time>
      </trkpt>
      <trkpt lat="46.79271" lon="-0.32669">
        <ele>145.6</ele>
        <time>2024-03-10T08:43:37Z</time>
      </trkpt>
      <trkpt lat="46.79268" lon="-0.3266">
        <ele>145.6</ele>
        <time>2024-03-10T08:43:38Z</time>
      </trkpt>
      <trkpt lat="46.79267" lon="-0.32638">
        <ele>145.2</ele>
        <time>2024-03-10T08:43:40Z</time>
      </trkpt>
      <trkpt lat="46.79272" lon="-0.32619">
        <ele>145</ele>
        <time>2024-03-10T08:43:42Z</time>
      </trkpt>
      <trkpt lat="46.79277" lon="-0.32611">
        <ele>145</ele>
        <time>2024-03-10T08:43:43Z</time>
      </trkpt>
      <trkpt lat="46.79282" lon="-0.32604">
        <ele>145</ele>
        <time>2024-03-10T08:43:44Z</time>
      </trkpt>
      <trkpt lat="46.79305" lon="-0.32579">
        <ele>145.4</ele>
        <time>2024-03-10T08:43:48Z</time>
      </trkpt>
      <trkpt lat="46.79329" lon="-0.32541">
        <ele>144.8</ele>
        <time>2024-03-10T08:43:53Z</time>
      </trkpt>
      <trkpt lat="46.79345" lon="-0.3252">
        <ele>144.4</ele>
        <time>2024-03-10T08:43:56Z</time>
      </trkpt>
      <trkpt lat="46.79352" lon="-0.32514">
        <ele>144.2</ele>
        <time>2024-03-10T08:43:57Z</time>
      </trkpt>
      <trkpt lat="46.79359" lon="-0.32509">
        <ele>144</ele>
        <time>2024-03-10T08:43:58Z</time>
      </trkpt>
      <trkpt lat="46.794" lon="-0.32484">
        <ele>143.8</ele>
        <time>2024-03-10T08:44:04Z</time>
      </trkpt>
      <trkpt lat="46.79436" lon="-0.32454">
        <ele>144</ele>
        <time>2024-03-10T08:44:10Z</time>
      </trkpt>
      <trkpt lat="46.79449" lon="-0.32436">
        <ele>143.8</ele>
        <time>2024-03-10T08:44:13Z</time>
      </trkpt>
      <trkpt lat="46.79457" lon="-0.32422">
        <ele>143.8</ele>
        <time>2024-03-10T08:44:15Z</time>
      </trkpt>
      <trkpt lat="46.79477" lon="-0.32374">
        <ele>143.8</ele>
        <time>2024-03-10T08:44:21Z</time>
      </trkpt>
      <trkpt lat="46.79494" lon="-0.32324">
        <ele>143.4</ele>
        <time>2024-03-10T08:44:27Z</time>
      </trkpt>
      <trkpt lat="46.79495" lon="-0.32316">
        <ele>143.4</ele>
        <time>2024-03-10T08:44:28Z</time>
      </trkpt>
      <trkpt lat="46.79496" lon="-0.32281">
        <ele>143.2</ele>
        <time>2024-03-10T08:44:32Z</time>
      </trkpt>
      <trkpt lat="46.79498" lon="-0.32254">
        <ele>143.4</ele>
        <time>2024-03-10T08:44:35Z</time>
      </trkpt>
      <trkpt lat="46.79501" lon="-0.32223">
        <ele>144.2</ele>
        <time>2024-03-10T08:44:39Z</time>
      </trkpt>
      <trkpt lat="46.79504" lon="-0.322">
        <ele>144.6</ele>
        <time>2024-03-10T08:44:42Z</time>
      </trkpt>
      <trkpt lat="46.79507" lon="-0.32179">
        <ele>145.4</ele>
        <time>2024-03-10T08:44:45Z</time>
      </trkpt>
      <trkpt lat="46.7951" lon="-0.32159">
        <ele>145.8</ele>
        <time>2024-03-10T08:44:48Z</time>
      </trkpt>
      <trkpt lat="46.79514" lon="-0.32146">
        <ele>146.2</ele>
        <time>2024-03-10T08:44:50Z</time>
      </trkpt>
      <trkpt lat="46.79514" lon="-0.32146">
        <ele>146.6</ele>
        <time>2024-03-10T08:44:51Z</time>
      </trkpt>
      <trkpt lat="46.79527" lon="-0.32093">
        <ele>147</ele>
        <time>2024-03-10T08:44:58Z</time>
      </trkpt>
      <trkpt lat="46.79539" lon="-0.32052">
        <ele>147.8</ele>
        <time>2024-03-10T08:45:04Z</time>
      </trkpt>
      <trkpt lat="46.79541" lon="-0.32046">
        <ele>148</ele>
        <time>2024-03-10T08:45:05Z</time>
      </trkpt>
      <trkpt lat="46.79547" lon="-0.32027">
        <ele>148.6</ele>
        <time>2024-03-10T08:45:08Z</time>
      </trkpt>
      <trkpt lat="46.7955" lon="-0.32015">
        <ele>148.8</ele>
        <time>2024-03-10T08:45:10Z</time>
      </trkpt>
      <trkpt lat="46.79553" lon="-0.32003">
        <ele>148.8</ele>
        <time>2024-03-10T08:45:12Z</time>
      </trkpt>
      <trkpt lat="46.79571" lon="-0.31949">
        <ele>149.2</ele>
        <time>2024-03-10T08:45:21Z</time>
      </trkpt>
      <trkpt lat="46.79575" lon="-0.31937">
        <ele>149.2</ele>
        <time>2024-03-10T08:45:23Z</time>
      </trkpt>
      <trkpt lat="46.79585" lon="-0.31915">
        <ele>149.4</ele>
        <time>2024-03-10T08:45:27Z</time>
      </trkpt>
      <trkpt lat="46.79602" lon="-0.31883">
        <ele>149.8</ele>
        <time>2024-03-10T08:45:33Z</time>
      </trkpt>
      <trkpt lat="46.79605" lon="-0.31877">
        <ele>149.8</ele>
        <time>2024-03-10T08:45:34Z</time>
      </trkpt>
      <trkpt lat="46.7963" lon="-0.31825">
        <ele>150.4</ele>
        <time>2024-03-10T08:45:43Z</time>
      </trkpt>
      <trkpt lat="46.7964" lon="-0.31802">
        <ele>150.8</ele>
        <time>2024-03-10T08:45:47Z</time>
      </trkpt>
      <trkpt lat="46.7965" lon="-0.31779">
        <ele>151.4</ele>
        <time>2024-03-10T08:45:51Z</time>
      </trkpt>
      <trkpt lat="46.79666" lon="-0.31747">
        <ele>151.8</ele>
        <time>2024-03-10T08:45:57Z</time>
      </trkpt>
      <trkpt lat="46.79673" lon="-0.31732">
        <ele>152.4</ele>
        <time>2024-03-10T08:46:00Z</time>
      </trkpt>
      <trkpt lat="46.79677" lon="-0.31727">
        <ele>152.4</ele>
        <time>2024-03-10T08:46:01Z</time>
      </trkpt>
      <trkpt lat="46.79693" lon="-0.31709">
        <ele>152.6</ele>
        <time>2024-03-10T08:46:05Z</time>
      </trkpt>
      <trkpt lat="46.79708" lon="-0.31699">
        <ele>152.8</ele>
        <time>2024-03-10T08:46:08Z</time>
      </trkpt>
      <trkpt lat="46.79717" lon="-0.31692">
        <ele>153</ele>
        <time>2024-03-10T08:46:10Z</time>
      </trkpt>
      <trkpt lat="46.79721" lon="-0.31688">
        <ele>153.2</ele>
        <time>2024-03-10T08:46:11Z</time>
      </trkpt>
      <trkpt lat="46.79725" lon="-0.31683">
        <ele>153.2</ele>
        <time>2024-03-10T08:46:12Z</time>
      </trkpt>
      <trkpt lat="46.79731" lon="-0.31673">
        <ele>153.2</ele>
        <time>2024-03-10T08:46:14Z</time>
      </trkpt>
      <trkpt lat="46.79734" lon="-0.31667">
        <ele>153.2</ele>
        <time>2024-03-10T08:46:15Z</time>
      </trkpt>
      <trkpt lat="46.7974" lon="-0.3165">
        <ele>153.6</ele>
        <time>2024-03-10T08:46:18Z</time>
      </trkpt>
      <trkpt lat="46.79746" lon="-0.31637">
        <ele>153.8</ele>
        <time>2024-03-10T08:46:20Z</time>
      </trkpt>
      <trkpt lat="46.79754" lon="-0.31619">
        <ele>154</ele>
        <time>2024-03-10T08:46:23Z</time>
      </trkpt>
      <trkpt lat="46.79764" lon="-0.31598">
        <ele>154.4</ele>
        <time>2024-03-10T08:46:26Z</time>
      </trkpt>
      <trkpt lat="46.79778" lon="-0.31573">
        <ele>154.4</ele>
        <time>2024-03-10T08:46:30Z</time>
      </trkpt>
      <trkpt lat="46.79783" lon="-0.31561">
        <ele>154.4</ele>
        <time>2024-03-10T08:46:32Z</time>
      </trkpt>
      <trkpt lat="46.79805" lon="-0.31517">
        <ele>154.8</ele>
        <time>2024-03-10T08:46:39Z</time>
      </trkpt>
      <trkpt lat="46.79826" lon="-0.31472">
        <ele>154.6</ele>
        <time>2024-03-10T08:46:46Z</time>
      </trkpt>
      <trkpt lat="46.7985" lon="-0.31424">
        <ele>154.4</ele>
        <time>2024-03-10T08:46:53Z</time>
      </trkpt>
      <trkpt lat="46.79858" lon="-0.31412">
        <ele>154.6</ele>
        <time>2024-03-10T08:46:55Z</time>
      </trkpt>
      <trkpt lat="46.79868" lon="-0.31392">
        <ele>154.6</ele>
        <time>2024-03-10T08:46:58Z</time>
      </trkpt>
      <trkpt lat="46.79872" lon="-0.31385">
        <ele>154.6</ele>
        <time>2024-03-10T08:46:59Z</time>
      </trkpt>
      <trkpt lat="46.7989" lon="-0.3135">
        <ele>154.6</ele>
        <time>2024-03-10T08:47:04Z</time>
      </trkpt>
      <trkpt lat="46.79912" lon="-0.31307">
        <ele>154.2</ele>
        <time>2024-03-10T08:47:10Z</time>
      </trkpt>
      <trkpt lat="46.79932" lon="-0.31264">
        <ele>153.6</ele>
        <time>2024-03-10T08:47:16Z</time>
      </trkpt>
      <trkpt lat="46.79934" lon="-0.31256">
        <ele>153.4</ele>
        <time>2024-03-10T08:47:17Z</time>
      </trkpt>
      <trkpt lat="46.79946" lon="-0.31229">
        <ele>153</ele>
        <time>2024-03-10T08:47:21Z</time>
      </trkpt>
      <trkpt lat="46.79953" lon="-0.31208">
        <ele>152.8</ele>
        <time>2024-03-10T08:47:24Z</time>
      </trkpt>
      <trkpt lat="46.79961" lon="-0.31201">
        <ele>152.8</ele>
        <time>2024-03-10T08:47:26Z</time>
      </trkpt>
      <trkpt lat="46.79986" lon="-0.31201">
        <ele>152.8</ele>
        <time>2024-03-10T08:47:30Z</time>
      </trkpt>
      <trkpt lat="46.80037" lon="-0.31199">
        <ele>153</ele>
        <time>2024-03-10T08:47:38Z</time>
      </trkpt>
      <trkpt lat="46.80087" lon="-0.31195">
        <ele>153.2</ele>
        <time>2024-03-10T08:47:46Z</time>
      </trkpt>
      <trkpt lat="46.80138" lon="-0.31191">
        <ele>153</ele>
        <time>2024-03-10T08:47:54Z</time>
      </trkpt>
      <trkpt lat="46.80192" lon="-0.31185">
        <ele>151.8</ele>
        <time>2024-03-10T08:48:02Z</time>
      </trkpt>
      <trkpt lat="46.80199" lon="-0.31184">
        <ele>151.6</ele>
        <time>2024-03-10T08:48:03Z</time>
      </trkpt>
      <trkpt lat="46.80227" lon="-0.31182">
        <ele>150.4</ele>
        <time>2024-03-10T08:48:07Z</time>
      </trkpt>
      <trkpt lat="46.80261" lon="-0.31179">
        <ele>149.4</ele>
        <time>2024-03-10T08:48:12Z</time>
      </trkpt>
      <trkpt lat="46.80268" lon="-0.31178">
        <ele>149.4</ele>
        <time>2024-03-10T08:48:13Z</time>
      </trkpt>
      <trkpt lat="46.80282" lon="-0.31176">
        <ele>148.2</ele>
        <time>2024-03-10T08:48:15Z</time>
      </trkpt>
      <trkpt lat="46.80297" lon="-0.31175">
        <ele>147</ele>
        <time>2024-03-10T08:48:17Z</time>
      </trkpt>
      <trkpt lat="46.8031" lon="-0.3118">
        <ele>146</ele>
        <time>2024-03-10T08:48:19Z</time>
      </trkpt>
      <trkpt lat="46.80319" lon="-0.31196">
        <ele>145.2</ele>
        <time>2024-03-10T08:48:21Z</time>
      </trkpt>
      <trkpt lat="46.80321" lon="-0.31207">
        <ele>144.8</ele>
        <time>2024-03-10T08:48:22Z</time>
      </trkpt>
      <trkpt lat="46.80323" lon="-0.31228">
        <ele>144.6</ele>
        <time>2024-03-10T08:48:24Z</time>
      </trkpt>
      <trkpt lat="46.80326" lon="-0.3126">
        <ele>144</ele>
        <time>2024-03-10T08:48:27Z</time>
      </trkpt>
      <trkpt lat="46.80329" lon="-0.31281">
        <ele>143.6</ele>
        <time>2024-03-10T08:48:29Z</time>
      </trkpt>
      <trkpt lat="46.80335" lon="-0.31329">
        <ele>143.2</ele>
        <time>2024-03-10T08:48:34Z</time>
      </trkpt>
      <trkpt lat="46.80339" lon="-0.31365">
        <ele>143.8</ele>
        <time>2024-03-10T08:48:38Z</time>
      </trkpt>
      <trkpt lat="46.80341" lon="-0.31382">
        <ele>144</ele>
        <time>2024-03-10T08:48:40Z</time>
      </trkpt>
      <trkpt lat="46.80344" lon="-0.31407">
        <ele>144.8</ele>
        <time>2024-03-10T08:48:43Z</time>
      </trkpt>
      <trkpt lat="46.80347" lon="-0.31423">
        <ele>146</ele>
        <time>2024-03-10T08:48:45Z</time>
      </trkpt>
      <trkpt lat="46.80349" lon="-0.31431">
        <ele>146.6</ele>
        <time>2024-03-10T08:48:46Z</time>
      </trkpt>
      <trkpt lat="46.80357" lon="-0.3146">
        <ele>147.2</ele>
        <time>2024-03-10T08:48:50Z</time>
      </trkpt>
      <trkpt lat="46.80367" lon="-0.31487">
        <ele>148</ele>
        <time>2024-03-10T08:48:54Z</time>
      </trkpt>
      <trkpt lat="46.8037" lon="-0.31493">
        <ele>148.2</ele>
        <time>2024-03-10T08:48:55Z</time>
      </trkpt>
      <trkpt lat="46.80377" lon="-0.31505">
        <ele>148.6</ele>
        <time>2024-03-10T08:48:57Z</time>
      </trkpt>
      <trkpt lat="46.80384" lon="-0.31518">
        <ele>148.8</ele>
        <time>2024-03-10T08:48:59Z</time>
      </trkpt>
      <trkpt lat="46.80388" lon="-0.31525">
        <ele>148.8</ele>
        <time>2024-03-10T08:49:00Z</time>
      </trkpt>
      <trkpt lat="46.80394" lon="-0.3154">
        <ele>148.6</ele>
        <time>2024-03-10T08:49:02Z</time>
      </trkpt>
      <trkpt lat="46.80396" lon="-0.31548">
        <ele>148.4</ele>
        <time>2024-03-10T08:49:03Z</time>
      </trkpt>
      <trkpt lat="46.80405" lon="-0.31603">
        <ele>147.2</ele>
        <time>2024-03-10T08:49:09Z</time>
      </trkpt>
      <trkpt lat="46.80406" lon="-0.31613">
        <ele>147</ele>
        <time>2024-03-10T08:49:10Z</time>
      </trkpt>
      <trkpt lat="46.80411" lon="-0.31631">
        <ele>146.8</ele>
        <time>2024-03-10T08:49:12Z</time>
      </trkpt>
      <trkpt lat="46.8042" lon="-0.31644">
        <ele>146.2</ele>
        <time>2024-03-10T08:49:14Z</time>
      </trkpt>
      <trkpt lat="46.80426" lon="-0.31648">
        <ele>145.8</ele>
        <time>2024-03-10T08:49:15Z</time>
      </trkpt>
      <trkpt lat="46.80451" lon="-0.31664">
        <ele>145.2</ele>
        <time>2024-03-10T08:49:19Z</time>
      </trkpt>
      <trkpt lat="46.80457" lon="-0.31668">
        <ele>144.8</ele>
        <time>2024-03-10T08:49:20Z</time>
      </trkpt>
      <trkpt lat="46.80464" lon="-0.3167">
        <ele>144.4</ele>
        <time>2024-03-10T08:49:21Z</time>
      </trkpt>
      <trkpt lat="46.80479" lon="-0.31672">
        <ele>144</ele>
        <time>2024-03-10T08:49:23Z</time>
      </trkpt>
      <trkpt lat="46.805" lon="-0.31666">
        <ele>143.8</ele>
        <time>2024-03-10T08:49:26Z</time>
      </trkpt>
      <trkpt lat="46.80514" lon="-0.31661">
        <ele>143.4</ele>
        <time>2024-03-10T08:49:28Z</time>
      </trkpt>
      <trkpt lat="46.80542" lon="-0.31652">
        <ele>142.6</ele>
        <time>2024-03-10T08:49:32Z</time>
      </trkpt>
      <trkpt lat="46.80557" lon="-0.31647">
        <ele>141.6</ele>
        <time>2024-03-10T08:49:34Z</time>
      </trkpt>
      <trkpt lat="46.80564" lon="-0.31645">
        <ele>141.4</ele>
        <time>2024-03-10T08:49:35Z</time>
      </trkpt>
      <trkpt lat="46.80598" lon="-0.31633">
        <ele>140.6</ele>
        <time>2024-03-10T08:49:40Z</time>
      </trkpt>
      <trkpt lat="46.80604" lon="-0.31631">
        <ele>140.4</ele>
        <time>2024-03-10T08:49:41Z</time>
      </trkpt>
      <trkpt lat="46.80623" lon="-0.3162">
        <ele>139.8</ele>
        <time>2024-03-10T08:49:44Z</time>
      </trkpt>
      <trkpt lat="46.8063" lon="-0.31615">
        <ele>139.8</ele>
        <time>2024-03-10T08:49:45Z</time>
      </trkpt>
      <trkpt lat="46.80663" lon="-0.3159">
        <ele>139.4</ele>
        <time>2024-03-10T08:49:50Z</time>
      </trkpt>
      <trkpt lat="46.80683" lon="-0.31573">
        <ele>138.6</ele>
        <time>2024-03-10T08:49:53Z</time>
      </trkpt>
      <trkpt lat="46.8069" lon="-0.31568">
        <ele>138.2</ele>
        <time>2024-03-10T08:49:54Z</time>
      </trkpt>
      <trkpt lat="46.80735" lon="-0.31528">
        <ele>137.4</ele>
        <time>2024-03-10T08:50:01Z</time>
      </trkpt>
      <trkpt lat="46.80774" lon="-0.31494">
        <ele>137.2</ele>
        <time>2024-03-10T08:50:07Z</time>
      </trkpt>
      <trkpt lat="46.8078" lon="-0.31489">
        <ele>137.2</ele>
        <time>2024-03-10T08:50:08Z</time>
      </trkpt>
      <trkpt lat="46.80824" lon="-0.3145">
        <ele>136.6</ele>
        <time>2024-03-10T08:50:15Z</time>
      </trkpt>
      <trkpt lat="46.80858" lon="-0.31416">
        <ele>136.2</ele>
        <time>2024-03-10T08:50:21Z</time>
      </trkpt>
      <trkpt lat="46.80893" lon="-0.31387">
        <ele>136</ele>
        <time>2024-03-10T08:50:27Z</time>
      </trkpt>
      <trkpt lat="46.8094" lon="-0.31355">
        <ele>136</ele>
        <time>2024-03-10T08:50:35Z</time>
      </trkpt>
      <trkpt lat="46.80963" lon="-0.31338">
        <ele>135.6</ele>
        <time>2024-03-10T08:50:39Z</time>
      </trkpt>
      <trkpt lat="46.80975" lon="-0.3133">
        <ele>135.2</ele>
        <time>2024-03-10T08:50:41Z</time>
      </trkpt>
      <trkpt lat="46.8098" lon="-0.31325">
        <ele>135</ele>
        <time>2024-03-10T08:50:42Z</time>
      </trkpt>
      <trkpt lat="46.80991" lon="-0.31316">
        <ele>135</ele>
        <time>2024-03-10T08:50:44Z</time>
      </trkpt>
      <trkpt lat="46.81003" lon="-0.31308">
        <ele>134.8</ele>
        <time>2024-03-10T08:50:46Z</time>
      </trkpt>
      <trkpt lat="46.81037" lon="-0.31285">
        <ele>134.6</ele>
        <time>2024-03-10T08:50:52Z</time>
      </trkpt>
      <trkpt lat="46.8105" lon="-0.31281">
        <ele>134</ele>
        <time>2024-03-10T08:50:54Z</time>
      </trkpt>
      <trkpt lat="46.81069" lon="-0.31278">
        <ele>133.8</ele>
        <time>2024-03-10T08:50:57Z</time>
      </trkpt>
      <trkpt lat="46.81074" lon="-0.31276">
        <ele>133.8</ele>
        <time>2024-03-10T08:50:58Z</time>
      </trkpt>
      <trkpt lat="46.81083" lon="-0.31266">
        <ele>133.6</ele>
        <time>2024-03-10T08:51:00Z</time>
      </trkpt>
      <trkpt lat="46.81088" lon="-0.3125">
        <ele>133.6</ele>
        <time>2024-03-10T08:51:02Z</time>
      </trkpt>
      <trkpt lat="46.81089" lon="-0.31242">
        <ele>133.4</ele>
        <time>2024-03-10T08:51:03Z</time>
      </trkpt>
      <trkpt lat="46.81099" lon="-0.31192">
        <ele>133.4</ele>
        <time>2024-03-10T08:51:09Z</time>
      </trkpt>
      <trkpt lat="46.81105" lon="-0.31147">
        <ele>133</ele>
        <time>2024-03-10T08:51:14Z</time>
      </trkpt>
      <trkpt lat="46.81105" lon="-0.31147">
        <ele>132.8</ele>
        <time>2024-03-10T08:51:15Z</time>
      </trkpt>
      <trkpt lat="46.81108" lon="-0.31108">
        <ele>132.2</ele>
        <time>2024-03-10T08:51:18Z</time>
      </trkpt>
      <trkpt lat="46.8111" lon="-0.31098">
        <ele>132</ele>
        <time>2024-03-10T08:51:19Z</time>
      </trkpt>
      <trkpt lat="46.81111" lon="-0.31088">
        <ele>131.8</ele>
        <time>2024-03-10T08:51:20Z</time>
      </trkpt>
      <trkpt lat="46.81113" lon="-0.31066">
        <ele>131.2</ele>
        <time>2024-03-10T08:51:22Z</time>
      </trkpt>
      <trkpt lat="46.81112" lon="-0.31055">
        <ele>130.8</ele>
        <time>2024-03-10T08:51:23Z</time>
      </trkpt>
      <trkpt lat="46.8111" lon="-0.31045">
        <ele>130.4</ele>
        <time>2024-03-10T08:51:24Z</time>
      </trkpt>
      <trkpt lat="46.81103" lon="-0.31026">
        <ele>129</ele>
        <time>2024-03-10T08:51:26Z</time>
      </trkpt>
      <trkpt lat="46.81093" lon="-0.31008">
        <ele>128.4</ele>
        <time>2024-03-10T08:51:28Z</time>
      </trkpt>
      <trkpt lat="46.81077" lon="-0.30972">
        <ele>128</ele>
        <time>2024-03-10T08:51:32Z</time>
      </trkpt>
      <trkpt lat="46.81074" lon="-0.30963">
        <ele>128</ele>
        <time>2024-03-10T08:51:33Z</time>
      </trkpt>
      <trkpt lat="46.81061" lon="-0.30914">
        <ele>128.2</ele>
        <time>2024-03-10T08:51:38Z</time>
      </trkpt>
      <trkpt lat="46.81046" lon="-0.30843">
        <ele>128</ele>
        <time>2024-03-10T08:51:45Z</time>
      </trkpt>
      <trkpt lat="46.81041" lon="-0.30799">
        <ele>129.2</ele>
        <time>2024-03-10T08:51:50Z</time>
      </trkpt>
      <trkpt lat="46.81038" lon="-0.30763">
        <ele>130.4</ele>
        <time>2024-03-10T08:51:55Z</time>
      </trkpt>
      <trkpt lat="46.81037" lon="-0.30757">
        <ele>130.8</ele>
        <time>2024-03-10T08:51:56Z</time>
      </trkpt>
      <trkpt lat="46.81037" lon="-0.30739">
        <ele>131.6</ele>
        <time>2024-03-10T08:51:59Z</time>
      </trkpt>
      <trkpt lat="46.81035" lon="-0.30718">
        <ele>132.6</ele>
        <time>2024-03-10T08:52:03Z</time>
      </trkpt>
      <trkpt lat="46.81034" lon="-0.30712">
        <ele>132.8</ele>
        <time>2024-03-10T08:52:04Z</time>
      </trkpt>
      <trkpt lat="46.81031" lon="-0.30682">
        <ele>133.8</ele>
        <time>2024-03-10T08:52:09Z</time>
      </trkpt>
      <trkpt lat="46.8103" lon="-0.3067">
        <ele>134.4</ele>
        <time>2024-03-10T08:52:11Z</time>
      </trkpt>
      <trkpt lat="46.81028" lon="-0.30653">
        <ele>134.8</ele>
        <time>2024-03-10T08:52:14Z</time>
      </trkpt>
      <trkpt lat="46.81027" lon="-0.30648">
        <ele>135</ele>
        <time>2024-03-10T08:52:15Z</time>
      </trkpt>
      <trkpt lat="46.81024" lon="-0.30638">
        <ele>135.2</ele>
        <time>2024-03-10T08:52:17Z</time>
      </trkpt>
      <trkpt lat="46.81023" lon="-0.30633">
        <ele>135.2</ele>
        <time>2024-03-10T08:52:18Z</time>
      </trkpt>
      <trkpt lat="46.81023" lon="-0.30627">
        <ele>135.4</ele>
        <time>2024-03-10T08:52:19Z</time>
      </trkpt>
      <trkpt lat="46.81019" lon="-0.30611">
        <ele>135.6</ele>
        <time>2024-03-10T08:52:22Z</time>
      </trkpt>
      <trkpt lat="46.81017" lon="-0.30605">
        <ele>135.8</ele>
        <time>2024-03-10T08:52:23Z</time>
      </trkpt>
      <trkpt lat="46.81016" lon="-0.30599">
        <ele>136</ele>
        <time>2024-03-10T08:52:24Z</time>
      </trkpt>
      <trkpt lat="46.81006" lon="-0.30562">
        <ele>136.4</ele>
        <time>2024-03-10T08:52:31Z</time>
      </trkpt>
      <trkpt lat="46.81001" lon="-0.3054">
        <ele>137</ele>
        <time>2024-03-10T08:52:35Z</time>
      </trkpt>
      <trkpt lat="46.80998" lon="-0.30528">
        <ele>137.4</ele>
        <time>2024-03-10T08:52:37Z</time>
      </trkpt>
      <trkpt lat="46.80994" lon="-0.30512">
        <ele>137.8</ele>
        <time>2024-03-10T08:52:40Z</time>
      </trkpt>
      <trkpt lat="46.8099" lon="-0.30496">
        <ele>138</ele>
        <time>2024-03-10T08:52:43Z</time>
      </trkpt>
      <trkpt lat="46.80988" lon="-0.30491">
        <ele>138.2</ele>
        <time>2024-03-10T08:52:44Z</time>
      </trkpt>
      <trkpt lat="46.80972" lon="-0.30445">
        <ele>138.8</ele>
        <time>2024-03-10T08:52:52Z</time>
      </trkpt>
      <trkpt lat="46.80963" lon="-0.30422">
        <ele>139.2</ele>
        <time>2024-03-10T08:52:56Z</time>
      </trkpt>
      <trkpt lat="46.80957" lon="-0.30404">
        <ele>139.6</ele>
        <time>2024-03-10T08:52:59Z</time>
      </trkpt>
      <trkpt lat="46.80941" lon="-0.30353">
        <ele>140.2</ele>
        <time>2024-03-10T08:53:08Z</time>
      </trkpt>
      <trkpt lat="46.80939" lon="-0.30347">
        <ele>140.4</ele>
        <time>2024-03-10T08:53:09Z</time>
      </trkpt>
      <trkpt lat="46.80929" lon="-0.30312">
        <ele>140.8</ele>
        <time>2024-03-10T08:53:15Z</time>
      </trkpt>
      <trkpt lat="46.80922" lon="-0.30281">
        <ele>141.6</ele>
        <time>2024-03-10T08:53:20Z</time>
      </trkpt>
      <trkpt lat="46.80918" lon="-0.30262">
        <ele>141.8</ele>
        <time>2024-03-10T08:53:23Z</time>
      </trkpt>
      <trkpt lat="46.80914" lon="-0.30227">
        <ele>142.6</ele>
        <time>2024-03-10T08:53:29Z</time>
      </trkpt>
      <trkpt lat="46.80914" lon="-0.30222">
        <ele>142.6</ele>
        <time>2024-03-10T08:53:30Z</time>
      </trkpt>
      <trkpt lat="46.80912" lon="-0.30186">
        <ele>143.6</ele>
        <time>2024-03-10T08:53:37Z</time>
      </trkpt>
      <trkpt lat="46.80911" lon="-0.30181">
        <ele>144</ele>
        <time>2024-03-10T08:53:38Z</time>
      </trkpt>
      <trkpt lat="46.80906" lon="-0.30151">
        <ele>145.2</ele>
        <time>2024-03-10T08:53:45Z</time>
      </trkpt>
      <trkpt lat="46.80904" lon="-0.30129">
        <ele>146.4</ele>
        <time>2024-03-10T08:53:51Z</time>
      </trkpt>
      <trkpt lat="46.80904" lon="-0.30124">
        <ele>146.4</ele>
        <time>2024-03-10T08:53:52Z</time>
      </trkpt>
      <trkpt lat="46.80902" lon="-0.30105">
        <ele>147.4</ele>
        <time>2024-03-10T08:53:56Z</time>
      </trkpt>
      <trkpt lat="46.80901" lon="-0.30099">
        <ele>147.6</ele>
        <time>2024-03-10T08:53:57Z</time>
      </trkpt>
      <trkpt lat="46.80898" lon="-0.30066">
        <ele>148.6</ele>
        <time>2024-03-10T08:54:03Z</time>
      </trkpt>
      <trkpt lat="46.80898" lon="-0.30048">
        <ele>148.6</ele>
        <time>2024-03-10T08:54:06Z</time>
      </trkpt>
      <trkpt lat="46.80895" lon="-0.29995">
        <ele>149.6</ele>
        <time>2024-03-10T08:54:14Z</time>
      </trkpt>
      <trkpt lat="46.80893" lon="-0.29944">
        <ele>150.2</ele>
        <time>2024-03-10T08:54:21Z</time>
      </trkpt>
      <trkpt lat="46.80889" lon="-0.29884">
        <ele>150.2</ele>
        <time>2024-03-10T08:54:29Z</time>
      </trkpt>
      <trkpt lat="46.80884" lon="-0.29841">
        <ele>149.8</ele>
        <time>2024-03-10T08:54:35Z</time>
      </trkpt>
      <trkpt lat="46.80882" lon="-0.29834">
        <ele>149.8</ele>
        <time>2024-03-10T08:54:36Z</time>
      </trkpt>
      <trkpt lat="46.80875" lon="-0.29823">
        <ele>149.8</ele>
        <time>2024-03-10T08:54:38Z</time>
      </trkpt>
      <trkpt lat="46.8087" lon="-0.29812">
        <ele>149.8</ele>
        <time>2024-03-10T08:54:40Z</time>
      </trkpt>
      <trkpt lat="46.80869" lon="-0.29806">
        <ele>149.8</ele>
        <time>2024-03-10T08:54:41Z</time>
      </trkpt>
      <trkpt lat="46.80864" lon="-0.29775">
        <ele>149.8</ele>
        <time>2024-03-10T08:54:46Z</time>
      </trkpt>
      <trkpt lat="46.80864" lon="-0.29768">
        <ele>149.8</ele>
        <time>2024-03-10T08:54:47Z</time>
      </trkpt>
      <trkpt lat="46.80863" lon="-0.29753">
        <ele>149.8</ele>
        <time>2024-03-10T08:54:49Z</time>
      </trkpt>
      <trkpt lat="46.80862" lon="-0.29739">
        <ele>149.8</ele>
        <time>2024-03-10T08:54:51Z</time>
      </trkpt>
      <trkpt lat="46.80861" lon="-0.29733">
        <ele>149.8</ele>
        <time>2024-03-10T08:54:52Z</time>
      </trkpt>
      <trkpt lat="46.80858" lon="-0.29717">
        <ele>149.6</ele>
        <time>2024-03-10T08:54:54Z</time>
      </trkpt>
      <trkpt lat="46.80853" lon="-0.29693">
        <ele>149.4</ele>
        <time>2024-03-10T08:54:57Z</time>
      </trkpt>
      <trkpt lat="46.80849" lon="-0.29661">
        <ele>148.6</ele>
        <time>2024-03-10T08:55:01Z</time>
      </trkpt>
      <trkpt lat="46.80847" lon="-0.29646">
        <ele>148.2</ele>
        <time>2024-03-10T08:55:03Z</time>
      </trkpt>
      <trkpt lat="46.80846" lon="-0.29638">
        <ele>148.2</ele>
        <time>2024-03-10T08:55:04Z</time>
      </trkpt>
      <trkpt lat="46.80842" lon="-0.29597">
        <ele>148</ele>
        <time>2024-03-10T08:55:09Z</time>
      </trkpt>
      <trkpt lat="46.8083" lon="-0.29536">
        <ele>147.8</ele>
        <time>2024-03-10T08:55:17Z</time>
      </trkpt>
      <trkpt lat="46.80812" lon="-0.29481">
        <ele>148.2</ele>
        <time>2024-03-10T08:55:25Z</time>
      </trkpt>
      <trkpt lat="46.80801" lon="-0.29448">
        <ele>149.6</ele>
        <time>2024-03-10T08:55:30Z</time>
      </trkpt>
      <trkpt lat="46.80797" lon="-0.29435">
        <ele>149.8</ele>
        <time>2024-03-10T08:55:32Z</time>
      </trkpt>
      <trkpt lat="46.80786" lon="-0.29385">
        <ele>150.6</ele>
        <time>2024-03-10T08:55:39Z</time>
      </trkpt>
      <trkpt lat="46.80784" lon="-0.29379">
        <ele>150.6</ele>
        <time>2024-03-10T08:55:40Z</time>
      </trkpt>
      <trkpt lat="46.80766" lon="-0.29309">
        <ele>151.6</ele>
        <time>2024-03-10T08:55:50Z</time>
      </trkpt>
      <trkpt lat="46.80764" lon="-0.29303">
        <ele>151.8</ele>
        <time>2024-03-10T08:55:51Z</time>
      </trkpt>
      <trkpt lat="46.8076" lon="-0.29287">
        <ele>152.2</ele>
        <time>2024-03-10T08:55:53Z</time>
      </trkpt>
      <trkpt lat="46.8075" lon="-0.29269">
        <ele>152.2</ele>
        <time>2024-03-10T08:55:56Z</time>
      </trkpt>
      <trkpt lat="46.80726" lon="-0.29223">
        <ele>152.8</ele>
        <time>2024-03-10T08:56:04Z</time>
      </trkpt>
      <trkpt lat="46.8072" lon="-0.29214">
        <ele>153</ele>
        <time>2024-03-10T08:56:06Z</time>
      </trkpt>
      <trkpt lat="46.80713" lon="-0.29205">
        <ele>153.2</ele>
        <time>2024-03-10T08:56:08Z</time>
      </trkpt>
      <trkpt lat="46.80707" lon="-0.29196">
        <ele>153.4</ele>
        <time>2024-03-10T08:56:10Z</time>
      </trkpt>
      <trkpt lat="46.80681" lon="-0.29156">
        <ele>154</ele>
        <time>2024-03-10T08:56:18Z</time>
      </trkpt>
      <trkpt lat="46.80678" lon="-0.29151">
        <ele>154</ele>
        <time>2024-03-10T08:56:19Z</time>
      </trkpt>
      <trkpt lat="46.80659" lon="-0.29125">
        <ele>153.8</ele>
        <time>2024-03-10T08:56:24Z</time>
      </trkpt>
      <trkpt lat="46.80634" lon="-0.29086">
        <ele>153.8</ele>
        <time>2024-03-10T08:56:31Z</time>
      </trkpt>
      <trkpt lat="46.80607" lon="-0.29042">
        <ele>153.2</ele>
        <time>2024-03-10T08:56:38Z</time>
      </trkpt>
      <trkpt lat="46.80589" lon="-0.29005">
        <ele>153</ele>
        <time>2024-03-10T08:56:43Z</time>
      </trkpt>
      <trkpt lat="46.80587" lon="-0.28997">
        <ele>152.8</ele>
        <time>2024-03-10T08:56:44Z</time>
      </trkpt>
      <trkpt lat="46.80586" lon="-0.28989">
        <ele>152.6</ele>
        <time>2024-03-10T08:56:45Z</time>
      </trkpt>
      <trkpt lat="46.80587" lon="-0.28976">
        <ele>152.2</ele>
        <time>2024-03-10T08:56:47Z</time>
      </trkpt>
      <trkpt lat="46.80596" lon="-0.28941">
        <ele>152</ele>
        <time>2024-03-10T08:56:52Z</time>
      </trkpt>
      <trkpt lat="46.80613" lon="-0.28887">
        <ele>152.8</ele>
        <time>2024-03-10T08:56:59Z</time>
      </trkpt>
      <trkpt lat="46.80615" lon="-0.28881">
        <ele>153</ele>
        <time>2024-03-10T08:57:01Z</time>
      </trkpt>
      <trkpt lat="46.80641" lon="-0.28828">
        <ele>152.8</ele>
        <time>2024-03-10T08:57:08Z</time>
      </trkpt>
      <trkpt lat="46.80667" lon="-0.28775">
        <ele>153.2</ele>
        <time>2024-03-10T08:57:16Z</time>
      </trkpt>
      <trkpt lat="46.8068" lon="-0.2875">
        <ele>152.8</ele>
        <time>2024-03-10T08:57:20Z</time>
      </trkpt>
      <trkpt lat="46.80688" lon="-0.28739">
        <ele>152.8</ele>
        <time>2024-03-10T08:57:22Z</time>
      </trkpt>
      <trkpt lat="46.80692" lon="-0.28732">
        <ele>152.8</ele>
        <time>2024-03-10T08:57:23Z</time>
      </trkpt>
      <trkpt lat="46.80695" lon="-0.28726">
        <ele>152.8</ele>
        <time>2024-03-10T08:57:24Z</time>
      </trkpt>
      <trkpt lat="46.807" lon="-0.28711">
        <ele>152.8</ele>
        <time>2024-03-10T08:57:26Z</time>
      </trkpt>
      <trkpt lat="46.80703" lon="-0.28695">
        <ele>153</ele>
        <time>2024-03-10T08:57:28Z</time>
      </trkpt>
      <trkpt lat="46.80714" lon="-0.28634">
        <ele>152.2</ele>
        <time>2024-03-10T08:57:35Z</time>
      </trkpt>
      <trkpt lat="46.80727" lon="-0.28571">
        <ele>151.8</ele>
        <time>2024-03-10T08:57:42Z</time>
      </trkpt>
      <trkpt lat="46.80747" lon="-0.2852">
        <ele>150.8</ele>
        <time>2024-03-10T08:57:48Z</time>
      </trkpt>
      <trkpt lat="46.8075" lon="-0.28512">
        <ele>150.6</ele>
        <time>2024-03-10T08:57:49Z</time>
      </trkpt>
      <trkpt lat="46.80776" lon="-0.28466">
        <ele>149.6</ele>
        <time>2024-03-10T08:57:55Z</time>
      </trkpt>
      <trkpt lat="46.80793" lon="-0.28422">
        <ele>148.6</ele>
        <time>2024-03-10T08:58:00Z</time>
      </trkpt>
      <trkpt lat="46.80796" lon="-0.28412">
        <ele>148.4</ele>
        <time>2024-03-10T08:58:01Z</time>
      </trkpt>
      <trkpt lat="46.80805" lon="-0.28383">
        <ele>147.4</ele>
        <time>2024-03-10T08:58:04Z</time>
      </trkpt>
      <trkpt lat="46.80814" lon="-0.28354">
        <ele>146.4</ele>
        <time>2024-03-10T08:58:07Z</time>
      </trkpt>
      <trkpt lat="46.80818" lon="-0.28344">
        <ele>146</ele>
        <time>2024-03-10T08:58:08Z</time>
      </trkpt>
      <trkpt lat="46.80828" lon="-0.28313">
        <ele>144.8</ele>
        <time>2024-03-10T08:58:11Z</time>
      </trkpt>
      <trkpt lat="46.80841" lon="-0.28274">
        <ele>143.8</ele>
        <time>2024-03-10T08:58:15Z</time>
      </trkpt>
      <trkpt lat="46.80856" lon="-0.28237">
        <ele>143</ele>
        <time>2024-03-10T08:58:19Z</time>
      </trkpt>
      <trkpt lat="46.8086" lon="-0.2823">
        <ele>142.6</ele>
        <time>2024-03-10T08:58:20Z</time>
      </trkpt>
      <trkpt lat="46.80866" lon="-0.28223">
        <ele>142.4</ele>
        <time>2024-03-10T08:58:21Z</time>
      </trkpt>
      <trkpt lat="46.80886" lon="-0.28209">
        <ele>142.2</ele>
        <time>2024-03-10T08:58:24Z</time>
      </trkpt>
      <trkpt lat="46.80907" lon="-0.28197">
        <ele>141.4</ele>
        <time>2024-03-10T08:58:27Z</time>
      </trkpt>
      <trkpt lat="46.80925" lon="-0.28186">
        <ele>140.6</ele>
        <time>2024-03-10T08:58:30Z</time>
      </trkpt>
      <trkpt lat="46.8093" lon="-0.28184">
        <ele>140.4</ele>
        <time>2024-03-10T08:58:31Z</time>
      </trkpt>
      <trkpt lat="46.80951" lon="-0.28177">
        <ele>139.4</ele>
        <time>2024-03-10T08:58:35Z</time>
      </trkpt>
      <trkpt lat="46.80984" lon="-0.28168">
        <ele>139</ele>
        <time>2024-03-10T08:58:41Z</time>
      </trkpt>
      <trkpt lat="46.81025" lon="-0.28157">
        <ele>138.4</ele>
        <time>2024-03-10T08:58:47Z</time>
      </trkpt>
      <trkpt lat="46.81059" lon="-0.28142">
        <ele>137.2</ele>
        <time>2024-03-10T08:58:52Z</time>
      </trkpt>
      <trkpt lat="46.81073" lon="-0.28134">
        <ele>137</ele>
        <time>2024-03-10T08:58:54Z</time>
      </trkpt>
      <trkpt lat="46.81104" lon="-0.2811">
        <ele>135.8</ele>
        <time>2024-03-10T08:58:59Z</time>
      </trkpt>
      <trkpt lat="46.81122" lon="-0.28094">
        <ele>135.2</ele>
        <time>2024-03-10T08:59:02Z</time>
      </trkpt>
      <trkpt lat="46.81155" lon="-0.28064">
        <ele>135</ele>
        <time>2024-03-10T08:59:08Z</time>
      </trkpt>
      <trkpt lat="46.81161" lon="-0.28059">
        <ele>134.8</ele>
        <time>2024-03-10T08:59:09Z</time>
      </trkpt>
      <trkpt lat="46.81188" lon="-0.28032">
        <ele>134.2</ele>
        <time>2024-03-10T08:59:14Z</time>
      </trkpt>
      <trkpt lat="46.81224" lon="-0.27998">
        <ele>133.6</ele>
        <time>2024-03-10T08:59:21Z</time>
      </trkpt>
      <trkpt lat="46.81253" lon="-0.27976">
        <ele>133.8</ele>
        <time>2024-03-10T08:59:27Z</time>
      </trkpt>
      <trkpt lat="46.81277" lon="-0.27956">
        <ele>134</ele>
        <time>2024-03-10T08:59:32Z</time>
      </trkpt>
      <trkpt lat="46.81306" lon="-0.27929">
        <ele>134</ele>
        <time>2024-03-10T08:59:38Z</time>
      </trkpt>
      <trkpt lat="46.81328" lon="-0.279">
        <ele>133.8</ele>
        <time>2024-03-10T08:59:44Z</time>
      </trkpt>
      <trkpt lat="46.81346" lon="-0.27875">
        <ele>134.6</ele>
        <time>2024-03-10T08:59:49Z</time>
      </trkpt>
      <trkpt lat="46.8135" lon="-0.27869">
        <ele>134.8</ele>
        <time>2024-03-10T08:59:50Z</time>
      </trkpt>
      <trkpt lat="46.81372" lon="-0.27829">
        <ele>135.8</ele>
        <time>2024-03-10T08:59:57Z</time>
      </trkpt>
      <trkpt lat="46.81394" lon="-0.2779">
        <ele>136.2</ele>
        <time>2024-03-10T09:00:04Z</time>
      </trkpt>
      <trkpt lat="46.8142" lon="-0.27754">
        <ele>136.6</ele>
        <time>2024-03-10T09:00:11Z</time>
      </trkpt>
      <trkpt lat="46.81423" lon="-0.27748">
        <ele>136.8</ele>
        <time>2024-03-10T09:00:12Z</time>
      </trkpt>
      <trkpt lat="46.81438" lon="-0.27718">
        <ele>136.8</ele>
        <time>2024-03-10T09:00:17Z</time>
      </trkpt>
      <trkpt lat="46.8144" lon="-0.27712">
        <ele>136.8</ele>
        <time>2024-03-10T09:00:18Z</time>
      </trkpt>
      <trkpt lat="46.81456" lon="-0.2766">
        <ele>137.6</ele>
        <time>2024-03-10T09:00:26Z</time>
      </trkpt>
      <trkpt lat="46.81471" lon="-0.27609">
        <ele>138</ele>
        <time>2024-03-10T09:00:34Z</time>
      </trkpt>
      <trkpt lat="46.81473" lon="-0.27604">
        <ele>138</ele>
        <time>2024-03-10T09:00:35Z</time>
      </trkpt>
      <trkpt lat="46.81475" lon="-0.276">
        <ele>138</ele>
        <time>2024-03-10T09:00:36Z</time>
      </trkpt>
      <trkpt lat="46.81481" lon="-0.27592">
        <ele>138.2</ele>
        <time>2024-03-10T09:00:38Z</time>
      </trkpt>
      <trkpt lat="46.81486" lon="-0.27589">
        <ele>138.4</ele>
        <time>2024-03-10T09:00:39Z</time>
      </trkpt>
      <trkpt lat="46.81491" lon="-0.27587">
        <ele>138.4</ele>
        <time>2024-03-10T09:00:40Z</time>
      </trkpt>
      <trkpt lat="46.81507" lon="-0.27583">
        <ele>138.6</ele>
        <time>2024-03-10T09:00:43Z</time>
      </trkpt>
      <trkpt lat="46.81512" lon="-0.27582">
        <ele>138.8</ele>
        <time>2024-03-10T09:00:44Z</time>
      </trkpt>
      <trkpt lat="46.8153" lon="-0.27578">
        <ele>138.8</ele>
        <time>2024-03-10T09:00:47Z</time>
      </trkpt>
      <trkpt lat="46.81541" lon="-0.27573">
        <ele>138.8</ele>
        <time>2024-03-10T09:00:49Z</time>
      </trkpt>
      <trkpt lat="46.8158" lon="-0.27544">
        <ele>138</ele>
        <time>2024-03-10T09:00:56Z</time>
      </trkpt>
      <trkpt lat="46.81616" lon="-0.27529">
        <ele>137.6</ele>
        <time>2024-03-10T09:01:02Z</time>
      </trkpt>
      <trkpt lat="46.81664" lon="-0.27525">
        <ele>136.8</ele>
        <time>2024-03-10T09:01:09Z</time>
      </trkpt>
      <trkpt lat="46.81706" lon="-0.27532">
        <ele>135.8</ele>
        <time>2024-03-10T09:01:15Z</time>
      </trkpt>
      <trkpt lat="46.81713" lon="-0.27533">
        <ele>135.8</ele>
        <time>2024-03-10T09:01:16Z</time>
      </trkpt>
      <trkpt lat="46.8172" lon="-0.27533">
        <ele>135.4</ele>
        <time>2024-03-10T09:01:17Z</time>
      </trkpt>
      <trkpt lat="46.81734" lon="-0.27529">
        <ele>135.2</ele>
        <time>2024-03-10T09:01:19Z</time>
      </trkpt>
      <trkpt lat="46.8174" lon="-0.27525">
        <ele>134.8</ele>
        <time>2024-03-10T09:01:20Z</time>
      </trkpt>
      <trkpt lat="46.81745" lon="-0.2752">
        <ele>134.8</ele>
        <time>2024-03-10T09:01:21Z</time>
      </trkpt>
      <trkpt lat="46.81755" lon="-0.27506">
        <ele>134.6</ele>
        <time>2024-03-10T09:01:23Z</time>
      </trkpt>
      <trkpt lat="46.81759" lon="-0.27498">
        <ele>134.6</ele>
        <time>2024-03-10T09:01:24Z</time>
      </trkpt>
      <trkpt lat="46.81786" lon="-0.27443">
        <ele>134.6</ele>
        <time>2024-03-10T09:01:31Z</time>
      </trkpt>
      <trkpt lat="46.81817" lon="-0.27395">
        <ele>135.6</ele>
        <time>2024-03-10T09:01:38Z</time>
      </trkpt>
      <trkpt lat="46.81821" lon="-0.27388">
        <ele>135.6</ele>
        <time>2024-03-10T09:01:39Z</time>
      </trkpt>
      <trkpt lat="46.81825" lon="-0.2738">
        <ele>135.8</ele>
        <time>2024-03-10T09:01:40Z</time>
      </trkpt>
      <trkpt lat="46.8183" lon="-0.27362">
        <ele>136</ele>
        <time>2024-03-10T09:01:42Z</time>
      </trkpt>
      <trkpt lat="46.81838" lon="-0.27329">
        <ele>134.6</ele>
        <time>2024-03-10T09:01:46Z</time>
      </trkpt>
      <trkpt lat="46.8184" lon="-0.2732">
        <ele>134.2</ele>
        <time>2024-03-10T09:01:47Z</time>
      </trkpt>
      <trkpt lat="46.81843" lon="-0.27311">
        <ele>134</ele>
        <time>2024-03-10T09:01:48Z</time>
      </trkpt>
      <trkpt lat="46.81845" lon="-0.27302">
        <ele>133.6</ele>
        <time>2024-03-10T09:01:49Z</time>
      </trkpt>
      <trkpt lat="46.81858" lon="-0.27255">
        <ele>132.4</ele>
        <time>2024-03-10T09:01:54Z</time>
      </trkpt>
      <trkpt lat="46.81869" lon="-0.27228">
        <ele>131</ele>
        <time>2024-03-10T09:01:57Z</time>
      </trkpt>
      <trkpt lat="46.81881" lon="-0.27201">
        <ele>130.4</ele>
        <time>2024-03-10T09:02:00Z</time>
      </trkpt>
      <trkpt lat="46.81891" lon="-0.27186">
        <ele>129.8</ele>
        <time>2024-03-10T09:02:02Z</time>
      </trkpt>
      <trkpt lat="46.81912" lon="-0.27157">
        <ele>129.2</ele>
        <time>2024-03-10T09:02:06Z</time>
      </trkpt>
      <trkpt lat="46.81923" lon="-0.27145">
        <ele>128.6</ele>
        <time>2024-03-10T09:02:08Z</time>
      </trkpt>
      <trkpt lat="46.81952" lon="-0.27116">
        <ele>127.6</ele>
        <time>2024-03-10T09:02:13Z</time>
      </trkpt>
      <trkpt lat="46.81958" lon="-0.27111">
        <ele>127.6</ele>
        <time>2024-03-10T09:02:14Z</time>
      </trkpt>
      <trkpt lat="46.81981" lon="-0.2709">
        <ele>126.8</ele>
        <time>2024-03-10T09:02:18Z</time>
      </trkpt>
      <trkpt lat="46.81987" lon="-0.27086">
        <ele>126.6</ele>
        <time>2024-03-10T09:02:19Z</time>
      </trkpt>
      <trkpt lat="46.81999" lon="-0.27078">
        <ele>126.6</ele>
        <time>2024-03-10T09:02:21Z</time>
      </trkpt>
      <trkpt lat="46.82017" lon="-0.27064">
        <ele>126.2</ele>
        <time>2024-03-10T09:02:24Z</time>
      </trkpt>
      <trkpt lat="46.82058" lon="-0.27029">
        <ele>125.6</ele>
        <time>2024-03-10T09:02:31Z</time>
      </trkpt>
      <trkpt lat="46.82063" lon="-0.27023">
        <ele>125.6</ele>
        <time>2024-03-10T09:02:32Z</time>
      </trkpt>
      <trkpt lat="46.82069" lon="-0.27016">
        <ele>125.6</ele>
        <time>2024-03-10T09:02:33Z</time>
      </trkpt>
      <trkpt lat="46.82084" lon="-0.26996">
        <ele>125</ele>
        <time>2024-03-10T09:02:36Z</time>
      </trkpt>
      <trkpt lat="46.8209" lon="-0.26989">
        <ele>124.6</ele>
        <time>2024-03-10T09:02:37Z</time>
      </trkpt>
      <trkpt lat="46.82096" lon="-0.26983">
        <ele>124.6</ele>
        <time>2024-03-10T09:02:38Z</time>
      </trkpt>
      <trkpt lat="46.82113" lon="-0.26966">
        <ele>124.4</ele>
        <time>2024-03-10T09:02:41Z</time>
      </trkpt>
      <trkpt lat="46.82151" lon="-0.26931">
        <ele>123.4</ele>
        <time>2024-03-10T09:02:47Z</time>
      </trkpt>
      <trkpt lat="46.82164" lon="-0.26919">
        <ele>122.8</ele>
        <time>2024-03-10T09:02:49Z</time>
      </trkpt>
      <trkpt lat="46.82184" lon="-0.26903">
        <ele>122.2</ele>
        <time>2024-03-10T09:02:52Z</time>
      </trkpt>
      <trkpt lat="46.82215" lon="-0.26877">
        <ele>121.2</ele>
        <time>2024-03-10T09:02:57Z</time>
      </trkpt>
      <trkpt lat="46.82246" lon="-0.26844">
        <ele>120</ele>
        <time>2024-03-10T09:03:02Z</time>
      </trkpt>
      <trkpt lat="46.82252" lon="-0.26837">
        <ele>119.4</ele>
        <time>2024-03-10T09:03:03Z</time>
      </trkpt>
      <trkpt lat="46.82258" lon="-0.26829">
        <ele>119</ele>
        <time>2024-03-10T09:03:04Z</time>
      </trkpt>
      <trkpt lat="46.82278" lon="-0.26807">
        <ele>117.6</ele>
        <time>2024-03-10T09:03:07Z</time>
      </trkpt>
      <trkpt lat="46.82296" lon="-0.26785">
        <ele>117</ele>
        <time>2024-03-10T09:03:10Z</time>
      </trkpt>
      <trkpt lat="46.82308" lon="-0.26772">
        <ele>116.6</ele>
        <time>2024-03-10T09:03:12Z</time>
      </trkpt>
      <trkpt lat="46.82327" lon="-0.26752">
        <ele>115.6</ele>
        <time>2024-03-10T09:03:15Z</time>
      </trkpt>
      <trkpt lat="46.8234" lon="-0.26738">
        <ele>115</ele>
        <time>2024-03-10T09:03:17Z</time>
      </trkpt>
      <trkpt lat="46.82359" lon="-0.2672">
        <ele>114.6</ele>
        <time>2024-03-10T09:03:20Z</time>
      </trkpt>
      <trkpt lat="46.82397" lon="-0.26681">
        <ele>113.8</ele>
        <time>2024-03-10T09:03:26Z</time>
      </trkpt>
      <trkpt lat="46.82409" lon="-0.26668">
        <ele>113.2</ele>
        <time>2024-03-10T09:03:28Z</time>
      </trkpt>
      <trkpt lat="46.82443" lon="-0.26629">
        <ele>112.6</ele>
        <time>2024-03-10T09:03:34Z</time>
      </trkpt>
      <trkpt lat="46.82454" lon="-0.26616">
        <ele>111.8</ele>
        <time>2024-03-10T09:03:36Z</time>
      </trkpt>
      <trkpt lat="46.82472" lon="-0.26594">
        <ele>111</ele>
        <time>2024-03-10T09:03:40Z</time>
      </trkpt>
      <trkpt lat="46.82483" lon="-0.26582">
        <ele>110.8</ele>
        <time>2024-03-10T09:03:42Z</time>
      </trkpt>
      <trkpt lat="46.82505" lon="-0.2656">
        <ele>109.8</ele>
        <time>2024-03-10T09:03:46Z</time>
      </trkpt>
      <trkpt lat="46.82511" lon="-0.26554">
        <ele>109.2</ele>
        <time>2024-03-10T09:03:47Z</time>
      </trkpt>
      <trkpt lat="46.82528" lon="-0.26538">
        <ele>108.2</ele>
        <time>2024-03-10T09:03:50Z</time>
      </trkpt>
      <trkpt lat="46.82538" lon="-0.2653">
        <ele>107.6</ele>
        <time>2024-03-10T09:03:52Z</time>
      </trkpt>
      <trkpt lat="46.82559" lon="-0.26513">
        <ele>107.2</ele>
        <time>2024-03-10T09:03:56Z</time>
      </trkpt>
      <trkpt lat="46.82566" lon="-0.26504">
        <ele>107</ele>
        <time>2024-03-10T09:03:58Z</time>
      </trkpt>
      <trkpt lat="46.82571" lon="-0.26489">
        <ele>106.8</ele>
        <time>2024-03-10T09:04:00Z</time>
      </trkpt>
      <trkpt lat="46.82575" lon="-0.26472">
        <ele>106.8</ele>
        <time>2024-03-10T09:04:02Z</time>
      </trkpt>
      <trkpt lat="46.82579" lon="-0.26423">
        <ele>107.2</ele>
        <time>2024-03-10T09:04:08Z</time>
      </trkpt>
      <trkpt lat="46.82587" lon="-0.26384">
        <ele>107.2</ele>
        <time>2024-03-10T09:04:13Z</time>
      </trkpt>
      <trkpt lat="46.8259" lon="-0.26376">
        <ele>107.2</ele>
        <time>2024-03-10T09:04:14Z</time>
      </trkpt>
      <trkpt lat="46.82594" lon="-0.26351">
        <ele>107.4</ele>
        <time>2024-03-10T09:04:17Z</time>
      </trkpt>
      <trkpt lat="46.82599" lon="-0.26326">
        <ele>107.8</ele>
        <time>2024-03-10T09:04:20Z</time>
      </trkpt>
      <trkpt lat="46.82602" lon="-0.26301">
        <ele>108.4</ele>
        <time>2024-03-10T09:04:23Z</time>
      </trkpt>
      <trkpt lat="46.82605" lon="-0.26254">
        <ele>109</ele>
        <time>2024-03-10T09:04:29Z</time>
      </trkpt>
      <trkpt lat="46.82606" lon="-0.2624">
        <ele>109.6</ele>
        <time>2024-03-10T09:04:31Z</time>
      </trkpt>
      <trkpt lat="46.82609" lon="-0.26209">
        <ele>110.4</ele>
        <time>2024-03-10T09:04:36Z</time>
      </trkpt>
      <trkpt lat="46.82609" lon="-0.26203">
        <ele>110.6</ele>
        <time>2024-03-10T09:04:37Z</time>
      </trkpt>
      <trkpt lat="46.8261" lon="-0.26196">
        <ele>110.8</ele>
        <time>2024-03-10T09:04:38Z</time>
      </trkpt>
      <trkpt lat="46.82613" lon="-0.26162">
        <ele>111.2</ele>
        <time>2024-03-10T09:04:43Z</time>
      </trkpt>
      <trkpt lat="46.82614" lon="-0.26144">
        <ele>111.6</ele>
        <time>2024-03-10T09:04:46Z</time>
      </trkpt>
      <trkpt lat="46.82614" lon="-0.26137">
        <ele>111.8</ele>
        <time>2024-03-10T09:04:47Z</time>
      </trkpt>
      <trkpt lat="46.82614" lon="-0.26125">
        <ele>112</ele>
        <time>2024-03-10T09:04:49Z</time>
      </trkpt>
      <trkpt lat="46.82614" lon="-0.26101">
        <ele>113</ele>
        <time>2024-03-10T09:04:53Z</time>
      </trkpt>
      <trkpt lat="46.82615" lon="-0.26072">
        <ele>114.2</ele>
        <time>2024-03-10T09:04:58Z</time>
      </trkpt>
      <trkpt lat="46.82614" lon="-0.26051">
        <ele>115.2</ele>
        <time>2024-03-10T09:05:02Z</time>
      </trkpt>
      <trkpt lat="46.82615" lon="-0.26033">
        <ele>116</ele>
        <time>2024-03-10T09:05:06Z</time>
      </trkpt>
      <trkpt lat="46.82616" lon="-0.26025">
        <ele>116.4</ele>
        <time>2024-03-10T09:05:08Z</time>
      </trkpt>
      <trkpt lat="46.82622" lon="-0.26017">
        <ele>117</ele>
        <time>2024-03-10T09:05:11Z</time>
      </trkpt>
      <trkpt lat="46.82633" lon="-0.26013">
        <ele>117.4</ele>
        <time>2024-03-10T09:05:16Z</time>
      </trkpt>
      <trkpt lat="46.82638" lon="-0.26011">
        <ele>117.4</ele>
        <time>2024-03-10T09:05:18Z</time>
      </trkpt>
      <trkpt lat="46.82661" lon="-0.26002">
        <ele>117.6</ele>
        <time>2024-03-10T09:05:26Z</time>
      </trkpt>
      <trkpt lat="46.82682" lon="-0.25996">
        <ele>117.4</ele>
        <time>2024-03-10T09:05:33Z</time>
      </trkpt>
      <trkpt lat="46.82702" lon="-0.25992">
        <ele>117.4</ele>
        <time>2024-03-10T09:05:41Z</time>
      </trkpt>
      <trkpt lat="46.82722" lon="-0.25991">
        <ele>117.6</ele>
        <time>2024-03-10T09:05:49Z</time>
      </trkpt>
      <trkpt lat="46.82741" lon="-0.25987">
        <ele>117.4</ele>
        <time>2024-03-10T09:05:55Z</time>
      </trkpt>
      <trkpt lat="46.82767" lon="-0.25975">
        <ele>117.6</ele>
        <time>2024-03-10T09:06:02Z</time>
      </trkpt>
      <trkpt lat="46.82797" lon="-0.25967">
        <ele>117.6</ele>
        <time>2024-03-10T09:06:10Z</time>
      </trkpt>
      <trkpt lat="46.82819" lon="-0.25966">
        <ele>117</ele>
        <time>2024-03-10T09:06:16Z</time>
      </trkpt>
      <trkpt lat="46.82845" lon="-0.25962">
        <ele>116.8</ele>
        <time>2024-03-10T09:06:22Z</time>
      </trkpt>
      <trkpt lat="46.82876" lon="-0.25943">
        <ele>116.8</ele>
        <time>2024-03-10T09:06:29Z</time>
      </trkpt>
      <trkpt lat="46.8288" lon="-0.25937">
        <ele>116.8</ele>
        <time>2024-03-10T09:06:31Z</time>
      </trkpt>
      <trkpt lat="46.82881" lon="-0.25934">
        <ele>116.8</ele>
        <time>2024-03-10T09:06:32Z</time>
      </trkpt>
      <trkpt lat="46.8288" lon="-0.2593">
        <ele>116.8</ele>
        <time>2024-03-10T09:06:33Z</time>
      </trkpt>
      <trkpt lat="46.82876" lon="-0.25921">
        <ele>116.8</ele>
        <time>2024-03-10T09:06:35Z</time>
      </trkpt>
      <trkpt lat="46.82857" lon="-0.25878">
        <ele>117.2</ele>
        <time>2024-03-10T09:06:43Z</time>
      </trkpt>
      <trkpt lat="46.82832" lon="-0.25821">
        <ele>118.2</ele>
        <time>2024-03-10T09:06:53Z</time>
      </trkpt>
      <trkpt lat="46.82822" lon="-0.25799">
        <ele>118.6</ele>
        <time>2024-03-10T09:06:57Z</time>
      </trkpt>
      <trkpt lat="46.82815" lon="-0.25783">
        <ele>118.6</ele>
        <time>2024-03-10T09:07:00Z</time>
      </trkpt>
      <trkpt lat="46.82809" lon="-0.25767">
        <ele>119.8</ele>
        <time>2024-03-10T09:07:03Z</time>
      </trkpt>
      <trkpt lat="46.82798" lon="-0.25741">
        <ele>120</ele>
        <time>2024-03-10T09:07:08Z</time>
      </trkpt>
      <trkpt lat="46.82782" lon="-0.25695">
        <ele>120.4</ele>
        <time>2024-03-10T09:07:16Z</time>
      </trkpt>
      <trkpt lat="46.82777" lon="-0.25676">
        <ele>121</ele>
        <time>2024-03-10T09:07:19Z</time>
      </trkpt>
      <trkpt lat="46.8277" lon="-0.25646">
        <ele>122</ele>
        <time>2024-03-10T09:07:24Z</time>
      </trkpt>
      <trkpt lat="46.82762" lon="-0.25613">
        <ele>123</ele>
        <time>2024-03-10T09:07:30Z</time>
      </trkpt>
      <trkpt lat="46.82761" lon="-0.25608">
        <ele>123.2</ele>
        <time>2024-03-10T09:07:31Z</time>
      </trkpt>
      <trkpt lat="46.82765" lon="-0.25584">
        <ele>124</ele>
        <time>2024-03-10T09:07:36Z</time>
      </trkpt>
      <trkpt lat="46.8277" lon="-0.25571">
        <ele>124.2</ele>
        <time>2024-03-10T09:07:39Z</time>
      </trkpt>
      <trkpt lat="46.82776" lon="-0.25556">
        <ele>124.6</ele>
        <time>2024-03-10T09:07:42Z</time>
      </trkpt>
      <trkpt lat="46.82789" lon="-0.25527">
        <ele>124.6</ele>
        <time>2024-03-10T09:07:47Z</time>
      </trkpt>
      <trkpt lat="46.82792" lon="-0.25521">
        <ele>124.6</ele>
        <time>2024-03-10T09:07:48Z</time>
      </trkpt>
      <trkpt lat="46.82804" lon="-0.25489">
        <ele>124.4</ele>
        <time>2024-03-10T09:07:53Z</time>
      </trkpt>
      <trkpt lat="46.82811" lon="-0.25467">
        <ele>125</ele>
        <time>2024-03-10T09:07:56Z</time>
      </trkpt>
      <trkpt lat="46.82818" lon="-0.25439">
        <ele>125.4</ele>
        <time>2024-03-10T09:08:00Z</time>
      </trkpt>
      <trkpt lat="46.82826" lon="-0.25384">
        <ele>125.4</ele>
        <time>2024-03-10T09:08:07Z</time>
      </trkpt>
      <trkpt lat="46.82832" lon="-0.25301">
        <ele>125.4</ele>
        <time>2024-03-10T09:08:17Z</time>
      </trkpt>
      <trkpt lat="46.82837" lon="-0.25244">
        <ele>125.8</ele>
        <time>2024-03-10T09:08:24Z</time>
      </trkpt>
      <trkpt lat="46.82848" lon="-0.25189">
        <ele>126.6</ele>
        <time>2024-03-10T09:08:31Z</time>
      </trkpt>
      <trkpt lat="46.82862" lon="-0.25138">
        <ele>127.2</ele>
        <time>2024-03-10T09:08:38Z</time>
      </trkpt>
      <trkpt lat="46.82864" lon="-0.25131">
        <ele>127.2</ele>
        <time>2024-03-10T09:08:39Z</time>
      </trkpt>
      <trkpt lat="46.82875" lon="-0.25094">
        <ele>127.2</ele>
        <time>2024-03-10T09:08:44Z</time>
      </trkpt>
      <trkpt lat="46.8289" lon="-0.25043">
        <ele>127.2</ele>
        <time>2024-03-10T09:08:51Z</time>
      </trkpt>
      <trkpt lat="46.82903" lon="-0.24998">
        <ele>127.6</ele>
        <time>2024-03-10T09:08:57Z</time>
      </trkpt>
      <trkpt lat="46.82908" lon="-0.24977">
        <ele>127.8</ele>
        <time>2024-03-10T09:09:00Z</time>
      </trkpt>
      <trkpt lat="46.82926" lon="-0.24936">
        <ele>127.8</ele>
        <time>2024-03-10T09:09:06Z</time>
      </trkpt>
      <trkpt lat="46.82933" lon="-0.24925">
        <ele>127.6</ele>
        <time>2024-03-10T09:09:08Z</time>
      </trkpt>
      <trkpt lat="46.82944" lon="-0.2491">
        <ele>127.4</ele>
        <time>2024-03-10T09:09:11Z</time>
      </trkpt>
      <trkpt lat="46.82948" lon="-0.24906">
        <ele>127.4</ele>
        <time>2024-03-10T09:09:12Z</time>
      </trkpt>
      <trkpt lat="46.8296" lon="-0.24889">
        <ele>127.2</ele>
        <time>2024-03-10T09:09:16Z</time>
      </trkpt>
      <trkpt lat="46.82965" lon="-0.24881">
        <ele>127.2</ele>
        <time>2024-03-10T09:09:18Z</time>
      </trkpt>
      <trkpt lat="46.82967" lon="-0.24874">
        <ele>127</ele>
        <time>2024-03-10T09:09:20Z</time>
      </trkpt>
      <trkpt lat="46.8297" lon="-0.24857">
        <ele>126.8</ele>
        <time>2024-03-10T09:09:24Z</time>
      </trkpt>
      <trkpt lat="46.82976" lon="-0.2485">
        <ele>126.8</ele>
        <time>2024-03-10T09:09:26Z</time>
      </trkpt>
      <trkpt lat="46.82984" lon="-0.24845">
        <ele>127</ele>
        <time>2024-03-10T09:09:28Z</time>
      </trkpt>
      <trkpt lat="46.83003" lon="-0.24833">
        <ele>127.2</ele>
        <time>2024-03-10T09:09:33Z</time>
      </trkpt>
      <trkpt lat="46.83031" lon="-0.24815">
        <ele>127.6</ele>
        <time>2024-03-10T09:09:39Z</time>
      </trkpt>
      <trkpt lat="46.83076" lon="-0.24787">
        <ele>127.6</ele>
        <time>2024-03-10T09:09:48Z</time>
      </trkpt>
      <trkpt lat="46.83117" lon="-0.24762">
        <ele>128</ele>
        <time>2024-03-10T09:09:56Z</time>
      </trkpt>
      <trkpt lat="46.83155" lon="-0.24742">
        <ele>128.6</ele>
        <time>2024-03-10T09:10:03Z</time>
      </trkpt>
      <trkpt lat="46.8316" lon="-0.2474">
        <ele>128.6</ele>
        <time>2024-03-10T09:10:04Z</time>
      </trkpt>
      <trkpt lat="46.83199" lon="-0.24731">
        <ele>129.8</ele>
        <time>2024-03-10T09:10:11Z</time>
      </trkpt>
      <trkpt lat="46.83204" lon="-0.2473">
        <ele>130</ele>
        <time>2024-03-10T09:10:12Z</time>
      </trkpt>
      <trkpt lat="46.83233" lon="-0.24726">
        <ele>131</ele>
        <time>2024-03-10T09:10:18Z</time>
      </trkpt>
      <trkpt lat="46.83243" lon="-0.24726">
        <ele>131.4</ele>
        <time>2024-03-10T09:10:20Z</time>
      </trkpt>
      <trkpt lat="46.83252" lon="-0.24725">
        <ele>132</ele>
        <time>2024-03-10T09:10:22Z</time>
      </trkpt>
      <trkpt lat="46.83272" lon="-0.24727">
        <ele>133</ele>
        <time>2024-03-10T09:10:26Z</time>
      </trkpt>
      <trkpt lat="46.83277" lon="-0.24729">
        <ele>133.2</ele>
        <time>2024-03-10T09:10:27Z</time>
      </trkpt>
      <trkpt lat="46.83282" lon="-0.2473">
        <ele>133.4</ele>
        <time>2024-03-10T09:10:28Z</time>
      </trkpt>
      <trkpt lat="46.83309" lon="-0.24742">
        <ele>134</ele>
        <time>2024-03-10T09:10:34Z</time>
      </trkpt>
      <trkpt lat="46.83313" lon="-0.24744">
        <ele>134.2</ele>
        <time>2024-03-10T09:10:35Z</time>
      </trkpt>
      <trkpt lat="46.83351" lon="-0.24762">
        <ele>135.2</ele>
        <time>2024-03-10T09:10:43Z</time>
      </trkpt>
      <trkpt lat="46.8336" lon="-0.24766">
        <ele>135.6</ele>
        <time>2024-03-10T09:10:45Z</time>
      </trkpt>
      <trkpt lat="46.83403" lon="-0.24785">
        <ele>136.2</ele>
        <time>2024-03-10T09:10:54Z</time>
      </trkpt>
      <trkpt lat="46.83454" lon="-0.24806">
        <ele>137.2</ele>
        <time>2024-03-10T09:11:05Z</time>
      </trkpt>
      <trkpt lat="46.83458" lon="-0.24808">
        <ele>137.2</ele>
        <time>2024-03-10T09:11:06Z</time>
      </trkpt>
      <trkpt lat="46.83493" lon="-0.24824">
        <ele>137.6</ele>
        <time>2024-03-10T09:11:14Z</time>
      </trkpt>
      <trkpt lat="46.83497" lon="-0.24825">
        <ele>137.8</ele>
        <time>2024-03-10T09:11:15Z</time>
      </trkpt>
      <trkpt lat="46.83502" lon="-0.2482">
        <ele>137.8</ele>
        <time>2024-03-10T09:11:17Z</time>
      </trkpt>
      <trkpt lat="46.83502" lon="-0.24803">
        <ele>138.2</ele>
        <time>2024-03-10T09:11:21Z</time>
      </trkpt>
      <trkpt lat="46.83502" lon="-0.24797">
        <ele>138.2</ele>
        <time>2024-03-10T09:11:22Z</time>
      </trkpt>
      <trkpt lat="46.83504" lon="-0.2476">
        <ele>138.6</ele>
        <time>2024-03-10T09:11:28Z</time>
      </trkpt>
      <trkpt lat="46.83509" lon="-0.24706">
        <ele>138.8</ele>
        <time>2024-03-10T09:11:36Z</time>
      </trkpt>
      <trkpt lat="46.83507" lon="-0.24686">
        <ele>138.8</ele>
        <time>2024-03-10T09:11:39Z</time>
      </trkpt>
      <trkpt lat="46.83503" lon="-0.24674">
        <ele>138.6</ele>
        <time>2024-03-10T09:11:41Z</time>
      </trkpt>
      <trkpt lat="46.83485" lon="-0.24639">
        <ele>138.4</ele>
        <time>2024-03-10T09:11:47Z</time>
      </trkpt>
      <trkpt lat="46.83459" lon="-0.24597">
        <ele>138.4</ele>
        <time>2024-03-10T09:11:54Z</time>
      </trkpt>
      <trkpt lat="46.83431" lon="-0.24547">
        <ele>138</ele>
        <time>2024-03-10T09:12:02Z</time>
      </trkpt>
      <trkpt lat="46.83414" lon="-0.24515">
        <ele>138</ele>
        <time>2024-03-10T09:12:07Z</time>
      </trkpt>
      <trkpt lat="46.8341" lon="-0.245">
        <ele>137.6</ele>
        <time>2024-03-10T09:12:09Z</time>
      </trkpt>
      <trkpt lat="46.83412" lon="-0.24486">
        <ele>137.6</ele>
        <time>2024-03-10T09:12:11Z</time>
      </trkpt>
      <trkpt lat="46.83414" lon="-0.24479">
        <ele>137.6</ele>
        <time>2024-03-10T09:12:12Z</time>
      </trkpt>
      <trkpt lat="46.83427" lon="-0.24433">
        <ele>137.2</ele>
        <time>2024-03-10T09:12:18Z</time>
      </trkpt>
      <trkpt lat="46.8343" lon="-0.24426">
        <ele>137.2</ele>
        <time>2024-03-10T09:12:19Z</time>
      </trkpt>
      <trkpt lat="46.83437" lon="-0.24405">
        <ele>137.2</ele>
        <time>2024-03-10T09:12:22Z</time>
      </trkpt>
      <trkpt lat="46.83452" lon="-0.24355">
        <ele>136.6</ele>
        <time>2024-03-10T09:12:28Z</time>
      </trkpt>
      <trkpt lat="46.83461" lon="-0.24329">
        <ele>136.4</ele>
        <time>2024-03-10T09:12:31Z</time>
      </trkpt>
      <trkpt lat="46.83467" lon="-0.24313">
        <ele>136.2</ele>
        <time>2024-03-10T09:12:33Z</time>
      </trkpt>
      <trkpt lat="46.8347" lon="-0.24303">
        <ele>136</ele>
        <time>2024-03-10T09:12:34Z</time>
      </trkpt>
      <trkpt lat="46.83482" lon="-0.2426">
        <ele>134.8</ele>
        <time>2024-03-10T09:12:39Z</time>
      </trkpt>
      <trkpt lat="46.83494" lon="-0.24216">
        <ele>134.2</ele>
        <time>2024-03-10T09:12:44Z</time>
      </trkpt>
      <trkpt lat="46.83497" lon="-0.24198">
        <ele>134</ele>
        <time>2024-03-10T09:12:46Z</time>
      </trkpt>
      <trkpt lat="46.83497" lon="-0.2419">
        <ele>133.8</ele>
        <time>2024-03-10T09:12:47Z</time>
      </trkpt>
      <trkpt lat="46.83495" lon="-0.24172">
        <ele>133.8</ele>
        <time>2024-03-10T09:12:49Z</time>
      </trkpt>
      <trkpt lat="46.83492" lon="-0.24149">
        <ele>133.2</ele>
        <time>2024-03-10T09:12:52Z</time>
      </trkpt>
      <trkpt lat="46.83488" lon="-0.24136">
        <ele>133.2</ele>
        <time>2024-03-10T09:12:54Z</time>
      </trkpt>
      <trkpt lat="46.83483" lon="-0.24123">
        <ele>132.6</ele>
        <time>2024-03-10T09:12:56Z</time>
      </trkpt>
      <trkpt lat="46.83473" lon="-0.24104">
        <ele>132.2</ele>
        <time>2024-03-10T09:12:59Z</time>
      </trkpt>
      <trkpt lat="46.83462" lon="-0.24085">
        <ele>131.8</ele>
        <time>2024-03-10T09:13:02Z</time>
      </trkpt>
      <trkpt lat="46.83459" lon="-0.24078">
        <ele>131.6</ele>
        <time>2024-03-10T09:13:03Z</time>
      </trkpt>
      <trkpt lat="46.83457" lon="-0.24071">
        <ele>131.4</ele>
        <time>2024-03-10T09:13:04Z</time>
      </trkpt>
      <trkpt lat="46.83456" lon="-0.24057">
        <ele>131</ele>
        <time>2024-03-10T09:13:06Z</time>
      </trkpt>
      <trkpt lat="46.83458" lon="-0.2404">
        <ele>130.4</ele>
        <time>2024-03-10T09:13:08Z</time>
      </trkpt>
      <trkpt lat="46.83459" lon="-0.2403">
        <ele>129.4</ele>
        <time>2024-03-10T09:13:09Z</time>
      </trkpt>
      <trkpt lat="46.83461" lon="-0.2402">
        <ele>128.8</ele>
        <time>2024-03-10T09:13:10Z</time>
      </trkpt>
      <trkpt lat="46.83463" lon="-0.24011">
        <ele>128.4</ele>
        <time>2024-03-10T09:13:11Z</time>
      </trkpt>
      <trkpt lat="46.83465" lon="-0.24003">
        <ele>127.6</ele>
        <time>2024-03-10T09:13:12Z</time>
      </trkpt>
      <trkpt lat="46.83471" lon="-0.23992">
        <ele>127.2</ele>
        <time>2024-03-10T09:13:14Z</time>
      </trkpt>
      <trkpt lat="46.83478" lon="-0.23984">
        <ele>126.6</ele>
        <time>2024-03-10T09:13:16Z</time>
      </trkpt>
      <trkpt lat="46.83487" lon="-0.2398">
        <ele>126.2</ele>
        <time>2024-03-10T09:13:18Z</time>
      </trkpt>
      <trkpt lat="46.83491" lon="-0.23979">
        <ele>126</ele>
        <time>2024-03-10T09:13:19Z</time>
      </trkpt>
      <trkpt lat="46.83495" lon="-0.23979">
        <ele>125.8</ele>
        <time>2024-03-10T09:13:20Z</time>
      </trkpt>
      <trkpt lat="46.83523" lon="-0.23984">
        <ele>125.6</ele>
        <time>2024-03-10T09:13:26Z</time>
      </trkpt>
      <trkpt lat="46.83543" lon="-0.23983">
        <ele>125</ele>
        <time>2024-03-10T09:13:29Z</time>
      </trkpt>
      <trkpt lat="46.83549" lon="-0.23981">
        <ele>125</ele>
        <time>2024-03-10T09:13:30Z</time>
      </trkpt>
      <trkpt lat="46.83576" lon="-0.23971">
        <ele>123.8</ele>
        <time>2024-03-10T09:13:34Z</time>
      </trkpt>
      <trkpt lat="46.83582" lon="-0.23968">
        <ele>123.6</ele>
        <time>2024-03-10T09:13:35Z</time>
      </trkpt>
      <trkpt lat="46.83616" lon="-0.23955">
        <ele>122.8</ele>
        <time>2024-03-10T09:13:40Z</time>
      </trkpt>
      <trkpt lat="46.83636" lon="-0.23947">
        <ele>122.2</ele>
        <time>2024-03-10T09:13:43Z</time>
      </trkpt>
      <trkpt lat="46.83642" lon="-0.23945">
        <ele>121.6</ele>
        <time>2024-03-10T09:13:44Z</time>
      </trkpt>
      <trkpt lat="46.83663" lon="-0.23937">
        <ele>120.8</ele>
        <time>2024-03-10T09:13:48Z</time>
      </trkpt>
      <trkpt lat="46.83668" lon="-0.23936">
        <ele>120.6</ele>
        <time>2024-03-10T09:13:49Z</time>
      </trkpt>
      <trkpt lat="46.83673" lon="-0.23936">
        <ele>120.4</ele>
        <time>2024-03-10T09:13:50Z</time>
      </trkpt>
      <trkpt lat="46.83682" lon="-0.23937">
        <ele>120.6</ele>
        <time>2024-03-10T09:13:52Z</time>
      </trkpt>
      <trkpt lat="46.83687" lon="-0.23938">
        <ele>120.6</ele>
        <time>2024-03-10T09:13:53Z</time>
      </trkpt>
      <trkpt lat="46.837" lon="-0.23946">
        <ele>121</ele>
        <time>2024-03-10T09:13:56Z</time>
      </trkpt>
      <trkpt lat="46.83706" lon="-0.23953">
        <ele>121</ele>
        <time>2024-03-10T09:13:58Z</time>
      </trkpt>
      <trkpt lat="46.83716" lon="-0.23962">
        <ele>121</ele>
        <time>2024-03-10T09:14:01Z</time>
      </trkpt>
      <trkpt lat="46.83729" lon="-0.2397">
        <ele>121</ele>
        <time>2024-03-10T09:14:04Z</time>
      </trkpt>
      <trkpt lat="46.83757" lon="-0.23993">
        <ele>119.6</ele>
        <time>2024-03-10T09:14:10Z</time>
      </trkpt>
      <trkpt lat="46.83767" lon="-0.24005">
        <ele>119.6</ele>
        <time>2024-03-10T09:14:12Z</time>
      </trkpt>
      <trkpt lat="46.83782" lon="-0.24022">
        <ele>119.2</ele>
        <time>2024-03-10T09:14:15Z</time>
      </trkpt>
      <trkpt lat="46.8381" lon="-0.24054">
        <ele>118.6</ele>
        <time>2024-03-10T09:14:21Z</time>
      </trkpt>
      <trkpt lat="46.83815" lon="-0.2406">
        <ele>118.4</ele>
        <time>2024-03-10T09:14:22Z</time>
      </trkpt>
      <trkpt lat="46.83847" lon="-0.24094">
        <ele>119.6</ele>
        <time>2024-03-10T09:14:28Z</time>
      </trkpt>
      <trkpt lat="46.83875" lon="-0.24126">
        <ele>119.8</ele>
        <time>2024-03-10T09:14:35Z</time>
      </trkpt>
      <trkpt lat="46.83879" lon="-0.24129">
        <ele>120</ele>
        <time>2024-03-10T09:14:36Z</time>
      </trkpt>
      <trkpt lat="46.83891" lon="-0.24141">
        <ele>120.6</ele>
        <time>2024-03-10T09:14:39Z</time>
      </trkpt>
      <trkpt lat="46.83899" lon="-0.24149">
        <ele>120.8</ele>
        <time>2024-03-10T09:14:41Z</time>
      </trkpt>
      <trkpt lat="46.83929" lon="-0.24182">
        <ele>121.2</ele>
        <time>2024-03-10T09:14:48Z</time>
      </trkpt>
      <trkpt lat="46.83947" lon="-0.24201">
        <ele>121.2</ele>
        <time>2024-03-10T09:14:52Z</time>
      </trkpt>
      <trkpt lat="46.83957" lon="-0.24215">
        <ele>121.2</ele>
        <time>2024-03-10T09:14:55Z</time>
      </trkpt>
      <trkpt lat="46.83978" lon="-0.24231">
        <ele>119.8</ele>
        <time>2024-03-10T09:15:01Z</time>
      </trkpt>
      <trkpt lat="46.83981" lon="-0.24234">
        <ele>119.4</ele>
        <time>2024-03-10T09:15:02Z</time>
      </trkpt>
      <trkpt lat="46.84" lon="-0.24254">
        <ele>118.4</ele>
        <time>2024-03-10T09:15:07Z</time>
      </trkpt>
      <trkpt lat="46.84005" lon="-0.24258">
        <ele>118.4</ele>
        <time>2024-03-10T09:15:08Z</time>
      </trkpt>
      <trkpt lat="46.84024" lon="-0.24274">
        <ele>117.6</ele>
        <time>2024-03-10T09:15:12Z</time>
      </trkpt>
      <trkpt lat="46.84058" lon="-0.24299">
        <ele>117.6</ele>
        <time>2024-03-10T09:15:18Z</time>
      </trkpt>
      <trkpt lat="46.84079" lon="-0.24318">
        <ele>117.4</ele>
        <time>2024-03-10T09:15:22Z</time>
      </trkpt>
      <trkpt lat="46.84083" lon="-0.24323">
        <ele>117.2</ele>
        <time>2024-03-10T09:15:23Z</time>
      </trkpt>
      <trkpt lat="46.841" lon="-0.24339">
        <ele>115.6</ele>
        <time>2024-03-10T09:15:26Z</time>
      </trkpt>
      <trkpt lat="46.84111" lon="-0.24352">
        <ele>114.6</ele>
        <time>2024-03-10T09:15:28Z</time>
      </trkpt>
      <trkpt lat="46.84147" lon="-0.24404">
        <ele>114</ele>
        <time>2024-03-10T09:15:35Z</time>
      </trkpt>
      <trkpt lat="46.84157" lon="-0.24419">
        <ele>113.2</ele>
        <time>2024-03-10T09:15:37Z</time>
      </trkpt>
      <trkpt lat="46.84165" lon="-0.24432">
        <ele>112.6</ele>
        <time>2024-03-10T09:15:39Z</time>
      </trkpt>
      <trkpt lat="46.84174" lon="-0.24444">
        <ele>112.6</ele>
        <time>2024-03-10T09:15:41Z</time>
      </trkpt>
      <trkpt lat="46.84191" lon="-0.24473">
        <ele>112.8</ele>
        <time>2024-03-10T09:15:46Z</time>
      </trkpt>
      <trkpt lat="46.84194" lon="-0.24479">
        <ele>113</ele>
        <time>2024-03-10T09:15:47Z</time>
      </trkpt>
      <trkpt lat="46.8421" lon="-0.245">
        <ele>113</ele>
        <time>2024-03-10T09:15:51Z</time>
      </trkpt>
      <trkpt lat="46.84216" lon="-0.24506">
        <ele>113.2</ele>
        <time>2024-03-10T09:15:52Z</time>
      </trkpt>
      <trkpt lat="46.84221" lon="-0.2451">
        <ele>113.2</ele>
        <time>2024-03-10T09:15:53Z</time>
      </trkpt>
      <trkpt lat="46.84232" lon="-0.24518">
        <ele>112.8</ele>
        <time>2024-03-10T09:15:55Z</time>
      </trkpt>
      <trkpt lat="46.84238" lon="-0.24523">
        <ele>112.8</ele>
        <time>2024-03-10T09:15:56Z</time>
      </trkpt>
      <trkpt lat="46.84266" lon="-0.24563">
        <ele>112.6</ele>
        <time>2024-03-10T09:16:02Z</time>
      </trkpt>
      <trkpt lat="46.84292" lon="-0.24607">
        <ele>112.8</ele>
        <time>2024-03-10T09:16:08Z</time>
      </trkpt>
      <trkpt lat="46.84312" lon="-0.24667">
        <ele>112.8</ele>
        <time>2024-03-10T09:16:15Z</time>
      </trkpt>
      <trkpt lat="46.84314" lon="-0.24676">
        <ele>113</ele>
        <time>2024-03-10T09:16:16Z</time>
      </trkpt>
      <trkpt lat="46.84316" lon="-0.24704">
        <ele>113.2</ele>
        <time>2024-03-10T09:16:19Z</time>
      </trkpt>
      <trkpt lat="46.84315" lon="-0.24751">
        <ele>113.2</ele>
        <time>2024-03-10T09:16:24Z</time>
      </trkpt>
      <trkpt lat="46.84318" lon="-0.24769">
        <ele>113</ele>
        <time>2024-03-10T09:16:26Z</time>
      </trkpt>
      <trkpt lat="46.84323" lon="-0.24785">
        <ele>113</ele>
        <time>2024-03-10T09:16:28Z</time>
      </trkpt>
      <trkpt lat="46.84332" lon="-0.24816">
        <ele>113.6</ele>
        <time>2024-03-10T09:16:32Z</time>
      </trkpt>
      <trkpt lat="46.84333" lon="-0.24833">
        <ele>113.8</ele>
        <time>2024-03-10T09:16:34Z</time>
      </trkpt>
      <trkpt lat="46.8433" lon="-0.2485">
        <ele>113.8</ele>
        <time>2024-03-10T09:16:36Z</time>
      </trkpt>
      <trkpt lat="46.84324" lon="-0.24865">
        <ele>113.8</ele>
        <time>2024-03-10T09:16:38Z</time>
      </trkpt>
      <trkpt lat="46.84296" lon="-0.24932">
        <ele>114.2</ele>
        <time>2024-03-10T09:16:47Z</time>
      </trkpt>
      <trkpt lat="46.84293" lon="-0.24939">
        <ele>114.4</ele>
        <time>2024-03-10T09:16:48Z</time>
      </trkpt>
      <trkpt lat="46.84283" lon="-0.24968">
        <ele>115.4</ele>
        <time>2024-03-10T09:16:52Z</time>
      </trkpt>
      <trkpt lat="46.84271" lon="-0.25002">
        <ele>115.8</ele>
        <time>2024-03-10T09:16:57Z</time>
      </trkpt>
      <trkpt lat="46.84264" lon="-0.25023">
        <ele>116.4</ele>
        <time>2024-03-10T09:17:01Z</time>
      </trkpt>
      <trkpt lat="46.84243" lon="-0.2508">
        <ele>117.4</ele>
        <time>2024-03-10T09:17:09Z</time>
      </trkpt>
      <trkpt lat="46.84229" lon="-0.25116">
        <ele>118.4</ele>
        <time>2024-03-10T09:17:15Z</time>
      </trkpt>
      <trkpt lat="46.84227" lon="-0.25122">
        <ele>118.6</ele>
        <time>2024-03-10T09:17:16Z</time>
      </trkpt>
      <trkpt lat="46.84226" lon="-0.25129">
        <ele>118.6</ele>
        <time>2024-03-10T09:17:17Z</time>
      </trkpt>
      <trkpt lat="46.84225" lon="-0.25135">
        <ele>118.8</ele>
        <time>2024-03-10T09:17:18Z</time>
      </trkpt>
      <trkpt lat="46.84225" lon="-0.25154">
        <ele>119.6</ele>
        <time>2024-03-10T09:17:21Z</time>
      </trkpt>
      <trkpt lat="46.84225" lon="-0.2516">
        <ele>119.8</ele>
        <time>2024-03-10T09:17:22Z</time>
      </trkpt>
      <trkpt lat="46.84229" lon="-0.25189">
        <ele>120.8</ele>
        <time>2024-03-10T09:17:27Z</time>
      </trkpt>
      <trkpt lat="46.84232" lon="-0.25206">
        <ele>121.6</ele>
        <time>2024-03-10T09:17:30Z</time>
      </trkpt>
      <trkpt lat="46.84234" lon="-0.25217">
        <ele>122</ele>
        <time>2024-03-10T09:17:32Z</time>
      </trkpt>
      <trkpt lat="46.84239" lon="-0.25254">
        <ele>123</ele>
        <time>2024-03-10T09:17:39Z</time>
      </trkpt>
      <trkpt lat="46.84242" lon="-0.25296">
        <ele>124.2</ele>
        <time>2024-03-10T09:17:47Z</time>
      </trkpt>
      <trkpt lat="46.84243" lon="-0.25301">
        <ele>124.4</ele>
        <time>2024-03-10T09:17:48Z</time>
      </trkpt>
      <trkpt lat="46.84245" lon="-0.25342">
        <ele>125</ele>
        <time>2024-03-10T09:17:55Z</time>
      </trkpt>
      <trkpt lat="46.84247" lon="-0.25372">
        <ele>125.2</ele>
        <time>2024-03-10T09:18:00Z</time>
      </trkpt>
      <trkpt lat="46.84249" lon="-0.25393">
        <ele>125.6</ele>
        <time>2024-03-10T09:18:04Z</time>
      </trkpt>
      <trkpt lat="46.8425" lon="-0.25411">
        <ele>126.4</ele>
        <time>2024-03-10T09:18:08Z</time>
      </trkpt>
      <trkpt lat="46.84252" lon="-0.2542">
        <ele>127</ele>
        <time>2024-03-10T09:18:10Z</time>
      </trkpt>
      <trkpt lat="46.84253" lon="-0.25424">
        <ele>127.4</ele>
        <time>2024-03-10T09:18:11Z</time>
      </trkpt>
      <trkpt lat="46.84258" lon="-0.25451">
        <ele>128.2</ele>
        <time>2024-03-10T09:18:16Z</time>
      </trkpt>
      <trkpt lat="46.8426" lon="-0.25461">
        <ele>128.4</ele>
        <time>2024-03-10T09:18:18Z</time>
      </trkpt>
      <trkpt lat="46.84264" lon="-0.25481">
        <ele>129.6</ele>
        <time>2024-03-10T09:18:22Z</time>
      </trkpt>
      <trkpt lat="46.84265" lon="-0.25486">
        <ele>130</ele>
        <time>2024-03-10T09:18:23Z</time>
      </trkpt>
      <trkpt lat="46.84266" lon="-0.25496">
        <ele>130.8</ele>
        <time>2024-03-10T09:18:25Z</time>
      </trkpt>
      <trkpt lat="46.8427" lon="-0.25521">
        <ele>131.8</ele>
        <time>2024-03-10T09:18:30Z</time>
      </trkpt>
      <trkpt lat="46.84272" lon="-0.25532">
        <ele>132</ele>
        <time>2024-03-10T09:18:32Z</time>
      </trkpt>
      <trkpt lat="46.84277" lon="-0.25563">
        <ele>133</ele>
        <time>2024-03-10T09:18:38Z</time>
      </trkpt>
      <trkpt lat="46.8428" lon="-0.25583">
        <ele>133.6</ele>
        <time>2024-03-10T09:18:42Z</time>
      </trkpt>
      <trkpt lat="46.8428" lon="-0.25588">
        <ele>134</ele>
        <time>2024-03-10T09:18:43Z</time>
      </trkpt>
      <trkpt lat="46.84284" lon="-0.2562">
        <ele>134.8</ele>
        <time>2024-03-10T09:18:49Z</time>
      </trkpt>
      <trkpt lat="46.84284" lon="-0.25626">
        <ele>135</ele>
        <time>2024-03-10T09:18:50Z</time>
      </trkpt>
      <trkpt lat="46.84283" lon="-0.25661">
        <ele>135.8</ele>
        <time>2024-03-10T09:18:56Z</time>
      </trkpt>
      <trkpt lat="46.84277" lon="-0.25676">
        <ele>136</ele>
        <time>2024-03-10T09:18:59Z</time>
      </trkpt>
      <trkpt lat="46.84272" lon="-0.25685">
        <ele>136.4</ele>
        <time>2024-03-10T09:19:01Z</time>
      </trkpt>
      <trkpt lat="46.84257" lon="-0.25702">
        <ele>137.2</ele>
        <time>2024-03-10T09:19:06Z</time>
      </trkpt>
      <trkpt lat="46.84251" lon="-0.25707">
        <ele>137.8</ele>
        <time>2024-03-10T09:19:08Z</time>
      </trkpt>
      <trkpt lat="46.84245" lon="-0.25713">
        <ele>138.4</ele>
        <time>2024-03-10T09:19:10Z</time>
      </trkpt>
      <trkpt lat="46.84227" lon="-0.2573">
        <ele>138.6</ele>
        <time>2024-03-10T09:19:15Z</time>
      </trkpt>
      <trkpt lat="46.84214" lon="-0.25748">
        <ele>139.2</ele>
        <time>2024-03-10T09:19:19Z</time>
      </trkpt>
      <trkpt lat="46.84211" lon="-0.25753">
        <ele>139.4</ele>
        <time>2024-03-10T09:19:20Z</time>
      </trkpt>
      <trkpt lat="46.84206" lon="-0.25764">
        <ele>139.6</ele>
        <time>2024-03-10T09:19:22Z</time>
      </trkpt>
      <trkpt lat="46.84203" lon="-0.25778">
        <ele>139.6</ele>
        <time>2024-03-10T09:19:24Z</time>
      </trkpt>
      <trkpt lat="46.84204" lon="-0.25784">
        <ele>139.6</ele>
        <time>2024-03-10T09:19:25Z</time>
      </trkpt>
      <trkpt lat="46.84207" lon="-0.25789">
        <ele>139.6</ele>
        <time>2024-03-10T09:19:26Z</time>
      </trkpt>
      <trkpt lat="46.84218" lon="-0.258">
        <ele>140</ele>
        <time>2024-03-10T09:19:29Z</time>
      </trkpt>
      <trkpt lat="46.84245" lon="-0.25832">
        <ele>140</ele>
        <time>2024-03-10T09:19:36Z</time>
      </trkpt>
      <trkpt lat="46.84255" lon="-0.25849">
        <ele>140.4</ele>
        <time>2024-03-10T09:19:39Z</time>
      </trkpt>
      <trkpt lat="46.84271" lon="-0.25879">
        <ele>140.6</ele>
        <time>2024-03-10T09:19:44Z</time>
      </trkpt>
      <trkpt lat="46.84279" lon="-0.259">
        <ele>140.4</ele>
        <time>2024-03-10T09:19:47Z</time>
      </trkpt>
      <trkpt lat="46.84285" lon="-0.25923">
        <ele>140.4</ele>
        <time>2024-03-10T09:19:50Z</time>
      </trkpt>
      <trkpt lat="46.84286" lon="-0.2593">
        <ele>140.6</ele>
        <time>2024-03-10T09:19:51Z</time>
      </trkpt>
      <trkpt lat="46.84288" lon="-0.25946">
        <ele>140.6</ele>
        <time>2024-03-10T09:19:53Z</time>
      </trkpt>
      <trkpt lat="46.84288" lon="-0.25964">
        <ele>140.6</ele>
        <time>2024-03-10T09:19:55Z</time>
      </trkpt>
      <trkpt lat="46.84289" lon="-0.26025">
        <ele>139.6</ele>
        <time>2024-03-10T09:20:02Z</time>
      </trkpt>
      <trkpt lat="46.8429" lon="-0.26035">
        <ele>139.6</ele>
        <time>2024-03-10T09:20:03Z</time>
      </trkpt>
      <trkpt lat="46.84292" lon="-0.26044">
        <ele>139.4</ele>
        <time>2024-03-10T09:20:04Z</time>
      </trkpt>
      <trkpt lat="46.84296" lon="-0.26051">
        <ele>139.2</ele>
        <time>2024-03-10T09:20:05Z</time>
      </trkpt>
      <trkpt lat="46.843" lon="-0.26058">
        <ele>139</ele>
        <time>2024-03-10T09:20:06Z</time>
      </trkpt>
      <trkpt lat="46.84305" lon="-0.26063">
        <ele>138.8</ele>
        <time>2024-03-10T09:20:07Z</time>
      </trkpt>
      <trkpt lat="46.8431" lon="-0.26067">
        <ele>138.2</ele>
        <time>2024-03-10T09:20:08Z</time>
      </trkpt>
      <trkpt lat="46.84315" lon="-0.26069">
        <ele>137.8</ele>
        <time>2024-03-10T09:20:09Z</time>
      </trkpt>
      <trkpt lat="46.8432" lon="-0.26073">
        <ele>137.4</ele>
        <time>2024-03-10T09:20:11Z</time>
      </trkpt>
      <trkpt lat="46.8432" lon="-0.26076">
        <ele>137.4</ele>
        <time>2024-03-10T09:20:12Z</time>
      </trkpt>
      <trkpt lat="46.84318" lon="-0.26079">
        <ele>137</ele>
        <time>2024-03-10T09:20:13Z</time>
      </trkpt>
      <trkpt lat="46.84313" lon="-0.26084">
        <ele>136.4</ele>
        <time>2024-03-10T09:20:15Z</time>
      </trkpt>
      <trkpt lat="46.84307" lon="-0.26091">
        <ele>136</ele>
        <time>2024-03-10T09:20:17Z</time>
      </trkpt>
      <trkpt lat="46.84298" lon="-0.26104">
        <ele>135.8</ele>
        <time>2024-03-10T09:20:20Z</time>
      </trkpt>
      <trkpt lat="46.84281" lon="-0.26131">
        <ele>135.4</ele>
        <time>2024-03-10T09:20:24Z</time>
      </trkpt>
      <trkpt lat="46.84276" lon="-0.26139">
        <ele>134.8</ele>
        <time>2024-03-10T09:20:25Z</time>
      </trkpt>
      <trkpt lat="46.8426" lon="-0.26162">
        <ele>133.6</ele>
        <time>2024-03-10T09:20:28Z</time>
      </trkpt>
      <trkpt lat="46.84249" lon="-0.26179">
        <ele>132.8</ele>
        <time>2024-03-10T09:20:30Z</time>
      </trkpt>
      <trkpt lat="46.84243" lon="-0.26188">
        <ele>131.4</ele>
        <time>2024-03-10T09:20:31Z</time>
      </trkpt>
      <trkpt lat="46.8423" lon="-0.26209">
        <ele>130.2</ele>
        <time>2024-03-10T09:20:33Z</time>
      </trkpt>
      <trkpt lat="46.84223" lon="-0.26221">
        <ele>129</ele>
        <time>2024-03-10T09:20:34Z</time>
      </trkpt>
      <trkpt lat="46.84216" lon="-0.26233">
        <ele>128.2</ele>
        <time>2024-03-10T09:20:35Z</time>
      </trkpt>
      <trkpt lat="46.84208" lon="-0.26245">
        <ele>127.2</ele>
        <time>2024-03-10T09:20:36Z</time>
      </trkpt>
      <trkpt lat="46.842" lon="-0.26258">
        <ele>125.4</ele>
        <time>2024-03-10T09:20:37Z</time>
      </trkpt>
      <trkpt lat="46.84192" lon="-0.26272">
        <ele>124.2</ele>
        <time>2024-03-10T09:20:38Z</time>
      </trkpt>
      <trkpt lat="46.84184" lon="-0.26286">
        <ele>123</ele>
        <time>2024-03-10T09:20:39Z</time>
      </trkpt>
      <trkpt lat="46.84176" lon="-0.26301">
        <ele>121.2</ele>
        <time>2024-03-10T09:20:40Z</time>
      </trkpt>
      <trkpt lat="46.84176" lon="-0.26301">
        <ele>118.6</ele>
        <time>2024-03-10T09:20:41Z</time>
      </trkpt>
      <trkpt lat="46.84161" lon="-0.26335">
        <ele>118.6</ele>
        <time>2024-03-10T09:20:42Z</time>
      </trkpt>
      <trkpt lat="46.84154" lon="-0.26352">
        <ele>117</ele>
        <time>2024-03-10T09:20:43Z</time>
      </trkpt>
      <trkpt lat="46.84147" lon="-0.2637">
        <ele>115.4</ele>
        <time>2024-03-10T09:20:44Z</time>
      </trkpt>
      <trkpt lat="46.84141" lon="-0.26388">
        <ele>114.2</ele>
        <time>2024-03-10T09:20:45Z</time>
      </trkpt>
      <trkpt lat="46.84136" lon="-0.26404">
        <ele>113.2</ele>
        <time>2024-03-10T09:20:46Z</time>
      </trkpt>
      <trkpt lat="46.84132" lon="-0.26419">
        <ele>111.8</ele>
        <time>2024-03-10T09:20:47Z</time>
      </trkpt>
      <trkpt lat="46.84128" lon="-0.2643">
        <ele>108.8</ele>
        <time>2024-03-10T09:20:48Z</time>
      </trkpt>
      <trkpt lat="46.84124" lon="-0.26439">
        <ele>107</ele>
        <time>2024-03-10T09:20:49Z</time>
      </trkpt>
      <trkpt lat="46.84119" lon="-0.26445">
        <ele>105</ele>
        <time>2024-03-10T09:20:50Z</time>
      </trkpt>
      <trkpt lat="46.84113" lon="-0.26449">
        <ele>102.6</ele>
        <time>2024-03-10T09:20:51Z</time>
      </trkpt>
      <trkpt lat="46.84107" lon="-0.26451">
        <ele>101.2</ele>
        <time>2024-03-10T09:20:52Z</time>
      </trkpt>
      <trkpt lat="46.84094" lon="-0.26454">
        <ele>100</ele>
        <time>2024-03-10T09:20:54Z</time>
      </trkpt>
      <trkpt lat="46.84086" lon="-0.26454">
        <ele>99.8</ele>
        <time>2024-03-10T09:20:55Z</time>
      </trkpt>
      <trkpt lat="46.84071" lon="-0.26459">
        <ele>99</ele>
        <time>2024-03-10T09:20:57Z</time>
      </trkpt>
      <trkpt lat="46.84064" lon="-0.26462">
        <ele>98.4</ele>
        <time>2024-03-10T09:20:58Z</time>
      </trkpt>
      <trkpt lat="46.84057" lon="-0.26466">
        <ele>97.2</ele>
        <time>2024-03-10T09:20:59Z</time>
      </trkpt>
      <trkpt lat="46.84041" lon="-0.26473">
        <ele>96</ele>
        <time>2024-03-10T09:21:01Z</time>
      </trkpt>
      <trkpt lat="46.84017" lon="-0.26479">
        <ele>95.2</ele>
        <time>2024-03-10T09:21:04Z</time>
      </trkpt>
      <trkpt lat="46.84001" lon="-0.2648">
        <ele>94.6</ele>
        <time>2024-03-10T09:21:06Z</time>
      </trkpt>
      <trkpt lat="46.83985" lon="-0.26479">
        <ele>93.2</ele>
        <time>2024-03-10T09:21:08Z</time>
      </trkpt>
      <trkpt lat="46.83968" lon="-0.26478">
        <ele>92.2</ele>
        <time>2024-03-10T09:21:10Z</time>
      </trkpt>
      <trkpt lat="46.8396" lon="-0.26478">
        <ele>92</ele>
        <time>2024-03-10T09:21:11Z</time>
      </trkpt>
      <trkpt lat="46.83923" lon="-0.26484">
        <ele>91</ele>
        <time>2024-03-10T09:21:16Z</time>
      </trkpt>
      <trkpt lat="46.83883" lon="-0.26503">
        <ele>90.4</ele>
        <time>2024-03-10T09:21:22Z</time>
      </trkpt>
      <trkpt lat="46.83853" lon="-0.2653">
        <ele>90.2</ele>
        <time>2024-03-10T09:21:27Z</time>
      </trkpt>
      <trkpt lat="46.83833" lon="-0.26544">
        <ele>90.2</ele>
        <time>2024-03-10T09:21:30Z</time>
      </trkpt>
      <trkpt lat="46.83819" lon="-0.2655">
        <ele>90.6</ele>
        <time>2024-03-10T09:21:32Z</time>
      </trkpt>
      <trkpt lat="46.83811" lon="-0.26552">
        <ele>90.6</ele>
        <time>2024-03-10T09:21:33Z</time>
      </trkpt>
      <trkpt lat="46.83783" lon="-0.26556">
        <ele>91</ele>
        <time>2024-03-10T09:21:37Z</time>
      </trkpt>
      <trkpt lat="46.83768" lon="-0.26559">
        <ele>91</ele>
        <time>2024-03-10T09:21:39Z</time>
      </trkpt>
      <trkpt lat="46.83756" lon="-0.26566">
        <ele>91</ele>
        <time>2024-03-10T09:21:41Z</time>
      </trkpt>
      <trkpt lat="46.83722" lon="-0.26598">
        <ele>91.4</ele>
        <time>2024-03-10T09:21:48Z</time>
      </trkpt>
      <trkpt lat="46.83689" lon="-0.26615">
        <ele>92</ele>
        <time>2024-03-10T09:21:54Z</time>
      </trkpt>
      <trkpt lat="46.83683" lon="-0.26616">
        <ele>92</ele>
        <time>2024-03-10T09:21:55Z</time>
      </trkpt>
      <trkpt lat="46.83671" lon="-0.2662">
        <ele>92.2</ele>
        <time>2024-03-10T09:21:57Z</time>
      </trkpt>
      <trkpt lat="46.83659" lon="-0.26626">
        <ele>92.2</ele>
        <time>2024-03-10T09:21:59Z</time>
      </trkpt>
      <trkpt lat="46.83619" lon="-0.26654">
        <ele>92</ele>
        <time>2024-03-10T09:22:06Z</time>
      </trkpt>
      <trkpt lat="46.83595" lon="-0.2667">
        <ele>92</ele>
        <time>2024-03-10T09:22:11Z</time>
      </trkpt>
      <trkpt lat="46.83591" lon="-0.26674">
        <ele>92</ele>
        <time>2024-03-10T09:22:12Z</time>
      </trkpt>
      <trkpt lat="46.83577" lon="-0.26688">
        <ele>92.4</ele>
        <time>2024-03-10T09:22:17Z</time>
      </trkpt>
      <trkpt lat="46.83572" lon="-0.26695">
        <ele>92.2</ele>
        <time>2024-03-10T09:22:22Z</time>
      </trkpt>
      <trkpt lat="46.83567" lon="-0.26701">
        <ele>91.8</ele>
        <time>2024-03-10T09:22:32Z</time>
      </trkpt>
      <trkpt lat="46.83567" lon="-0.26701">
        <ele>91</ele>
        <time>2024-03-10T09:22:36Z</time>
      </trkpt>
      <trkpt lat="46.83568" lon="-0.26701">
        <ele>91.6</ele>
        <time>2024-03-10T09:22:46Z</time>
      </trkpt>
      <trkpt lat="46.83568" lon="-0.26701">
        <ele>91.6</ele>
        <time>2024-03-10T09:23:04Z</time>
      </trkpt>
      <trkpt lat="46.83568" lon="-0.26701">
        <ele>91.8</ele>
        <time>2024-03-10T09:23:24Z</time>
      </trkpt>
      <trkpt lat="46.83568" lon="-0.26701">
        <ele>91.8</ele>
        <time>2024-03-10T09:23:26Z</time>
      </trkpt>
      <trkpt lat="46.83564" lon="-0.26702">
        <ele>91.8</ele>
        <time>2024-03-10T09:23:43Z</time>
      </trkpt>
      <trkpt lat="46.83561" lon="-0.26704">
        <ele>91.8</ele>
        <time>2024-03-10T09:23:44Z</time>
      </trkpt>
      <trkpt lat="46.83554" lon="-0.26708">
        <ele>91.8</ele>
        <time>2024-03-10T09:23:47Z</time>
      </trkpt>
      <trkpt lat="46.83545" lon="-0.26713">
        <ele>92</ele>
        <time>2024-03-10T09:23:50Z</time>
      </trkpt>
      <trkpt lat="46.8353" lon="-0.2672">
        <ele>92.4</ele>
        <time>2024-03-10T09:23:54Z</time>
      </trkpt>
      <trkpt lat="46.83502" lon="-0.26733">
        <ele>93</ele>
        <time>2024-03-10T09:24:01Z</time>
      </trkpt>
      <trkpt lat="46.83499" lon="-0.26734">
        <ele>93.2</ele>
        <time>2024-03-10T09:24:02Z</time>
      </trkpt>
      <trkpt lat="46.8349" lon="-0.26739">
        <ele>93.4</ele>
        <time>2024-03-10T09:24:07Z</time>
      </trkpt>
      <trkpt lat="46.83477" lon="-0.26744">
        <ele>93.6</ele>
        <time>2024-03-10T09:24:13Z</time>
      </trkpt>
      <trkpt lat="46.83477" lon="-0.2674">
        <ele>93.6</ele>
        <time>2024-03-10T09:24:17Z</time>
      </trkpt>
      <trkpt lat="46.83489" lon="-0.26736">
        <ele>93.8</ele>
        <time>2024-03-10T09:24:24Z</time>
      </trkpt>
      <trkpt lat="46.83504" lon="-0.2673">
        <ele>93.4</ele>
        <time>2024-03-10T09:24:29Z</time>
      </trkpt>
      <trkpt lat="46.83528" lon="-0.2672">
        <ele>92.6</ele>
        <time>2024-03-10T09:24:36Z</time>
      </trkpt>
      <trkpt lat="46.83549" lon="-0.26708">
        <ele>92</ele>
        <time>2024-03-10T09:24:42Z</time>
      </trkpt>
      <trkpt lat="46.83552" lon="-0.26706">
        <ele>91.8</ele>
        <time>2024-03-10T09:24:43Z</time>
      </trkpt>
      <trkpt lat="46.83562" lon="-0.26698">
        <ele>91.4</ele>
        <time>2024-03-10T09:24:48Z</time>
      </trkpt>
      <trkpt lat="46.83567" lon="-0.26695">
        <ele>91</ele>
        <time>2024-03-10T09:24:52Z</time>
      </trkpt>
      <trkpt lat="46.83568" lon="-0.26694">
        <ele>90.8</ele>
        <time>2024-03-10T09:24:54Z</time>
      </trkpt>
      <trkpt lat="46.83566" lon="-0.267">
        <ele>90.8</ele>
        <time>2024-03-10T09:25:02Z</time>
      </trkpt>
      <trkpt lat="46.83563" lon="-0.26713">
        <ele>90.8</ele>
        <time>2024-03-10T09:25:09Z</time>
      </trkpt>
      <trkpt lat="46.83557" lon="-0.26732">
        <ele>90.8</ele>
        <time>2024-03-10T09:25:14Z</time>
      </trkpt>
      <trkpt lat="46.83551" lon="-0.26763">
        <ele>91.2</ele>
        <time>2024-03-10T09:25:20Z</time>
      </trkpt>
      <trkpt lat="46.83551" lon="-0.26791">
        <ele>91.2</ele>
        <time>2024-03-10T09:25:25Z</time>
      </trkpt>
      <trkpt lat="46.83544" lon="-0.26835">
        <ele>90.4</ele>
        <time>2024-03-10T09:25:31Z</time>
      </trkpt>
      <trkpt lat="46.83543" lon="-0.26843">
        <ele>89.8</ele>
        <time>2024-03-10T09:25:32Z</time>
      </trkpt>
      <trkpt lat="46.83543" lon="-0.26851">
        <ele>89.2</ele>
        <time>2024-03-10T09:25:33Z</time>
      </trkpt>
      <trkpt lat="46.83542" lon="-0.26863">
        <ele>89</ele>
        <time>2024-03-10T09:25:35Z</time>
      </trkpt>
      <trkpt lat="46.83544" lon="-0.26869">
        <ele>88.6</ele>
        <time>2024-03-10T09:25:37Z</time>
      </trkpt>
      <trkpt lat="46.83546" lon="-0.26874">
        <ele>88.4</ele>
        <time>2024-03-10T09:25:39Z</time>
      </trkpt>
      <trkpt lat="46.83553" lon="-0.26898">
        <ele>87.6</ele>
        <time>2024-03-10T09:25:46Z</time>
      </trkpt>
      <trkpt lat="46.83553" lon="-0.269">
        <ele>87.4</ele>
        <time>2024-03-10T09:25:47Z</time>
      </trkpt>
      <trkpt lat="46.83556" lon="-0.26908">
        <ele>86.2</ele>
        <time>2024-03-10T09:25:51Z</time>
      </trkpt>
      <trkpt lat="46.83557" lon="-0.26909">
        <ele>86</ele>
        <time>2024-03-10T09:25:52Z</time>
      </trkpt>
      <trkpt lat="46.83559" lon="-0.2691">
        <ele>85.8</ele>
        <time>2024-03-10T09:25:54Z</time>
      </trkpt>
      <trkpt lat="46.83564" lon="-0.26908">
        <ele>85.6</ele>
        <time>2024-03-10T09:25:57Z</time>
      </trkpt>
      <trkpt lat="46.8357" lon="-0.26909">
        <ele>85.2</ele>
        <time>2024-03-10T09:26:01Z</time>
      </trkpt>
      <trkpt lat="46.83571" lon="-0.26911">
        <ele>85.2</ele>
        <time>2024-03-10T09:26:02Z</time>
      </trkpt>
      <trkpt lat="46.8358" lon="-0.26924">
        <ele>85.2</ele>
        <time>2024-03-10T09:26:09Z</time>
      </trkpt>
      <trkpt lat="46.8359" lon="-0.26939">
        <ele>85.6</ele>
        <time>2024-03-10T09:26:17Z</time>
      </trkpt>
      <trkpt lat="46.83594" lon="-0.26952">
        <ele>86.2</ele>
        <time>2024-03-10T09:26:22Z</time>
      </trkpt>
      <trkpt lat="46.83595" lon="-0.26955">
        <ele>86.4</ele>
        <time>2024-03-10T09:26:23Z</time>
      </trkpt>
      <trkpt lat="46.83596" lon="-0.26956">
        <ele>86.4</ele>
        <time>2024-03-10T09:26:24Z</time>
      </trkpt>
      <trkpt lat="46.83609" lon="-0.26959">
        <ele>87</ele>
        <time>2024-03-10T09:26:29Z</time>
      </trkpt>
      <trkpt lat="46.83619" lon="-0.26962">
        <ele>87.4</ele>
        <time>2024-03-10T09:26:32Z</time>
      </trkpt>
      <trkpt lat="46.83632" lon="-0.26965">
        <ele>87.6</ele>
        <time>2024-03-10T09:26:36Z</time>
      </trkpt>
      <trkpt lat="46.83653" lon="-0.26967">
        <ele>88.2</ele>
        <time>2024-03-10T09:26:43Z</time>
      </trkpt>
      <trkpt lat="46.83662" lon="-0.26966">
        <ele>88.4</ele>
        <time>2024-03-10T09:26:45Z</time>
      </trkpt>
      <trkpt lat="46.83666" lon="-0.26965">
        <ele>88.6</ele>
        <time>2024-03-10T09:26:46Z</time>
      </trkpt>
      <trkpt lat="46.83671" lon="-0.26963">
        <ele>88.6</ele>
        <time>2024-03-10T09:26:47Z</time>
      </trkpt>
      <trkpt lat="46.83676" lon="-0.2696">
        <ele>88.8</ele>
        <time>2024-03-10T09:26:48Z</time>
      </trkpt>
      <trkpt lat="46.83699" lon="-0.26942">
        <ele>89.6</ele>
        <time>2024-03-10T09:26:54Z</time>
      </trkpt>
      <trkpt lat="46.83703" lon="-0.26939">
        <ele>89.8</ele>
        <time>2024-03-10T09:26:55Z</time>
      </trkpt>
      <trkpt lat="46.8372" lon="-0.26928">
        <ele>90.4</ele>
        <time>2024-03-10T09:26:59Z</time>
      </trkpt>
      <trkpt lat="46.83731" lon="-0.26924">
        <ele>90.8</ele>
        <time>2024-03-10T09:27:02Z</time>
      </trkpt>
      <trkpt lat="46.83735" lon="-0.26922">
        <ele>90.8</ele>
        <time>2024-03-10T09:27:03Z</time>
      </trkpt>
      <trkpt lat="46.83755" lon="-0.26918">
        <ele>91.6</ele>
        <time>2024-03-10T09:27:08Z</time>
      </trkpt>
      <trkpt lat="46.83758" lon="-0.26918">
        <ele>91.8</ele>
        <time>2024-03-10T09:27:09Z</time>
      </trkpt>
      <trkpt lat="46.83775" lon="-0.26922">
        <ele>92.6</ele>
        <time>2024-03-10T09:27:14Z</time>
      </trkpt>
      <trkpt lat="46.83789" lon="-0.26926">
        <ele>92.8</ele>
        <time>2024-03-10T09:27:18Z</time>
      </trkpt>
      <trkpt lat="46.838" lon="-0.26929">
        <ele>93.6</ele>
        <time>2024-03-10T09:27:21Z</time>
      </trkpt>
      <trkpt lat="46.83807" lon="-0.26931">
        <ele>94</ele>
        <time>2024-03-10T09:27:23Z</time>
      </trkpt>
      <trkpt lat="46.83823" lon="-0.26938">
        <ele>94.6</ele>
        <time>2024-03-10T09:27:28Z</time>
      </trkpt>
      <trkpt lat="46.83833" lon="-0.26943">
        <ele>95.2</ele>
        <time>2024-03-10T09:27:32Z</time>
      </trkpt>
      <trkpt lat="46.83841" lon="-0.26949">
        <ele>95.6</ele>
        <time>2024-03-10T09:27:35Z</time>
      </trkpt>
      <trkpt lat="46.83859" lon="-0.26961">
        <ele>95.8</ele>
        <time>2024-03-10T09:27:41Z</time>
      </trkpt>
      <trkpt lat="46.83884" lon="-0.26979">
        <ele>94.8</ele>
        <time>2024-03-10T09:27:47Z</time>
      </trkpt>
      <trkpt lat="46.83895" lon="-0.26991">
        <ele>94.2</ele>
        <time>2024-03-10T09:27:49Z</time>
      </trkpt>
      <trkpt lat="46.83908" lon="-0.27006">
        <ele>93.4</ele>
        <time>2024-03-10T09:27:51Z</time>
      </trkpt>
      <trkpt lat="46.83921" lon="-0.2702">
        <ele>92.8</ele>
        <time>2024-03-10T09:27:53Z</time>
      </trkpt>
      <trkpt lat="46.83937" lon="-0.27042">
        <ele>91.8</ele>
        <time>2024-03-10T09:27:56Z</time>
      </trkpt>
      <trkpt lat="46.83947" lon="-0.27056">
        <ele>91.2</ele>
        <time>2024-03-10T09:27:58Z</time>
      </trkpt>
      <trkpt lat="46.83988" lon="-0.27112">
        <ele>91.8</ele>
        <time>2024-03-10T09:28:06Z</time>
      </trkpt>
      <trkpt lat="46.84015" lon="-0.27157">
        <ele>92.8</ele>
        <time>2024-03-10T09:28:13Z</time>
      </trkpt>
      <trkpt lat="46.84019" lon="-0.27163">
        <ele>93</ele>
        <time>2024-03-10T09:28:14Z</time>
      </trkpt>
      <trkpt lat="46.84044" lon="-0.27209">
        <ele>93.4</ele>
        <time>2024-03-10T09:28:21Z</time>
      </trkpt>
      <trkpt lat="46.84055" lon="-0.27217">
        <ele>93.2</ele>
        <time>2024-03-10T09:28:23Z</time>
      </trkpt>
      <trkpt lat="46.84066" lon="-0.27223">
        <ele>93.2</ele>
        <time>2024-03-10T09:28:25Z</time>
      </trkpt>
      <trkpt lat="46.84093" lon="-0.27241">
        <ele>92.4</ele>
        <time>2024-03-10T09:28:30Z</time>
      </trkpt>
      <trkpt lat="46.84096" lon="-0.27247">
        <ele>92.2</ele>
        <time>2024-03-10T09:28:31Z</time>
      </trkpt>
      <trkpt lat="46.84098" lon="-0.27256">
        <ele>91.6</ele>
        <time>2024-03-10T09:28:32Z</time>
      </trkpt>
      <trkpt lat="46.84104" lon="-0.27276">
        <ele>90.8</ele>
        <time>2024-03-10T09:28:34Z</time>
      </trkpt>
      <trkpt lat="46.84106" lon="-0.27287">
        <ele>90.4</ele>
        <time>2024-03-10T09:28:35Z</time>
      </trkpt>
      <trkpt lat="46.84113" lon="-0.27321">
        <ele>88.6</ele>
        <time>2024-03-10T09:28:38Z</time>
      </trkpt>
      <trkpt lat="46.8412" lon="-0.27339">
        <ele>87.4</ele>
        <time>2024-03-10T09:28:40Z</time>
      </trkpt>
      <trkpt lat="46.84129" lon="-0.2735">
        <ele>86.4</ele>
        <time>2024-03-10T09:28:42Z</time>
      </trkpt>
      <trkpt lat="46.84133" lon="-0.27352">
        <ele>86</ele>
        <time>2024-03-10T09:28:43Z</time>
      </trkpt>
      <trkpt lat="46.84137" lon="-0.27352">
        <ele>85.2</ele>
        <time>2024-03-10T09:28:44Z</time>
      </trkpt>
      <trkpt lat="46.8414" lon="-0.2735">
        <ele>84.6</ele>
        <time>2024-03-10T09:28:45Z</time>
      </trkpt>
      <trkpt lat="46.84144" lon="-0.27346">
        <ele>83.8</ele>
        <time>2024-03-10T09:28:46Z</time>
      </trkpt>
      <trkpt lat="46.84148" lon="-0.27343">
        <ele>83.4</ele>
        <time>2024-03-10T09:28:47Z</time>
      </trkpt>
      <trkpt lat="46.84157" lon="-0.27338">
        <ele>82</ele>
        <time>2024-03-10T09:28:49Z</time>
      </trkpt>
      <trkpt lat="46.84166" lon="-0.27332">
        <ele>81</ele>
        <time>2024-03-10T09:28:51Z</time>
      </trkpt>
      <trkpt lat="46.84171" lon="-0.2733">
        <ele>80.8</ele>
        <time>2024-03-10T09:28:52Z</time>
      </trkpt>
      <trkpt lat="46.84175" lon="-0.27329">
        <ele>80.6</ele>
        <time>2024-03-10T09:28:53Z</time>
      </trkpt>
      <trkpt lat="46.84182" lon="-0.27329">
        <ele>80</ele>
        <time>2024-03-10T09:28:55Z</time>
      </trkpt>
      <trkpt lat="46.84185" lon="-0.2733">
        <ele>79.8</ele>
        <time>2024-03-10T09:28:56Z</time>
      </trkpt>
      <trkpt lat="46.84188" lon="-0.2733">
        <ele>79.2</ele>
        <time>2024-03-10T09:28:57Z</time>
      </trkpt>
      <trkpt lat="46.84194" lon="-0.27329">
        <ele>78.6</ele>
        <time>2024-03-10T09:28:59Z</time>
      </trkpt>
      <trkpt lat="46.84198" lon="-0.27329">
        <ele>78.2</ele>
        <time>2024-03-10T09:29:01Z</time>
      </trkpt>
      <trkpt lat="46.84212" lon="-0.2733">
        <ele>78.4</ele>
        <time>2024-03-10T09:29:07Z</time>
      </trkpt>
      <trkpt lat="46.84229" lon="-0.2733">
        <ele>78.8</ele>
        <time>2024-03-10T09:29:12Z</time>
      </trkpt>
      <trkpt lat="46.84248" lon="-0.27335">
        <ele>78.6</ele>
        <time>2024-03-10T09:29:18Z</time>
      </trkpt>
      <trkpt lat="46.84264" lon="-0.27341">
        <ele>79.6</ele>
        <time>2024-03-10T09:29:24Z</time>
      </trkpt>
      <trkpt lat="46.84267" lon="-0.27343">
        <ele>80</ele>
        <time>2024-03-10T09:29:26Z</time>
      </trkpt>
      <trkpt lat="46.84273" lon="-0.27345">
        <ele>81</ele>
        <time>2024-03-10T09:29:29Z</time>
      </trkpt>
      <trkpt lat="46.8428" lon="-0.27347">
        <ele>81.8</ele>
        <time>2024-03-10T09:29:32Z</time>
      </trkpt>
      <trkpt lat="46.84286" lon="-0.27349">
        <ele>82</ele>
        <time>2024-03-10T09:29:34Z</time>
      </trkpt>
      <trkpt lat="46.84299" lon="-0.27354">
        <ele>83.2</ele>
        <time>2024-03-10T09:29:38Z</time>
      </trkpt>
      <trkpt lat="46.84305" lon="-0.27355">
        <ele>83.8</ele>
        <time>2024-03-10T09:29:40Z</time>
      </trkpt>
      <trkpt lat="46.84308" lon="-0.27357">
        <ele>84.2</ele>
        <time>2024-03-10T09:29:42Z</time>
      </trkpt>
      <trkpt lat="46.84321" lon="-0.27364">
        <ele>85.2</ele>
        <time>2024-03-10T09:29:48Z</time>
      </trkpt>
      <trkpt lat="46.84326" lon="-0.27365">
        <ele>85.4</ele>
        <time>2024-03-10T09:29:50Z</time>
      </trkpt>
      <trkpt lat="46.84336" lon="-0.27369">
        <ele>86.4</ele>
        <time>2024-03-10T09:29:54Z</time>
      </trkpt>
      <trkpt lat="46.8434" lon="-0.27371">
        <ele>86.8</ele>
        <time>2024-03-10T09:29:56Z</time>
      </trkpt>
      <trkpt lat="46.84357" lon="-0.27378">
        <ele>87.6</ele>
        <time>2024-03-10T09:30:02Z</time>
      </trkpt>
      <trkpt lat="46.84361" lon="-0.27381">
        <ele>88</ele>
        <time>2024-03-10T09:30:04Z</time>
      </trkpt>
      <trkpt lat="46.84372" lon="-0.27387">
        <ele>88.6</ele>
        <time>2024-03-10T09:30:09Z</time>
      </trkpt>
      <trkpt lat="46.84376" lon="-0.2739">
        <ele>88.8</ele>
        <time>2024-03-10T09:30:11Z</time>
      </trkpt>
      <trkpt lat="46.84391" lon="-0.274">
        <ele>89.8</ele>
        <time>2024-03-10T09:30:19Z</time>
      </trkpt>
      <trkpt lat="46.84407" lon="-0.27411">
        <ele>90.2</ele>
        <time>2024-03-10T09:30:27Z</time>
      </trkpt>
      <trkpt lat="46.84416" lon="-0.27416">
        <ele>90.8</ele>
        <time>2024-03-10T09:30:31Z</time>
      </trkpt>
      <trkpt lat="46.84422" lon="-0.2742">
        <ele>91.2</ele>
        <time>2024-03-10T09:30:34Z</time>
      </trkpt>
      <trkpt lat="46.84432" lon="-0.27427">
        <ele>92</ele>
        <time>2024-03-10T09:30:39Z</time>
      </trkpt>
      <trkpt lat="46.84442" lon="-0.27432">
        <ele>93</ele>
        <time>2024-03-10T09:30:44Z</time>
      </trkpt>
      <trkpt lat="46.84444" lon="-0.27433">
        <ele>93.2</ele>
        <time>2024-03-10T09:30:45Z</time>
      </trkpt>
      <trkpt lat="46.84453" lon="-0.27433">
        <ele>93.8</ele>
        <time>2024-03-10T09:30:49Z</time>
      </trkpt>
      <trkpt lat="46.84457" lon="-0.27431">
        <ele>94.4</ele>
        <time>2024-03-10T09:30:51Z</time>
      </trkpt>
      <trkpt lat="46.84464" lon="-0.27423">
        <ele>94.8</ele>
        <time>2024-03-10T09:30:54Z</time>
      </trkpt>
      <trkpt lat="46.84487" lon="-0.27396">
        <ele>95.2</ele>
        <time>2024-03-10T09:31:03Z</time>
      </trkpt>
      <trkpt lat="46.84509" lon="-0.27371">
        <ele>95.4</ele>
        <time>2024-03-10T09:31:10Z</time>
      </trkpt>
      <trkpt lat="46.84539" lon="-0.2734">
        <ele>95.6</ele>
        <time>2024-03-10T09:31:19Z</time>
      </trkpt>
      <trkpt lat="46.84556" lon="-0.27322">
        <ele>96.4</ele>
        <time>2024-03-10T09:31:24Z</time>
      </trkpt>
      <trkpt lat="46.84566" lon="-0.27313">
        <ele>96.6</ele>
        <time>2024-03-10T09:31:27Z</time>
      </trkpt>
      <trkpt lat="46.84579" lon="-0.27301">
        <ele>97.4</ele>
        <time>2024-03-10T09:31:31Z</time>
      </trkpt>
      <trkpt lat="46.84593" lon="-0.27291">
        <ele>98.6</ele>
        <time>2024-03-10T09:31:35Z</time>
      </trkpt>
      <trkpt lat="46.84618" lon="-0.27279">
        <ele>99.8</ele>
        <time>2024-03-10T09:31:41Z</time>
      </trkpt>
      <trkpt lat="46.84623" lon="-0.27277">
        <ele>100</ele>
        <time>2024-03-10T09:31:42Z</time>
      </trkpt>
      <trkpt lat="46.84649" lon="-0.27271">
        <ele>100.8</ele>
        <time>2024-03-10T09:31:48Z</time>
      </trkpt>
      <trkpt lat="46.84658" lon="-0.27269">
        <ele>101.2</ele>
        <time>2024-03-10T09:31:50Z</time>
      </trkpt>
      <trkpt lat="46.84681" lon="-0.27262">
        <ele>101.8</ele>
        <time>2024-03-10T09:31:56Z</time>
      </trkpt>
      <trkpt lat="46.84685" lon="-0.27261">
        <ele>102</ele>
        <time>2024-03-10T09:31:57Z</time>
      </trkpt>
      <trkpt lat="46.84698" lon="-0.27257">
        <ele>103</ele>
        <time>2024-03-10T09:32:01Z</time>
      </trkpt>
      <trkpt lat="46.84709" lon="-0.27253">
        <ele>104</ele>
        <time>2024-03-10T09:32:05Z</time>
      </trkpt>
      <trkpt lat="46.84711" lon="-0.27252">
        <ele>104.2</ele>
        <time>2024-03-10T09:32:06Z</time>
      </trkpt>
      <trkpt lat="46.84725" lon="-0.27249">
        <ele>105.4</ele>
        <time>2024-03-10T09:32:11Z</time>
      </trkpt>
      <trkpt lat="46.84731" lon="-0.27246">
        <ele>105.8</ele>
        <time>2024-03-10T09:32:13Z</time>
      </trkpt>
      <trkpt lat="46.84738" lon="-0.27241">
        <ele>106.4</ele>
        <time>2024-03-10T09:32:16Z</time>
      </trkpt>
      <trkpt lat="46.84744" lon="-0.2723">
        <ele>107</ele>
        <time>2024-03-10T09:32:19Z</time>
      </trkpt>
      <trkpt lat="46.84753" lon="-0.27202">
        <ele>107.6</ele>
        <time>2024-03-10T09:32:25Z</time>
      </trkpt>
      <trkpt lat="46.84757" lon="-0.27193">
        <ele>107.8</ele>
        <time>2024-03-10T09:32:27Z</time>
      </trkpt>
      <trkpt lat="46.84764" lon="-0.27173">
        <ele>108.6</ele>
        <time>2024-03-10T09:32:31Z</time>
      </trkpt>
      <trkpt lat="46.84771" lon="-0.27149">
        <ele>109.2</ele>
        <time>2024-03-10T09:32:36Z</time>
      </trkpt>
      <trkpt lat="46.84773" lon="-0.27139">
        <ele>109.8</ele>
        <time>2024-03-10T09:32:38Z</time>
      </trkpt>
      <trkpt lat="46.84781" lon="-0.27104">
        <ele>111</ele>
        <time>2024-03-10T09:32:45Z</time>
      </trkpt>
      <trkpt lat="46.84784" lon="-0.27085">
        <ele>112</ele>
        <time>2024-03-10T09:32:49Z</time>
      </trkpt>
      <trkpt lat="46.84787" lon="-0.27063">
        <ele>112.6</ele>
        <time>2024-03-10T09:32:53Z</time>
      </trkpt>
      <trkpt lat="46.84788" lon="-0.27052">
        <ele>113.2</ele>
        <time>2024-03-10T09:32:55Z</time>
      </trkpt>
      <trkpt lat="46.84791" lon="-0.27022">
        <ele>113.4</ele>
        <time>2024-03-10T09:33:00Z</time>
      </trkpt>
      <trkpt lat="46.848" lon="-0.26978">
        <ele>112.8</ele>
        <time>2024-03-10T09:33:06Z</time>
      </trkpt>
      <trkpt lat="46.84807" lon="-0.26944">
        <ele>112</ele>
        <time>2024-03-10T09:33:10Z</time>
      </trkpt>
      <trkpt lat="46.84812" lon="-0.26928">
        <ele>111.8</ele>
        <time>2024-03-10T09:33:12Z</time>
      </trkpt>
      <trkpt lat="46.84821" lon="-0.26915">
        <ele>111.2</ele>
        <time>2024-03-10T09:33:14Z</time>
      </trkpt>
      <trkpt lat="46.84826" lon="-0.2691">
        <ele>111</ele>
        <time>2024-03-10T09:33:15Z</time>
      </trkpt>
      <trkpt lat="46.84831" lon="-0.26905">
        <ele>110.8</ele>
        <time>2024-03-10T09:33:16Z</time>
      </trkpt>
      <trkpt lat="46.84868" lon="-0.26882">
        <ele>110</ele>
        <time>2024-03-10T09:33:22Z</time>
      </trkpt>
      <trkpt lat="46.84873" lon="-0.26878">
        <ele>110</ele>
        <time>2024-03-10T09:33:23Z</time>
      </trkpt>
      <trkpt lat="46.84901" lon="-0.26861">
        <ele>109.6</ele>
        <time>2024-03-10T09:33:28Z</time>
      </trkpt>
      <trkpt lat="46.84921" lon="-0.26842">
        <ele>109.6</ele>
        <time>2024-03-10T09:33:32Z</time>
      </trkpt>
      <trkpt lat="46.84925" lon="-0.26835">
        <ele>109.2</ele>
        <time>2024-03-10T09:33:33Z</time>
      </trkpt>
      <trkpt lat="46.84929" lon="-0.26827">
        <ele>108.8</ele>
        <time>2024-03-10T09:33:34Z</time>
      </trkpt>
      <trkpt lat="46.84938" lon="-0.26797">
        <ele>108</ele>
        <time>2024-03-10T09:33:37Z</time>
      </trkpt>
      <trkpt lat="46.84941" lon="-0.26785">
        <ele>107.6</ele>
        <time>2024-03-10T09:33:38Z</time>
      </trkpt>
      <trkpt lat="46.84946" lon="-0.26746">
        <ele>106.4</ele>
        <time>2024-03-10T09:33:41Z</time>
      </trkpt>
      <trkpt lat="46.84948" lon="-0.26732">
        <ele>106</ele>
        <time>2024-03-10T09:33:42Z</time>
      </trkpt>
      <trkpt lat="46.8495" lon="-0.26718">
        <ele>105</ele>
        <time>2024-03-10T09:33:43Z</time>
      </trkpt>
      <trkpt lat="46.84952" lon="-0.26703">
        <ele>104</ele>
        <time>2024-03-10T09:33:44Z</time>
      </trkpt>
      <trkpt lat="46.84955" lon="-0.26687">
        <ele>102.4</ele>
        <time>2024-03-10T09:33:45Z</time>
      </trkpt>
      <trkpt lat="46.8496" lon="-0.26655">
        <ele>100</ele>
        <time>2024-03-10T09:33:47Z</time>
      </trkpt>
      <trkpt lat="46.84965" lon="-0.26622">
        <ele>98.6</ele>
        <time>2024-03-10T09:33:49Z</time>
      </trkpt>
      <trkpt lat="46.8497" lon="-0.26587">
        <ele>96.8</ele>
        <time>2024-03-10T09:33:51Z</time>
      </trkpt>
      <trkpt lat="46.84973" lon="-0.2657">
        <ele>95.6</ele>
        <time>2024-03-10T09:33:52Z</time>
      </trkpt>
      <trkpt lat="46.84975" lon="-0.26553">
        <ele>94.8</ele>
        <time>2024-03-10T09:33:53Z</time>
      </trkpt>
      <trkpt lat="46.84978" lon="-0.26535">
        <ele>93.4</ele>
        <time>2024-03-10T09:33:54Z</time>
      </trkpt>
      <trkpt lat="46.84982" lon="-0.26501">
        <ele>92.2</ele>
        <time>2024-03-10T09:33:56Z</time>
      </trkpt>
      <trkpt lat="46.84987" lon="-0.26467">
        <ele>90.6</ele>
        <time>2024-03-10T09:33:58Z</time>
      </trkpt>
      <trkpt lat="46.84991" lon="-0.26433">
        <ele>88</ele>
        <time>2024-03-10T09:34:00Z</time>
      </trkpt>
      <trkpt lat="46.84994" lon="-0.26417">
        <ele>87</ele>
        <time>2024-03-10T09:34:01Z</time>
      </trkpt>
      <trkpt lat="46.84996" lon="-0.26401">
        <ele>86.4</ele>
        <time>2024-03-10T09:34:02Z</time>
      </trkpt>
      <trkpt lat="46.85002" lon="-0.26355">
        <ele>85</ele>
        <time>2024-03-10T09:34:05Z</time>
      </trkpt>
      <trkpt lat="46.85007" lon="-0.26325">
        <ele>83.2</ele>
        <time>2024-03-10T09:34:07Z</time>
      </trkpt>
      <trkpt lat="46.8501" lon="-0.26311">
        <ele>82.6</ele>
        <time>2024-03-10T09:34:08Z</time>
      </trkpt>
      <trkpt lat="46.85017" lon="-0.26281">
        <ele>81.6</ele>
        <time>2024-03-10T09:34:10Z</time>
      </trkpt>
      <trkpt lat="46.85021" lon="-0.26267">
        <ele>80.4</ele>
        <time>2024-03-10T09:34:11Z</time>
      </trkpt>
      <trkpt lat="46.85035" lon="-0.26226">
        <ele>80</ele>
        <time>2024-03-10T09:34:14Z</time>
      </trkpt>
      <trkpt lat="46.85044" lon="-0.262">
        <ele>79.2</ele>
        <time>2024-03-10T09:34:16Z</time>
      </trkpt>
      <trkpt lat="46.85059" lon="-0.26161">
        <ele>78</ele>
        <time>2024-03-10T09:34:19Z</time>
      </trkpt>
      <trkpt lat="46.85063" lon="-0.26149">
        <ele>77.6</ele>
        <time>2024-03-10T09:34:20Z</time>
      </trkpt>
      <trkpt lat="46.85083" lon="-0.26108">
        <ele>76.6</ele>
        <time>2024-03-10T09:34:24Z</time>
      </trkpt>
      <trkpt lat="46.85089" lon="-0.26099">
        <ele>76.4</ele>
        <time>2024-03-10T09:34:25Z</time>
      </trkpt>
      <trkpt lat="46.8511" lon="-0.2607">
        <ele>75.6</ele>
        <time>2024-03-10T09:34:29Z</time>
      </trkpt>
      <trkpt lat="46.85119" lon="-0.26057">
        <ele>74.8</ele>
        <time>2024-03-10T09:34:31Z</time>
      </trkpt>
      <trkpt lat="46.85131" lon="-0.26043">
        <ele>74.4</ele>
        <time>2024-03-10T09:34:34Z</time>
      </trkpt>
      <trkpt lat="46.85135" lon="-0.26042">
        <ele>74.4</ele>
        <time>2024-03-10T09:34:35Z</time>
      </trkpt>
      <trkpt lat="46.85138" lon="-0.26044">
        <ele>74.2</ele>
        <time>2024-03-10T09:34:36Z</time>
      </trkpt>
      <trkpt lat="46.85144" lon="-0.26053">
        <ele>74.2</ele>
        <time>2024-03-10T09:34:38Z</time>
      </trkpt>
      <trkpt lat="46.85148" lon="-0.26057">
        <ele>74.4</ele>
        <time>2024-03-10T09:34:39Z</time>
      </trkpt>
      <trkpt lat="46.85159" lon="-0.26068">
        <ele>74.2</ele>
        <time>2024-03-10T09:34:42Z</time>
      </trkpt>
      <trkpt lat="46.85167" lon="-0.26073">
        <ele>74.4</ele>
        <time>2024-03-10T09:34:44Z</time>
      </trkpt>
      <trkpt lat="46.85174" lon="-0.26075">
        <ele>74.8</ele>
        <time>2024-03-10T09:34:46Z</time>
      </trkpt>
      <trkpt lat="46.8518" lon="-0.26075">
        <ele>75.2</ele>
        <time>2024-03-10T09:34:48Z</time>
      </trkpt>
      <trkpt lat="46.85183" lon="-0.26074">
        <ele>75.6</ele>
        <time>2024-03-10T09:34:49Z</time>
      </trkpt>
      <trkpt lat="46.85194" lon="-0.26068">
        <ele>77</ele>
        <time>2024-03-10T09:34:53Z</time>
      </trkpt>
      <trkpt lat="46.85198" lon="-0.26065">
        <ele>77.6</ele>
        <time>2024-03-10T09:34:55Z</time>
      </trkpt>
      <trkpt lat="46.85201" lon="-0.26063">
        <ele>78.2</ele>
        <time>2024-03-10T09:34:56Z</time>
      </trkpt>
      <trkpt lat="46.85209" lon="-0.26054">
        <ele>79.2</ele>
        <time>2024-03-10T09:35:00Z</time>
      </trkpt>
      <trkpt lat="46.85212" lon="-0.26049">
        <ele>79.8</ele>
        <time>2024-03-10T09:35:02Z</time>
      </trkpt>
      <trkpt lat="46.85215" lon="-0.26043">
        <ele>80.6</ele>
        <time>2024-03-10T09:35:05Z</time>
      </trkpt>
      <trkpt lat="46.85218" lon="-0.26037">
        <ele>81.6</ele>
        <time>2024-03-10T09:35:08Z</time>
      </trkpt>
      <trkpt lat="46.8522" lon="-0.26033">
        <ele>82.8</ele>
        <time>2024-03-10T09:35:10Z</time>
      </trkpt>
      <trkpt lat="46.85223" lon="-0.26025">
        <ele>84</ele>
        <time>2024-03-10T09:35:14Z</time>
      </trkpt>
      <trkpt lat="46.85227" lon="-0.26016">
        <ele>85.2</ele>
        <time>2024-03-10T09:35:18Z</time>
      </trkpt>
      <trkpt lat="46.85231" lon="-0.26007">
        <ele>86</ele>
        <time>2024-03-10T09:35:21Z</time>
      </trkpt>
      <trkpt lat="46.85233" lon="-0.26">
        <ele>86.4</ele>
        <time>2024-03-10T09:35:23Z</time>
      </trkpt>
      <trkpt lat="46.8524" lon="-0.25985">
        <ele>87.2</ele>
        <time>2024-03-10T09:35:28Z</time>
      </trkpt>
      <trkpt lat="46.85241" lon="-0.25982">
        <ele>87.6</ele>
        <time>2024-03-10T09:35:29Z</time>
      </trkpt>
      <trkpt lat="46.85248" lon="-0.25962">
        <ele>88.2</ele>
        <time>2024-03-10T09:35:35Z</time>
      </trkpt>
      <trkpt lat="46.85255" lon="-0.25939">
        <ele>88.6</ele>
        <time>2024-03-10T09:35:41Z</time>
      </trkpt>
      <trkpt lat="46.85259" lon="-0.25927">
        <ele>89.2</ele>
        <time>2024-03-10T09:35:44Z</time>
      </trkpt>
      <trkpt lat="46.85265" lon="-0.25907">
        <ele>89.8</ele>
        <time>2024-03-10T09:35:49Z</time>
      </trkpt>
      <trkpt lat="46.85268" lon="-0.25899">
        <ele>90</ele>
        <time>2024-03-10T09:35:51Z</time>
      </trkpt>
      <trkpt lat="46.85275" lon="-0.25876">
        <ele>90.8</ele>
        <time>2024-03-10T09:35:57Z</time>
      </trkpt>
      <trkpt lat="46.8528" lon="-0.25862">
        <ele>91.4</ele>
        <time>2024-03-10T09:36:01Z</time>
      </trkpt>
      <trkpt lat="46.85282" lon="-0.25855">
        <ele>92.2</ele>
        <time>2024-03-10T09:36:03Z</time>
      </trkpt>
      <trkpt lat="46.8529" lon="-0.25829">
        <ele>93.2</ele>
        <time>2024-03-10T09:36:09Z</time>
      </trkpt>
      <trkpt lat="46.85292" lon="-0.25825">
        <ele>93.2</ele>
        <time>2024-03-10T09:36:10Z</time>
      </trkpt>
      <trkpt lat="46.85303" lon="-0.25789">
        <ele>94.2</ele>
        <time>2024-03-10T09:36:18Z</time>
      </trkpt>
      <trkpt lat="46.85316" lon="-0.25754">
        <ele>95.4</ele>
        <time>2024-03-10T09:36:25Z</time>
      </trkpt>
      <trkpt lat="46.85324" lon="-0.25735">
        <ele>95.6</ele>
        <time>2024-03-10T09:36:29Z</time>
      </trkpt>
      <trkpt lat="46.85323" lon="-0.25729">
        <ele>95.8</ele>
        <time>2024-03-10T09:36:30Z</time>
      </trkpt>
      <trkpt lat="46.85322" lon="-0.25723">
        <ele>95.8</ele>
        <time>2024-03-10T09:36:31Z</time>
      </trkpt>
      <trkpt lat="46.85314" lon="-0.25699">
        <ele>95.4</ele>
        <time>2024-03-10T09:36:35Z</time>
      </trkpt>
      <trkpt lat="46.85298" lon="-0.25651">
        <ele>94.8</ele>
        <time>2024-03-10T09:36:42Z</time>
      </trkpt>
      <trkpt lat="46.8528" lon="-0.25599">
        <ele>94.8</ele>
        <time>2024-03-10T09:36:49Z</time>
      </trkpt>
      <trkpt lat="46.85267" lon="-0.25562">
        <ele>94</ele>
        <time>2024-03-10T09:36:54Z</time>
      </trkpt>
      <trkpt lat="46.8526" lon="-0.2554">
        <ele>93.2</ele>
        <time>2024-03-10T09:36:57Z</time>
      </trkpt>
      <trkpt lat="46.85257" lon="-0.25533">
        <ele>92.8</ele>
        <time>2024-03-10T09:36:58Z</time>
      </trkpt>
      <trkpt lat="46.8525" lon="-0.2551">
        <ele>92</ele>
        <time>2024-03-10T09:37:01Z</time>
      </trkpt>
      <trkpt lat="46.85249" lon="-0.25503">
        <ele>91.8</ele>
        <time>2024-03-10T09:37:02Z</time>
      </trkpt>
      <trkpt lat="46.85246" lon="-0.25491">
        <ele>91.8</ele>
        <time>2024-03-10T09:37:04Z</time>
      </trkpt>
      <trkpt lat="46.85249" lon="-0.25484">
        <ele>91.8</ele>
        <time>2024-03-10T09:37:06Z</time>
      </trkpt>
      <trkpt lat="46.85251" lon="-0.25482">
        <ele>91.8</ele>
        <time>2024-03-10T09:37:07Z</time>
      </trkpt>
      <trkpt lat="46.85254" lon="-0.25479">
        <ele>91.6</ele>
        <time>2024-03-10T09:37:08Z</time>
      </trkpt>
      <trkpt lat="46.85257" lon="-0.25465">
        <ele>91.6</ele>
        <time>2024-03-10T09:37:11Z</time>
      </trkpt>
      <trkpt lat="46.85266" lon="-0.25427">
        <ele>91.6</ele>
        <time>2024-03-10T09:37:18Z</time>
      </trkpt>
      <trkpt lat="46.85275" lon="-0.25384">
        <ele>92.2</ele>
        <time>2024-03-10T09:37:25Z</time>
      </trkpt>
      <trkpt lat="46.85281" lon="-0.25354">
        <ele>93</ele>
        <time>2024-03-10T09:37:31Z</time>
      </trkpt>
      <trkpt lat="46.85282" lon="-0.25349">
        <ele>93.4</ele>
        <time>2024-03-10T09:37:32Z</time>
      </trkpt>
      <trkpt lat="46.85284" lon="-0.25335">
        <ele>94.4</ele>
        <time>2024-03-10T09:37:35Z</time>
      </trkpt>
      <trkpt lat="46.85285" lon="-0.25315">
        <ele>95.2</ele>
        <time>2024-03-10T09:37:39Z</time>
      </trkpt>
      <trkpt lat="46.85286" lon="-0.25303">
        <ele>95.6</ele>
        <time>2024-03-10T09:37:41Z</time>
      </trkpt>
      <trkpt lat="46.85288" lon="-0.25269">
        <ele>96.4</ele>
        <time>2024-03-10T09:37:47Z</time>
      </trkpt>
      <trkpt lat="46.85289" lon="-0.25257">
        <ele>96.8</ele>
        <time>2024-03-10T09:37:49Z</time>
      </trkpt>
      <trkpt lat="46.85292" lon="-0.25219">
        <ele>97.8</ele>
        <time>2024-03-10T09:37:55Z</time>
      </trkpt>
      <trkpt lat="46.85296" lon="-0.25168">
        <ele>98.4</ele>
        <time>2024-03-10T09:38:03Z</time>
      </trkpt>
      <trkpt lat="46.85297" lon="-0.25142">
        <ele>98.8</ele>
        <time>2024-03-10T09:38:07Z</time>
      </trkpt>
      <trkpt lat="46.85299" lon="-0.25108">
        <ele>99.4</ele>
        <time>2024-03-10T09:38:12Z</time>
      </trkpt>
      <trkpt lat="46.85301" lon="-0.2508">
        <ele>99.8</ele>
        <time>2024-03-10T09:38:16Z</time>
      </trkpt>
      <trkpt lat="46.85303" lon="-0.25064">
        <ele>100.2</ele>
        <time>2024-03-10T09:38:19Z</time>
      </trkpt>
      <trkpt lat="46.85303" lon="-0.25056">
        <ele>99.8</ele>
        <time>2024-03-10T09:38:23Z</time>
      </trkpt>
      <trkpt lat="46.85303" lon="-0.2505">
        <ele>99.4</ele>
        <time>2024-03-10T09:38:35Z</time>
      </trkpt>
      <trkpt lat="46.85306" lon="-0.25036">
        <ele>99.6</ele>
        <time>2024-03-10T09:38:39Z</time>
      </trkpt>
      <trkpt lat="46.85314" lon="-0.24996">
        <ele>100.2</ele>
        <time>2024-03-10T09:38:46Z</time>
      </trkpt>
      <trkpt lat="46.85329" lon="-0.24948">
        <ele>100.6</ele>
        <time>2024-03-10T09:38:54Z</time>
      </trkpt>
      <trkpt lat="46.85332" lon="-0.24943">
        <ele>100.6</ele>
        <time>2024-03-10T09:38:55Z</time>
      </trkpt>
      <trkpt lat="46.85337" lon="-0.2493">
        <ele>100.8</ele>
        <time>2024-03-10T09:38:57Z</time>
      </trkpt>
      <trkpt lat="46.85345" lon="-0.24904">
        <ele>101.2</ele>
        <time>2024-03-10T09:39:01Z</time>
      </trkpt>
      <trkpt lat="46.85348" lon="-0.24868">
        <ele>101.4</ele>
        <time>2024-03-10T09:39:06Z</time>
      </trkpt>
      <trkpt lat="46.85342" lon="-0.24814">
        <ele>101.8</ele>
        <time>2024-03-10T09:39:13Z</time>
      </trkpt>
      <trkpt lat="46.8534" lon="-0.24792">
        <ele>102</ele>
        <time>2024-03-10T09:39:16Z</time>
      </trkpt>
      <trkpt lat="46.85336" lon="-0.24755">
        <ele>102.2</ele>
        <time>2024-03-10T09:39:21Z</time>
      </trkpt>
      <trkpt lat="46.85333" lon="-0.24719">
        <ele>102.2</ele>
        <time>2024-03-10T09:39:26Z</time>
      </trkpt>
      <trkpt lat="46.85335" lon="-0.24708">
        <ele>102.4</ele>
        <time>2024-03-10T09:39:28Z</time>
      </trkpt>
      <trkpt lat="46.85345" lon="-0.24701">
        <ele>102.6</ele>
        <time>2024-03-10T09:39:31Z</time>
      </trkpt>
      <trkpt lat="46.85347" lon="-0.24693">
        <ele>102.8</ele>
        <time>2024-03-10T09:39:33Z</time>
      </trkpt>
      <trkpt lat="46.85346" lon="-0.24689">
        <ele>102.6</ele>
        <time>2024-03-10T09:39:34Z</time>
      </trkpt>
      <trkpt lat="46.85336" lon="-0.24659">
        <ele>102.6</ele>
        <time>2024-03-10T09:39:39Z</time>
      </trkpt>
      <trkpt lat="46.85328" lon="-0.24639">
        <ele>103</ele>
        <time>2024-03-10T09:39:42Z</time>
      </trkpt>
      <trkpt lat="46.85317" lon="-0.24603">
        <ele>103.2</ele>
        <time>2024-03-10T09:39:47Z</time>
      </trkpt>
      <trkpt lat="46.85302" lon="-0.24539">
        <ele>103.6</ele>
        <time>2024-03-10T09:39:55Z</time>
      </trkpt>
      <trkpt lat="46.85289" lon="-0.24472">
        <ele>103.4</ele>
        <time>2024-03-10T09:40:03Z</time>
      </trkpt>
      <trkpt lat="46.85285" lon="-0.24441">
        <ele>102.6</ele>
        <time>2024-03-10T09:40:07Z</time>
      </trkpt>
      <trkpt lat="46.85286" lon="-0.24426">
        <ele>102.6</ele>
        <time>2024-03-10T09:40:09Z</time>
      </trkpt>
      <trkpt lat="46.85293" lon="-0.24415">
        <ele>102.6</ele>
        <time>2024-03-10T09:40:11Z</time>
      </trkpt>
      <trkpt lat="46.85298" lon="-0.2441">
        <ele>102.6</ele>
        <time>2024-03-10T09:40:12Z</time>
      </trkpt>
      <trkpt lat="46.85335" lon="-0.24374">
        <ele>102.8</ele>
        <time>2024-03-10T09:40:19Z</time>
      </trkpt>
      <trkpt lat="46.85374" lon="-0.24335">
        <ele>102.2</ele>
        <time>2024-03-10T09:40:26Z</time>
      </trkpt>
      <trkpt lat="46.85409" lon="-0.243">
        <ele>102</ele>
        <time>2024-03-10T09:40:32Z</time>
      </trkpt>
      <trkpt lat="46.85421" lon="-0.24288">
        <ele>101.6</ele>
        <time>2024-03-10T09:40:34Z</time>
      </trkpt>
      <trkpt lat="46.85464" lon="-0.24249">
        <ele>101.6</ele>
        <time>2024-03-10T09:40:41Z</time>
      </trkpt>
      <trkpt lat="46.85504" lon="-0.24209">
        <ele>102</ele>
        <time>2024-03-10T09:40:48Z</time>
      </trkpt>
      <trkpt lat="46.85551" lon="-0.24164">
        <ele>102.4</ele>
        <time>2024-03-10T09:40:56Z</time>
      </trkpt>
      <trkpt lat="46.85557" lon="-0.24159">
        <ele>102.6</ele>
        <time>2024-03-10T09:40:57Z</time>
      </trkpt>
      <trkpt lat="46.85603" lon="-0.24123">
        <ele>102.4</ele>
        <time>2024-03-10T09:41:05Z</time>
      </trkpt>
      <trkpt lat="46.85615" lon="-0.24122">
        <ele>102.6</ele>
        <time>2024-03-10T09:41:07Z</time>
      </trkpt>
      <trkpt lat="46.85626" lon="-0.24127">
        <ele>102.8</ele>
        <time>2024-03-10T09:41:09Z</time>
      </trkpt>
      <trkpt lat="46.85657" lon="-0.24149">
        <ele>102.6</ele>
        <time>2024-03-10T09:41:15Z</time>
      </trkpt>
      <trkpt lat="46.85686" lon="-0.24159">
        <ele>102.8</ele>
        <time>2024-03-10T09:41:20Z</time>
      </trkpt>
      <trkpt lat="46.85724" lon="-0.24164">
        <ele>102.6</ele>
        <time>2024-03-10T09:41:27Z</time>
      </trkpt>
      <trkpt lat="46.85733" lon="-0.24166">
        <ele>102.6</ele>
        <time>2024-03-10T09:41:29Z</time>
      </trkpt>
      <trkpt lat="46.85744" lon="-0.2417">
        <ele>102.6</ele>
        <time>2024-03-10T09:41:32Z</time>
      </trkpt>
      <trkpt lat="46.85751" lon="-0.24168">
        <ele>102.6</ele>
        <time>2024-03-10T09:41:34Z</time>
      </trkpt>
      <trkpt lat="46.85759" lon="-0.24163">
        <ele>102.8</ele>
        <time>2024-03-10T09:41:36Z</time>
      </trkpt>
      <trkpt lat="46.85767" lon="-0.24157">
        <ele>103</ele>
        <time>2024-03-10T09:41:38Z</time>
      </trkpt>
      <trkpt lat="46.85783" lon="-0.24143">
        <ele>103</ele>
        <time>2024-03-10T09:41:42Z</time>
      </trkpt>
      <trkpt lat="46.85792" lon="-0.24136">
        <ele>103.2</ele>
        <time>2024-03-10T09:41:44Z</time>
      </trkpt>
      <trkpt lat="46.85802" lon="-0.24131">
        <ele>103.2</ele>
        <time>2024-03-10T09:41:46Z</time>
      </trkpt>
      <trkpt lat="46.85807" lon="-0.2413">
        <ele>103.2</ele>
        <time>2024-03-10T09:41:47Z</time>
      </trkpt>
      <trkpt lat="46.8586" lon="-0.24114">
        <ele>102.8</ele>
        <time>2024-03-10T09:41:56Z</time>
      </trkpt>
      <trkpt lat="46.85899" lon="-0.241">
        <ele>102.6</ele>
        <time>2024-03-10T09:42:03Z</time>
      </trkpt>
      <trkpt lat="46.85904" lon="-0.24096">
        <ele>102.4</ele>
        <time>2024-03-10T09:42:04Z</time>
      </trkpt>
      <trkpt lat="46.85907" lon="-0.24091">
        <ele>102.4</ele>
        <time>2024-03-10T09:42:05Z</time>
      </trkpt>
      <trkpt lat="46.85907" lon="-0.24084">
        <ele>102.4</ele>
        <time>2024-03-10T09:42:06Z</time>
      </trkpt>
      <trkpt lat="46.85907" lon="-0.24076">
        <ele>102.4</ele>
        <time>2024-03-10T09:42:07Z</time>
      </trkpt>
      <trkpt lat="46.85906" lon="-0.24044">
        <ele>102.4</ele>
        <time>2024-03-10T09:42:11Z</time>
      </trkpt>
      <trkpt lat="46.85908" lon="-0.23972">
        <ele>102.4</ele>
        <time>2024-03-10T09:42:19Z</time>
      </trkpt>
      <trkpt lat="46.85908" lon="-0.23896">
        <ele>102.6</ele>
        <time>2024-03-10T09:42:27Z</time>
      </trkpt>
      <trkpt lat="46.85905" lon="-0.23824">
        <ele>102</ele>
        <time>2024-03-10T09:42:35Z</time>
      </trkpt>
      <trkpt lat="46.85904" lon="-0.23816">
        <ele>101.8</ele>
        <time>2024-03-10T09:42:36Z</time>
      </trkpt>
      <trkpt lat="46.85904" lon="-0.23801">
        <ele>101.8</ele>
        <time>2024-03-10T09:42:38Z</time>
      </trkpt>
      <trkpt lat="46.85907" lon="-0.23795">
        <ele>101.8</ele>
        <time>2024-03-10T09:42:39Z</time>
      </trkpt>
      <trkpt lat="46.85911" lon="-0.23792">
        <ele>101.8</ele>
        <time>2024-03-10T09:42:40Z</time>
      </trkpt>
      <trkpt lat="46.85922" lon="-0.23785">
        <ele>101.8</ele>
        <time>2024-03-10T09:42:42Z</time>
      </trkpt>
      <trkpt lat="46.85975" lon="-0.23757">
        <ele>101.6</ele>
        <time>2024-03-10T09:42:51Z</time>
      </trkpt>
      <trkpt lat="46.85999" lon="-0.23743">
        <ele>100.8</ele>
        <time>2024-03-10T09:42:55Z</time>
      </trkpt>
      <trkpt lat="46.8603" lon="-0.23726">
        <ele>100</ele>
        <time>2024-03-10T09:43:00Z</time>
      </trkpt>
      <trkpt lat="46.86066" lon="-0.23704">
        <ele>100</ele>
        <time>2024-03-10T09:43:06Z</time>
      </trkpt>
      <trkpt lat="46.86072" lon="-0.23698">
        <ele>99.8</ele>
        <time>2024-03-10T09:43:07Z</time>
      </trkpt>
      <trkpt lat="46.86078" lon="-0.23692">
        <ele>99.6</ele>
        <time>2024-03-10T09:43:08Z</time>
      </trkpt>
      <trkpt lat="46.86088" lon="-0.23679">
        <ele>99.8</ele>
        <time>2024-03-10T09:43:10Z</time>
      </trkpt>
      <trkpt lat="46.86099" lon="-0.23667">
        <ele>99.6</ele>
        <time>2024-03-10T09:43:12Z</time>
      </trkpt>
      <trkpt lat="46.86117" lon="-0.23653">
        <ele>99.4</ele>
        <time>2024-03-10T09:43:15Z</time>
      </trkpt>
      <trkpt lat="46.86165" lon="-0.23623">
        <ele>98.6</ele>
        <time>2024-03-10T09:43:23Z</time>
      </trkpt>
      <trkpt lat="46.86194" lon="-0.23601">
        <ele>97.4</ele>
        <time>2024-03-10T09:43:28Z</time>
      </trkpt>
      <trkpt lat="46.862" lon="-0.23597">
        <ele>97.4</ele>
        <time>2024-03-10T09:43:29Z</time>
      </trkpt>
      <trkpt lat="46.86235" lon="-0.23571">
        <ele>96.6</ele>
        <time>2024-03-10T09:43:35Z</time>
      </trkpt>
      <trkpt lat="46.86247" lon="-0.23563">
        <ele>96.4</ele>
        <time>2024-03-10T09:43:37Z</time>
      </trkpt>
      <trkpt lat="46.86271" lon="-0.23548">
        <ele>96.2</ele>
        <time>2024-03-10T09:43:41Z</time>
      </trkpt>
      <trkpt lat="46.86317" lon="-0.2352">
        <ele>95.6</ele>
        <time>2024-03-10T09:43:48Z</time>
      </trkpt>
      <trkpt lat="46.86324" lon="-0.23517">
        <ele>95.4</ele>
        <time>2024-03-10T09:43:49Z</time>
      </trkpt>
      <trkpt lat="46.8634" lon="-0.23506">
        <ele>95</ele>
        <time>2024-03-10T09:43:52Z</time>
      </trkpt>
      <trkpt lat="46.86344" lon="-0.23506">
        <ele>95.2</ele>
        <time>2024-03-10T09:43:53Z</time>
      </trkpt>
      <trkpt lat="46.86346" lon="-0.23507">
        <ele>95.2</ele>
        <time>2024-03-10T09:43:54Z</time>
      </trkpt>
      <trkpt lat="46.86357" lon="-0.23514">
        <ele>95.8</ele>
        <time>2024-03-10T09:43:57Z</time>
      </trkpt>
      <trkpt lat="46.86375" lon="-0.23522">
        <ele>96</ele>
        <time>2024-03-10T09:44:01Z</time>
      </trkpt>
      <trkpt lat="46.8638" lon="-0.23522">
        <ele>96</ele>
        <time>2024-03-10T09:44:02Z</time>
      </trkpt>
      <trkpt lat="46.86385" lon="-0.2352">
        <ele>95.8</ele>
        <time>2024-03-10T09:44:03Z</time>
      </trkpt>
      <trkpt lat="46.86392" lon="-0.23511">
        <ele>96</ele>
        <time>2024-03-10T09:44:05Z</time>
      </trkpt>
      <trkpt lat="46.86396" lon="-0.23499">
        <ele>95.8</ele>
        <time>2024-03-10T09:44:07Z</time>
      </trkpt>
      <trkpt lat="46.86402" lon="-0.23473">
        <ele>95.8</ele>
        <time>2024-03-10T09:44:11Z</time>
      </trkpt>
      <trkpt lat="46.86409" lon="-0.23439">
        <ele>96.4</ele>
        <time>2024-03-10T09:44:16Z</time>
      </trkpt>
      <trkpt lat="46.86414" lon="-0.23419">
        <ele>96.8</ele>
        <time>2024-03-10T09:44:19Z</time>
      </trkpt>
      <trkpt lat="46.86419" lon="-0.23399">
        <ele>97.4</ele>
        <time>2024-03-10T09:44:22Z</time>
      </trkpt>
      <trkpt lat="46.86425" lon="-0.2338">
        <ele>97.8</ele>
        <time>2024-03-10T09:44:25Z</time>
      </trkpt>
      <trkpt lat="46.86428" lon="-0.23375">
        <ele>97.8</ele>
        <time>2024-03-10T09:44:26Z</time>
      </trkpt>
      <trkpt lat="46.8643" lon="-0.2337">
        <ele>98</ele>
        <time>2024-03-10T09:44:27Z</time>
      </trkpt>
      <trkpt lat="46.86441" lon="-0.23357">
        <ele>98.4</ele>
        <time>2024-03-10T09:44:31Z</time>
      </trkpt>
      <trkpt lat="46.86448" lon="-0.23342">
        <ele>99</ele>
        <time>2024-03-10T09:44:37Z</time>
      </trkpt>
      <trkpt lat="46.86448" lon="-0.23339">
        <ele>99</ele>
        <time>2024-03-10T09:44:40Z</time>
      </trkpt>
      <trkpt lat="46.86448" lon="-0.23338">
        <ele>99.2</ele>
        <time>2024-03-10T09:44:42Z</time>
      </trkpt>
      <trkpt lat="46.86449" lon="-0.23338">
        <ele>99.2</ele>
        <time>2024-03-10T09:44:54Z</time>
      </trkpt>
      <trkpt lat="46.86449" lon="-0.23337">
        <ele>99.2</ele>
        <time>2024-03-10T09:45:12Z</time>
      </trkpt>
      <trkpt lat="46.86449" lon="-0.23337">
        <ele>99.2</ele>
        <time>2024-03-10T09:45:31Z</time>
      </trkpt>
      <trkpt lat="46.86449" lon="-0.23337">
        <ele>99.2</ele>
        <time>2024-03-10T09:45:53Z</time>
      </trkpt>
      <trkpt lat="46.86449" lon="-0.23336">
        <ele>99.2</ele>
        <time>2024-03-10T09:46:09Z</time>
      </trkpt>
      <trkpt lat="46.86449" lon="-0.23336">
        <ele>99.2</ele>
        <time>2024-03-10T09:47:17Z</time>
      </trkpt>
      <trkpt lat="46.86449" lon="-0.23336">
        <ele>99.2</ele>
        <time>2024-03-10T09:47:38Z</time>
      </trkpt>
      <trkpt lat="46.86449" lon="-0.23336">
        <ele>99.2</ele>
        <time>2024-03-10T09:48:14Z</time>
      </trkpt>
      <trkpt lat="46.86449" lon="-0.23336">
        <ele>99.2</ele>
        <time>2024-03-10T09:49:12Z</time>
      </trkpt>
      <trkpt lat="46.86449" lon="-0.23336">
        <ele>99.2</ele>
        <time>2024-03-10T09:49:23Z</time>
      </trkpt>
      <trkpt lat="46.86455" lon="-0.2334">
        <ele>99.2</ele>
        <time>2024-03-10T09:49:38Z</time>
      </trkpt>
      <trkpt lat="46.86467" lon="-0.23359">
        <ele>99.2</ele>
        <time>2024-03-10T09:49:44Z</time>
      </trkpt>
      <trkpt lat="46.86485" lon="-0.23383">
        <ele>99.4</ele>
        <time>2024-03-10T09:49:51Z</time>
      </trkpt>
      <trkpt lat="46.86505" lon="-0.23392">
        <ele>99.2</ele>
        <time>2024-03-10T09:49:57Z</time>
      </trkpt>
      <trkpt lat="46.86533" lon="-0.23394">
        <ele>99.6</ele>
        <time>2024-03-10T09:50:04Z</time>
      </trkpt>
      <trkpt lat="46.86542" lon="-0.23395">
        <ele>99.6</ele>
        <time>2024-03-10T09:50:06Z</time>
      </trkpt>
      <trkpt lat="46.86559" lon="-0.23399">
        <ele>100</ele>
        <time>2024-03-10T09:50:10Z</time>
      </trkpt>
      <trkpt lat="46.86579" lon="-0.23404">
        <ele>100.4</ele>
        <time>2024-03-10T09:50:15Z</time>
      </trkpt>
      <trkpt lat="46.86583" lon="-0.23406">
        <ele>100.2</ele>
        <time>2024-03-10T09:50:16Z</time>
      </trkpt>
      <trkpt lat="46.86604" lon="-0.23405">
        <ele>100.2</ele>
        <time>2024-03-10T09:50:21Z</time>
      </trkpt>
      <trkpt lat="46.86633" lon="-0.2339">
        <ele>100.4</ele>
        <time>2024-03-10T09:50:28Z</time>
      </trkpt>
      <trkpt lat="46.86637" lon="-0.23387">
        <ele>100.4</ele>
        <time>2024-03-10T09:50:29Z</time>
      </trkpt>
      <trkpt lat="46.86642" lon="-0.23385">
        <ele>100.4</ele>
        <time>2024-03-10T09:50:30Z</time>
      </trkpt>
      <trkpt lat="46.8666" lon="-0.23378">
        <ele>100.8</ele>
        <time>2024-03-10T09:50:34Z</time>
      </trkpt>
      <trkpt lat="46.8667" lon="-0.23376">
        <ele>101</ele>
        <time>2024-03-10T09:50:36Z</time>
      </trkpt>
      <trkpt lat="46.86703" lon="-0.2337">
        <ele>100.6</ele>
        <time>2024-03-10T09:50:43Z</time>
      </trkpt>
      <trkpt lat="46.86708" lon="-0.23371">
        <ele>100.6</ele>
        <time>2024-03-10T09:50:44Z</time>
      </trkpt>
      <trkpt lat="46.86712" lon="-0.23372">
        <ele>101</ele>
        <time>2024-03-10T09:50:45Z</time>
      </trkpt>
      <trkpt lat="46.86721" lon="-0.23377">
        <ele>100.8</ele>
        <time>2024-03-10T09:50:47Z</time>
      </trkpt>
      <trkpt lat="46.86729" lon="-0.23383">
        <ele>100.6</ele>
        <time>2024-03-10T09:50:49Z</time>
      </trkpt>
      <trkpt lat="46.86741" lon="-0.23402">
        <ele>100</ele>
        <time>2024-03-10T09:50:53Z</time>
      </trkpt>
      <trkpt lat="46.86743" lon="-0.23408">
        <ele>100</ele>
        <time>2024-03-10T09:50:54Z</time>
      </trkpt>
      <trkpt lat="46.86744" lon="-0.23414">
        <ele>99.8</ele>
        <time>2024-03-10T09:50:55Z</time>
      </trkpt>
      <trkpt lat="46.86744" lon="-0.2342">
        <ele>99.6</ele>
        <time>2024-03-10T09:50:56Z</time>
      </trkpt>
      <trkpt lat="46.86746" lon="-0.23441">
        <ele>99.4</ele>
        <time>2024-03-10T09:50:59Z</time>
      </trkpt>
      <trkpt lat="46.8675" lon="-0.23499">
        <ele>99</ele>
        <time>2024-03-10T09:51:07Z</time>
      </trkpt>
      <trkpt lat="46.86756" lon="-0.23525">
        <ele>98.8</ele>
        <time>2024-03-10T09:51:11Z</time>
      </trkpt>
      <trkpt lat="46.86759" lon="-0.23529">
        <ele>98.8</ele>
        <time>2024-03-10T09:51:12Z</time>
      </trkpt>
      <trkpt lat="46.86762" lon="-0.2353">
        <ele>99</ele>
        <time>2024-03-10T09:51:13Z</time>
      </trkpt>
      <trkpt lat="46.86769" lon="-0.23527">
        <ele>99.2</ele>
        <time>2024-03-10T09:51:15Z</time>
      </trkpt>
      <trkpt lat="46.86808" lon="-0.23508">
        <ele>99.6</ele>
        <time>2024-03-10T09:51:23Z</time>
      </trkpt>
      <trkpt lat="46.86848" lon="-0.23492">
        <ele>99.8</ele>
        <time>2024-03-10T09:51:31Z</time>
      </trkpt>
      <trkpt lat="46.86852" lon="-0.23492">
        <ele>99.8</ele>
        <time>2024-03-10T09:51:32Z</time>
      </trkpt>
      <trkpt lat="46.86856" lon="-0.23495">
        <ele>99.8</ele>
        <time>2024-03-10T09:51:33Z</time>
      </trkpt>
      <trkpt lat="46.86862" lon="-0.23505">
        <ele>99.6</ele>
        <time>2024-03-10T09:51:35Z</time>
      </trkpt>
      <trkpt lat="46.86873" lon="-0.23556">
        <ele>100</ele>
        <time>2024-03-10T09:51:42Z</time>
      </trkpt>
      <trkpt lat="46.86888" lon="-0.23616">
        <ele>99.4</ele>
        <time>2024-03-10T09:51:50Z</time>
      </trkpt>
      <trkpt lat="46.86903" lon="-0.23686">
        <ele>99.4</ele>
        <time>2024-03-10T09:51:59Z</time>
      </trkpt>
      <trkpt lat="46.8691" lon="-0.23719">
        <ele>98.6</ele>
        <time>2024-03-10T09:52:03Z</time>
      </trkpt>
      <trkpt lat="46.86916" lon="-0.23745">
        <ele>98.6</ele>
        <time>2024-03-10T09:52:06Z</time>
      </trkpt>
      <trkpt lat="46.8693" lon="-0.23823">
        <ele>98.2</ele>
        <time>2024-03-10T09:52:15Z</time>
      </trkpt>
      <trkpt lat="46.86934" lon="-0.2385">
        <ele>97.6</ele>
        <time>2024-03-10T09:52:18Z</time>
      </trkpt>
      <trkpt lat="46.86939" lon="-0.23886">
        <ele>97.4</ele>
        <time>2024-03-10T09:52:22Z</time>
      </trkpt>
      <trkpt lat="46.86944" lon="-0.23941">
        <ele>96.4</ele>
        <time>2024-03-10T09:52:28Z</time>
      </trkpt>
      <trkpt lat="46.86944" lon="-0.2396">
        <ele>96.2</ele>
        <time>2024-03-10T09:52:30Z</time>
      </trkpt>
      <trkpt lat="46.86944" lon="-0.24028">
        <ele>95.4</ele>
        <time>2024-03-10T09:52:37Z</time>
      </trkpt>
      <trkpt lat="46.86944" lon="-0.24046">
        <ele>95</ele>
        <time>2024-03-10T09:52:39Z</time>
      </trkpt>
      <trkpt lat="46.86944" lon="-0.24073">
        <ele>94.8</ele>
        <time>2024-03-10T09:52:42Z</time>
      </trkpt>
      <trkpt lat="46.86941" lon="-0.2409">
        <ele>94.2</ele>
        <time>2024-03-10T09:52:44Z</time>
      </trkpt>
      <trkpt lat="46.86924" lon="-0.24115">
        <ele>93.8</ele>
        <time>2024-03-10T09:52:48Z</time>
      </trkpt>
      <trkpt lat="46.86888" lon="-0.24149">
        <ele>93.4</ele>
        <time>2024-03-10T09:52:55Z</time>
      </trkpt>
      <trkpt lat="46.86854" lon="-0.24171">
        <ele>93.2</ele>
        <time>2024-03-10T09:53:01Z</time>
      </trkpt>
      <trkpt lat="46.86848" lon="-0.24174">
        <ele>93.2</ele>
        <time>2024-03-10T09:53:02Z</time>
      </trkpt>
      <trkpt lat="46.86813" lon="-0.24198">
        <ele>92.4</ele>
        <time>2024-03-10T09:53:09Z</time>
      </trkpt>
      <trkpt lat="46.86809" lon="-0.24201">
        <ele>92.2</ele>
        <time>2024-03-10T09:53:10Z</time>
      </trkpt>
      <trkpt lat="46.86807" lon="-0.24209">
        <ele>92.2</ele>
        <time>2024-03-10T09:53:12Z</time>
      </trkpt>
      <trkpt lat="46.86814" lon="-0.24224">
        <ele>91.6</ele>
        <time>2024-03-10T09:53:15Z</time>
      </trkpt>
      <trkpt lat="46.86843" lon="-0.24266">
        <ele>91.6</ele>
        <time>2024-03-10T09:53:22Z</time>
      </trkpt>
      <trkpt lat="46.86867" lon="-0.2431">
        <ele>91</ele>
        <time>2024-03-10T09:53:28Z</time>
      </trkpt>
      <trkpt lat="46.8688" lon="-0.2435">
        <ele>90.4</ele>
        <time>2024-03-10T09:53:33Z</time>
      </trkpt>
      <trkpt lat="46.86881" lon="-0.24357">
        <ele>90.2</ele>
        <time>2024-03-10T09:53:34Z</time>
      </trkpt>
      <trkpt lat="46.86881" lon="-0.24364">
        <ele>90.2</ele>
        <time>2024-03-10T09:53:35Z</time>
      </trkpt>
      <trkpt lat="46.86877" lon="-0.24375">
        <ele>89.8</ele>
        <time>2024-03-10T09:53:37Z</time>
      </trkpt>
      <trkpt lat="46.86873" lon="-0.24387">
        <ele>89.4</ele>
        <time>2024-03-10T09:53:39Z</time>
      </trkpt>
      <trkpt lat="46.86874" lon="-0.24394">
        <ele>89.4</ele>
        <time>2024-03-10T09:53:40Z</time>
      </trkpt>
      <trkpt lat="46.86876" lon="-0.244">
        <ele>89.4</ele>
        <time>2024-03-10T09:53:41Z</time>
      </trkpt>
      <trkpt lat="46.86883" lon="-0.2442">
        <ele>89.4</ele>
        <time>2024-03-10T09:53:44Z</time>
      </trkpt>
      <trkpt lat="46.869" lon="-0.24473">
        <ele>89.2</ele>
        <time>2024-03-10T09:53:51Z</time>
      </trkpt>
      <trkpt lat="46.86902" lon="-0.24481">
        <ele>88.8</ele>
        <time>2024-03-10T09:53:52Z</time>
      </trkpt>
      <trkpt lat="46.86905" lon="-0.24489">
        <ele>88.4</ele>
        <time>2024-03-10T09:53:53Z</time>
      </trkpt>
      <trkpt lat="46.86912" lon="-0.24515">
        <ele>87.6</ele>
        <time>2024-03-10T09:53:56Z</time>
      </trkpt>
      <trkpt lat="46.86914" lon="-0.24523">
        <ele>87.2</ele>
        <time>2024-03-10T09:53:57Z</time>
      </trkpt>
      <trkpt lat="46.86917" lon="-0.24531">
        <ele>86.6</ele>
        <time>2024-03-10T09:53:58Z</time>
      </trkpt>
      <trkpt lat="46.86921" lon="-0.24537">
        <ele>86</ele>
        <time>2024-03-10T09:53:59Z</time>
      </trkpt>
      <trkpt lat="46.86926" lon="-0.24543">
        <ele>85.6</ele>
        <time>2024-03-10T09:54:00Z</time>
      </trkpt>
      <trkpt lat="46.86932" lon="-0.24547">
        <ele>85</ele>
        <time>2024-03-10T09:54:01Z</time>
      </trkpt>
      <trkpt lat="46.86939" lon="-0.24549">
        <ele>84.4</ele>
        <time>2024-03-10T09:54:02Z</time>
      </trkpt>
      <trkpt lat="46.86954" lon="-0.24547">
        <ele>82.6</ele>
        <time>2024-03-10T09:54:04Z</time>
      </trkpt>
      <trkpt lat="46.8697" lon="-0.24537">
        <ele>81</ele>
        <time>2024-03-10T09:54:06Z</time>
      </trkpt>
      <trkpt lat="46.86978" lon="-0.2453">
        <ele>80.4</ele>
        <time>2024-03-10T09:54:07Z</time>
      </trkpt>
      <trkpt lat="46.86993" lon="-0.24515">
        <ele>79.6</ele>
        <time>2024-03-10T09:54:09Z</time>
      </trkpt>
      <trkpt lat="46.87005" lon="-0.24501">
        <ele>78.4</ele>
        <time>2024-03-10T09:54:11Z</time>
      </trkpt>
      <trkpt lat="46.87011" lon="-0.24497">
        <ele>77.4</ele>
        <time>2024-03-10T09:54:12Z</time>
      </trkpt>
      <trkpt lat="46.87018" lon="-0.24493">
        <ele>76.6</ele>
        <time>2024-03-10T09:54:13Z</time>
      </trkpt>
      <trkpt lat="46.87032" lon="-0.24489">
        <ele>74.6</ele>
        <time>2024-03-10T09:54:15Z</time>
      </trkpt>
      <trkpt lat="46.8704" lon="-0.24486">
        <ele>73.6</ele>
        <time>2024-03-10T09:54:16Z</time>
      </trkpt>
      <trkpt lat="46.87047" lon="-0.24482">
        <ele>73</ele>
        <time>2024-03-10T09:54:17Z</time>
      </trkpt>
      <trkpt lat="46.87054" lon="-0.2448">
        <ele>72.2</ele>
        <time>2024-03-10T09:54:18Z</time>
      </trkpt>
      <trkpt lat="46.87059" lon="-0.24482">
        <ele>71.4</ele>
        <time>2024-03-10T09:54:19Z</time>
      </trkpt>
      <trkpt lat="46.87063" lon="-0.24486">
        <ele>70.6</ele>
        <time>2024-03-10T09:54:20Z</time>
      </trkpt>
      <trkpt lat="46.87066" lon="-0.24492">
        <ele>70.2</ele>
        <time>2024-03-10T09:54:21Z</time>
      </trkpt>
      <trkpt lat="46.87068" lon="-0.24499">
        <ele>69.8</ele>
        <time>2024-03-10T09:54:22Z</time>
      </trkpt>
      <trkpt lat="46.87074" lon="-0.24512">
        <ele>69.6</ele>
        <time>2024-03-10T09:54:24Z</time>
      </trkpt>
      <trkpt lat="46.87086" lon="-0.24534">
        <ele>70</ele>
        <time>2024-03-10T09:54:29Z</time>
      </trkpt>
      <trkpt lat="46.8709" lon="-0.24554">
        <ele>71.2</ele>
        <time>2024-03-10T09:54:33Z</time>
      </trkpt>
      <trkpt lat="46.87091" lon="-0.24563">
        <ele>71.2</ele>
        <time>2024-03-10T09:54:35Z</time>
      </trkpt>
      <trkpt lat="46.87092" lon="-0.24583">
        <ele>72.2</ele>
        <time>2024-03-10T09:54:40Z</time>
      </trkpt>
      <trkpt lat="46.87092" lon="-0.24587">
        <ele>72.6</ele>
        <time>2024-03-10T09:54:41Z</time>
      </trkpt>
      <trkpt lat="46.87092" lon="-0.24599">
        <ele>73.6</ele>
        <time>2024-03-10T09:54:44Z</time>
      </trkpt>
      <trkpt lat="46.87092" lon="-0.24614">
        <ele>74.8</ele>
        <time>2024-03-10T09:54:48Z</time>
      </trkpt>
      <trkpt lat="46.87093" lon="-0.24617">
        <ele>75.2</ele>
        <time>2024-03-10T09:54:49Z</time>
      </trkpt>
      <trkpt lat="46.87093" lon="-0.24621">
        <ele>76</ele>
        <time>2024-03-10T09:54:51Z</time>
      </trkpt>
      <trkpt lat="46.87097" lon="-0.24638">
        <ele>77</ele>
        <time>2024-03-10T09:54:55Z</time>
      </trkpt>
      <trkpt lat="46.87099" lon="-0.24645">
        <ele>77.6</ele>
        <time>2024-03-10T09:54:57Z</time>
      </trkpt>
      <trkpt lat="46.871" lon="-0.24652">
        <ele>78.2</ele>
        <time>2024-03-10T09:54:59Z</time>
      </trkpt>
      <trkpt lat="46.87102" lon="-0.24662">
        <ele>79.6</ele>
        <time>2024-03-10T09:55:02Z</time>
      </trkpt>
      <trkpt lat="46.87104" lon="-0.24671">
        <ele>80.2</ele>
        <time>2024-03-10T09:55:05Z</time>
      </trkpt>
      <trkpt lat="46.87105" lon="-0.24678">
        <ele>80.8</ele>
        <time>2024-03-10T09:55:07Z</time>
      </trkpt>
      <trkpt lat="46.87107" lon="-0.24691">
        <ele>82</ele>
        <time>2024-03-10T09:55:11Z</time>
      </trkpt>
      <trkpt lat="46.87109" lon="-0.24704">
        <ele>83</ele>
        <time>2024-03-10T09:55:15Z</time>
      </trkpt>
      <trkpt lat="46.87112" lon="-0.24721">
        <ele>83.8</ele>
        <time>2024-03-10T09:55:20Z</time>
      </trkpt>
      <trkpt lat="46.87114" lon="-0.24728">
        <ele>84.2</ele>
        <time>2024-03-10T09:55:22Z</time>
      </trkpt>
      <trkpt lat="46.87118" lon="-0.24751">
        <ele>85.2</ele>
        <time>2024-03-10T09:55:28Z</time>
      </trkpt>
      <trkpt lat="46.87119" lon="-0.24755">
        <ele>85.4</ele>
        <time>2024-03-10T09:55:29Z</time>
      </trkpt>
      <trkpt lat="46.87123" lon="-0.2479">
        <ele>85.6</ele>
        <time>2024-03-10T09:55:36Z</time>
      </trkpt>
      <trkpt lat="46.87129" lon="-0.24845">
        <ele>85</ele>
        <time>2024-03-10T09:55:45Z</time>
      </trkpt>
      <trkpt lat="46.87129" lon="-0.24882">
        <ele>85.2</ele>
        <time>2024-03-10T09:55:51Z</time>
      </trkpt>
      <trkpt lat="46.87129" lon="-0.24888">
        <ele>85.2</ele>
        <time>2024-03-10T09:55:52Z</time>
      </trkpt>
      <trkpt lat="46.87122" lon="-0.24922">
        <ele>86</ele>
        <time>2024-03-10T09:55:58Z</time>
      </trkpt>
      <trkpt lat="46.8712" lon="-0.24932">
        <ele>86.4</ele>
        <time>2024-03-10T09:56:00Z</time>
      </trkpt>
      <trkpt lat="46.8712" lon="-0.24948">
        <ele>87.2</ele>
        <time>2024-03-10T09:56:03Z</time>
      </trkpt>
      <trkpt lat="46.8712" lon="-0.24954">
        <ele>87.6</ele>
        <time>2024-03-10T09:56:04Z</time>
      </trkpt>
      <trkpt lat="46.87121" lon="-0.24977">
        <ele>88.8</ele>
        <time>2024-03-10T09:56:08Z</time>
      </trkpt>
      <trkpt lat="46.87121" lon="-0.24983">
        <ele>88.8</ele>
        <time>2024-03-10T09:56:09Z</time>
      </trkpt>
      <trkpt lat="46.87123" lon="-0.25008">
        <ele>89</ele>
        <time>2024-03-10T09:56:13Z</time>
      </trkpt>
      <trkpt lat="46.87126" lon="-0.25026">
        <ele>88.8</ele>
        <time>2024-03-10T09:56:16Z</time>
      </trkpt>
      <trkpt lat="46.87134" lon="-0.25065">
        <ele>89.4</ele>
        <time>2024-03-10T09:56:23Z</time>
      </trkpt>
      <trkpt lat="46.87137" lon="-0.2508">
        <ele>89.8</ele>
        <time>2024-03-10T09:56:27Z</time>
      </trkpt>
      <trkpt lat="46.87138" lon="-0.25088">
        <ele>90</ele>
        <time>2024-03-10T09:56:29Z</time>
      </trkpt>
      <trkpt lat="46.87137" lon="-0.25091">
        <ele>90</ele>
        <time>2024-03-10T09:56:30Z</time>
      </trkpt>
      <trkpt lat="46.87135" lon="-0.25104">
        <ele>90.8</ele>
        <time>2024-03-10T09:56:34Z</time>
      </trkpt>
      <trkpt lat="46.87134" lon="-0.25107">
        <ele>90.8</ele>
        <time>2024-03-10T09:56:35Z</time>
      </trkpt>
      <trkpt lat="46.87136" lon="-0.25122">
        <ele>91.4</ele>
        <time>2024-03-10T09:56:40Z</time>
      </trkpt>
      <trkpt lat="46.87138" lon="-0.25129">
        <ele>91.8</ele>
        <time>2024-03-10T09:56:42Z</time>
      </trkpt>
      <trkpt lat="46.87138" lon="-0.25141">
        <ele>92.8</ele>
        <time>2024-03-10T09:56:46Z</time>
      </trkpt>
      <trkpt lat="46.87138" lon="-0.25145">
        <ele>93.2</ele>
        <time>2024-03-10T09:56:47Z</time>
      </trkpt>
      <trkpt lat="46.87141" lon="-0.25162">
        <ele>93.8</ele>
        <time>2024-03-10T09:56:51Z</time>
      </trkpt>
      <trkpt lat="46.87142" lon="-0.25175">
        <ele>94.4</ele>
        <time>2024-03-10T09:56:54Z</time>
      </trkpt>
      <trkpt lat="46.87141" lon="-0.25186">
        <ele>95</ele>
        <time>2024-03-10T09:56:57Z</time>
      </trkpt>
      <trkpt lat="46.87137" lon="-0.25194">
        <ele>95.4</ele>
        <time>2024-03-10T09:57:00Z</time>
      </trkpt>
      <trkpt lat="46.87131" lon="-0.25201">
        <ele>95.8</ele>
        <time>2024-03-10T09:57:03Z</time>
      </trkpt>
      <trkpt lat="46.87123" lon="-0.25208">
        <ele>96.4</ele>
        <time>2024-03-10T09:57:07Z</time>
      </trkpt>
      <trkpt lat="46.87119" lon="-0.25211">
        <ele>96.8</ele>
        <time>2024-03-10T09:57:09Z</time>
      </trkpt>
      <trkpt lat="46.87112" lon="-0.25215">
        <ele>97.6</ele>
        <time>2024-03-10T09:57:12Z</time>
      </trkpt>
      <trkpt lat="46.87101" lon="-0.25221">
        <ele>98.6</ele>
        <time>2024-03-10T09:57:17Z</time>
      </trkpt>
      <trkpt lat="46.87099" lon="-0.25222">
        <ele>98.6</ele>
        <time>2024-03-10T09:57:18Z</time>
      </trkpt>
      <trkpt lat="46.87085" lon="-0.25228">
        <ele>99.6</ele>
        <time>2024-03-10T09:57:24Z</time>
      </trkpt>
      <trkpt lat="46.87082" lon="-0.25229">
        <ele>99.8</ele>
        <time>2024-03-10T09:57:25Z</time>
      </trkpt>
      <trkpt lat="46.87064" lon="-0.25233">
        <ele>100.6</ele>
        <time>2024-03-10T09:57:31Z</time>
      </trkpt>
      <trkpt lat="46.87061" lon="-0.25234">
        <ele>100.8</ele>
        <time>2024-03-10T09:57:32Z</time>
      </trkpt>
      <trkpt lat="46.87044" lon="-0.25243">
        <ele>101.6</ele>
        <time>2024-03-10T09:57:37Z</time>
      </trkpt>
      <trkpt lat="46.87037" lon="-0.25247">
        <ele>101.4</ele>
        <time>2024-03-10T09:57:39Z</time>
      </trkpt>
      <trkpt lat="46.8703" lon="-0.25251">
        <ele>101.2</ele>
        <time>2024-03-10T09:57:41Z</time>
      </trkpt>
      <trkpt lat="46.87028" lon="-0.25254">
        <ele>101</ele>
        <time>2024-03-10T09:57:42Z</time>
      </trkpt>
      <trkpt lat="46.87027" lon="-0.25257">
        <ele>101</ele>
        <time>2024-03-10T09:57:43Z</time>
      </trkpt>
      <trkpt lat="46.87025" lon="-0.25262">
        <ele>100.6</ele>
        <time>2024-03-10T09:57:45Z</time>
      </trkpt>
      <trkpt lat="46.87016" lon="-0.25266">
        <ele>99.8</ele>
        <time>2024-03-10T09:57:49Z</time>
      </trkpt>
      <trkpt lat="46.87013" lon="-0.25265">
        <ele>99.8</ele>
        <time>2024-03-10T09:57:50Z</time>
      </trkpt>
      <trkpt lat="46.86995" lon="-0.25261">
        <ele>99.6</ele>
        <time>2024-03-10T09:57:54Z</time>
      </trkpt>
      <trkpt lat="46.86973" lon="-0.25261">
        <ele>98.8</ele>
        <time>2024-03-10T09:57:58Z</time>
      </trkpt>
      <trkpt lat="46.86968" lon="-0.25263">
        <ele>98.6</ele>
        <time>2024-03-10T09:57:59Z</time>
      </trkpt>
      <trkpt lat="46.86963" lon="-0.25265">
        <ele>98.2</ele>
        <time>2024-03-10T09:58:00Z</time>
      </trkpt>
      <trkpt lat="46.86937" lon="-0.25274">
        <ele>97.8</ele>
        <time>2024-03-10T09:58:05Z</time>
      </trkpt>
      <trkpt lat="46.86921" lon="-0.25279">
        <ele>97.8</ele>
        <time>2024-03-10T09:58:08Z</time>
      </trkpt>
      <trkpt lat="46.86868" lon="-0.25295">
        <ele>97.6</ele>
        <time>2024-03-10T09:58:17Z</time>
      </trkpt>
      <trkpt lat="46.86824" lon="-0.25311">
        <ele>97</ele>
        <time>2024-03-10T09:58:24Z</time>
      </trkpt>
      <trkpt lat="46.86805" lon="-0.2532">
        <ele>96.8</ele>
        <time>2024-03-10T09:58:27Z</time>
      </trkpt>
      <trkpt lat="46.86775" lon="-0.25336">
        <ele>96.4</ele>
        <time>2024-03-10T09:58:32Z</time>
      </trkpt>
      <trkpt lat="46.86758" lon="-0.25342">
        <ele>96.4</ele>
        <time>2024-03-10T09:58:35Z</time>
      </trkpt>
      <trkpt lat="46.86753" lon="-0.25341">
        <ele>96.2</ele>
        <time>2024-03-10T09:58:36Z</time>
      </trkpt>
      <trkpt lat="46.86749" lon="-0.25339">
        <ele>96</ele>
        <time>2024-03-10T09:58:37Z</time>
      </trkpt>
      <trkpt lat="46.8674" lon="-0.25327">
        <ele>95.4</ele>
        <time>2024-03-10T09:58:39Z</time>
      </trkpt>
      <trkpt lat="46.86717" lon="-0.253">
        <ele>94.4</ele>
        <time>2024-03-10T09:58:44Z</time>
      </trkpt>
      <trkpt lat="46.86712" lon="-0.25296">
        <ele>94.4</ele>
        <time>2024-03-10T09:58:45Z</time>
      </trkpt>
      <trkpt lat="46.86682" lon="-0.25279">
        <ele>94.2</ele>
        <time>2024-03-10T09:58:50Z</time>
      </trkpt>
      <trkpt lat="46.86661" lon="-0.25276">
        <ele>93.4</ele>
        <time>2024-03-10T09:58:53Z</time>
      </trkpt>
      <trkpt lat="46.86642" lon="-0.25272">
        <ele>92.6</ele>
        <time>2024-03-10T09:58:56Z</time>
      </trkpt>
      <trkpt lat="46.86615" lon="-0.25266">
        <ele>92.2</ele>
        <time>2024-03-10T09:59:01Z</time>
      </trkpt>
      <trkpt lat="46.86605" lon="-0.25264">
        <ele>92.4</ele>
        <time>2024-03-10T09:59:03Z</time>
      </trkpt>
      <trkpt lat="46.86559" lon="-0.25255">
        <ele>92.8</ele>
        <time>2024-03-10T09:59:12Z</time>
      </trkpt>
      <trkpt lat="46.86517" lon="-0.25249">
        <ele>92</ele>
        <time>2024-03-10T09:59:19Z</time>
      </trkpt>
      <trkpt lat="46.8647" lon="-0.25239">
        <ele>92.2</ele>
        <time>2024-03-10T09:59:27Z</time>
      </trkpt>
      <trkpt lat="46.86436" lon="-0.25234">
        <ele>93.4</ele>
        <time>2024-03-10T09:59:34Z</time>
      </trkpt>
      <trkpt lat="46.86398" lon="-0.25228">
        <ele>94</ele>
        <time>2024-03-10T09:59:43Z</time>
      </trkpt>
      <trkpt lat="46.86389" lon="-0.25226">
        <ele>94.4</ele>
        <time>2024-03-10T09:59:45Z</time>
      </trkpt>
      <trkpt lat="46.86364" lon="-0.25215">
        <ele>94</ele>
        <time>2024-03-10T09:59:50Z</time>
      </trkpt>
      <trkpt lat="46.86352" lon="-0.25207">
        <ele>93.2</ele>
        <time>2024-03-10T09:59:52Z</time>
      </trkpt>
      <trkpt lat="46.86332" lon="-0.25192">
        <ele>92</ele>
        <time>2024-03-10T09:59:55Z</time>
      </trkpt>
      <trkpt lat="46.86313" lon="-0.25178">
        <ele>90.6</ele>
        <time>2024-03-10T09:59:58Z</time>
      </trkpt>
      <trkpt lat="46.86304" lon="-0.2517">
        <ele>89.4</ele>
        <time>2024-03-10T10:00:00Z</time>
      </trkpt>
      <trkpt lat="46.86301" lon="-0.25167">
        <ele>88.4</ele>
        <time>2024-03-10T10:00:01Z</time>
      </trkpt>
      <trkpt lat="46.86295" lon="-0.25163">
        <ele>87.4</ele>
        <time>2024-03-10T10:00:03Z</time>
      </trkpt>
      <trkpt lat="46.86293" lon="-0.2516">
        <ele>87</ele>
        <time>2024-03-10T10:00:04Z</time>
      </trkpt>
      <trkpt lat="46.86287" lon="-0.25151">
        <ele>85.8</ele>
        <time>2024-03-10T10:00:07Z</time>
      </trkpt>
      <trkpt lat="46.86285" lon="-0.25143">
        <ele>84.8</ele>
        <time>2024-03-10T10:00:09Z</time>
      </trkpt>
      <trkpt lat="46.86286" lon="-0.2514">
        <ele>84.6</ele>
        <time>2024-03-10T10:00:10Z</time>
      </trkpt>
      <trkpt lat="46.86287" lon="-0.25132">
        <ele>83.2</ele>
        <time>2024-03-10T10:00:12Z</time>
      </trkpt>
      <trkpt lat="46.8629" lon="-0.25119">
        <ele>82</ele>
        <time>2024-03-10T10:00:14Z</time>
      </trkpt>
      <trkpt lat="46.86293" lon="-0.25104">
        <ele>80.6</ele>
        <time>2024-03-10T10:00:16Z</time>
      </trkpt>
      <trkpt lat="46.86294" lon="-0.25097">
        <ele>80.2</ele>
        <time>2024-03-10T10:00:17Z</time>
      </trkpt>
      <trkpt lat="46.86294" lon="-0.25091">
        <ele>79.8</ele>
        <time>2024-03-10T10:00:18Z</time>
      </trkpt>
      <trkpt lat="46.86292" lon="-0.25087">
        <ele>78.6</ele>
        <time>2024-03-10T10:00:19Z</time>
      </trkpt>
      <trkpt lat="46.86289" lon="-0.25084">
        <ele>77.6</ele>
        <time>2024-03-10T10:00:20Z</time>
      </trkpt>
      <trkpt lat="46.86286" lon="-0.25083">
        <ele>77</ele>
        <time>2024-03-10T10:00:21Z</time>
      </trkpt>
      <trkpt lat="46.86283" lon="-0.25084">
        <ele>76.6</ele>
        <time>2024-03-10T10:00:22Z</time>
      </trkpt>
      <trkpt lat="46.86279" lon="-0.25086">
        <ele>76.4</ele>
        <time>2024-03-10T10:00:23Z</time>
      </trkpt>
      <trkpt lat="46.86271" lon="-0.2509">
        <ele>75</ele>
        <time>2024-03-10T10:00:25Z</time>
      </trkpt>
      <trkpt lat="46.86262" lon="-0.25093">
        <ele>73.8</ele>
        <time>2024-03-10T10:00:27Z</time>
      </trkpt>
      <trkpt lat="46.86254" lon="-0.25095">
        <ele>73</ele>
        <time>2024-03-10T10:00:29Z</time>
      </trkpt>
      <trkpt lat="46.86251" lon="-0.25095">
        <ele>72.4</ele>
        <time>2024-03-10T10:00:30Z</time>
      </trkpt>
      <trkpt lat="46.86249" lon="-0.25094">
        <ele>72.2</ele>
        <time>2024-03-10T10:00:31Z</time>
      </trkpt>
      <trkpt lat="46.86236" lon="-0.25084">
        <ele>72</ele>
        <time>2024-03-10T10:00:35Z</time>
      </trkpt>
      <trkpt lat="46.86216" lon="-0.25072">
        <ele>72.6</ele>
        <time>2024-03-10T10:00:41Z</time>
      </trkpt>
      <trkpt lat="46.8621" lon="-0.25079">
        <ele>72.4</ele>
        <time>2024-03-10T10:00:43Z</time>
      </trkpt>
      <trkpt lat="46.86202" lon="-0.25088">
        <ele>71.8</ele>
        <time>2024-03-10T10:00:45Z</time>
      </trkpt>
      <trkpt lat="46.86194" lon="-0.25093">
        <ele>71.4</ele>
        <time>2024-03-10T10:00:47Z</time>
      </trkpt>
      <trkpt lat="46.8619" lon="-0.25095">
        <ele>71.2</ele>
        <time>2024-03-10T10:00:48Z</time>
      </trkpt>
      <trkpt lat="46.86183" lon="-0.25101">
        <ele>71.4</ele>
        <time>2024-03-10T10:00:50Z</time>
      </trkpt>
      <trkpt lat="46.86173" lon="-0.25108">
        <ele>71.8</ele>
        <time>2024-03-10T10:00:53Z</time>
      </trkpt>
      <trkpt lat="46.86164" lon="-0.25107">
        <ele>72.2</ele>
        <time>2024-03-10T10:00:55Z</time>
      </trkpt>
      <trkpt lat="46.8616" lon="-0.25107">
        <ele>72.4</ele>
        <time>2024-03-10T10:00:56Z</time>
      </trkpt>
      <trkpt lat="46.86148" lon="-0.25104">
        <ele>73.6</ele>
        <time>2024-03-10T10:01:00Z</time>
      </trkpt>
      <trkpt lat="46.86133" lon="-0.25105">
        <ele>74</ele>
        <time>2024-03-10T10:01:03Z</time>
      </trkpt>
      <trkpt lat="46.86123" lon="-0.25106">
        <ele>74.6</ele>
        <time>2024-03-10T10:01:06Z</time>
      </trkpt>
      <trkpt lat="46.86119" lon="-0.2511">
        <ele>75.2</ele>
        <time>2024-03-10T10:01:08Z</time>
      </trkpt>
      <trkpt lat="46.86116" lon="-0.25112">
        <ele>75.6</ele>
        <time>2024-03-10T10:01:09Z</time>
      </trkpt>
      <trkpt lat="46.86111" lon="-0.25122">
        <ele>76.6</ele>
        <time>2024-03-10T10:01:13Z</time>
      </trkpt>
      <trkpt lat="46.8611" lon="-0.25124">
        <ele>76.6</ele>
        <time>2024-03-10T10:01:14Z</time>
      </trkpt>
      <trkpt lat="46.86108" lon="-0.25133">
        <ele>77.8</ele>
        <time>2024-03-10T10:01:19Z</time>
      </trkpt>
      <trkpt lat="46.86108" lon="-0.25134">
        <ele>78.2</ele>
        <time>2024-03-10T10:01:20Z</time>
      </trkpt>
      <trkpt lat="46.86107" lon="-0.25136">
        <ele>79</ele>
        <time>2024-03-10T10:01:22Z</time>
      </trkpt>
      <trkpt lat="46.86106" lon="-0.25138">
        <ele>79.2</ele>
        <time>2024-03-10T10:01:23Z</time>
      </trkpt>
      <trkpt lat="46.86104" lon="-0.25142">
        <ele>80</ele>
        <time>2024-03-10T10:01:26Z</time>
      </trkpt>
      <trkpt lat="46.86103" lon="-0.25143">
        <ele>80.4</ele>
        <time>2024-03-10T10:01:27Z</time>
      </trkpt>
      <trkpt lat="46.86102" lon="-0.25145">
        <ele>81.2</ele>
        <time>2024-03-10T10:01:29Z</time>
      </trkpt>
      <trkpt lat="46.86099" lon="-0.2515">
        <ele>82.4</ele>
        <time>2024-03-10T10:01:33Z</time>
      </trkpt>
      <trkpt lat="46.86096" lon="-0.25153">
        <ele>83.2</ele>
        <time>2024-03-10T10:01:37Z</time>
      </trkpt>
      <trkpt lat="46.86096" lon="-0.25154">
        <ele>83.8</ele>
        <time>2024-03-10T10:01:38Z</time>
      </trkpt>
      <trkpt lat="46.86091" lon="-0.25157">
        <ele>84.8</ele>
        <time>2024-03-10T10:01:42Z</time>
      </trkpt>
      <trkpt lat="46.8609" lon="-0.25158">
        <ele>85</ele>
        <time>2024-03-10T10:01:43Z</time>
      </trkpt>
      <trkpt lat="46.86083" lon="-0.25162">
        <ele>86</ele>
        <time>2024-03-10T10:01:48Z</time>
      </trkpt>
      <trkpt lat="46.86079" lon="-0.25164">
        <ele>86.6</ele>
        <time>2024-03-10T10:01:51Z</time>
      </trkpt>
      <trkpt lat="46.86076" lon="-0.25165">
        <ele>87.2</ele>
        <time>2024-03-10T10:01:53Z</time>
      </trkpt>
      <trkpt lat="46.86071" lon="-0.25172">
        <ele>88</ele>
        <time>2024-03-10T10:01:58Z</time>
      </trkpt>
      <trkpt lat="46.86069" lon="-0.25175">
        <ele>88.2</ele>
        <time>2024-03-10T10:02:00Z</time>
      </trkpt>
      <trkpt lat="46.86068" lon="-0.25179">
        <ele>88.6</ele>
        <time>2024-03-10T10:02:04Z</time>
      </trkpt>
      <trkpt lat="46.86068" lon="-0.25179">
        <ele>88.8</ele>
        <time>2024-03-10T10:02:05Z</time>
      </trkpt>
      <trkpt lat="46.86072" lon="-0.25182">
        <ele>88.8</ele>
        <time>2024-03-10T10:02:07Z</time>
      </trkpt>
      <trkpt lat="46.86073" lon="-0.25184">
        <ele>88.8</ele>
        <time>2024-03-10T10:02:08Z</time>
      </trkpt>
      <trkpt lat="46.86081" lon="-0.25202">
        <ele>88</ele>
        <time>2024-03-10T10:02:12Z</time>
      </trkpt>
      <trkpt lat="46.86082" lon="-0.25209">
        <ele>87.8</ele>
        <time>2024-03-10T10:02:13Z</time>
      </trkpt>
      <trkpt lat="46.86083" lon="-0.25231">
        <ele>87.4</ele>
        <time>2024-03-10T10:02:16Z</time>
      </trkpt>
      <trkpt lat="46.86083" lon="-0.25238">
        <ele>86.8</ele>
        <time>2024-03-10T10:02:17Z</time>
      </trkpt>
      <trkpt lat="46.86084" lon="-0.25242">
        <ele>86.4</ele>
        <time>2024-03-10T10:02:18Z</time>
      </trkpt>
      <trkpt lat="46.86086" lon="-0.25248">
        <ele>85.4</ele>
        <time>2024-03-10T10:02:20Z</time>
      </trkpt>
      <trkpt lat="46.86092" lon="-0.25257">
        <ele>84.4</ele>
        <time>2024-03-10T10:02:23Z</time>
      </trkpt>
      <trkpt lat="46.86094" lon="-0.25261">
        <ele>83.2</ele>
        <time>2024-03-10T10:02:24Z</time>
      </trkpt>
      <trkpt lat="46.86094" lon="-0.25261">
        <ele>83.2</ele>
        <time>2024-03-10T10:02:25Z</time>
      </trkpt>
      <trkpt lat="46.86101" lon="-0.25269">
        <ele>82.8</ele>
        <time>2024-03-10T10:02:26Z</time>
      </trkpt>
      <trkpt lat="46.86105" lon="-0.25272">
        <ele>81.8</ele>
        <time>2024-03-10T10:02:27Z</time>
      </trkpt>
      <trkpt lat="46.86109" lon="-0.25274">
        <ele>80.2</ele>
        <time>2024-03-10T10:02:28Z</time>
      </trkpt>
      <trkpt lat="46.86113" lon="-0.25276">
        <ele>78.8</ele>
        <time>2024-03-10T10:02:29Z</time>
      </trkpt>
      <trkpt lat="46.86117" lon="-0.25279">
        <ele>77.8</ele>
        <time>2024-03-10T10:02:30Z</time>
      </trkpt>
      <trkpt lat="46.86119" lon="-0.25283">
        <ele>77</ele>
        <time>2024-03-10T10:02:31Z</time>
      </trkpt>
      <trkpt lat="46.86122" lon="-0.25289">
        <ele>76.4</ele>
        <time>2024-03-10T10:02:32Z</time>
      </trkpt>
      <trkpt lat="46.86124" lon="-0.25295">
        <ele>76</ele>
        <time>2024-03-10T10:02:33Z</time>
      </trkpt>
      <trkpt lat="46.86131" lon="-0.25318">
        <ele>75.2</ele>
        <time>2024-03-10T10:02:37Z</time>
      </trkpt>
      <trkpt lat="46.86133" lon="-0.25323">
        <ele>75.2</ele>
        <time>2024-03-10T10:02:38Z</time>
      </trkpt>
      <trkpt lat="46.86134" lon="-0.25328">
        <ele>75</ele>
        <time>2024-03-10T10:02:39Z</time>
      </trkpt>
      <trkpt lat="46.8614" lon="-0.25352">
        <ele>74</ele>
        <time>2024-03-10T10:02:45Z</time>
      </trkpt>
      <trkpt lat="46.8614" lon="-0.25364">
        <ele>74</ele>
        <time>2024-03-10T10:02:49Z</time>
      </trkpt>
      <trkpt lat="46.86139" lon="-0.25365">
        <ele>74.2</ele>
        <time>2024-03-10T10:02:50Z</time>
      </trkpt>
      <trkpt lat="46.86134" lon="-0.25372">
        <ele>76</ele>
        <time>2024-03-10T10:02:56Z</time>
      </trkpt>
      <trkpt lat="46.86134" lon="-0.25374">
        <ele>76.2</ele>
        <time>2024-03-10T10:02:57Z</time>
      </trkpt>
      <trkpt lat="46.86133" lon="-0.25382">
        <ele>77.2</ele>
        <time>2024-03-10T10:03:00Z</time>
      </trkpt>
      <trkpt lat="46.86132" lon="-0.2539">
        <ele>78.4</ele>
        <time>2024-03-10T10:03:04Z</time>
      </trkpt>
      <trkpt lat="46.86131" lon="-0.25392">
        <ele>78.6</ele>
        <time>2024-03-10T10:03:05Z</time>
      </trkpt>
      <trkpt lat="46.86124" lon="-0.25394">
        <ele>79</ele>
        <time>2024-03-10T10:03:09Z</time>
      </trkpt>
      <trkpt lat="46.86122" lon="-0.25394">
        <ele>79.4</ele>
        <time>2024-03-10T10:03:11Z</time>
      </trkpt>
      <trkpt lat="46.86114" lon="-0.25396">
        <ele>80</ele>
        <time>2024-03-10T10:03:16Z</time>
      </trkpt>
      <trkpt lat="46.86113" lon="-0.25396">
        <ele>80.4</ele>
        <time>2024-03-10T10:03:17Z</time>
      </trkpt>
      <trkpt lat="46.86106" lon="-0.25397">
        <ele>81.6</ele>
        <time>2024-03-10T10:03:21Z</time>
      </trkpt>
      <trkpt lat="46.861" lon="-0.25397">
        <ele>82</ele>
        <time>2024-03-10T10:03:24Z</time>
      </trkpt>
      <trkpt lat="46.86095" lon="-0.25398">
        <ele>82.6</ele>
        <time>2024-03-10T10:03:28Z</time>
      </trkpt>
      <trkpt lat="46.86088" lon="-0.25398">
        <ele>83</ele>
        <time>2024-03-10T10:03:31Z</time>
      </trkpt>
      <trkpt lat="46.8608" lon="-0.25397">
        <ele>83.6</ele>
        <time>2024-03-10T10:03:35Z</time>
      </trkpt>
      <trkpt lat="46.86068" lon="-0.25397">
        <ele>84.6</ele>
        <time>2024-03-10T10:03:40Z</time>
      </trkpt>
      <trkpt lat="46.86064" lon="-0.25397">
        <ele>84.8</ele>
        <time>2024-03-10T10:03:42Z</time>
      </trkpt>
      <trkpt lat="46.86057" lon="-0.25396">
        <ele>85.2</ele>
        <time>2024-03-10T10:03:45Z</time>
      </trkpt>
      <trkpt lat="46.86049" lon="-0.25395">
        <ele>86</ele>
        <time>2024-03-10T10:03:49Z</time>
      </trkpt>
      <trkpt lat="46.86047" lon="-0.25394">
        <ele>86.2</ele>
        <time>2024-03-10T10:03:50Z</time>
      </trkpt>
      <trkpt lat="46.86034" lon="-0.25393">
        <ele>87.2</ele>
        <time>2024-03-10T10:03:56Z</time>
      </trkpt>
      <trkpt lat="46.86025" lon="-0.25393">
        <ele>88</ele>
        <time>2024-03-10T10:04:00Z</time>
      </trkpt>
      <trkpt lat="46.86018" lon="-0.25393">
        <ele>88.2</ele>
        <time>2024-03-10T10:04:03Z</time>
      </trkpt>
      <trkpt lat="46.86008" lon="-0.25392">
        <ele>89.4</ele>
        <time>2024-03-10T10:04:07Z</time>
      </trkpt>
      <trkpt lat="46.86003" lon="-0.25391">
        <ele>89.8</ele>
        <time>2024-03-10T10:04:09Z</time>
      </trkpt>
      <trkpt lat="46.85999" lon="-0.25389">
        <ele>90.2</ele>
        <time>2024-03-10T10:04:11Z</time>
      </trkpt>
      <trkpt lat="46.85998" lon="-0.25386">
        <ele>90.6</ele>
        <time>2024-03-10T10:04:12Z</time>
      </trkpt>
      <trkpt lat="46.85996" lon="-0.2538">
        <ele>91</ele>
        <time>2024-03-10T10:04:14Z</time>
      </trkpt>
      <trkpt lat="46.85999" lon="-0.25356">
        <ele>91.2</ele>
        <time>2024-03-10T10:04:20Z</time>
      </trkpt>
      <trkpt lat="46.86004" lon="-0.25318">
        <ele>91.6</ele>
        <time>2024-03-10T10:04:28Z</time>
      </trkpt>
      <trkpt lat="46.86004" lon="-0.25313">
        <ele>91.8</ele>
        <time>2024-03-10T10:04:29Z</time>
      </trkpt>
      <trkpt lat="46.86005" lon="-0.25277">
        <ele>92.6</ele>
        <time>2024-03-10T10:04:36Z</time>
      </trkpt>
      <trkpt lat="46.86005" lon="-0.25272">
        <ele>93</ele>
        <time>2024-03-10T10:04:37Z</time>
      </trkpt>
      <trkpt lat="46.86003" lon="-0.2524">
        <ele>93.2</ele>
        <time>2024-03-10T10:04:43Z</time>
      </trkpt>
      <trkpt lat="46.85998" lon="-0.25216">
        <ele>93.4</ele>
        <time>2024-03-10T10:04:49Z</time>
      </trkpt>
      <trkpt lat="46.85989" lon="-0.25185">
        <ele>93</ele>
        <time>2024-03-10T10:04:57Z</time>
      </trkpt>
      <trkpt lat="46.85979" lon="-0.25163">
        <ele>92.6</ele>
        <time>2024-03-10T10:05:03Z</time>
      </trkpt>
      <trkpt lat="46.85978" lon="-0.25146">
        <ele>92.4</ele>
        <time>2024-03-10T10:05:06Z</time>
      </trkpt>
      <trkpt lat="46.85988" lon="-0.25107">
        <ele>91.6</ele>
        <time>2024-03-10T10:05:11Z</time>
      </trkpt>
      <trkpt lat="46.85999" lon="-0.25069">
        <ele>90.4</ele>
        <time>2024-03-10T10:05:15Z</time>
      </trkpt>
      <trkpt lat="46.86002" lon="-0.25057">
        <ele>89.6</ele>
        <time>2024-03-10T10:05:16Z</time>
      </trkpt>
      <trkpt lat="46.86003" lon="-0.25043">
        <ele>89.2</ele>
        <time>2024-03-10T10:05:17Z</time>
      </trkpt>
      <trkpt lat="46.86004" lon="-0.2503">
        <ele>87.8</ele>
        <time>2024-03-10T10:05:18Z</time>
      </trkpt>
      <trkpt lat="46.86006" lon="-0.25003">
        <ele>86.6</ele>
        <time>2024-03-10T10:05:20Z</time>
      </trkpt>
      <trkpt lat="46.86007" lon="-0.24989">
        <ele>86.2</ele>
        <time>2024-03-10T10:05:21Z</time>
      </trkpt>
      <trkpt lat="46.86009" lon="-0.24978">
        <ele>85.4</ele>
        <time>2024-03-10T10:05:22Z</time>
      </trkpt>
      <trkpt lat="46.86013" lon="-0.24969">
        <ele>84.8</ele>
        <time>2024-03-10T10:05:23Z</time>
      </trkpt>
      <trkpt lat="46.86013" lon="-0.24969">
        <ele>84.4</ele>
        <time>2024-03-10T10:05:24Z</time>
      </trkpt>
      <trkpt lat="46.86024" lon="-0.24957">
        <ele>84.4</ele>
        <time>2024-03-10T10:05:25Z</time>
      </trkpt>
      <trkpt lat="46.86035" lon="-0.24948">
        <ele>84.2</ele>
        <time>2024-03-10T10:05:27Z</time>
      </trkpt>
      <trkpt lat="46.86065" lon="-0.2493">
        <ele>84.6</ele>
        <time>2024-03-10T10:05:33Z</time>
      </trkpt>
      <trkpt lat="46.86073" lon="-0.24938">
        <ele>84.6</ele>
        <time>2024-03-10T10:05:35Z</time>
      </trkpt>
      <trkpt lat="46.86077" lon="-0.24945">
        <ele>84.6</ele>
        <time>2024-03-10T10:05:36Z</time>
      </trkpt>
      <trkpt lat="46.86087" lon="-0.2497">
        <ele>84.4</ele>
        <time>2024-03-10T10:05:39Z</time>
      </trkpt>
      <trkpt lat="46.86095" lon="-0.24997">
        <ele>83.2</ele>
        <time>2024-03-10T10:05:42Z</time>
      </trkpt>
      <trkpt lat="46.86098" lon="-0.25015">
        <ele>81.8</ele>
        <time>2024-03-10T10:05:44Z</time>
      </trkpt>
      <trkpt lat="46.86102" lon="-0.25032">
        <ele>80.4</ele>
        <time>2024-03-10T10:05:46Z</time>
      </trkpt>
      <trkpt lat="46.86109" lon="-0.25048">
        <ele>79.8</ele>
        <time>2024-03-10T10:05:48Z</time>
      </trkpt>
      <trkpt lat="46.86113" lon="-0.25055">
        <ele>79.4</ele>
        <time>2024-03-10T10:05:49Z</time>
      </trkpt>
      <trkpt lat="46.86118" lon="-0.25063">
        <ele>78.8</ele>
        <time>2024-03-10T10:05:50Z</time>
      </trkpt>
      <trkpt lat="46.86135" lon="-0.25089">
        <ele>77.4</ele>
        <time>2024-03-10T10:05:54Z</time>
      </trkpt>
      <trkpt lat="46.86145" lon="-0.25101">
        <ele>76.2</ele>
        <time>2024-03-10T10:05:56Z</time>
      </trkpt>
      <trkpt lat="46.86156" lon="-0.25109">
        <ele>75.6</ele>
        <time>2024-03-10T10:05:58Z</time>
      </trkpt>
      <trkpt lat="46.86162" lon="-0.25109">
        <ele>75.2</ele>
        <time>2024-03-10T10:05:59Z</time>
      </trkpt>
      <trkpt lat="46.86167" lon="-0.25107">
        <ele>75</ele>
        <time>2024-03-10T10:06:00Z</time>
      </trkpt>
      <trkpt lat="46.8618" lon="-0.25098">
        <ele>74.2</ele>
        <time>2024-03-10T10:06:02Z</time>
      </trkpt>
      <trkpt lat="46.86187" lon="-0.25094">
        <ele>74</ele>
        <time>2024-03-10T10:06:03Z</time>
      </trkpt>
      <trkpt lat="46.86199" lon="-0.25086">
        <ele>72.8</ele>
        <time>2024-03-10T10:06:05Z</time>
      </trkpt>
      <trkpt lat="46.86207" lon="-0.25075">
        <ele>72</ele>
        <time>2024-03-10T10:06:07Z</time>
      </trkpt>
      <trkpt lat="46.86211" lon="-0.2507">
        <ele>71.8</ele>
        <time>2024-03-10T10:06:08Z</time>
      </trkpt>
      <trkpt lat="46.86214" lon="-0.25068">
        <ele>71.6</ele>
        <time>2024-03-10T10:06:09Z</time>
      </trkpt>
      <trkpt lat="46.86216" lon="-0.25067">
        <ele>71.6</ele>
        <time>2024-03-10T10:06:10Z</time>
      </trkpt>
      <trkpt lat="46.86218" lon="-0.25068">
        <ele>71.8</ele>
        <time>2024-03-10T10:06:11Z</time>
      </trkpt>
      <trkpt lat="46.86223" lon="-0.25074">
        <ele>71.8</ele>
        <time>2024-03-10T10:06:14Z</time>
      </trkpt>
      <trkpt lat="46.86238" lon="-0.25088">
        <ele>72</ele>
        <time>2024-03-10T10:06:20Z</time>
      </trkpt>
      <trkpt lat="46.86252" lon="-0.25089">
        <ele>71.6</ele>
        <time>2024-03-10T10:06:24Z</time>
      </trkpt>
      <trkpt lat="46.86255" lon="-0.25089">
        <ele>71.8</ele>
        <time>2024-03-10T10:06:25Z</time>
      </trkpt>
      <trkpt lat="46.86267" lon="-0.25087">
        <ele>72.6</ele>
        <time>2024-03-10T10:06:32Z</time>
      </trkpt>
      <trkpt lat="46.86271" lon="-0.25084">
        <ele>72.8</ele>
        <time>2024-03-10T10:06:34Z</time>
      </trkpt>
      <trkpt lat="46.8628" lon="-0.25081">
        <ele>74</ele>
        <time>2024-03-10T10:06:39Z</time>
      </trkpt>
      <trkpt lat="46.86282" lon="-0.2508">
        <ele>74.2</ele>
        <time>2024-03-10T10:06:40Z</time>
      </trkpt>
      <trkpt lat="46.86291" lon="-0.25084">
        <ele>75.2</ele>
        <time>2024-03-10T10:06:46Z</time>
      </trkpt>
      <trkpt lat="46.86293" lon="-0.25095">
        <ele>76.4</ele>
        <time>2024-03-10T10:06:51Z</time>
      </trkpt>
      <trkpt lat="46.86293" lon="-0.25099">
        <ele>76.8</ele>
        <time>2024-03-10T10:06:53Z</time>
      </trkpt>
      <trkpt lat="46.86292" lon="-0.25106">
        <ele>77.4</ele>
        <time>2024-03-10T10:06:57Z</time>
      </trkpt>
      <trkpt lat="46.8629" lon="-0.25112">
        <ele>78.4</ele>
        <time>2024-03-10T10:07:01Z</time>
      </trkpt>
      <trkpt lat="46.8629" lon="-0.25114">
        <ele>78.6</ele>
        <time>2024-03-10T10:07:02Z</time>
      </trkpt>
      <trkpt lat="46.86288" lon="-0.25126">
        <ele>79.8</ele>
        <time>2024-03-10T10:07:09Z</time>
      </trkpt>
      <trkpt lat="46.86287" lon="-0.25137">
        <ele>81</ele>
        <time>2024-03-10T10:07:15Z</time>
      </trkpt>
      <trkpt lat="46.86287" lon="-0.25138">
        <ele>81.2</ele>
        <time>2024-03-10T10:07:16Z</time>
      </trkpt>
      <trkpt lat="46.86287" lon="-0.25141">
        <ele>81.6</ele>
        <time>2024-03-10T10:07:18Z</time>
      </trkpt>
      <trkpt lat="46.86288" lon="-0.25145">
        <ele>82</ele>
        <time>2024-03-10T10:07:20Z</time>
      </trkpt>
      <trkpt lat="46.8629" lon="-0.2515">
        <ele>82.8</ele>
        <time>2024-03-10T10:07:23Z</time>
      </trkpt>
      <trkpt lat="46.86291" lon="-0.25151">
        <ele>83</ele>
        <time>2024-03-10T10:07:24Z</time>
      </trkpt>
      <trkpt lat="46.86297" lon="-0.2516">
        <ele>84.2</ele>
        <time>2024-03-10T10:07:30Z</time>
      </trkpt>
      <trkpt lat="46.86298" lon="-0.25163">
        <ele>84.6</ele>
        <time>2024-03-10T10:07:32Z</time>
      </trkpt>
      <trkpt lat="46.86299" lon="-0.25174">
        <ele>85.2</ele>
        <time>2024-03-10T10:07:37Z</time>
      </trkpt>
      <trkpt lat="46.86299" lon="-0.25178">
        <ele>85.6</ele>
        <time>2024-03-10T10:07:39Z</time>
      </trkpt>
      <trkpt lat="46.86297" lon="-0.25192">
        <ele>86.4</ele>
        <time>2024-03-10T10:07:45Z</time>
      </trkpt>
      <trkpt lat="46.86295" lon="-0.25197">
        <ele>86.6</ele>
        <time>2024-03-10T10:07:47Z</time>
      </trkpt>
      <trkpt lat="46.86292" lon="-0.25213">
        <ele>87.4</ele>
        <time>2024-03-10T10:07:53Z</time>
      </trkpt>
      <trkpt lat="46.86291" lon="-0.25219">
        <ele>87.6</ele>
        <time>2024-03-10T10:07:55Z</time>
      </trkpt>
      <trkpt lat="46.86288" lon="-0.2524">
        <ele>88.2</ele>
        <time>2024-03-10T10:08:02Z</time>
      </trkpt>
      <trkpt lat="46.86288" lon="-0.25253">
        <ele>88.6</ele>
        <time>2024-03-10T10:08:06Z</time>
      </trkpt>
      <trkpt lat="46.86288" lon="-0.25266">
        <ele>88.8</ele>
        <time>2024-03-10T10:08:10Z</time>
      </trkpt>
      <trkpt lat="46.86291" lon="-0.25295">
        <ele>89.4</ele>
        <time>2024-03-10T10:08:18Z</time>
      </trkpt>
      <trkpt lat="46.86292" lon="-0.253">
        <ele>89.8</ele>
        <time>2024-03-10T10:08:20Z</time>
      </trkpt>
      <trkpt lat="46.86297" lon="-0.25315">
        <ele>90.2</ele>
        <time>2024-03-10T10:08:26Z</time>
      </trkpt>
      <trkpt lat="46.86304" lon="-0.25337">
        <ele>90.8</ele>
        <time>2024-03-10T10:08:34Z</time>
      </trkpt>
      <trkpt lat="46.86308" lon="-0.25349">
        <ele>92</ele>
        <time>2024-03-10T10:08:39Z</time>
      </trkpt>
      <trkpt lat="46.86312" lon="-0.25364">
        <ele>93.2</ele>
        <time>2024-03-10T10:08:44Z</time>
      </trkpt>
      <trkpt lat="46.86316" lon="-0.25378">
        <ele>94.4</ele>
        <time>2024-03-10T10:08:49Z</time>
      </trkpt>
      <trkpt lat="46.86318" lon="-0.25392">
        <ele>94.6</ele>
        <time>2024-03-10T10:08:53Z</time>
      </trkpt>
      <trkpt lat="46.86321" lon="-0.25426">
        <ele>94.2</ele>
        <time>2024-03-10T10:09:00Z</time>
      </trkpt>
      <trkpt lat="46.86325" lon="-0.25464">
        <ele>94.6</ele>
        <time>2024-03-10T10:09:07Z</time>
      </trkpt>
      <trkpt lat="46.86327" lon="-0.25508">
        <ele>93.6</ele>
        <time>2024-03-10T10:09:13Z</time>
      </trkpt>
      <trkpt lat="46.86328" lon="-0.25532">
        <ele>93.2</ele>
        <time>2024-03-10T10:09:16Z</time>
      </trkpt>
      <trkpt lat="46.86328" lon="-0.25562">
        <ele>92.2</ele>
        <time>2024-03-10T10:09:20Z</time>
      </trkpt>
      <trkpt lat="46.86328" lon="-0.25568">
        <ele>92</ele>
        <time>2024-03-10T10:09:21Z</time>
      </trkpt>
      <trkpt lat="46.86329" lon="-0.25617">
        <ele>92</ele>
        <time>2024-03-10T10:09:28Z</time>
      </trkpt>
      <trkpt lat="46.86331" lon="-0.25652">
        <ele>93.2</ele>
        <time>2024-03-10T10:09:33Z</time>
      </trkpt>
      <trkpt lat="46.86333" lon="-0.2568">
        <ele>93.8</ele>
        <time>2024-03-10T10:09:37Z</time>
      </trkpt>
      <trkpt lat="46.86337" lon="-0.25739">
        <ele>93.8</ele>
        <time>2024-03-10T10:09:46Z</time>
      </trkpt>
      <trkpt lat="46.86339" lon="-0.25765">
        <ele>94.2</ele>
        <time>2024-03-10T10:09:50Z</time>
      </trkpt>
      <trkpt lat="46.86342" lon="-0.25799">
        <ele>95</ele>
        <time>2024-03-10T10:09:55Z</time>
      </trkpt>
      <trkpt lat="46.86343" lon="-0.25815">
        <ele>95.2</ele>
        <time>2024-03-10T10:09:57Z</time>
      </trkpt>
      <trkpt lat="46.86347" lon="-0.25868">
        <ele>95.8</ele>
        <time>2024-03-10T10:10:04Z</time>
      </trkpt>
      <trkpt lat="46.86349" lon="-0.25889">
        <ele>96.4</ele>
        <time>2024-03-10T10:10:07Z</time>
      </trkpt>
      <trkpt lat="46.86352" lon="-0.25948">
        <ele>97.4</ele>
        <time>2024-03-10T10:10:15Z</time>
      </trkpt>
      <trkpt lat="46.86353" lon="-0.25955">
        <ele>97.6</ele>
        <time>2024-03-10T10:10:16Z</time>
      </trkpt>
      <trkpt lat="46.86355" lon="-0.26015">
        <ele>98</ele>
        <time>2024-03-10T10:10:24Z</time>
      </trkpt>
      <trkpt lat="46.86351" lon="-0.26082">
        <ele>97.4</ele>
        <time>2024-03-10T10:10:32Z</time>
      </trkpt>
      <trkpt lat="46.86343" lon="-0.26158">
        <ele>96.8</ele>
        <time>2024-03-10T10:10:40Z</time>
      </trkpt>
      <trkpt lat="46.86341" lon="-0.26177">
        <ele>96.6</ele>
        <time>2024-03-10T10:10:42Z</time>
      </trkpt>
      <trkpt lat="46.8634" lon="-0.26187">
        <ele>96.4</ele>
        <time>2024-03-10T10:10:43Z</time>
      </trkpt>
      <trkpt lat="46.8634" lon="-0.26216">
        <ele>96.2</ele>
        <time>2024-03-10T10:10:46Z</time>
      </trkpt>
      <trkpt lat="46.86337" lon="-0.2627">
        <ele>96.4</ele>
        <time>2024-03-10T10:10:52Z</time>
      </trkpt>
      <trkpt lat="46.86328" lon="-0.2633">
        <ele>96.4</ele>
        <time>2024-03-10T10:10:59Z</time>
      </trkpt>
      <trkpt lat="46.86319" lon="-0.26379">
        <ele>96.8</ele>
        <time>2024-03-10T10:11:05Z</time>
      </trkpt>
      <trkpt lat="46.86309" lon="-0.26428">
        <ele>97.6</ele>
        <time>2024-03-10T10:11:11Z</time>
      </trkpt>
      <trkpt lat="46.86306" lon="-0.26444">
        <ele>97.6</ele>
        <time>2024-03-10T10:11:13Z</time>
      </trkpt>
      <trkpt lat="46.86297" lon="-0.265">
        <ele>98.2</ele>
        <time>2024-03-10T10:11:20Z</time>
      </trkpt>
      <trkpt lat="46.86291" lon="-0.2654">
        <ele>98.6</ele>
        <time>2024-03-10T10:11:25Z</time>
      </trkpt>
      <trkpt lat="46.86289" lon="-0.26557">
        <ele>98.8</ele>
        <time>2024-03-10T10:11:27Z</time>
      </trkpt>
      <trkpt lat="46.86279" lon="-0.26631">
        <ele>99.4</ele>
        <time>2024-03-10T10:11:36Z</time>
      </trkpt>
      <trkpt lat="46.86274" lon="-0.26665">
        <ele>99.6</ele>
        <time>2024-03-10T10:11:40Z</time>
      </trkpt>
      <trkpt lat="46.8627" lon="-0.26699">
        <ele>100</ele>
        <time>2024-03-10T10:11:44Z</time>
      </trkpt>
      <trkpt lat="46.86262" lon="-0.26757">
        <ele>100.2</ele>
        <time>2024-03-10T10:11:51Z</time>
      </trkpt>
      <trkpt lat="46.86255" lon="-0.26817">
        <ele>100.6</ele>
        <time>2024-03-10T10:11:58Z</time>
      </trkpt>
      <trkpt lat="46.86251" lon="-0.26842">
        <ele>100.6</ele>
        <time>2024-03-10T10:12:01Z</time>
      </trkpt>
      <trkpt lat="46.86246" lon="-0.26884">
        <ele>101.2</ele>
        <time>2024-03-10T10:12:06Z</time>
      </trkpt>
      <trkpt lat="46.86241" lon="-0.26923">
        <ele>101.6</ele>
        <time>2024-03-10T10:12:11Z</time>
      </trkpt>
      <trkpt lat="46.86238" lon="-0.26945">
        <ele>101.8</ele>
        <time>2024-03-10T10:12:14Z</time>
      </trkpt>
      <trkpt lat="46.8623" lon="-0.27005">
        <ele>102.6</ele>
        <time>2024-03-10T10:12:22Z</time>
      </trkpt>
      <trkpt lat="46.86227" lon="-0.27028">
        <ele>102.8</ele>
        <time>2024-03-10T10:12:25Z</time>
      </trkpt>
      <trkpt lat="46.86224" lon="-0.27057">
        <ele>102.8</ele>
        <time>2024-03-10T10:12:29Z</time>
      </trkpt>
      <trkpt lat="46.86217" lon="-0.27119">
        <ele>103.2</ele>
        <time>2024-03-10T10:12:37Z</time>
      </trkpt>
      <trkpt lat="46.86214" lon="-0.27156">
        <ele>104</ele>
        <time>2024-03-10T10:12:43Z</time>
      </trkpt>
      <trkpt lat="46.86214" lon="-0.2716">
        <ele>104.2</ele>
        <time>2024-03-10T10:12:44Z</time>
      </trkpt>
      <trkpt lat="46.86218" lon="-0.27178">
        <ele>104.6</ele>
        <time>2024-03-10T10:12:47Z</time>
      </trkpt>
      <trkpt lat="46.86221" lon="-0.27199">
        <ele>104.6</ele>
        <time>2024-03-10T10:12:50Z</time>
      </trkpt>
      <trkpt lat="46.86217" lon="-0.2721">
        <ele>104.8</ele>
        <time>2024-03-10T10:12:52Z</time>
      </trkpt>
      <trkpt lat="46.86213" lon="-0.27213">
        <ele>105</ele>
        <time>2024-03-10T10:12:53Z</time>
      </trkpt>
      <trkpt lat="46.86208" lon="-0.27214">
        <ele>105.6</ele>
        <time>2024-03-10T10:12:54Z</time>
      </trkpt>
      <trkpt lat="46.86203" lon="-0.27215">
        <ele>105.8</ele>
        <time>2024-03-10T10:12:55Z</time>
      </trkpt>
      <trkpt lat="46.86194" lon="-0.2722">
        <ele>105.8</ele>
        <time>2024-03-10T10:12:57Z</time>
      </trkpt>
      <trkpt lat="46.86185" lon="-0.27228">
        <ele>106</ele>
        <time>2024-03-10T10:12:59Z</time>
      </trkpt>
      <trkpt lat="46.86172" lon="-0.27242">
        <ele>106.2</ele>
        <time>2024-03-10T10:13:02Z</time>
      </trkpt>
      <trkpt lat="46.86152" lon="-0.27264">
        <ele>106.6</ele>
        <time>2024-03-10T10:13:07Z</time>
      </trkpt>
      <trkpt lat="46.86135" lon="-0.27282">
        <ele>107.2</ele>
        <time>2024-03-10T10:13:11Z</time>
      </trkpt>
      <trkpt lat="46.86122" lon="-0.27293">
        <ele>107.4</ele>
        <time>2024-03-10T10:13:14Z</time>
      </trkpt>
      <trkpt lat="46.86114" lon="-0.27299">
        <ele>107.6</ele>
        <time>2024-03-10T10:13:16Z</time>
      </trkpt>
      <trkpt lat="46.86106" lon="-0.27307">
        <ele>108.2</ele>
        <time>2024-03-10T10:13:18Z</time>
      </trkpt>
      <trkpt lat="46.86099" lon="-0.27316">
        <ele>108.4</ele>
        <time>2024-03-10T10:13:20Z</time>
      </trkpt>
      <trkpt lat="46.86071" lon="-0.27343">
        <ele>108.8</ele>
        <time>2024-03-10T10:13:27Z</time>
      </trkpt>
      <trkpt lat="46.86047" lon="-0.27366">
        <ele>109.2</ele>
        <time>2024-03-10T10:13:33Z</time>
      </trkpt>
      <trkpt lat="46.86019" lon="-0.27391">
        <ele>108.6</ele>
        <time>2024-03-10T10:13:39Z</time>
      </trkpt>
      <trkpt lat="46.86015" lon="-0.27396">
        <ele>108.6</ele>
        <time>2024-03-10T10:13:40Z</time>
      </trkpt>
      <trkpt lat="46.86007" lon="-0.27409">
        <ele>108.6</ele>
        <time>2024-03-10T10:13:42Z</time>
      </trkpt>
      <trkpt lat="46.86" lon="-0.27424">
        <ele>108.8</ele>
        <time>2024-03-10T10:13:44Z</time>
      </trkpt>
      <trkpt lat="46.85972" lon="-0.27473">
        <ele>108.4</ele>
        <time>2024-03-10T10:13:51Z</time>
      </trkpt>
      <trkpt lat="46.85955" lon="-0.2749">
        <ele>108.2</ele>
        <time>2024-03-10T10:13:54Z</time>
      </trkpt>
      <trkpt lat="46.85943" lon="-0.27498">
        <ele>107.8</ele>
        <time>2024-03-10T10:13:56Z</time>
      </trkpt>
      <trkpt lat="46.85937" lon="-0.275">
        <ele>107.6</ele>
        <time>2024-03-10T10:13:57Z</time>
      </trkpt>
      <trkpt lat="46.85924" lon="-0.27503">
        <ele>107.6</ele>
        <time>2024-03-10T10:13:59Z</time>
      </trkpt>
      <trkpt lat="46.85917" lon="-0.27502">
        <ele>107.6</ele>
        <time>2024-03-10T10:14:00Z</time>
      </trkpt>
      <trkpt lat="46.85911" lon="-0.27499">
        <ele>107.6</ele>
        <time>2024-03-10T10:14:01Z</time>
      </trkpt>
      <trkpt lat="46.85897" lon="-0.27491">
        <ele>107.4</ele>
        <time>2024-03-10T10:14:03Z</time>
      </trkpt>
      <trkpt lat="46.85885" lon="-0.2748">
        <ele>107.2</ele>
        <time>2024-03-10T10:14:05Z</time>
      </trkpt>
      <trkpt lat="46.85866" lon="-0.27467">
        <ele>106.4</ele>
        <time>2024-03-10T10:14:08Z</time>
      </trkpt>
      <trkpt lat="46.85855" lon="-0.27459">
        <ele>106</ele>
        <time>2024-03-10T10:14:10Z</time>
      </trkpt>
      <trkpt lat="46.85831" lon="-0.27445">
        <ele>105.6</ele>
        <time>2024-03-10T10:14:14Z</time>
      </trkpt>
      <trkpt lat="46.85809" lon="-0.27435">
        <ele>105.2</ele>
        <time>2024-03-10T10:14:18Z</time>
      </trkpt>
      <trkpt lat="46.85804" lon="-0.27435">
        <ele>105.2</ele>
        <time>2024-03-10T10:14:19Z</time>
      </trkpt>
      <trkpt lat="46.85793" lon="-0.27435">
        <ele>105.2</ele>
        <time>2024-03-10T10:14:21Z</time>
      </trkpt>
      <trkpt lat="46.85779" lon="-0.2744">
        <ele>105.2</ele>
        <time>2024-03-10T10:14:24Z</time>
      </trkpt>
      <trkpt lat="46.85762" lon="-0.27447">
        <ele>105.2</ele>
        <time>2024-03-10T10:14:28Z</time>
      </trkpt>
      <trkpt lat="46.85753" lon="-0.27449">
        <ele>105.4</ele>
        <time>2024-03-10T10:14:30Z</time>
      </trkpt>
      <trkpt lat="46.85733" lon="-0.27455">
        <ele>105.6</ele>
        <time>2024-03-10T10:14:34Z</time>
      </trkpt>
      <trkpt lat="46.85723" lon="-0.27456">
        <ele>105.8</ele>
        <time>2024-03-10T10:14:36Z</time>
      </trkpt>
      <trkpt lat="46.85693" lon="-0.27462">
        <ele>106.6</ele>
        <time>2024-03-10T10:14:42Z</time>
      </trkpt>
      <trkpt lat="46.85661" lon="-0.27468">
        <ele>106.6</ele>
        <time>2024-03-10T10:14:48Z</time>
      </trkpt>
      <trkpt lat="46.85635" lon="-0.27471">
        <ele>107</ele>
        <time>2024-03-10T10:14:53Z</time>
      </trkpt>
      <trkpt lat="46.85618" lon="-0.27472">
        <ele>107.4</ele>
        <time>2024-03-10T10:14:56Z</time>
      </trkpt>
      <trkpt lat="46.85596" lon="-0.27475">
        <ele>108.2</ele>
        <time>2024-03-10T10:15:00Z</time>
      </trkpt>
      <trkpt lat="46.85564" lon="-0.27478">
        <ele>108.4</ele>
        <time>2024-03-10T10:15:06Z</time>
      </trkpt>
      <trkpt lat="46.8553" lon="-0.27484">
        <ele>109</ele>
        <time>2024-03-10T10:15:13Z</time>
      </trkpt>
      <trkpt lat="46.85492" lon="-0.27493">
        <ele>108</ele>
        <time>2024-03-10T10:15:20Z</time>
      </trkpt>
      <trkpt lat="46.85468" lon="-0.27498">
        <ele>107.4</ele>
        <time>2024-03-10T10:15:25Z</time>
      </trkpt>
      <trkpt lat="46.8545" lon="-0.27496">
        <ele>107.2</ele>
        <time>2024-03-10T10:15:29Z</time>
      </trkpt>
      <trkpt lat="46.85441" lon="-0.27492">
        <ele>107.4</ele>
        <time>2024-03-10T10:15:31Z</time>
      </trkpt>
      <trkpt lat="46.85409" lon="-0.27472">
        <ele>108</ele>
        <time>2024-03-10T10:15:38Z</time>
      </trkpt>
      <trkpt lat="46.85377" lon="-0.2745">
        <ele>109</ele>
        <time>2024-03-10T10:15:45Z</time>
      </trkpt>
      <trkpt lat="46.85366" lon="-0.27444">
        <ele>109.2</ele>
        <time>2024-03-10T10:15:47Z</time>
      </trkpt>
      <trkpt lat="46.85346" lon="-0.27436">
        <ele>109.4</ele>
        <time>2024-03-10T10:15:51Z</time>
      </trkpt>
      <trkpt lat="46.85329" lon="-0.27433">
        <ele>110</ele>
        <time>2024-03-10T10:15:56Z</time>
      </trkpt>
      <trkpt lat="46.85323" lon="-0.27432">
        <ele>110.4</ele>
        <time>2024-03-10T10:15:58Z</time>
      </trkpt>
      <trkpt lat="46.85316" lon="-0.27431">
        <ele>111.2</ele>
        <time>2024-03-10T10:16:02Z</time>
      </trkpt>
      <trkpt lat="46.85314" lon="-0.27431">
        <ele>111.6</ele>
        <time>2024-03-10T10:16:03Z</time>
      </trkpt>
      <trkpt lat="46.85302" lon="-0.27429">
        <ele>112.2</ele>
        <time>2024-03-10T10:16:08Z</time>
      </trkpt>
      <trkpt lat="46.8529" lon="-0.27425">
        <ele>112.6</ele>
        <time>2024-03-10T10:16:12Z</time>
      </trkpt>
      <trkpt lat="46.85282" lon="-0.27423">
        <ele>113.6</ele>
        <time>2024-03-10T10:16:15Z</time>
      </trkpt>
      <trkpt lat="46.85279" lon="-0.27422">
        <ele>114</ele>
        <time>2024-03-10T10:16:16Z</time>
      </trkpt>
      <trkpt lat="46.85271" lon="-0.27419">
        <ele>114.8</ele>
        <time>2024-03-10T10:16:19Z</time>
      </trkpt>
      <trkpt lat="46.85263" lon="-0.27418">
        <ele>115.8</ele>
        <time>2024-03-10T10:16:23Z</time>
      </trkpt>
      <trkpt lat="46.85262" lon="-0.27417">
        <ele>116</ele>
        <time>2024-03-10T10:16:24Z</time>
      </trkpt>
      <trkpt lat="46.85255" lon="-0.27416">
        <ele>117</ele>
        <time>2024-03-10T10:16:28Z</time>
      </trkpt>
      <trkpt lat="46.85249" lon="-0.27415">
        <ele>118.2</ele>
        <time>2024-03-10T10:16:32Z</time>
      </trkpt>
      <trkpt lat="46.85239" lon="-0.27414">
        <ele>119.4</ele>
        <time>2024-03-10T10:16:39Z</time>
      </trkpt>
      <trkpt lat="46.85237" lon="-0.27414">
        <ele>119.8</ele>
        <time>2024-03-10T10:16:40Z</time>
      </trkpt>
      <trkpt lat="46.85234" lon="-0.27414">
        <ele>120.6</ele>
        <time>2024-03-10T10:16:42Z</time>
      </trkpt>
      <trkpt lat="46.85228" lon="-0.27414">
        <ele>121.2</ele>
        <time>2024-03-10T10:16:46Z</time>
      </trkpt>
      <trkpt lat="46.85221" lon="-0.27413">
        <ele>121.8</ele>
        <time>2024-03-10T10:16:50Z</time>
      </trkpt>
      <trkpt lat="46.85216" lon="-0.27412">
        <ele>122.2</ele>
        <time>2024-03-10T10:16:53Z</time>
      </trkpt>
      <trkpt lat="46.85211" lon="-0.27411">
        <ele>123</ele>
        <time>2024-03-10T10:16:56Z</time>
      </trkpt>
      <trkpt lat="46.85203" lon="-0.2741">
        <ele>124</ele>
        <time>2024-03-10T10:17:01Z</time>
      </trkpt>
      <trkpt lat="46.85201" lon="-0.2741">
        <ele>124</ele>
        <time>2024-03-10T10:17:02Z</time>
      </trkpt>
      <trkpt lat="46.85193" lon="-0.27411">
        <ele>124.8</ele>
        <time>2024-03-10T10:17:07Z</time>
      </trkpt>
      <trkpt lat="46.8519" lon="-0.2741">
        <ele>125.2</ele>
        <time>2024-03-10T10:17:09Z</time>
      </trkpt>
      <trkpt lat="46.85182" lon="-0.2741">
        <ele>126.2</ele>
        <time>2024-03-10T10:17:14Z</time>
      </trkpt>
      <trkpt lat="46.8517" lon="-0.27412">
        <ele>127.2</ele>
        <time>2024-03-10T10:17:19Z</time>
      </trkpt>
      <trkpt lat="46.85168" lon="-0.27412">
        <ele>127.4</ele>
        <time>2024-03-10T10:17:20Z</time>
      </trkpt>
      <trkpt lat="46.85162" lon="-0.27414">
        <ele>127.8</ele>
        <time>2024-03-10T10:17:23Z</time>
      </trkpt>
      <trkpt lat="46.85159" lon="-0.2742">
        <ele>128</ele>
        <time>2024-03-10T10:17:26Z</time>
      </trkpt>
      <trkpt lat="46.85157" lon="-0.27427">
        <ele>128.2</ele>
        <time>2024-03-10T10:17:30Z</time>
      </trkpt>
      <trkpt lat="46.85155" lon="-0.27432">
        <ele>128.8</ele>
        <time>2024-03-10T10:17:33Z</time>
      </trkpt>
      <trkpt lat="46.85154" lon="-0.27439">
        <ele>129.4</ele>
        <time>2024-03-10T10:17:37Z</time>
      </trkpt>
      <trkpt lat="46.85154" lon="-0.27444">
        <ele>129.8</ele>
        <time>2024-03-10T10:17:40Z</time>
      </trkpt>
      <trkpt lat="46.85154" lon="-0.27446">
        <ele>129.8</ele>
        <time>2024-03-10T10:17:41Z</time>
      </trkpt>
      <trkpt lat="46.85156" lon="-0.27459">
        <ele>130.4</ele>
        <time>2024-03-10T10:17:47Z</time>
      </trkpt>
      <trkpt lat="46.85156" lon="-0.27461">
        <ele>130.6</ele>
        <time>2024-03-10T10:17:48Z</time>
      </trkpt>
      <trkpt lat="46.85157" lon="-0.27477">
        <ele>131.4</ele>
        <time>2024-03-10T10:17:54Z</time>
      </trkpt>
      <trkpt lat="46.85158" lon="-0.27483">
        <ele>131.6</ele>
        <time>2024-03-10T10:17:56Z</time>
      </trkpt>
      <trkpt lat="46.85159" lon="-0.27492">
        <ele>132</ele>
        <time>2024-03-10T10:17:59Z</time>
      </trkpt>
      <trkpt lat="46.8516" lon="-0.27506">
        <ele>132.6</ele>
        <time>2024-03-10T10:18:04Z</time>
      </trkpt>
      <trkpt lat="46.8516" lon="-0.27509">
        <ele>132.8</ele>
        <time>2024-03-10T10:18:05Z</time>
      </trkpt>
      <trkpt lat="46.85164" lon="-0.27533">
        <ele>133.8</ele>
        <time>2024-03-10T10:18:13Z</time>
      </trkpt>
      <trkpt lat="46.85164" lon="-0.27535">
        <ele>134</ele>
        <time>2024-03-10T10:18:14Z</time>
      </trkpt>
      <trkpt lat="46.85166" lon="-0.2755">
        <ele>134.8</ele>
        <time>2024-03-10T10:18:20Z</time>
      </trkpt>
      <trkpt lat="46.85165" lon="-0.27558">
        <ele>135.2</ele>
        <time>2024-03-10T10:18:23Z</time>
      </trkpt>
      <trkpt lat="46.85163" lon="-0.27565">
        <ele>135.6</ele>
        <time>2024-03-10T10:18:26Z</time>
      </trkpt>
      <trkpt lat="46.85163" lon="-0.27568">
        <ele>135.8</ele>
        <time>2024-03-10T10:18:27Z</time>
      </trkpt>
      <trkpt lat="46.85158" lon="-0.27584">
        <ele>136.8</ele>
        <time>2024-03-10T10:18:33Z</time>
      </trkpt>
      <trkpt lat="46.85154" lon="-0.27603">
        <ele>137.6</ele>
        <time>2024-03-10T10:18:40Z</time>
      </trkpt>
      <trkpt lat="46.85153" lon="-0.27608">
        <ele>137.8</ele>
        <time>2024-03-10T10:18:42Z</time>
      </trkpt>
      <trkpt lat="46.85148" lon="-0.27626">
        <ele>138.6</ele>
        <time>2024-03-10T10:18:47Z</time>
      </trkpt>
      <trkpt lat="46.85141" lon="-0.2765">
        <ele>138.8</ele>
        <time>2024-03-10T10:18:54Z</time>
      </trkpt>
      <trkpt lat="46.8514" lon="-0.27655">
        <ele>139</ele>
        <time>2024-03-10T10:18:56Z</time>
      </trkpt>
      <trkpt lat="46.85137" lon="-0.27667">
        <ele>139.2</ele>
        <time>2024-03-10T10:19:00Z</time>
      </trkpt>
      <trkpt lat="46.8513" lon="-0.27685">
        <ele>139.4</ele>
        <time>2024-03-10T10:19:06Z</time>
      </trkpt>
      <trkpt lat="46.85119" lon="-0.27704">
        <ele>139.8</ele>
        <time>2024-03-10T10:19:12Z</time>
      </trkpt>
      <trkpt lat="46.85114" lon="-0.27712">
        <ele>140.2</ele>
        <time>2024-03-10T10:19:15Z</time>
      </trkpt>
      <trkpt lat="46.85109" lon="-0.27717">
        <ele>140.2</ele>
        <time>2024-03-10T10:19:17Z</time>
      </trkpt>
      <trkpt lat="46.85096" lon="-0.27738">
        <ele>140.2</ele>
        <time>2024-03-10T10:19:24Z</time>
      </trkpt>
      <trkpt lat="46.85082" lon="-0.27752">
        <ele>139.6</ele>
        <time>2024-03-10T10:19:30Z</time>
      </trkpt>
      <trkpt lat="46.8507" lon="-0.27763">
        <ele>139.2</ele>
        <time>2024-03-10T10:19:34Z</time>
      </trkpt>
      <trkpt lat="46.85067" lon="-0.27765">
        <ele>139</ele>
        <time>2024-03-10T10:19:35Z</time>
      </trkpt>
      <trkpt lat="46.85054" lon="-0.27777">
        <ele>138</ele>
        <time>2024-03-10T10:19:39Z</time>
      </trkpt>
      <trkpt lat="46.8505" lon="-0.2778">
        <ele>137.8</ele>
        <time>2024-03-10T10:19:40Z</time>
      </trkpt>
      <trkpt lat="46.8503" lon="-0.27799">
        <ele>136.8</ele>
        <time>2024-03-10T10:19:46Z</time>
      </trkpt>
      <trkpt lat="46.85027" lon="-0.27805">
        <ele>136.4</ele>
        <time>2024-03-10T10:19:47Z</time>
      </trkpt>
      <trkpt lat="46.85022" lon="-0.27818">
        <ele>135.6</ele>
        <time>2024-03-10T10:19:49Z</time>
      </trkpt>
      <trkpt lat="46.85019" lon="-0.27826">
        <ele>135.4</ele>
        <time>2024-03-10T10:19:50Z</time>
      </trkpt>
      <trkpt lat="46.85014" lon="-0.27841">
        <ele>134.6</ele>
        <time>2024-03-10T10:19:52Z</time>
      </trkpt>
      <trkpt lat="46.85006" lon="-0.27868">
        <ele>133</ele>
        <time>2024-03-10T10:19:55Z</time>
      </trkpt>
      <trkpt lat="46.85003" lon="-0.27878">
        <ele>132.8</ele>
        <time>2024-03-10T10:19:56Z</time>
      </trkpt>
      <trkpt lat="46.84997" lon="-0.27897">
        <ele>131.4</ele>
        <time>2024-03-10T10:19:58Z</time>
      </trkpt>
      <trkpt lat="46.8498" lon="-0.27942">
        <ele>130.4</ele>
        <time>2024-03-10T10:20:03Z</time>
      </trkpt>
      <trkpt lat="46.84974" lon="-0.27959">
        <ele>130.2</ele>
        <time>2024-03-10T10:20:05Z</time>
      </trkpt>
      <trkpt lat="46.84961" lon="-0.27993">
        <ele>129.2</ele>
        <time>2024-03-10T10:20:09Z</time>
      </trkpt>
      <trkpt lat="46.84958" lon="-0.28001">
        <ele>129</ele>
        <time>2024-03-10T10:20:10Z</time>
      </trkpt>
      <trkpt lat="46.8494" lon="-0.28052">
        <ele>128.2</ele>
        <time>2024-03-10T10:20:16Z</time>
      </trkpt>
      <trkpt lat="46.84937" lon="-0.28059">
        <ele>128.2</ele>
        <time>2024-03-10T10:20:17Z</time>
      </trkpt>
      <trkpt lat="46.8493" lon="-0.28066">
        <ele>127.8</ele>
        <time>2024-03-10T10:20:19Z</time>
      </trkpt>
      <trkpt lat="46.8492" lon="-0.28066">
        <ele>127</ele>
        <time>2024-03-10T10:20:21Z</time>
      </trkpt>
      <trkpt lat="46.84913" lon="-0.28064">
        <ele>126.8</ele>
        <time>2024-03-10T10:20:22Z</time>
      </trkpt>
      <trkpt lat="46.84884" lon="-0.28055">
        <ele>125.6</ele>
        <time>2024-03-10T10:20:26Z</time>
      </trkpt>
      <trkpt lat="46.84875" lon="-0.28053">
        <ele>125.2</ele>
        <time>2024-03-10T10:20:27Z</time>
      </trkpt>
      <trkpt lat="46.84859" lon="-0.28045">
        <ele>124.4</ele>
        <time>2024-03-10T10:20:29Z</time>
      </trkpt>
      <trkpt lat="46.84852" lon="-0.2804">
        <ele>123.8</ele>
        <time>2024-03-10T10:20:30Z</time>
      </trkpt>
      <trkpt lat="46.84844" lon="-0.28034">
        <ele>123.4</ele>
        <time>2024-03-10T10:20:31Z</time>
      </trkpt>
      <trkpt lat="46.84837" lon="-0.28028">
        <ele>123</ele>
        <time>2024-03-10T10:20:32Z</time>
      </trkpt>
      <trkpt lat="46.84826" lon="-0.28015">
        <ele>122.4</ele>
        <time>2024-03-10T10:20:34Z</time>
      </trkpt>
      <trkpt lat="46.84822" lon="-0.28013">
        <ele>122</ele>
        <time>2024-03-10T10:20:35Z</time>
      </trkpt>
      <trkpt lat="46.84819" lon="-0.28014">
        <ele>120.8</ele>
        <time>2024-03-10T10:20:36Z</time>
      </trkpt>
      <trkpt lat="46.84817" lon="-0.28021">
        <ele>119.8</ele>
        <time>2024-03-10T10:20:38Z</time>
      </trkpt>
      <trkpt lat="46.84816" lon="-0.28035">
        <ele>118.6</ele>
        <time>2024-03-10T10:20:41Z</time>
      </trkpt>
      <trkpt lat="46.84816" lon="-0.28041">
        <ele>118.6</ele>
        <time>2024-03-10T10:20:42Z</time>
      </trkpt>
      <trkpt lat="46.84816" lon="-0.28048">
        <ele>118.6</ele>
        <time>2024-03-10T10:20:43Z</time>
      </trkpt>
      <trkpt lat="46.84814" lon="-0.2807">
        <ele>118.6</ele>
        <time>2024-03-10T10:20:46Z</time>
      </trkpt>
      <trkpt lat="46.84812" lon="-0.28085">
        <ele>118.8</ele>
        <time>2024-03-10T10:20:48Z</time>
      </trkpt>
      <trkpt lat="46.84801" lon="-0.28133">
        <ele>119.4</ele>
        <time>2024-03-10T10:20:54Z</time>
      </trkpt>
      <trkpt lat="46.84788" lon="-0.28182">
        <ele>119.6</ele>
        <time>2024-03-10T10:21:00Z</time>
      </trkpt>
      <trkpt lat="46.84782" lon="-0.28204">
        <ele>120</ele>
        <time>2024-03-10T10:21:03Z</time>
      </trkpt>
      <trkpt lat="46.84775" lon="-0.28231">
        <ele>120.8</ele>
        <time>2024-03-10T10:21:07Z</time>
      </trkpt>
      <trkpt lat="46.84769" lon="-0.28252">
        <ele>121.2</ele>
        <time>2024-03-10T10:21:10Z</time>
      </trkpt>
      <trkpt lat="46.84753" lon="-0.28302">
        <ele>121.8</ele>
        <time>2024-03-10T10:21:17Z</time>
      </trkpt>
      <trkpt lat="46.8475" lon="-0.2831">
        <ele>121.8</ele>
        <time>2024-03-10T10:21:18Z</time>
      </trkpt>
      <trkpt lat="46.84737" lon="-0.2835">
        <ele>122</ele>
        <time>2024-03-10T10:21:23Z</time>
      </trkpt>
      <trkpt lat="46.84712" lon="-0.28425">
        <ele>122</ele>
        <time>2024-03-10T10:21:32Z</time>
      </trkpt>
      <trkpt lat="46.84691" lon="-0.28504">
        <ele>122</ele>
        <time>2024-03-10T10:21:41Z</time>
      </trkpt>
      <trkpt lat="46.84687" lon="-0.28569">
        <ele>121.8</ele>
        <time>2024-03-10T10:21:48Z</time>
      </trkpt>
      <trkpt lat="46.84686" lon="-0.28617">
        <ele>121.6</ele>
        <time>2024-03-10T10:21:53Z</time>
      </trkpt>
      <trkpt lat="46.84686" lon="-0.28627">
        <ele>121.6</ele>
        <time>2024-03-10T10:21:54Z</time>
      </trkpt>
      <trkpt lat="46.8468" lon="-0.28699">
        <ele>121.4</ele>
        <time>2024-03-10T10:22:01Z</time>
      </trkpt>
      <trkpt lat="46.84674" lon="-0.28742">
        <ele>120.8</ele>
        <time>2024-03-10T10:22:05Z</time>
      </trkpt>
      <trkpt lat="46.84666" lon="-0.28787">
        <ele>120.4</ele>
        <time>2024-03-10T10:22:09Z</time>
      </trkpt>
      <trkpt lat="46.8466" lon="-0.2882">
        <ele>119.6</ele>
        <time>2024-03-10T10:22:12Z</time>
      </trkpt>
      <trkpt lat="46.84649" lon="-0.28888">
        <ele>119</ele>
        <time>2024-03-10T10:22:18Z</time>
      </trkpt>
      <trkpt lat="46.8464" lon="-0.28954">
        <ele>118.6</ele>
        <time>2024-03-10T10:22:24Z</time>
      </trkpt>
      <trkpt lat="46.84638" lon="-0.28964">
        <ele>118.4</ele>
        <time>2024-03-10T10:22:25Z</time>
      </trkpt>
      <trkpt lat="46.84635" lon="-0.28983">
        <ele>117.4</ele>
        <time>2024-03-10T10:22:27Z</time>
      </trkpt>
      <trkpt lat="46.84626" lon="-0.29036">
        <ele>117.2</ele>
        <time>2024-03-10T10:22:32Z</time>
      </trkpt>
      <trkpt lat="46.84625" lon="-0.2908">
        <ele>116.8</ele>
        <time>2024-03-10T10:22:36Z</time>
      </trkpt>
      <trkpt lat="46.84627" lon="-0.2909">
        <ele>116.8</ele>
        <time>2024-03-10T10:22:37Z</time>
      </trkpt>
      <trkpt lat="46.84628" lon="-0.29099">
        <ele>116.8</ele>
        <time>2024-03-10T10:22:38Z</time>
      </trkpt>
      <trkpt lat="46.84638" lon="-0.29137">
        <ele>117</ele>
        <time>2024-03-10T10:22:42Z</time>
      </trkpt>
      <trkpt lat="46.84652" lon="-0.29185">
        <ele>117.4</ele>
        <time>2024-03-10T10:22:48Z</time>
      </trkpt>
      <trkpt lat="46.84656" lon="-0.29193">
        <ele>117.4</ele>
        <time>2024-03-10T10:22:49Z</time>
      </trkpt>
      <trkpt lat="46.8466" lon="-0.29199">
        <ele>117.4</ele>
        <time>2024-03-10T10:22:50Z</time>
      </trkpt>
      <trkpt lat="46.84669" lon="-0.29209">
        <ele>117.8</ele>
        <time>2024-03-10T10:22:52Z</time>
      </trkpt>
      <trkpt lat="46.84674" lon="-0.29213">
        <ele>118</ele>
        <time>2024-03-10T10:22:53Z</time>
      </trkpt>
      <trkpt lat="46.84684" lon="-0.2922">
        <ele>118.4</ele>
        <time>2024-03-10T10:22:55Z</time>
      </trkpt>
      <trkpt lat="46.84704" lon="-0.29233">
        <ele>119.4</ele>
        <time>2024-03-10T10:22:59Z</time>
      </trkpt>
      <trkpt lat="46.84713" lon="-0.2924">
        <ele>119.8</ele>
        <time>2024-03-10T10:23:01Z</time>
      </trkpt>
      <trkpt lat="46.84724" lon="-0.29255">
        <ele>120.4</ele>
        <time>2024-03-10T10:23:04Z</time>
      </trkpt>
      <trkpt lat="46.84733" lon="-0.29272">
        <ele>120.4</ele>
        <time>2024-03-10T10:23:07Z</time>
      </trkpt>
      <trkpt lat="46.84744" lon="-0.293">
        <ele>120.4</ele>
        <time>2024-03-10T10:23:12Z</time>
      </trkpt>
      <trkpt lat="46.84747" lon="-0.29312">
        <ele>120.6</ele>
        <time>2024-03-10T10:23:14Z</time>
      </trkpt>
      <trkpt lat="46.84744" lon="-0.29324">
        <ele>120.6</ele>
        <time>2024-03-10T10:23:16Z</time>
      </trkpt>
      <trkpt lat="46.8474" lon="-0.29329">
        <ele>120.6</ele>
        <time>2024-03-10T10:23:17Z</time>
      </trkpt>
      <trkpt lat="46.84715" lon="-0.29359">
        <ele>119.6</ele>
        <time>2024-03-10T10:23:22Z</time>
      </trkpt>
      <trkpt lat="46.8471" lon="-0.29366">
        <ele>119.2</ele>
        <time>2024-03-10T10:23:23Z</time>
      </trkpt>
      <trkpt lat="46.84688" lon="-0.29396">
        <ele>118.2</ele>
        <time>2024-03-10T10:23:27Z</time>
      </trkpt>
      <trkpt lat="46.84677" lon="-0.29411">
        <ele>117.8</ele>
        <time>2024-03-10T10:23:29Z</time>
      </trkpt>
      <trkpt lat="46.84666" lon="-0.29426">
        <ele>117.2</ele>
        <time>2024-03-10T10:23:31Z</time>
      </trkpt>
      <trkpt lat="46.84646" lon="-0.29455">
        <ele>116</ele>
        <time>2024-03-10T10:23:35Z</time>
      </trkpt>
      <trkpt lat="46.84641" lon="-0.29463">
        <ele>115.8</ele>
        <time>2024-03-10T10:23:36Z</time>
      </trkpt>
      <trkpt lat="46.84621" lon="-0.29492">
        <ele>115</ele>
        <time>2024-03-10T10:23:40Z</time>
      </trkpt>
      <trkpt lat="46.84611" lon="-0.29507">
        <ele>115.2</ele>
        <time>2024-03-10T10:23:42Z</time>
      </trkpt>
      <trkpt lat="46.84575" lon="-0.29558">
        <ele>114.4</ele>
        <time>2024-03-10T10:23:49Z</time>
      </trkpt>
      <trkpt lat="46.84545" lon="-0.29589">
        <ele>114.2</ele>
        <time>2024-03-10T10:23:54Z</time>
      </trkpt>
      <trkpt lat="46.84534" lon="-0.29603">
        <ele>114.2</ele>
        <time>2024-03-10T10:23:56Z</time>
      </trkpt>
      <trkpt lat="46.84515" lon="-0.29632">
        <ele>114</ele>
        <time>2024-03-10T10:24:00Z</time>
      </trkpt>
      <trkpt lat="46.84507" lon="-0.29649">
        <ele>113.4</ele>
        <time>2024-03-10T10:24:02Z</time>
      </trkpt>
      <trkpt lat="46.84503" lon="-0.29659">
        <ele>113.4</ele>
        <time>2024-03-10T10:24:03Z</time>
      </trkpt>
      <trkpt lat="46.84499" lon="-0.29669">
        <ele>113</ele>
        <time>2024-03-10T10:24:04Z</time>
      </trkpt>
      <trkpt lat="46.84497" lon="-0.2968">
        <ele>112.8</ele>
        <time>2024-03-10T10:24:05Z</time>
      </trkpt>
      <trkpt lat="46.84493" lon="-0.29701">
        <ele>111.6</ele>
        <time>2024-03-10T10:24:07Z</time>
      </trkpt>
      <trkpt lat="46.8449" lon="-0.29711">
        <ele>111.2</ele>
        <time>2024-03-10T10:24:08Z</time>
      </trkpt>
      <trkpt lat="46.84482" lon="-0.2973">
        <ele>110.2</ele>
        <time>2024-03-10T10:24:10Z</time>
      </trkpt>
      <trkpt lat="46.84477" lon="-0.29737">
        <ele>110</ele>
        <time>2024-03-10T10:24:11Z</time>
      </trkpt>
      <trkpt lat="46.84458" lon="-0.29757">
        <ele>109</ele>
        <time>2024-03-10T10:24:14Z</time>
      </trkpt>
      <trkpt lat="46.84446" lon="-0.29774">
        <ele>107.8</ele>
        <time>2024-03-10T10:24:16Z</time>
      </trkpt>
      <trkpt lat="46.84439" lon="-0.29793">
        <ele>107</ele>
        <time>2024-03-10T10:24:18Z</time>
      </trkpt>
      <trkpt lat="46.84437" lon="-0.29804">
        <ele>106.6</ele>
        <time>2024-03-10T10:24:19Z</time>
      </trkpt>
      <trkpt lat="46.84431" lon="-0.29823">
        <ele>106.2</ele>
        <time>2024-03-10T10:24:21Z</time>
      </trkpt>
      <trkpt lat="46.84421" lon="-0.2984">
        <ele>105.8</ele>
        <time>2024-03-10T10:24:23Z</time>
      </trkpt>
      <trkpt lat="46.84406" lon="-0.29854">
        <ele>105.2</ele>
        <time>2024-03-10T10:24:25Z</time>
      </trkpt>
      <trkpt lat="46.84397" lon="-0.29862">
        <ele>104.8</ele>
        <time>2024-03-10T10:24:26Z</time>
      </trkpt>
      <trkpt lat="46.8439" lon="-0.2987">
        <ele>104</ele>
        <time>2024-03-10T10:24:27Z</time>
      </trkpt>
      <trkpt lat="46.84382" lon="-0.29879">
        <ele>103</ele>
        <time>2024-03-10T10:24:28Z</time>
      </trkpt>
      <trkpt lat="46.84366" lon="-0.29897">
        <ele>101.2</ele>
        <time>2024-03-10T10:24:30Z</time>
      </trkpt>
      <trkpt lat="46.84359" lon="-0.29906">
        <ele>99.8</ele>
        <time>2024-03-10T10:24:31Z</time>
      </trkpt>
      <trkpt lat="46.84343" lon="-0.29923">
        <ele>98.4</ele>
        <time>2024-03-10T10:24:33Z</time>
      </trkpt>
      <trkpt lat="46.84321" lon="-0.29947">
        <ele>97</ele>
        <time>2024-03-10T10:24:36Z</time>
      </trkpt>
      <trkpt lat="46.84306" lon="-0.29964">
        <ele>96</ele>
        <time>2024-03-10T10:24:38Z</time>
      </trkpt>
      <trkpt lat="46.84299" lon="-0.29971">
        <ele>95.6</ele>
        <time>2024-03-10T10:24:39Z</time>
      </trkpt>
      <trkpt lat="46.84291" lon="-0.29977">
        <ele>94.8</ele>
        <time>2024-03-10T10:24:40Z</time>
      </trkpt>
      <trkpt lat="46.84285" lon="-0.29981">
        <ele>94.2</ele>
        <time>2024-03-10T10:24:41Z</time>
      </trkpt>
      <trkpt lat="46.84281" lon="-0.29984">
        <ele>93.8</ele>
        <time>2024-03-10T10:24:42Z</time>
      </trkpt>
      <trkpt lat="46.84278" lon="-0.29987">
        <ele>92.8</ele>
        <time>2024-03-10T10:24:43Z</time>
      </trkpt>
      <trkpt lat="46.84277" lon="-0.29989">
        <ele>92</ele>
        <time>2024-03-10T10:24:44Z</time>
      </trkpt>
      <trkpt lat="46.84277" lon="-0.29991">
        <ele>91</ele>
        <time>2024-03-10T10:24:45Z</time>
      </trkpt>
      <trkpt lat="46.84277" lon="-0.29993">
        <ele>90.6</ele>
        <time>2024-03-10T10:24:46Z</time>
      </trkpt>
      <trkpt lat="46.84279" lon="-0.29998">
        <ele>90</ele>
        <time>2024-03-10T10:24:48Z</time>
      </trkpt>
      <trkpt lat="46.84287" lon="-0.30012">
        <ele>90.2</ele>
        <time>2024-03-10T10:24:52Z</time>
      </trkpt>
      <trkpt lat="46.84301" lon="-0.30049">
        <ele>91</ele>
        <time>2024-03-10T10:24:58Z</time>
      </trkpt>
      <trkpt lat="46.84307" lon="-0.30062">
        <ele>91.2</ele>
        <time>2024-03-10T10:25:00Z</time>
      </trkpt>
      <trkpt lat="46.84309" lon="-0.30069">
        <ele>91.6</ele>
        <time>2024-03-10T10:25:01Z</time>
      </trkpt>
      <trkpt lat="46.84315" lon="-0.30083">
        <ele>92</ele>
        <time>2024-03-10T10:25:03Z</time>
      </trkpt>
      <trkpt lat="46.84322" lon="-0.30097">
        <ele>92.2</ele>
        <time>2024-03-10T10:25:05Z</time>
      </trkpt>
      <trkpt lat="46.84333" lon="-0.30114">
        <ele>92.2</ele>
        <time>2024-03-10T10:25:08Z</time>
      </trkpt>
      <trkpt lat="46.84343" lon="-0.30127">
        <ele>92.2</ele>
        <time>2024-03-10T10:25:11Z</time>
      </trkpt>
      <trkpt lat="46.8435" lon="-0.30134">
        <ele>92.2</ele>
        <time>2024-03-10T10:25:13Z</time>
      </trkpt>
      <trkpt lat="46.84366" lon="-0.30152">
        <ele>92.4</ele>
        <time>2024-03-10T10:25:19Z</time>
      </trkpt>
      <trkpt lat="46.84377" lon="-0.30163">
        <ele>92.8</ele>
        <time>2024-03-10T10:25:24Z</time>
      </trkpt>
      <trkpt lat="46.84381" lon="-0.30167">
        <ele>93</ele>
        <time>2024-03-10T10:25:26Z</time>
      </trkpt>
      <trkpt lat="46.8439" lon="-0.30172">
        <ele>93.8</ele>
        <time>2024-03-10T10:25:31Z</time>
      </trkpt>
      <trkpt lat="46.84395" lon="-0.30172">
        <ele>94.6</ele>
        <time>2024-03-10T10:25:34Z</time>
      </trkpt>
      <trkpt lat="46.84399" lon="-0.30173">
        <ele>94.8</ele>
        <time>2024-03-10T10:25:36Z</time>
      </trkpt>
      <trkpt lat="46.84408" lon="-0.30174">
        <ele>96</ele>
        <time>2024-03-10T10:25:40Z</time>
      </trkpt>
      <trkpt lat="46.84412" lon="-0.30175">
        <ele>96.6</ele>
        <time>2024-03-10T10:25:43Z</time>
      </trkpt>
      <trkpt lat="46.84417" lon="-0.30176">
        <ele>97</ele>
        <time>2024-03-10T10:25:46Z</time>
      </trkpt>
      <trkpt lat="46.84422" lon="-0.30176">
        <ele>97.8</ele>
        <time>2024-03-10T10:25:50Z</time>
      </trkpt>
      <trkpt lat="46.84426" lon="-0.30177">
        <ele>98.2</ele>
        <time>2024-03-10T10:25:52Z</time>
      </trkpt>
      <trkpt lat="46.84434" lon="-0.30181">
        <ele>99.2</ele>
        <time>2024-03-10T10:25:57Z</time>
      </trkpt>
      <trkpt lat="46.84436" lon="-0.30182">
        <ele>99.4</ele>
        <time>2024-03-10T10:25:58Z</time>
      </trkpt>
      <trkpt lat="46.84446" lon="-0.30186">
        <ele>100.2</ele>
        <time>2024-03-10T10:26:04Z</time>
      </trkpt>
      <trkpt lat="46.84452" lon="-0.30188">
        <ele>100.8</ele>
        <time>2024-03-10T10:26:07Z</time>
      </trkpt>
      <trkpt lat="46.84457" lon="-0.3019">
        <ele>101.4</ele>
        <time>2024-03-10T10:26:10Z</time>
      </trkpt>
      <trkpt lat="46.84465" lon="-0.30196">
        <ele>102</ele>
        <time>2024-03-10T10:26:14Z</time>
      </trkpt>
      <trkpt lat="46.84469" lon="-0.302">
        <ele>102.4</ele>
        <time>2024-03-10T10:26:16Z</time>
      </trkpt>
      <trkpt lat="46.84476" lon="-0.30212">
        <ele>103.4</ele>
        <time>2024-03-10T10:26:22Z</time>
      </trkpt>
      <trkpt lat="46.84478" lon="-0.30214">
        <ele>103.6</ele>
        <time>2024-03-10T10:26:23Z</time>
      </trkpt>
      <trkpt lat="46.84485" lon="-0.30224">
        <ele>104.4</ele>
        <time>2024-03-10T10:26:29Z</time>
      </trkpt>
      <trkpt lat="46.84486" lon="-0.30226">
        <ele>104.6</ele>
        <time>2024-03-10T10:26:30Z</time>
      </trkpt>
      <trkpt lat="46.84492" lon="-0.30235">
        <ele>105.6</ele>
        <time>2024-03-10T10:26:35Z</time>
      </trkpt>
      <trkpt lat="46.84493" lon="-0.30237">
        <ele>105.8</ele>
        <time>2024-03-10T10:26:36Z</time>
      </trkpt>
      <trkpt lat="46.84499" lon="-0.30247">
        <ele>106.6</ele>
        <time>2024-03-10T10:26:42Z</time>
      </trkpt>
      <trkpt lat="46.84502" lon="-0.30253">
        <ele>107.6</ele>
        <time>2024-03-10T10:26:45Z</time>
      </trkpt>
      <trkpt lat="46.84504" lon="-0.30255">
        <ele>107.8</ele>
        <time>2024-03-10T10:26:46Z</time>
      </trkpt>
      <trkpt lat="46.84513" lon="-0.30268">
        <ele>108.6</ele>
        <time>2024-03-10T10:26:53Z</time>
      </trkpt>
      <trkpt lat="46.84516" lon="-0.30272">
        <ele>109</ele>
        <time>2024-03-10T10:26:55Z</time>
      </trkpt>
      <trkpt lat="46.84522" lon="-0.30283">
        <ele>109.6</ele>
        <time>2024-03-10T10:27:00Z</time>
      </trkpt>
      <trkpt lat="46.84524" lon="-0.30287">
        <ele>110</ele>
        <time>2024-03-10T10:27:02Z</time>
      </trkpt>
      <trkpt lat="46.8453" lon="-0.30298">
        <ele>111.2</ele>
        <time>2024-03-10T10:27:07Z</time>
      </trkpt>
      <trkpt lat="46.84543" lon="-0.30318">
        <ele>112.2</ele>
        <time>2024-03-10T10:27:16Z</time>
      </trkpt>
      <trkpt lat="46.84544" lon="-0.3032">
        <ele>112.4</ele>
        <time>2024-03-10T10:27:17Z</time>
      </trkpt>
      <trkpt lat="46.84554" lon="-0.30333">
        <ele>113.2</ele>
        <time>2024-03-10T10:27:23Z</time>
      </trkpt>
      <trkpt lat="46.84556" lon="-0.30335">
        <ele>113.4</ele>
        <time>2024-03-10T10:27:24Z</time>
      </trkpt>
      <trkpt lat="46.8457" lon="-0.30351">
        <ele>114.2</ele>
        <time>2024-03-10T10:27:32Z</time>
      </trkpt>
      <trkpt lat="46.84575" lon="-0.30354">
        <ele>114.4</ele>
        <time>2024-03-10T10:27:34Z</time>
      </trkpt>
      <trkpt lat="46.8459" lon="-0.30367">
        <ele>115</ele>
        <time>2024-03-10T10:27:40Z</time>
      </trkpt>
      <trkpt lat="46.84597" lon="-0.30372">
        <ele>115.4</ele>
        <time>2024-03-10T10:27:43Z</time>
      </trkpt>
      <trkpt lat="46.8461" lon="-0.30383">
        <ele>116</ele>
        <time>2024-03-10T10:27:48Z</time>
      </trkpt>
      <trkpt lat="46.84619" lon="-0.30389">
        <ele>116.4</ele>
        <time>2024-03-10T10:27:51Z</time>
      </trkpt>
      <trkpt lat="46.84634" lon="-0.30404">
        <ele>117.2</ele>
        <time>2024-03-10T10:27:57Z</time>
      </trkpt>
      <trkpt lat="46.84641" lon="-0.30412">
        <ele>117.6</ele>
        <time>2024-03-10T10:28:00Z</time>
      </trkpt>
      <trkpt lat="46.84657" lon="-0.30429">
        <ele>118.2</ele>
        <time>2024-03-10T10:28:06Z</time>
      </trkpt>
      <trkpt lat="46.84669" lon="-0.30443">
        <ele>118.6</ele>
        <time>2024-03-10T10:28:11Z</time>
      </trkpt>
      <trkpt lat="46.84671" lon="-0.30446">
        <ele>118.8</ele>
        <time>2024-03-10T10:28:12Z</time>
      </trkpt>
      <trkpt lat="46.84689" lon="-0.30475">
        <ele>119.2</ele>
        <time>2024-03-10T10:28:19Z</time>
      </trkpt>
      <trkpt lat="46.84698" lon="-0.30487">
        <ele>119.2</ele>
        <time>2024-03-10T10:28:22Z</time>
      </trkpt>
      <trkpt lat="46.84703" lon="-0.30497">
        <ele>119.2</ele>
        <time>2024-03-10T10:28:24Z</time>
      </trkpt>
      <trkpt lat="46.84705" lon="-0.30503">
        <ele>119.4</ele>
        <time>2024-03-10T10:28:25Z</time>
      </trkpt>
      <trkpt lat="46.8471" lon="-0.30513">
        <ele>119.6</ele>
        <time>2024-03-10T10:28:27Z</time>
      </trkpt>
      <trkpt lat="46.84713" lon="-0.30518">
        <ele>119.6</ele>
        <time>2024-03-10T10:28:28Z</time>
      </trkpt>
      <trkpt lat="46.84722" lon="-0.30536">
        <ele>120</ele>
        <time>2024-03-10T10:28:32Z</time>
      </trkpt>
      <trkpt lat="46.84738" lon="-0.30569">
        <ele>120</ele>
        <time>2024-03-10T10:28:38Z</time>
      </trkpt>
      <trkpt lat="46.84758" lon="-0.30612">
        <ele>120.6</ele>
        <time>2024-03-10T10:28:46Z</time>
      </trkpt>
      <trkpt lat="46.84774" lon="-0.30645">
        <ele>120.8</ele>
        <time>2024-03-10T10:28:52Z</time>
      </trkpt>
      <trkpt lat="46.8478" lon="-0.30657">
        <ele>120.8</ele>
        <time>2024-03-10T10:28:54Z</time>
      </trkpt>
      <trkpt lat="46.84807" lon="-0.3071">
        <ele>121.2</ele>
        <time>2024-03-10T10:29:03Z</time>
      </trkpt>
      <trkpt lat="46.84828" lon="-0.30757">
        <ele>121</ele>
        <time>2024-03-10T10:29:10Z</time>
      </trkpt>
      <trkpt lat="46.84843" lon="-0.30804">
        <ele>120.8</ele>
        <time>2024-03-10T10:29:16Z</time>
      </trkpt>
      <trkpt lat="46.8485" lon="-0.3082">
        <ele>120.6</ele>
        <time>2024-03-10T10:29:18Z</time>
      </trkpt>
      <trkpt lat="46.84871" lon="-0.30866">
        <ele>120.4</ele>
        <time>2024-03-10T10:29:24Z</time>
      </trkpt>
      <trkpt lat="46.84902" lon="-0.30931">
        <ele>119.6</ele>
        <time>2024-03-10T10:29:32Z</time>
      </trkpt>
      <trkpt lat="46.84902" lon="-0.30931">
        <ele>119.6</ele>
        <time>2024-03-10T10:29:33Z</time>
      </trkpt>
      <trkpt lat="46.84936" lon="-0.30994">
        <ele>119.6</ele>
        <time>2024-03-10T10:29:40Z</time>
      </trkpt>
      <trkpt lat="46.84975" lon="-0.31058">
        <ele>119.6</ele>
        <time>2024-03-10T10:29:49Z</time>
      </trkpt>
      <trkpt lat="46.85003" lon="-0.31104">
        <ele>119.2</ele>
        <time>2024-03-10T10:29:56Z</time>
      </trkpt>
      <trkpt lat="46.85012" lon="-0.31117">
        <ele>118.4</ele>
        <time>2024-03-10T10:29:58Z</time>
      </trkpt>
      <trkpt lat="46.85021" lon="-0.31131">
        <ele>118.2</ele>
        <time>2024-03-10T10:30:00Z</time>
      </trkpt>
      <trkpt lat="46.85029" lon="-0.31148">
        <ele>117.6</ele>
        <time>2024-03-10T10:30:02Z</time>
      </trkpt>
      <trkpt lat="46.85032" lon="-0.31157">
        <ele>117.2</ele>
        <time>2024-03-10T10:30:03Z</time>
      </trkpt>
      <trkpt lat="46.85052" lon="-0.31206">
        <ele>115.4</ele>
        <time>2024-03-10T10:30:08Z</time>
      </trkpt>
      <trkpt lat="46.8506" lon="-0.31226">
        <ele>114.2</ele>
        <time>2024-03-10T10:30:10Z</time>
      </trkpt>
      <trkpt lat="46.8507" lon="-0.31255">
        <ele>113.2</ele>
        <time>2024-03-10T10:30:13Z</time>
      </trkpt>
      <trkpt lat="46.85076" lon="-0.313">
        <ele>113.6</ele>
        <time>2024-03-10T10:30:18Z</time>
      </trkpt>
      <trkpt lat="46.85083" lon="-0.31371">
        <ele>113.4</ele>
        <time>2024-03-10T10:30:25Z</time>
      </trkpt>
      <trkpt lat="46.85088" lon="-0.31424">
        <ele>114.4</ele>
        <time>2024-03-10T10:30:31Z</time>
      </trkpt>
      <trkpt lat="46.85091" lon="-0.31447">
        <ele>115.8</ele>
        <time>2024-03-10T10:30:34Z</time>
      </trkpt>
      <trkpt lat="46.8509" lon="-0.31454">
        <ele>116</ele>
        <time>2024-03-10T10:30:35Z</time>
      </trkpt>
      <trkpt lat="46.85087" lon="-0.3146">
        <ele>116.2</ele>
        <time>2024-03-10T10:30:36Z</time>
      </trkpt>
      <trkpt lat="46.85077" lon="-0.31478">
        <ele>117.2</ele>
        <time>2024-03-10T10:30:39Z</time>
      </trkpt>
      <trkpt lat="46.85061" lon="-0.31518">
        <ele>118.2</ele>
        <time>2024-03-10T10:30:45Z</time>
      </trkpt>
      <trkpt lat="46.85059" lon="-0.31525">
        <ele>118.6</ele>
        <time>2024-03-10T10:30:46Z</time>
      </trkpt>
      <trkpt lat="46.85051" lon="-0.31546">
        <ele>119.4</ele>
        <time>2024-03-10T10:30:49Z</time>
      </trkpt>
      <trkpt lat="46.85039" lon="-0.3158">
        <ele>119.6</ele>
        <time>2024-03-10T10:30:54Z</time>
      </trkpt>
      <trkpt lat="46.85015" lon="-0.31634">
        <ele>119.8</ele>
        <time>2024-03-10T10:31:02Z</time>
      </trkpt>
      <trkpt lat="46.84995" lon="-0.31674">
        <ele>120</ele>
        <time>2024-03-10T10:31:08Z</time>
      </trkpt>
      <trkpt lat="46.84958" lon="-0.31743">
        <ele>119.8</ele>
        <time>2024-03-10T10:31:18Z</time>
      </trkpt>
      <trkpt lat="46.84926" lon="-0.31808">
        <ele>120</ele>
        <time>2024-03-10T10:31:27Z</time>
      </trkpt>
      <trkpt lat="46.84923" lon="-0.31816">
        <ele>120</ele>
        <time>2024-03-10T10:31:28Z</time>
      </trkpt>
      <trkpt lat="46.84915" lon="-0.31852">
        <ele>119.6</ele>
        <time>2024-03-10T10:31:32Z</time>
      </trkpt>
      <trkpt lat="46.8491" lon="-0.31908">
        <ele>118.6</ele>
        <time>2024-03-10T10:31:38Z</time>
      </trkpt>
      <trkpt lat="46.84911" lon="-0.31973">
        <ele>119</ele>
        <time>2024-03-10T10:31:45Z</time>
      </trkpt>
      <trkpt lat="46.84912" lon="-0.32045">
        <ele>119.6</ele>
        <time>2024-03-10T10:31:53Z</time>
      </trkpt>
      <trkpt lat="46.84916" lon="-0.32106">
        <ele>119.8</ele>
        <time>2024-03-10T10:32:00Z</time>
      </trkpt>
      <trkpt lat="46.84918" lon="-0.3217">
        <ele>119.4</ele>
        <time>2024-03-10T10:32:07Z</time>
      </trkpt>
      <trkpt lat="46.84913" lon="-0.32199">
        <ele>118.4</ele>
        <time>2024-03-10T10:32:10Z</time>
      </trkpt>
      <trkpt lat="46.8491" lon="-0.32209">
        <ele>118.4</ele>
        <time>2024-03-10T10:32:11Z</time>
      </trkpt>
      <trkpt lat="46.84907" lon="-0.32218">
        <ele>118</ele>
        <time>2024-03-10T10:32:12Z</time>
      </trkpt>
      <trkpt lat="46.84896" lon="-0.32256">
        <ele>118</ele>
        <time>2024-03-10T10:32:16Z</time>
      </trkpt>
      <trkpt lat="46.84889" lon="-0.32293">
        <ele>117.4</ele>
        <time>2024-03-10T10:32:20Z</time>
      </trkpt>
      <trkpt lat="46.84883" lon="-0.32354">
        <ele>118.6</ele>
        <time>2024-03-10T10:32:27Z</time>
      </trkpt>
      <trkpt lat="46.84881" lon="-0.32378">
        <ele>119.4</ele>
        <time>2024-03-10T10:32:30Z</time>
      </trkpt>
      <trkpt lat="46.84881" lon="-0.3241">
        <ele>120.4</ele>
        <time>2024-03-10T10:32:34Z</time>
      </trkpt>
      <trkpt lat="46.84882" lon="-0.32424">
        <ele>120.8</ele>
        <time>2024-03-10T10:32:36Z</time>
      </trkpt>
      <trkpt lat="46.84882" lon="-0.3243">
        <ele>121</ele>
        <time>2024-03-10T10:32:37Z</time>
      </trkpt>
      <trkpt lat="46.84883" lon="-0.3244">
        <ele>121.2</ele>
        <time>2024-03-10T10:32:39Z</time>
      </trkpt>
      <trkpt lat="46.84883" lon="-0.32444">
        <ele>121.4</ele>
        <time>2024-03-10T10:32:40Z</time>
      </trkpt>
      <trkpt lat="46.84882" lon="-0.32448">
        <ele>121.6</ele>
        <time>2024-03-10T10:32:41Z</time>
      </trkpt>
      <trkpt lat="46.84876" lon="-0.32451">
        <ele>121.6</ele>
        <time>2024-03-10T10:32:43Z</time>
      </trkpt>
      <trkpt lat="46.84854" lon="-0.32458">
        <ele>120.4</ele>
        <time>2024-03-10T10:32:48Z</time>
      </trkpt>
      <trkpt lat="46.8483" lon="-0.32467">
        <ele>119.2</ele>
        <time>2024-03-10T10:32:52Z</time>
      </trkpt>
      <trkpt lat="46.84817" lon="-0.32472">
        <ele>118.6</ele>
        <time>2024-03-10T10:32:54Z</time>
      </trkpt>
      <trkpt lat="46.8481" lon="-0.32475">
        <ele>118</ele>
        <time>2024-03-10T10:32:55Z</time>
      </trkpt>
      <trkpt lat="46.84783" lon="-0.32483">
        <ele>116.8</ele>
        <time>2024-03-10T10:32:59Z</time>
      </trkpt>
      <trkpt lat="46.84777" lon="-0.32485">
        <ele>116.8</ele>
        <time>2024-03-10T10:33:00Z</time>
      </trkpt>
      <trkpt lat="46.84771" lon="-0.32487">
        <ele>115.6</ele>
        <time>2024-03-10T10:33:01Z</time>
      </trkpt>
      <trkpt lat="46.84753" lon="-0.32493">
        <ele>114.6</ele>
        <time>2024-03-10T10:33:04Z</time>
      </trkpt>
      <trkpt lat="46.84742" lon="-0.325">
        <ele>114</ele>
        <time>2024-03-10T10:33:06Z</time>
      </trkpt>
      <trkpt lat="46.84725" lon="-0.32511">
        <ele>113.2</ele>
        <time>2024-03-10T10:33:09Z</time>
      </trkpt>
      <trkpt lat="46.84695" lon="-0.3253">
        <ele>112</ele>
        <time>2024-03-10T10:33:14Z</time>
      </trkpt>
      <trkpt lat="46.84668" lon="-0.32536">
        <ele>110.6</ele>
        <time>2024-03-10T10:33:18Z</time>
      </trkpt>
      <trkpt lat="46.84668" lon="-0.32536">
        <ele>110.2</ele>
        <time>2024-03-10T10:33:19Z</time>
      </trkpt>
      <trkpt lat="46.84657" lon="-0.32535">
        <ele>109.6</ele>
        <time>2024-03-10T10:33:20Z</time>
      </trkpt>
      <trkpt lat="46.84654" lon="-0.32533">
        <ele>109</ele>
        <time>2024-03-10T10:33:21Z</time>
      </trkpt>
      <trkpt lat="46.84651" lon="-0.3253">
        <ele>108</ele>
        <time>2024-03-10T10:33:22Z</time>
      </trkpt>
      <trkpt lat="46.84648" lon="-0.32525">
        <ele>106.6</ele>
        <time>2024-03-10T10:33:24Z</time>
      </trkpt>
      <trkpt lat="46.84647" lon="-0.32523">
        <ele>106.2</ele>
        <time>2024-03-10T10:33:25Z</time>
      </trkpt>
      <trkpt lat="46.84646" lon="-0.32519">
        <ele>105.6</ele>
        <time>2024-03-10T10:33:27Z</time>
      </trkpt>
      <trkpt lat="46.84645" lon="-0.32513">
        <ele>105</ele>
        <time>2024-03-10T10:33:30Z</time>
      </trkpt>
      <trkpt lat="46.84643" lon="-0.32511">
        <ele>105</ele>
        <time>2024-03-10T10:33:33Z</time>
      </trkpt>
      <trkpt lat="46.84638" lon="-0.32509">
        <ele>105</ele>
        <time>2024-03-10T10:33:35Z</time>
      </trkpt>
      <trkpt lat="46.84627" lon="-0.32508">
        <ele>105.4</ele>
        <time>2024-03-10T10:33:40Z</time>
      </trkpt>
      <trkpt lat="46.84617" lon="-0.32507">
        <ele>105.4</ele>
        <time>2024-03-10T10:33:47Z</time>
      </trkpt>
      <trkpt lat="46.84605" lon="-0.3251">
        <ele>105.6</ele>
        <time>2024-03-10T10:33:54Z</time>
      </trkpt>
      <trkpt lat="46.84595" lon="-0.3252">
        <ele>106.4</ele>
        <time>2024-03-10T10:34:01Z</time>
      </trkpt>
      <trkpt lat="46.84593" lon="-0.32522">
        <ele>106.6</ele>
        <time>2024-03-10T10:34:02Z</time>
      </trkpt>
      <trkpt lat="46.84587" lon="-0.32529">
        <ele>107.6</ele>
        <time>2024-03-10T10:34:06Z</time>
      </trkpt>
      <trkpt lat="46.84584" lon="-0.32532">
        <ele>108.2</ele>
        <time>2024-03-10T10:34:08Z</time>
      </trkpt>
      <trkpt lat="46.8458" lon="-0.32537">
        <ele>108.8</ele>
        <time>2024-03-10T10:34:11Z</time>
      </trkpt>
      <trkpt lat="46.84574" lon="-0.32545">
        <ele>109.6</ele>
        <time>2024-03-10T10:34:16Z</time>
      </trkpt>
      <trkpt lat="46.84573" lon="-0.32546">
        <ele>109.8</ele>
        <time>2024-03-10T10:34:17Z</time>
      </trkpt>
      <trkpt lat="46.84566" lon="-0.32556">
        <ele>110.8</ele>
        <time>2024-03-10T10:34:23Z</time>
      </trkpt>
      <trkpt lat="46.84565" lon="-0.32557">
        <ele>111</ele>
        <time>2024-03-10T10:34:24Z</time>
      </trkpt>
      <trkpt lat="46.84565" lon="-0.32559">
        <ele>111.2</ele>
        <time>2024-03-10T10:34:25Z</time>
      </trkpt>
      <trkpt lat="46.84561" lon="-0.32569">
        <ele>111.8</ele>
        <time>2024-03-10T10:34:30Z</time>
      </trkpt>
      <trkpt lat="46.84557" lon="-0.32575">
        <ele>112</ele>
        <time>2024-03-10T10:34:34Z</time>
      </trkpt>
      <trkpt lat="46.84554" lon="-0.3258">
        <ele>112.8</ele>
        <time>2024-03-10T10:34:38Z</time>
      </trkpt>
      <trkpt lat="46.84553" lon="-0.32582">
        <ele>113.2</ele>
        <time>2024-03-10T10:34:40Z</time>
      </trkpt>
      <trkpt lat="46.84548" lon="-0.32591">
        <ele>113.8</ele>
        <time>2024-03-10T10:34:46Z</time>
      </trkpt>
      <trkpt lat="46.84544" lon="-0.32596">
        <ele>114.2</ele>
        <time>2024-03-10T10:34:49Z</time>
      </trkpt>
      <trkpt lat="46.84541" lon="-0.32601">
        <ele>114.6</ele>
        <time>2024-03-10T10:34:53Z</time>
      </trkpt>
      <trkpt lat="46.84535" lon="-0.32611">
        <ele>115.2</ele>
        <time>2024-03-10T10:35:00Z</time>
      </trkpt>
      <trkpt lat="46.84527" lon="-0.3262">
        <ele>115.8</ele>
        <time>2024-03-10T10:35:05Z</time>
      </trkpt>
      <trkpt lat="46.84522" lon="-0.32627">
        <ele>116.4</ele>
        <time>2024-03-10T10:35:10Z</time>
      </trkpt>
      <trkpt lat="46.84519" lon="-0.3263">
        <ele>116.8</ele>
        <time>2024-03-10T10:35:12Z</time>
      </trkpt>
      <trkpt lat="46.84509" lon="-0.32641">
        <ele>117.4</ele>
        <time>2024-03-10T10:35:19Z</time>
      </trkpt>
      <trkpt lat="46.84506" lon="-0.32645">
        <ele>117.4</ele>
        <time>2024-03-10T10:35:21Z</time>
      </trkpt>
      <trkpt lat="46.84496" lon="-0.32655">
        <ele>117.8</ele>
        <time>2024-03-10T10:35:27Z</time>
      </trkpt>
      <trkpt lat="46.84494" lon="-0.32657">
        <ele>117.8</ele>
        <time>2024-03-10T10:35:28Z</time>
      </trkpt>
      <trkpt lat="46.84484" lon="-0.32669">
        <ele>118.2</ele>
        <time>2024-03-10T10:35:35Z</time>
      </trkpt>
      <trkpt lat="46.84473" lon="-0.32676">
        <ele>118.4</ele>
        <time>2024-03-10T10:35:43Z</time>
      </trkpt>
      <trkpt lat="46.84472" lon="-0.32676">
        <ele>118.4</ele>
        <time>2024-03-10T10:35:44Z</time>
      </trkpt>
      <trkpt lat="46.84464" lon="-0.32674">
        <ele>118.8</ele>
        <time>2024-03-10T10:35:49Z</time>
      </trkpt>
      <trkpt lat="46.84456" lon="-0.32673">
        <ele>119.6</ele>
        <time>2024-03-10T10:35:54Z</time>
      </trkpt>
      <trkpt lat="46.84453" lon="-0.32676">
        <ele>120</ele>
        <time>2024-03-10T10:35:56Z</time>
      </trkpt>
      <trkpt lat="46.84449" lon="-0.32684">
        <ele>120.6</ele>
        <time>2024-03-10T10:36:00Z</time>
      </trkpt>
      <trkpt lat="46.84443" lon="-0.32693">
        <ele>121.4</ele>
        <time>2024-03-10T10:36:04Z</time>
      </trkpt>
      <trkpt lat="46.84439" lon="-0.32697">
        <ele>121.6</ele>
        <time>2024-03-10T10:36:06Z</time>
      </trkpt>
      <trkpt lat="46.84429" lon="-0.32709">
        <ele>122.6</ele>
        <time>2024-03-10T10:36:11Z</time>
      </trkpt>
      <trkpt lat="46.84427" lon="-0.32712">
        <ele>122.6</ele>
        <time>2024-03-10T10:36:12Z</time>
      </trkpt>
      <trkpt lat="46.84413" lon="-0.32729">
        <ele>123.8</ele>
        <time>2024-03-10T10:36:19Z</time>
      </trkpt>
      <trkpt lat="46.84408" lon="-0.32733">
        <ele>124.2</ele>
        <time>2024-03-10T10:36:21Z</time>
      </trkpt>
      <trkpt lat="46.84404" lon="-0.32738">
        <ele>124.8</ele>
        <time>2024-03-10T10:36:23Z</time>
      </trkpt>
      <trkpt lat="46.8439" lon="-0.32751">
        <ele>125.8</ele>
        <time>2024-03-10T10:36:29Z</time>
      </trkpt>
      <trkpt lat="46.84387" lon="-0.32753">
        <ele>126</ele>
        <time>2024-03-10T10:36:30Z</time>
      </trkpt>
      <trkpt lat="46.84375" lon="-0.32762">
        <ele>127</ele>
        <time>2024-03-10T10:36:35Z</time>
      </trkpt>
      <trkpt lat="46.84364" lon="-0.3277">
        <ele>127.8</ele>
        <time>2024-03-10T10:36:39Z</time>
      </trkpt>
      <trkpt lat="46.84353" lon="-0.32777">
        <ele>128.2</ele>
        <time>2024-03-10T10:36:43Z</time>
      </trkpt>
      <trkpt lat="46.8434" lon="-0.32786">
        <ele>129</ele>
        <time>2024-03-10T10:36:48Z</time>
      </trkpt>
      <trkpt lat="46.84329" lon="-0.32793">
        <ele>129.2</ele>
        <time>2024-03-10T10:36:52Z</time>
      </trkpt>
      <trkpt lat="46.84312" lon="-0.32805">
        <ele>130.4</ele>
        <time>2024-03-10T10:36:58Z</time>
      </trkpt>
      <trkpt lat="46.84305" lon="-0.32809">
        <ele>130.6</ele>
        <time>2024-03-10T10:37:00Z</time>
      </trkpt>
      <trkpt lat="46.84274" lon="-0.32828">
        <ele>131.4</ele>
        <time>2024-03-10T10:37:10Z</time>
      </trkpt>
      <trkpt lat="46.84271" lon="-0.3283">
        <ele>131.4</ele>
        <time>2024-03-10T10:37:11Z</time>
      </trkpt>
      <trkpt lat="46.84248" lon="-0.32845">
        <ele>132.4</ele>
        <time>2024-03-10T10:37:18Z</time>
      </trkpt>
      <trkpt lat="46.84244" lon="-0.32847">
        <ele>132.4</ele>
        <time>2024-03-10T10:37:19Z</time>
      </trkpt>
      <trkpt lat="46.84218" lon="-0.32866">
        <ele>133.6</ele>
        <time>2024-03-10T10:37:27Z</time>
      </trkpt>
      <trkpt lat="46.8419" lon="-0.32889">
        <ele>134.2</ele>
        <time>2024-03-10T10:37:35Z</time>
      </trkpt>
      <trkpt lat="46.84183" lon="-0.32895">
        <ele>134.6</ele>
        <time>2024-03-10T10:37:37Z</time>
      </trkpt>
      <trkpt lat="46.84166" lon="-0.32912">
        <ele>135.6</ele>
        <time>2024-03-10T10:37:42Z</time>
      </trkpt>
      <trkpt lat="46.84163" lon="-0.32915">
        <ele>135.8</ele>
        <time>2024-03-10T10:37:43Z</time>
      </trkpt>
      <trkpt lat="46.84129" lon="-0.32945">
        <ele>136.2</ele>
        <time>2024-03-10T10:37:52Z</time>
      </trkpt>
      <trkpt lat="46.84097" lon="-0.32974">
        <ele>136.6</ele>
        <time>2024-03-10T10:38:00Z</time>
      </trkpt>
      <trkpt lat="46.84094" lon="-0.32977">
        <ele>136.6</ele>
        <time>2024-03-10T10:38:01Z</time>
      </trkpt>
      <trkpt lat="46.84062" lon="-0.33007">
        <ele>137.2</ele>
        <time>2024-03-10T10:38:09Z</time>
      </trkpt>
      <trkpt lat="46.84042" lon="-0.33025">
        <ele>137.8</ele>
        <time>2024-03-10T10:38:14Z</time>
      </trkpt>
      <trkpt lat="46.84037" lon="-0.33028">
        <ele>137.8</ele>
        <time>2024-03-10T10:38:15Z</time>
      </trkpt>
      <trkpt lat="46.84002" lon="-0.33061">
        <ele>137.2</ele>
        <time>2024-03-10T10:38:23Z</time>
      </trkpt>
      <trkpt lat="46.83969" lon="-0.3309">
        <ele>137</ele>
        <time>2024-03-10T10:38:30Z</time>
      </trkpt>
      <trkpt lat="46.83931" lon="-0.33125">
        <ele>137.4</ele>
        <time>2024-03-10T10:38:38Z</time>
      </trkpt>
      <trkpt lat="46.83895" lon="-0.33165">
        <ele>137.6</ele>
        <time>2024-03-10T10:38:46Z</time>
      </trkpt>
      <trkpt lat="46.83854" lon="-0.33203">
        <ele>137.8</ele>
        <time>2024-03-10T10:38:54Z</time>
      </trkpt>
      <trkpt lat="46.83802" lon="-0.33245">
        <ele>137</ele>
        <time>2024-03-10T10:39:03Z</time>
      </trkpt>
      <trkpt lat="46.83797" lon="-0.3325">
        <ele>136.8</ele>
        <time>2024-03-10T10:39:04Z</time>
      </trkpt>
      <trkpt lat="46.83773" lon="-0.33266">
        <ele>136.8</ele>
        <time>2024-03-10T10:39:08Z</time>
      </trkpt>
      <trkpt lat="46.83749" lon="-0.33282">
        <ele>136.2</ele>
        <time>2024-03-10T10:39:12Z</time>
      </trkpt>
      <trkpt lat="46.83719" lon="-0.33301">
        <ele>135.6</ele>
        <time>2024-03-10T10:39:17Z</time>
      </trkpt>
      <trkpt lat="46.83701" lon="-0.33314">
        <ele>135.4</ele>
        <time>2024-03-10T10:39:20Z</time>
      </trkpt>
      <trkpt lat="46.83654" lon="-0.3335">
        <ele>134.6</ele>
        <time>2024-03-10T10:39:28Z</time>
      </trkpt>
      <trkpt lat="46.83649" lon="-0.33354">
        <ele>134.6</ele>
        <time>2024-03-10T10:39:29Z</time>
      </trkpt>
      <trkpt lat="46.83597" lon="-0.33391">
        <ele>134.2</ele>
        <time>2024-03-10T10:39:38Z</time>
      </trkpt>
      <trkpt lat="46.83591" lon="-0.33395">
        <ele>134</ele>
        <time>2024-03-10T10:39:39Z</time>
      </trkpt>
      <trkpt lat="46.83574" lon="-0.33407">
        <ele>133.6</ele>
        <time>2024-03-10T10:39:42Z</time>
      </trkpt>
      <trkpt lat="46.8354" lon="-0.33431">
        <ele>133.4</ele>
        <time>2024-03-10T10:39:48Z</time>
      </trkpt>
      <trkpt lat="46.8352" lon="-0.33448">
        <ele>132.4</ele>
        <time>2024-03-10T10:39:52Z</time>
      </trkpt>
      <trkpt lat="46.83508" lon="-0.33458">
        <ele>132.2</ele>
        <time>2024-03-10T10:39:54Z</time>
      </trkpt>
      <trkpt lat="46.83462" lon="-0.33499">
        <ele>131.6</ele>
        <time>2024-03-10T10:40:02Z</time>
      </trkpt>
      <trkpt lat="46.83456" lon="-0.33505">
        <ele>131.2</ele>
        <time>2024-03-10T10:40:03Z</time>
      </trkpt>
      <trkpt lat="46.83419" lon="-0.33536">
        <ele>130.2</ele>
        <time>2024-03-10T10:40:09Z</time>
      </trkpt>
      <trkpt lat="46.83375" lon="-0.33573">
        <ele>129.8</ele>
        <time>2024-03-10T10:40:16Z</time>
      </trkpt>
      <trkpt lat="46.83335" lon="-0.33617">
        <ele>129</ele>
        <time>2024-03-10T10:40:23Z</time>
      </trkpt>
      <trkpt lat="46.83301" lon="-0.33656">
        <ele>128.6</ele>
        <time>2024-03-10T10:40:29Z</time>
      </trkpt>
      <trkpt lat="46.83254" lon="-0.33696">
        <ele>129.4</ele>
        <time>2024-03-10T10:40:37Z</time>
      </trkpt>
      <trkpt lat="46.83208" lon="-0.3373">
        <ele>129</ele>
        <time>2024-03-10T10:40:45Z</time>
      </trkpt>
      <trkpt lat="46.83178" lon="-0.33749">
        <ele>128.6</ele>
        <time>2024-03-10T10:40:51Z</time>
      </trkpt>
      <trkpt lat="46.83142" lon="-0.33765">
        <ele>128.2</ele>
        <time>2024-03-10T10:40:58Z</time>
      </trkpt>
      <trkpt lat="46.83108" lon="-0.3378">
        <ele>128.2</ele>
        <time>2024-03-10T10:41:05Z</time>
      </trkpt>
      <trkpt lat="46.83102" lon="-0.33782">
        <ele>128</ele>
        <time>2024-03-10T10:41:08Z</time>
      </trkpt>
      <trkpt lat="46.83101" lon="-0.33782">
        <ele>127.8</ele>
        <time>2024-03-10T10:41:09Z</time>
      </trkpt>
      <trkpt lat="46.83101" lon="-0.33783">
        <ele>127.4</ele>
        <time>2024-03-10T10:41:12Z</time>
      </trkpt>
      <trkpt lat="46.83099" lon="-0.33785">
        <ele>127.2</ele>
        <time>2024-03-10T10:41:14Z</time>
      </trkpt>
      <trkpt lat="46.83097" lon="-0.33799">
        <ele>127.6</ele>
        <time>2024-03-10T10:41:19Z</time>
      </trkpt>
      <trkpt lat="46.8309" lon="-0.3383">
        <ele>127.4</ele>
        <time>2024-03-10T10:41:26Z</time>
      </trkpt>
      <trkpt lat="46.8308" lon="-0.33875">
        <ele>127.8</ele>
        <time>2024-03-10T10:41:33Z</time>
      </trkpt>
      <trkpt lat="46.83069" lon="-0.33928">
        <ele>128</ele>
        <time>2024-03-10T10:41:40Z</time>
      </trkpt>
      <trkpt lat="46.83056" lon="-0.33979">
        <ele>128.2</ele>
        <time>2024-03-10T10:41:46Z</time>
      </trkpt>
      <trkpt lat="46.83053" lon="-0.33986">
        <ele>128.2</ele>
        <time>2024-03-10T10:41:47Z</time>
      </trkpt>
      <trkpt lat="46.83043" lon="-0.33991">
        <ele>128.2</ele>
        <time>2024-03-10T10:41:49Z</time>
      </trkpt>
      <trkpt lat="46.83032" lon="-0.33987">
        <ele>128.2</ele>
        <time>2024-03-10T10:41:51Z</time>
      </trkpt>
      <trkpt lat="46.83022" lon="-0.33979">
        <ele>128</ele>
        <time>2024-03-10T10:41:53Z</time>
      </trkpt>
      <trkpt lat="46.83" lon="-0.33963">
        <ele>127.6</ele>
        <time>2024-03-10T10:41:57Z</time>
      </trkpt>
      <trkpt lat="46.82989" lon="-0.33956">
        <ele>127.2</ele>
        <time>2024-03-10T10:41:59Z</time>
      </trkpt>
      <trkpt lat="46.82984" lon="-0.33953">
        <ele>127.2</ele>
        <time>2024-03-10T10:42:00Z</time>
      </trkpt>
      <trkpt lat="46.82973" lon="-0.33955">
        <ele>127</ele>
        <time>2024-03-10T10:42:02Z</time>
      </trkpt>
      <trkpt lat="46.82969" lon="-0.3396">
        <ele>126.8</ele>
        <time>2024-03-10T10:42:03Z</time>
      </trkpt>
      <trkpt lat="46.82966" lon="-0.33966">
        <ele>126.8</ele>
        <time>2024-03-10T10:42:04Z</time>
      </trkpt>
      <trkpt lat="46.82963" lon="-0.33973">
        <ele>126.4</ele>
        <time>2024-03-10T10:42:05Z</time>
      </trkpt>
      <trkpt lat="46.82949" lon="-0.34002">
        <ele>125.8</ele>
        <time>2024-03-10T10:42:09Z</time>
      </trkpt>
      <trkpt lat="46.82935" lon="-0.34032">
        <ele>125</ele>
        <time>2024-03-10T10:42:13Z</time>
      </trkpt>
      <trkpt lat="46.82926" lon="-0.34047">
        <ele>124.6</ele>
        <time>2024-03-10T10:42:15Z</time>
      </trkpt>
      <trkpt lat="46.82907" lon="-0.34075">
        <ele>125</ele>
        <time>2024-03-10T10:42:19Z</time>
      </trkpt>
      <trkpt lat="46.82875" lon="-0.34116">
        <ele>124.8</ele>
        <time>2024-03-10T10:42:25Z</time>
      </trkpt>
      <trkpt lat="46.82848" lon="-0.34169">
        <ele>124.2</ele>
        <time>2024-03-10T10:42:31Z</time>
      </trkpt>
      <trkpt lat="46.8283" lon="-0.34202">
        <ele>123.4</ele>
        <time>2024-03-10T10:42:35Z</time>
      </trkpt>
      <trkpt lat="46.82825" lon="-0.34212">
        <ele>122.4</ele>
        <time>2024-03-10T10:42:37Z</time>
      </trkpt>
      <trkpt lat="46.82823" lon="-0.34215">
        <ele>122</ele>
        <time>2024-03-10T10:42:38Z</time>
      </trkpt>
      <trkpt lat="46.82822" lon="-0.34217">
        <ele>121</ele>
        <time>2024-03-10T10:42:40Z</time>
      </trkpt>
      <trkpt lat="46.82822" lon="-0.34217">
        <ele>120.8</ele>
        <time>2024-03-10T10:42:41Z</time>
      </trkpt>
      <trkpt lat="46.82822" lon="-0.34217">
        <ele>120.6</ele>
        <time>2024-03-10T10:42:42Z</time>
      </trkpt>
      <trkpt lat="46.82824" lon="-0.34213">
        <ele>120.2</ele>
        <time>2024-03-10T10:42:52Z</time>
      </trkpt>
      <trkpt lat="46.82824" lon="-0.34213">
        <ele>120.2</ele>
        <time>2024-03-10T10:43:03Z</time>
      </trkpt>
      <trkpt lat="46.82826" lon="-0.34205">
        <ele>120</ele>
        <time>2024-03-10T10:43:11Z</time>
      </trkpt>
      <trkpt lat="46.82831" lon="-0.34192">
        <ele>120.2</ele>
        <time>2024-03-10T10:43:18Z</time>
      </trkpt>
      <trkpt lat="46.82832" lon="-0.34195">
        <ele>120.4</ele>
        <time>2024-03-10T10:43:22Z</time>
      </trkpt>
      <trkpt lat="46.8283" lon="-0.34193">
        <ele>120.4</ele>
        <time>2024-03-10T10:43:23Z</time>
      </trkpt>
      <trkpt lat="46.82826" lon="-0.34188">
        <ele>120.2</ele>
        <time>2024-03-10T10:43:27Z</time>
      </trkpt>
      <trkpt lat="46.8282" lon="-0.34176">
        <ele>120.6</ele>
        <time>2024-03-10T10:43:33Z</time>
      </trkpt>
      <trkpt lat="46.8281" lon="-0.34169">
        <ele>120.2</ele>
        <time>2024-03-10T10:43:40Z</time>
      </trkpt>
      <trkpt lat="46.82799" lon="-0.34163">
        <ele>120</ele>
        <time>2024-03-10T10:43:46Z</time>
      </trkpt>
      <trkpt lat="46.82787" lon="-0.34157">
        <ele>120</ele>
        <time>2024-03-10T10:43:53Z</time>
      </trkpt>
      <trkpt lat="46.82781" lon="-0.34155">
        <ele>120</ele>
        <time>2024-03-10T10:43:56Z</time>
      </trkpt>
      <trkpt lat="46.82771" lon="-0.34151">
        <ele>119.8</ele>
        <time>2024-03-10T10:44:01Z</time>
      </trkpt>
      <trkpt lat="46.82757" lon="-0.34146">
        <ele>119.2</ele>
        <time>2024-03-10T10:44:08Z</time>
      </trkpt>
      <trkpt lat="46.82744" lon="-0.34137">
        <ele>118.8</ele>
        <time>2024-03-10T10:44:15Z</time>
      </trkpt>
      <trkpt lat="46.82743" lon="-0.34135">
        <ele>118.6</ele>
        <time>2024-03-10T10:44:16Z</time>
      </trkpt>
      <trkpt lat="46.82742" lon="-0.34135">
        <ele>118.4</ele>
        <time>2024-03-10T10:44:17Z</time>
      </trkpt>
      <trkpt lat="46.82739" lon="-0.34135">
        <ele>118.2</ele>
        <time>2024-03-10T10:44:21Z</time>
      </trkpt>
      <trkpt lat="46.82739" lon="-0.34137">
        <ele>118</ele>
        <time>2024-03-10T10:44:22Z</time>
      </trkpt>
      <trkpt lat="46.82737" lon="-0.34139">
        <ele>118</ele>
        <time>2024-03-10T10:44:23Z</time>
      </trkpt>
      <trkpt lat="46.82735" lon="-0.34143">
        <ele>117.4</ele>
        <time>2024-03-10T10:44:25Z</time>
      </trkpt>
      <trkpt lat="46.82732" lon="-0.34151">
        <ele>116.6</ele>
        <time>2024-03-10T10:44:27Z</time>
      </trkpt>
      <trkpt lat="46.8273" lon="-0.34156">
        <ele>116.2</ele>
        <time>2024-03-10T10:44:28Z</time>
      </trkpt>
      <trkpt lat="46.82726" lon="-0.34168">
        <ele>114.4</ele>
        <time>2024-03-10T10:44:31Z</time>
      </trkpt>
      <trkpt lat="46.82725" lon="-0.34172">
        <ele>113.6</ele>
        <time>2024-03-10T10:44:32Z</time>
      </trkpt>
      <trkpt lat="46.82724" lon="-0.34175">
        <ele>112.8</ele>
        <time>2024-03-10T10:44:33Z</time>
      </trkpt>
      <trkpt lat="46.82721" lon="-0.34182">
        <ele>112</ele>
        <time>2024-03-10T10:44:36Z</time>
      </trkpt>
      <trkpt lat="46.82714" lon="-0.34201">
        <ele>112.4</ele>
        <time>2024-03-10T10:44:43Z</time>
      </trkpt>
      <trkpt lat="46.82707" lon="-0.3422">
        <ele>113.8</ele>
        <time>2024-03-10T10:44:51Z</time>
      </trkpt>
      <trkpt lat="46.82705" lon="-0.34226">
        <ele>115</ele>
        <time>2024-03-10T10:44:54Z</time>
      </trkpt>
      <trkpt lat="46.827" lon="-0.34237">
        <ele>116</ele>
        <time>2024-03-10T10:45:00Z</time>
      </trkpt>
      <trkpt lat="46.827" lon="-0.34239">
        <ele>116</ele>
        <time>2024-03-10T10:45:01Z</time>
      </trkpt>
      <trkpt lat="46.82692" lon="-0.34249">
        <ele>117</ele>
        <time>2024-03-10T10:45:09Z</time>
      </trkpt>
      <trkpt lat="46.8269" lon="-0.34249">
        <ele>117</ele>
        <time>2024-03-10T10:45:10Z</time>
      </trkpt>
      <trkpt lat="46.82681" lon="-0.34251">
        <ele>117.2</ele>
        <time>2024-03-10T10:45:16Z</time>
      </trkpt>
      <trkpt lat="46.82671" lon="-0.34248">
        <ele>116.8</ele>
        <time>2024-03-10T10:45:21Z</time>
      </trkpt>
      <trkpt lat="46.82657" lon="-0.34244">
        <ele>116.4</ele>
        <time>2024-03-10T10:45:28Z</time>
      </trkpt>
      <trkpt lat="46.82652" lon="-0.34242">
        <ele>116.4</ele>
        <time>2024-03-10T10:45:31Z</time>
      </trkpt>
      <trkpt lat="46.82644" lon="-0.34237">
        <ele>116.8</ele>
        <time>2024-03-10T10:45:36Z</time>
      </trkpt>
      <trkpt lat="46.82622" lon="-0.34219">
        <ele>116.4</ele>
        <time>2024-03-10T10:45:45Z</time>
      </trkpt>
      <trkpt lat="46.82615" lon="-0.34206">
        <ele>116</ele>
        <time>2024-03-10T10:45:49Z</time>
      </trkpt>
      <trkpt lat="46.82615" lon="-0.342">
        <ele>116</ele>
        <time>2024-03-10T10:45:50Z</time>
      </trkpt>
      <trkpt lat="46.82618" lon="-0.3418">
        <ele>114.8</ele>
        <time>2024-03-10T10:45:53Z</time>
      </trkpt>
      <trkpt lat="46.82619" lon="-0.34165">
        <ele>113</ele>
        <time>2024-03-10T10:45:55Z</time>
      </trkpt>
      <trkpt lat="46.82618" lon="-0.34153">
        <ele>110.6</ele>
        <time>2024-03-10T10:45:57Z</time>
      </trkpt>
      <trkpt lat="46.82618" lon="-0.34148">
        <ele>109</ele>
        <time>2024-03-10T10:45:58Z</time>
      </trkpt>
      <trkpt lat="46.82618" lon="-0.34143">
        <ele>107.4</ele>
        <time>2024-03-10T10:45:59Z</time>
      </trkpt>
      <trkpt lat="46.82619" lon="-0.34139">
        <ele>106.4</ele>
        <time>2024-03-10T10:46:00Z</time>
      </trkpt>
      <trkpt lat="46.8262" lon="-0.34134">
        <ele>105</ele>
        <time>2024-03-10T10:46:02Z</time>
      </trkpt>
      <trkpt lat="46.8262" lon="-0.34132">
        <ele>104.6</ele>
        <time>2024-03-10T10:46:03Z</time>
      </trkpt>
      <trkpt lat="46.82625" lon="-0.3412">
        <ele>105.4</ele>
        <time>2024-03-10T10:46:11Z</time>
      </trkpt>
      <trkpt lat="46.82628" lon="-0.34117">
        <ele>106</ele>
        <time>2024-03-10T10:46:14Z</time>
      </trkpt>
      <trkpt lat="46.82629" lon="-0.34112">
        <ele>107</ele>
        <time>2024-03-10T10:46:17Z</time>
      </trkpt>
      <trkpt lat="46.82629" lon="-0.34111">
        <ele>107.2</ele>
        <time>2024-03-10T10:46:18Z</time>
      </trkpt>
      <trkpt lat="46.82628" lon="-0.34108">
        <ele>107.6</ele>
        <time>2024-03-10T10:46:20Z</time>
      </trkpt>
      <trkpt lat="46.82627" lon="-0.34105">
        <ele>108.2</ele>
        <time>2024-03-10T10:46:22Z</time>
      </trkpt>
      <trkpt lat="46.82624" lon="-0.34102">
        <ele>109.2</ele>
        <time>2024-03-10T10:46:25Z</time>
      </trkpt>
      <trkpt lat="46.82615" lon="-0.34095">
        <ele>109.6</ele>
        <time>2024-03-10T10:46:32Z</time>
      </trkpt>
      <trkpt lat="46.82603" lon="-0.34084">
        <ele>109.8</ele>
        <time>2024-03-10T10:46:40Z</time>
      </trkpt>
      <trkpt lat="46.82591" lon="-0.34077">
        <ele>109.8</ele>
        <time>2024-03-10T10:46:45Z</time>
      </trkpt>
      <trkpt lat="46.82582" lon="-0.34072">
        <ele>109</ele>
        <time>2024-03-10T10:46:49Z</time>
      </trkpt>
      <trkpt lat="46.82572" lon="-0.34077">
        <ele>108.2</ele>
        <time>2024-03-10T10:46:52Z</time>
      </trkpt>
      <trkpt lat="46.82566" lon="-0.34079">
        <ele>107.4</ele>
        <time>2024-03-10T10:46:53Z</time>
      </trkpt>
      <trkpt lat="46.8256" lon="-0.34082">
        <ele>107</ele>
        <time>2024-03-10T10:46:54Z</time>
      </trkpt>
      <trkpt lat="46.82548" lon="-0.34087">
        <ele>105.6</ele>
        <time>2024-03-10T10:46:56Z</time>
      </trkpt>
      <trkpt lat="46.82542" lon="-0.34086">
        <ele>104.6</ele>
        <time>2024-03-10T10:46:57Z</time>
      </trkpt>
      <trkpt lat="46.82536" lon="-0.34082">
        <ele>103.6</ele>
        <time>2024-03-10T10:46:58Z</time>
      </trkpt>
      <trkpt lat="46.8253" lon="-0.34078">
        <ele>102.2</ele>
        <time>2024-03-10T10:46:59Z</time>
      </trkpt>
      <trkpt lat="46.82518" lon="-0.34071">
        <ele>101</ele>
        <time>2024-03-10T10:47:01Z</time>
      </trkpt>
      <trkpt lat="46.82504" lon="-0.34059">
        <ele>99.8</ele>
        <time>2024-03-10T10:47:04Z</time>
      </trkpt>
      <trkpt lat="46.825" lon="-0.34054">
        <ele>98.6</ele>
        <time>2024-03-10T10:47:05Z</time>
      </trkpt>
      <trkpt lat="46.82496" lon="-0.34046">
        <ele>97.4</ele>
        <time>2024-03-10T10:47:07Z</time>
      </trkpt>
      <trkpt lat="46.82493" lon="-0.34046">
        <ele>96.6</ele>
        <time>2024-03-10T10:47:09Z</time>
      </trkpt>
      <trkpt lat="46.82492" lon="-0.34047">
        <ele>96.4</ele>
        <time>2024-03-10T10:47:10Z</time>
      </trkpt>
      <trkpt lat="46.82486" lon="-0.34056">
        <ele>95.8</ele>
        <time>2024-03-10T10:47:15Z</time>
      </trkpt>
      <trkpt lat="46.8248" lon="-0.34068">
        <ele>95.4</ele>
        <time>2024-03-10T10:47:21Z</time>
      </trkpt>
      <trkpt lat="46.82477" lon="-0.34073">
        <ele>95.2</ele>
        <time>2024-03-10T10:47:24Z</time>
      </trkpt>
      <trkpt lat="46.82467" lon="-0.34085">
        <ele>95</ele>
        <time>2024-03-10T10:47:32Z</time>
      </trkpt>
      <trkpt lat="46.82465" lon="-0.34087">
        <ele>94.6</ele>
        <time>2024-03-10T10:47:34Z</time>
      </trkpt>
      <trkpt lat="46.82461" lon="-0.3409">
        <ele>94.4</ele>
        <time>2024-03-10T10:47:37Z</time>
      </trkpt>
      <trkpt lat="46.82459" lon="-0.34092">
        <ele>94</ele>
        <time>2024-03-10T10:47:39Z</time>
      </trkpt>
      <trkpt lat="46.82451" lon="-0.34097">
        <ele>94.2</ele>
        <time>2024-03-10T10:47:46Z</time>
      </trkpt>
      <trkpt lat="46.82441" lon="-0.34105">
        <ele>94.4</ele>
        <time>2024-03-10T10:47:52Z</time>
      </trkpt>
      <trkpt lat="46.8243" lon="-0.34116">
        <ele>94.4</ele>
        <time>2024-03-10T10:48:00Z</time>
      </trkpt>
      <trkpt lat="46.82421" lon="-0.34128">
        <ele>94.6</ele>
        <time>2024-03-10T10:48:08Z</time>
      </trkpt>
      <trkpt lat="46.82415" lon="-0.34138">
        <ele>94.4</ele>
        <time>2024-03-10T10:48:14Z</time>
      </trkpt>
      <trkpt lat="46.82414" lon="-0.34141">
        <ele>94.4</ele>
        <time>2024-03-10T10:48:16Z</time>
      </trkpt>
      <trkpt lat="46.82414" lon="-0.34146">
        <ele>94.2</ele>
        <time>2024-03-10T10:48:19Z</time>
      </trkpt>
      <trkpt lat="46.82416" lon="-0.34152">
        <ele>94.6</ele>
        <time>2024-03-10T10:48:25Z</time>
      </trkpt>
      <trkpt lat="46.82417" lon="-0.34152">
        <ele>94.8</ele>
        <time>2024-03-10T10:48:26Z</time>
      </trkpt>
      <trkpt lat="46.82419" lon="-0.34156">
        <ele>95.4</ele>
        <time>2024-03-10T10:48:31Z</time>
      </trkpt>
      <trkpt lat="46.8242" lon="-0.34158">
        <ele>95.6</ele>
        <time>2024-03-10T10:48:36Z</time>
      </trkpt>
      <trkpt lat="46.82422" lon="-0.34162">
        <ele>96.4</ele>
        <time>2024-03-10T10:48:44Z</time>
      </trkpt>
      <trkpt lat="46.82423" lon="-0.34162">
        <ele>96.6</ele>
        <time>2024-03-10T10:48:49Z</time>
      </trkpt>
      <trkpt lat="46.82425" lon="-0.34162">
        <ele>96.6</ele>
        <time>2024-03-10T10:48:51Z</time>
      </trkpt>
      <trkpt lat="46.82435" lon="-0.34164">
        <ele>97.6</ele>
        <time>2024-03-10T10:48:59Z</time>
      </trkpt>
      <trkpt lat="46.82439" lon="-0.34164">
        <ele>98.6</ele>
        <time>2024-03-10T10:49:03Z</time>
      </trkpt>
      <trkpt lat="46.82442" lon="-0.34163">
        <ele>99.4</ele>
        <time>2024-03-10T10:49:06Z</time>
      </trkpt>
      <trkpt lat="46.82443" lon="-0.34164">
        <ele>99.4</ele>
        <time>2024-03-10T10:49:07Z</time>
      </trkpt>
      <trkpt lat="46.82445" lon="-0.34165">
        <ele>100</ele>
        <time>2024-03-10T10:49:09Z</time>
      </trkpt>
      <trkpt lat="46.82446" lon="-0.34166">
        <ele>101</ele>
        <time>2024-03-10T10:49:11Z</time>
      </trkpt>
      <trkpt lat="46.82446" lon="-0.34166">
        <ele>101.4</ele>
        <time>2024-03-10T10:49:12Z</time>
      </trkpt>
      <trkpt lat="46.82447" lon="-0.34167">
        <ele>101.8</ele>
        <time>2024-03-10T10:49:14Z</time>
      </trkpt>
      <trkpt lat="46.82448" lon="-0.34168">
        <ele>102.2</ele>
        <time>2024-03-10T10:49:16Z</time>
      </trkpt>
      <trkpt lat="46.82452" lon="-0.34167">
        <ele>103.2</ele>
        <time>2024-03-10T10:49:24Z</time>
      </trkpt>
      <trkpt lat="46.82452" lon="-0.34167">
        <ele>103.6</ele>
        <time>2024-03-10T10:49:25Z</time>
      </trkpt>
      <trkpt lat="46.82454" lon="-0.34169">
        <ele>104.4</ele>
        <time>2024-03-10T10:49:33Z</time>
      </trkpt>
      <trkpt lat="46.82455" lon="-0.34169">
        <ele>104.4</ele>
        <time>2024-03-10T10:49:35Z</time>
      </trkpt>
      <trkpt lat="46.82458" lon="-0.34172">
        <ele>105.4</ele>
        <time>2024-03-10T10:49:43Z</time>
      </trkpt>
      <trkpt lat="46.82458" lon="-0.34173">
        <ele>105.6</ele>
        <time>2024-03-10T10:49:44Z</time>
      </trkpt>
      <trkpt lat="46.82458" lon="-0.34182">
        <ele>106.6</ele>
        <time>2024-03-10T10:49:51Z</time>
      </trkpt>
      <trkpt lat="46.82458" lon="-0.34183">
        <ele>106.8</ele>
        <time>2024-03-10T10:49:57Z</time>
      </trkpt>
      <trkpt lat="46.82456" lon="-0.34192">
        <ele>107.2</ele>
        <time>2024-03-10T10:50:02Z</time>
      </trkpt>
      <trkpt lat="46.82456" lon="-0.34196">
        <ele>107.6</ele>
        <time>2024-03-10T10:50:04Z</time>
      </trkpt>
      <trkpt lat="46.82457" lon="-0.3421">
        <ele>108.8</ele>
        <time>2024-03-10T10:50:11Z</time>
      </trkpt>
      <trkpt lat="46.82457" lon="-0.3422">
        <ele>110</ele>
        <time>2024-03-10T10:50:16Z</time>
      </trkpt>
      <trkpt lat="46.82456" lon="-0.34224">
        <ele>110.4</ele>
        <time>2024-03-10T10:50:18Z</time>
      </trkpt>
      <trkpt lat="46.82451" lon="-0.34237">
        <ele>111.2</ele>
        <time>2024-03-10T10:50:24Z</time>
      </trkpt>
      <trkpt lat="46.82449" lon="-0.34241">
        <ele>111.2</ele>
        <time>2024-03-10T10:50:26Z</time>
      </trkpt>
      <trkpt lat="46.82442" lon="-0.34256">
        <ele>112.2</ele>
        <time>2024-03-10T10:50:33Z</time>
      </trkpt>
      <trkpt lat="46.82438" lon="-0.34263">
        <ele>112.4</ele>
        <time>2024-03-10T10:50:36Z</time>
      </trkpt>
      <trkpt lat="46.82429" lon="-0.34284">
        <ele>112.8</ele>
        <time>2024-03-10T10:50:44Z</time>
      </trkpt>
      <trkpt lat="46.8242" lon="-0.34309">
        <ele>113</ele>
        <time>2024-03-10T10:50:51Z</time>
      </trkpt>
      <trkpt lat="46.82404" lon="-0.34337">
        <ele>112</ele>
        <time>2024-03-10T10:50:59Z</time>
      </trkpt>
      <trkpt lat="46.82392" lon="-0.34364">
        <ele>111</ele>
        <time>2024-03-10T10:51:04Z</time>
      </trkpt>
      <trkpt lat="46.82389" lon="-0.34369">
        <ele>110.8</ele>
        <time>2024-03-10T10:51:05Z</time>
      </trkpt>
      <trkpt lat="46.8238" lon="-0.34385">
        <ele>110</ele>
        <time>2024-03-10T10:51:08Z</time>
      </trkpt>
      <trkpt lat="46.82377" lon="-0.3439">
        <ele>109.8</ele>
        <time>2024-03-10T10:51:09Z</time>
      </trkpt>
      <trkpt lat="46.82372" lon="-0.34402">
        <ele>109.4</ele>
        <time>2024-03-10T10:51:11Z</time>
      </trkpt>
      <trkpt lat="46.8237" lon="-0.34407">
        <ele>109.4</ele>
        <time>2024-03-10T10:51:12Z</time>
      </trkpt>
      <trkpt lat="46.82366" lon="-0.3441">
        <ele>109.2</ele>
        <time>2024-03-10T10:51:13Z</time>
      </trkpt>
      <trkpt lat="46.82356" lon="-0.3442">
        <ele>108.6</ele>
        <time>2024-03-10T10:51:16Z</time>
      </trkpt>
      <trkpt lat="46.82354" lon="-0.34424">
        <ele>108.4</ele>
        <time>2024-03-10T10:51:17Z</time>
      </trkpt>
      <trkpt lat="46.82348" lon="-0.34441">
        <ele>107.6</ele>
        <time>2024-03-10T10:51:21Z</time>
      </trkpt>
      <trkpt lat="46.82348" lon="-0.34445">
        <ele>107.6</ele>
        <time>2024-03-10T10:51:22Z</time>
      </trkpt>
      <trkpt lat="46.82343" lon="-0.34479">
        <ele>108</ele>
        <time>2024-03-10T10:51:29Z</time>
      </trkpt>
      <trkpt lat="46.82342" lon="-0.3449">
        <ele>108.6</ele>
        <time>2024-03-10T10:51:32Z</time>
      </trkpt>
      <trkpt lat="46.82341" lon="-0.34492">
        <ele>108.8</ele>
        <time>2024-03-10T10:51:33Z</time>
      </trkpt>
      <trkpt lat="46.8234" lon="-0.34493">
        <ele>108.8</ele>
        <time>2024-03-10T10:51:34Z</time>
      </trkpt>
      <trkpt lat="46.82332" lon="-0.34495">
        <ele>108</ele>
        <time>2024-03-10T10:51:39Z</time>
      </trkpt>
      <trkpt lat="46.8233" lon="-0.34496">
        <ele>107.6</ele>
        <time>2024-03-10T10:51:40Z</time>
      </trkpt>
      <trkpt lat="46.8233" lon="-0.34498">
        <ele>107.4</ele>
        <time>2024-03-10T10:51:41Z</time>
      </trkpt>
      <trkpt lat="46.82329" lon="-0.345">
        <ele>107.2</ele>
        <time>2024-03-10T10:51:42Z</time>
      </trkpt>
      <trkpt lat="46.82331" lon="-0.34507">
        <ele>107</ele>
        <time>2024-03-10T10:51:45Z</time>
      </trkpt>
      <trkpt lat="46.82335" lon="-0.34526">
        <ele>107.8</ele>
        <time>2024-03-10T10:51:53Z</time>
      </trkpt>
      <trkpt lat="46.82341" lon="-0.34543">
        <ele>108</ele>
        <time>2024-03-10T10:52:00Z</time>
      </trkpt>
      <trkpt lat="46.82347" lon="-0.34553">
        <ele>108.4</ele>
        <time>2024-03-10T10:52:05Z</time>
      </trkpt>
      <trkpt lat="46.82349" lon="-0.34556">
        <ele>109</ele>
        <time>2024-03-10T10:52:07Z</time>
      </trkpt>
      <trkpt lat="46.8235" lon="-0.34557">
        <ele>109.6</ele>
        <time>2024-03-10T10:52:10Z</time>
      </trkpt>
      <trkpt lat="46.82351" lon="-0.34558">
        <ele>109.8</ele>
        <time>2024-03-10T10:52:11Z</time>
      </trkpt>
      <trkpt lat="46.82353" lon="-0.34561">
        <ele>110.6</ele>
        <time>2024-03-10T10:52:15Z</time>
      </trkpt>
      <trkpt lat="46.82356" lon="-0.34563">
        <ele>111.4</ele>
        <time>2024-03-10T10:52:20Z</time>
      </trkpt>
      <trkpt lat="46.82358" lon="-0.34564">
        <ele>111.6</ele>
        <time>2024-03-10T10:52:22Z</time>
      </trkpt>
      <trkpt lat="46.82358" lon="-0.34564">
        <ele>112</ele>
        <time>2024-03-10T10:52:25Z</time>
      </trkpt>
      <trkpt lat="46.82361" lon="-0.34568">
        <ele>112</ele>
        <time>2024-03-10T10:52:29Z</time>
      </trkpt>
      <trkpt lat="46.82364" lon="-0.34571">
        <ele>112.6</ele>
        <time>2024-03-10T10:52:32Z</time>
      </trkpt>
      <trkpt lat="46.82366" lon="-0.34573">
        <ele>113.2</ele>
        <time>2024-03-10T10:52:34Z</time>
      </trkpt>
      <trkpt lat="46.82367" lon="-0.34574">
        <ele>113.4</ele>
        <time>2024-03-10T10:52:35Z</time>
      </trkpt>
      <trkpt lat="46.82368" lon="-0.34576">
        <ele>113.8</ele>
        <time>2024-03-10T10:52:37Z</time>
      </trkpt>
      <trkpt lat="46.82374" lon="-0.3458">
        <ele>115</ele>
        <time>2024-03-10T10:52:42Z</time>
      </trkpt>
      <trkpt lat="46.82379" lon="-0.34584">
        <ele>116.2</ele>
        <time>2024-03-10T10:52:47Z</time>
      </trkpt>
      <trkpt lat="46.82382" lon="-0.34589">
        <ele>116.8</ele>
        <time>2024-03-10T10:52:50Z</time>
      </trkpt>
      <trkpt lat="46.82383" lon="-0.34591">
        <ele>117.2</ele>
        <time>2024-03-10T10:52:52Z</time>
      </trkpt>
      <trkpt lat="46.82385" lon="-0.34598">
        <ele>118.6</ele>
        <time>2024-03-10T10:52:56Z</time>
      </trkpt>
      <trkpt lat="46.82387" lon="-0.34601">
        <ele>119</ele>
        <time>2024-03-10T10:52:59Z</time>
      </trkpt>
      <trkpt lat="46.8239" lon="-0.34604">
        <ele>119.2</ele>
        <time>2024-03-10T10:53:02Z</time>
      </trkpt>
      <trkpt lat="46.82392" lon="-0.34605">
        <ele>119.8</ele>
        <time>2024-03-10T10:53:04Z</time>
      </trkpt>
      <trkpt lat="46.82393" lon="-0.34605">
        <ele>120</ele>
        <time>2024-03-10T10:53:05Z</time>
      </trkpt>
      <trkpt lat="46.82394" lon="-0.34605">
        <ele>120</ele>
        <time>2024-03-10T10:53:06Z</time>
      </trkpt>
      <trkpt lat="46.82399" lon="-0.34602">
        <ele>120.8</ele>
        <time>2024-03-10T10:53:10Z</time>
      </trkpt>
      <trkpt lat="46.82407" lon="-0.346">
        <ele>121.4</ele>
        <time>2024-03-10T10:53:15Z</time>
      </trkpt>
      <trkpt lat="46.82415" lon="-0.34598">
        <ele>122</ele>
        <time>2024-03-10T10:53:20Z</time>
      </trkpt>
      <trkpt lat="46.82417" lon="-0.34598">
        <ele>122.2</ele>
        <time>2024-03-10T10:53:21Z</time>
      </trkpt>
      <trkpt lat="46.82439" lon="-0.346">
        <ele>122.2</ele>
        <time>2024-03-10T10:53:31Z</time>
      </trkpt>
      <trkpt lat="46.8246" lon="-0.346">
        <ele>123</ele>
        <time>2024-03-10T10:53:40Z</time>
      </trkpt>
      <trkpt lat="46.82465" lon="-0.34599">
        <ele>123</ele>
        <time>2024-03-10T10:53:42Z</time>
      </trkpt>
      <trkpt lat="46.82478" lon="-0.34598">
        <ele>123.2</ele>
        <time>2024-03-10T10:53:48Z</time>
      </trkpt>
      <trkpt lat="46.82479" lon="-0.346">
        <ele>123.2</ele>
        <time>2024-03-10T10:53:49Z</time>
      </trkpt>
      <trkpt lat="46.8248" lon="-0.34605">
        <ele>122.8</ele>
        <time>2024-03-10T10:53:51Z</time>
      </trkpt>
      <trkpt lat="46.82479" lon="-0.34608">
        <ele>122.8</ele>
        <time>2024-03-10T10:53:52Z</time>
      </trkpt>
      <trkpt lat="46.82472" lon="-0.34627">
        <ele>122.4</ele>
        <time>2024-03-10T10:53:58Z</time>
      </trkpt>
      <trkpt lat="46.82471" lon="-0.34631">
        <ele>121.8</ele>
        <time>2024-03-10T10:54:00Z</time>
      </trkpt>
      <trkpt lat="46.82465" lon="-0.34645">
        <ele>120.8</ele>
        <time>2024-03-10T10:54:02Z</time>
      </trkpt>
      <trkpt lat="46.82464" lon="-0.34648">
        <ele>120.4</ele>
        <time>2024-03-10T10:54:03Z</time>
      </trkpt>
      <trkpt lat="46.82464" lon="-0.34651">
        <ele>120.2</ele>
        <time>2024-03-10T10:54:04Z</time>
      </trkpt>
      <trkpt lat="46.82465" lon="-0.34657">
        <ele>119.4</ele>
        <time>2024-03-10T10:54:06Z</time>
      </trkpt>
      <trkpt lat="46.82467" lon="-0.3466">
        <ele>119</ele>
        <time>2024-03-10T10:54:07Z</time>
      </trkpt>
      <trkpt lat="46.82474" lon="-0.34681">
        <ele>118.2</ele>
        <time>2024-03-10T10:54:11Z</time>
      </trkpt>
      <trkpt lat="46.82484" lon="-0.34713">
        <ele>117</ele>
        <time>2024-03-10T10:54:15Z</time>
      </trkpt>
      <trkpt lat="46.82487" lon="-0.3472">
        <ele>116.6</ele>
        <time>2024-03-10T10:54:16Z</time>
      </trkpt>
      <trkpt lat="46.82494" lon="-0.34732">
        <ele>116</ele>
        <time>2024-03-10T10:54:18Z</time>
      </trkpt>
      <trkpt lat="46.82506" lon="-0.34752">
        <ele>115.6</ele>
        <time>2024-03-10T10:54:22Z</time>
      </trkpt>
      <trkpt lat="46.8253" lon="-0.34791">
        <ele>115</ele>
        <time>2024-03-10T10:54:30Z</time>
      </trkpt>
      <trkpt lat="46.82536" lon="-0.348">
        <ele>115</ele>
        <time>2024-03-10T10:54:32Z</time>
      </trkpt>
      <trkpt lat="46.82546" lon="-0.34807">
        <ele>114</ele>
        <time>2024-03-10T10:54:35Z</time>
      </trkpt>
      <trkpt lat="46.82549" lon="-0.34807">
        <ele>113.8</ele>
        <time>2024-03-10T10:54:36Z</time>
      </trkpt>
      <trkpt lat="46.82555" lon="-0.34805">
        <ele>113.6</ele>
        <time>2024-03-10T10:54:39Z</time>
      </trkpt>
      <trkpt lat="46.82576" lon="-0.34799">
        <ele>114.6</ele>
        <time>2024-03-10T10:54:47Z</time>
      </trkpt>
      <trkpt lat="46.82578" lon="-0.34798">
        <ele>114.8</ele>
        <time>2024-03-10T10:54:48Z</time>
      </trkpt>
      <trkpt lat="46.82585" lon="-0.34801">
        <ele>114.8</ele>
        <time>2024-03-10T10:54:52Z</time>
      </trkpt>
      <trkpt lat="46.82586" lon="-0.34803">
        <ele>114.6</ele>
        <time>2024-03-10T10:54:53Z</time>
      </trkpt>
      <trkpt lat="46.82584" lon="-0.34808">
        <ele>114.6</ele>
        <time>2024-03-10T10:54:55Z</time>
      </trkpt>
      <trkpt lat="46.82582" lon="-0.34809">
        <ele>114.2</ele>
        <time>2024-03-10T10:54:56Z</time>
      </trkpt>
      <trkpt lat="46.82579" lon="-0.34809">
        <ele>113.8</ele>
        <time>2024-03-10T10:54:57Z</time>
      </trkpt>
      <trkpt lat="46.82569" lon="-0.3481">
        <ele>113.4</ele>
        <time>2024-03-10T10:55:00Z</time>
      </trkpt>
      <trkpt lat="46.82549" lon="-0.34818">
        <ele>112.8</ele>
        <time>2024-03-10T10:55:06Z</time>
      </trkpt>
      <trkpt lat="46.82545" lon="-0.3482">
        <ele>112.4</ele>
        <time>2024-03-10T10:55:07Z</time>
      </trkpt>
      <trkpt lat="46.8253" lon="-0.34827">
        <ele>111.6</ele>
        <time>2024-03-10T10:55:10Z</time>
      </trkpt>
      <trkpt lat="46.82526" lon="-0.34829">
        <ele>111.4</ele>
        <time>2024-03-10T10:55:11Z</time>
      </trkpt>
      <trkpt lat="46.82522" lon="-0.34833">
        <ele>110.4</ele>
        <time>2024-03-10T10:55:13Z</time>
      </trkpt>
      <trkpt lat="46.82521" lon="-0.34835">
        <ele>110</ele>
        <time>2024-03-10T10:55:14Z</time>
      </trkpt>
      <trkpt lat="46.82522" lon="-0.34839">
        <ele>109</ele>
        <time>2024-03-10T10:55:16Z</time>
      </trkpt>
      <trkpt lat="46.82523" lon="-0.34842">
        <ele>108.6</ele>
        <time>2024-03-10T10:55:17Z</time>
      </trkpt>
      <trkpt lat="46.82523" lon="-0.34846">
        <ele>107.8</ele>
        <time>2024-03-10T10:55:18Z</time>
      </trkpt>
      <trkpt lat="46.82524" lon="-0.34854">
        <ele>106.6</ele>
        <time>2024-03-10T10:55:20Z</time>
      </trkpt>
      <trkpt lat="46.82525" lon="-0.34857">
        <ele>106.2</ele>
        <time>2024-03-10T10:55:21Z</time>
      </trkpt>
      <trkpt lat="46.82528" lon="-0.34863">
        <ele>105.4</ele>
        <time>2024-03-10T10:55:23Z</time>
      </trkpt>
      <trkpt lat="46.8253" lon="-0.3487">
        <ele>104.2</ele>
        <time>2024-03-10T10:55:26Z</time>
      </trkpt>
      <trkpt lat="46.8253" lon="-0.34872">
        <ele>103.6</ele>
        <time>2024-03-10T10:55:27Z</time>
      </trkpt>
      <trkpt lat="46.82527" lon="-0.34878">
        <ele>102.8</ele>
        <time>2024-03-10T10:55:29Z</time>
      </trkpt>
      <trkpt lat="46.82526" lon="-0.3488">
        <ele>102.4</ele>
        <time>2024-03-10T10:55:30Z</time>
      </trkpt>
      <trkpt lat="46.82522" lon="-0.34889">
        <ele>102.2</ele>
        <time>2024-03-10T10:55:35Z</time>
      </trkpt>
      <trkpt lat="46.82523" lon="-0.34893">
        <ele>102.4</ele>
        <time>2024-03-10T10:55:36Z</time>
      </trkpt>
      <trkpt lat="46.82533" lon="-0.34905">
        <ele>103.2</ele>
        <time>2024-03-10T10:55:41Z</time>
      </trkpt>
      <trkpt lat="46.82542" lon="-0.34918">
        <ele>104</ele>
        <time>2024-03-10T10:55:46Z</time>
      </trkpt>
      <trkpt lat="46.82552" lon="-0.34929">
        <ele>104.6</ele>
        <time>2024-03-10T10:55:51Z</time>
      </trkpt>
      <trkpt lat="46.82556" lon="-0.34933">
        <ele>105.2</ele>
        <time>2024-03-10T10:55:53Z</time>
      </trkpt>
      <trkpt lat="46.82569" lon="-0.34944">
        <ele>106.2</ele>
        <time>2024-03-10T10:55:59Z</time>
      </trkpt>
      <trkpt lat="46.82571" lon="-0.34946">
        <ele>106.4</ele>
        <time>2024-03-10T10:56:00Z</time>
      </trkpt>
      <trkpt lat="46.82587" lon="-0.3496">
        <ele>107.4</ele>
        <time>2024-03-10T10:56:06Z</time>
      </trkpt>
      <trkpt lat="46.8259" lon="-0.34962">
        <ele>107.8</ele>
        <time>2024-03-10T10:56:07Z</time>
      </trkpt>
      <trkpt lat="46.82598" lon="-0.34967">
        <ele>108.6</ele>
        <time>2024-03-10T10:56:10Z</time>
      </trkpt>
      <trkpt lat="46.82608" lon="-0.34974">
        <ele>109.4</ele>
        <time>2024-03-10T10:56:14Z</time>
      </trkpt>
      <trkpt lat="46.8261" lon="-0.34976">
        <ele>109.6</ele>
        <time>2024-03-10T10:56:15Z</time>
      </trkpt>
      <trkpt lat="46.82627" lon="-0.34988">
        <ele>110.4</ele>
        <time>2024-03-10T10:56:21Z</time>
      </trkpt>
      <trkpt lat="46.8263" lon="-0.3499">
        <ele>110.6</ele>
        <time>2024-03-10T10:56:22Z</time>
      </trkpt>
      <trkpt lat="46.82648" lon="-0.35002">
        <ele>111.8</ele>
        <time>2024-03-10T10:56:28Z</time>
      </trkpt>
      <trkpt lat="46.82655" lon="-0.35007">
        <ele>112</ele>
        <time>2024-03-10T10:56:30Z</time>
      </trkpt>
      <trkpt lat="46.8267" lon="-0.35018">
        <ele>112.8</ele>
        <time>2024-03-10T10:56:35Z</time>
      </trkpt>
      <trkpt lat="46.82679" lon="-0.35024">
        <ele>113.4</ele>
        <time>2024-03-10T10:56:38Z</time>
      </trkpt>
      <trkpt lat="46.82688" lon="-0.35032">
        <ele>113.8</ele>
        <time>2024-03-10T10:56:41Z</time>
      </trkpt>
      <trkpt lat="46.82697" lon="-0.35039">
        <ele>114.8</ele>
        <time>2024-03-10T10:56:44Z</time>
      </trkpt>
      <trkpt lat="46.827" lon="-0.35042">
        <ele>115</ele>
        <time>2024-03-10T10:56:45Z</time>
      </trkpt>
      <trkpt lat="46.82719" lon="-0.35061">
        <ele>116.2</ele>
        <time>2024-03-10T10:56:52Z</time>
      </trkpt>
      <trkpt lat="46.82729" lon="-0.35073">
        <ele>117.4</ele>
        <time>2024-03-10T10:56:56Z</time>
      </trkpt>
      <trkpt lat="46.82739" lon="-0.35085">
        <ele>118.4</ele>
        <time>2024-03-10T10:57:00Z</time>
      </trkpt>
      <trkpt lat="46.82752" lon="-0.35103">
        <ele>119.4</ele>
        <time>2024-03-10T10:57:06Z</time>
      </trkpt>
      <trkpt lat="46.82754" lon="-0.35106">
        <ele>119.6</ele>
        <time>2024-03-10T10:57:07Z</time>
      </trkpt>
      <trkpt lat="46.82772" lon="-0.35127">
        <ele>120.2</ele>
        <time>2024-03-10T10:57:15Z</time>
      </trkpt>
      <trkpt lat="46.82776" lon="-0.35134">
        <ele>120.6</ele>
        <time>2024-03-10T10:57:17Z</time>
      </trkpt>
      <trkpt lat="46.82786" lon="-0.35146">
        <ele>121</ele>
        <time>2024-03-10T10:57:21Z</time>
      </trkpt>
      <trkpt lat="46.82793" lon="-0.35155">
        <ele>121.6</ele>
        <time>2024-03-10T10:57:24Z</time>
      </trkpt>
      <trkpt lat="46.82802" lon="-0.35165">
        <ele>121.8</ele>
        <time>2024-03-10T10:57:28Z</time>
      </trkpt>
      <trkpt lat="46.82815" lon="-0.35179">
        <ele>122.6</ele>
        <time>2024-03-10T10:57:33Z</time>
      </trkpt>
      <trkpt lat="46.82823" lon="-0.35187">
        <ele>123.2</ele>
        <time>2024-03-10T10:57:36Z</time>
      </trkpt>
      <trkpt lat="46.82834" lon="-0.35198">
        <ele>123.6</ele>
        <time>2024-03-10T10:57:40Z</time>
      </trkpt>
      <trkpt lat="46.82848" lon="-0.3521">
        <ele>124.4</ele>
        <time>2024-03-10T10:57:45Z</time>
      </trkpt>
      <trkpt lat="46.82856" lon="-0.35218">
        <ele>124.6</ele>
        <time>2024-03-10T10:57:48Z</time>
      </trkpt>
      <trkpt lat="46.82864" lon="-0.35229">
        <ele>125.6</ele>
        <time>2024-03-10T10:57:52Z</time>
      </trkpt>
      <trkpt lat="46.82866" lon="-0.35232">
        <ele>125.8</ele>
        <time>2024-03-10T10:57:53Z</time>
      </trkpt>
      <trkpt lat="46.82876" lon="-0.35244">
        <ele>126.8</ele>
        <time>2024-03-10T10:57:58Z</time>
      </trkpt>
      <trkpt lat="46.82878" lon="-0.35247">
        <ele>126.8</ele>
        <time>2024-03-10T10:57:59Z</time>
      </trkpt>
      <trkpt lat="46.8288" lon="-0.35249">
        <ele>127</ele>
        <time>2024-03-10T10:58:00Z</time>
      </trkpt>
      <trkpt lat="46.8289" lon="-0.35261">
        <ele>127.8</ele>
        <time>2024-03-10T10:58:05Z</time>
      </trkpt>
      <trkpt lat="46.82892" lon="-0.35269">
        <ele>128.4</ele>
        <time>2024-03-10T10:58:07Z</time>
      </trkpt>
      <trkpt lat="46.82899" lon="-0.35286">
        <ele>128.8</ele>
        <time>2024-03-10T10:58:12Z</time>
      </trkpt>
      <trkpt lat="46.82902" lon="-0.35291">
        <ele>129.6</ele>
        <time>2024-03-10T10:58:14Z</time>
      </trkpt>
      <trkpt lat="46.82905" lon="-0.35296">
        <ele>130</ele>
        <time>2024-03-10T10:58:16Z</time>
      </trkpt>
      <trkpt lat="46.82908" lon="-0.35301">
        <ele>130.4</ele>
        <time>2024-03-10T10:58:18Z</time>
      </trkpt>
      <trkpt lat="46.82912" lon="-0.35301">
        <ele>130.8</ele>
        <time>2024-03-10T10:58:20Z</time>
      </trkpt>
      <trkpt lat="46.82916" lon="-0.353">
        <ele>131</ele>
        <time>2024-03-10T10:58:22Z</time>
      </trkpt>
      <trkpt lat="46.82928" lon="-0.35299">
        <ele>131.8</ele>
        <time>2024-03-10T10:58:27Z</time>
      </trkpt>
      <trkpt lat="46.82932" lon="-0.35304">
        <ele>132</ele>
        <time>2024-03-10T10:58:29Z</time>
      </trkpt>
      <trkpt lat="46.82938" lon="-0.35312">
        <ele>132.4</ele>
        <time>2024-03-10T10:58:32Z</time>
      </trkpt>
      <trkpt lat="46.82955" lon="-0.35323">
        <ele>133</ele>
        <time>2024-03-10T10:58:38Z</time>
      </trkpt>
      <trkpt lat="46.82958" lon="-0.35323">
        <ele>133.2</ele>
        <time>2024-03-10T10:58:39Z</time>
      </trkpt>
      <trkpt lat="46.82971" lon="-0.3532">
        <ele>133.8</ele>
        <time>2024-03-10T10:58:44Z</time>
      </trkpt>
      <trkpt lat="46.82977" lon="-0.35321">
        <ele>134</ele>
        <time>2024-03-10T10:58:46Z</time>
      </trkpt>
      <trkpt lat="46.8298" lon="-0.35323">
        <ele>134</ele>
        <time>2024-03-10T10:58:47Z</time>
      </trkpt>
      <trkpt lat="46.82987" lon="-0.35333">
        <ele>134.2</ele>
        <time>2024-03-10T10:58:50Z</time>
      </trkpt>
      <trkpt lat="46.82993" lon="-0.35338">
        <ele>134.6</ele>
        <time>2024-03-10T10:58:52Z</time>
      </trkpt>
      <trkpt lat="46.83009" lon="-0.35342">
        <ele>135.2</ele>
        <time>2024-03-10T10:58:57Z</time>
      </trkpt>
      <trkpt lat="46.83013" lon="-0.35343">
        <ele>135.4</ele>
        <time>2024-03-10T10:58:58Z</time>
      </trkpt>
      <trkpt lat="46.83038" lon="-0.3535">
        <ele>135.4</ele>
        <time>2024-03-10T10:59:05Z</time>
      </trkpt>
      <trkpt lat="46.83048" lon="-0.35368">
        <ele>135.8</ele>
        <time>2024-03-10T10:59:10Z</time>
      </trkpt>
      <trkpt lat="46.83054" lon="-0.35387">
        <ele>136.4</ele>
        <time>2024-03-10T10:59:14Z</time>
      </trkpt>
      <trkpt lat="46.8306" lon="-0.35403">
        <ele>136.6</ele>
        <time>2024-03-10T10:59:17Z</time>
      </trkpt>
      <trkpt lat="46.83069" lon="-0.35435">
        <ele>137.4</ele>
        <time>2024-03-10T10:59:23Z</time>
      </trkpt>
      <trkpt lat="46.8307" lon="-0.3544">
        <ele>137.6</ele>
        <time>2024-03-10T10:59:24Z</time>
      </trkpt>
      <trkpt lat="46.83079" lon="-0.35477">
        <ele>138.2</ele>
        <time>2024-03-10T10:59:31Z</time>
      </trkpt>
      <trkpt lat="46.83089" lon="-0.35513">
        <ele>137.8</ele>
        <time>2024-03-10T10:59:38Z</time>
      </trkpt>
      <trkpt lat="46.83088" lon="-0.35517">
        <ele>137.8</ele>
        <time>2024-03-10T10:59:39Z</time>
      </trkpt>
      <trkpt lat="46.83082" lon="-0.35524">
        <ele>137.6</ele>
        <time>2024-03-10T10:59:41Z</time>
      </trkpt>
      <trkpt lat="46.83075" lon="-0.35527">
        <ele>137.8</ele>
        <time>2024-03-10T10:59:43Z</time>
      </trkpt>
      <trkpt lat="46.83067" lon="-0.35531">
        <ele>137.6</ele>
        <time>2024-03-10T10:59:45Z</time>
      </trkpt>
      <trkpt lat="46.83049" lon="-0.35549">
        <ele>137.2</ele>
        <time>2024-03-10T10:59:50Z</time>
      </trkpt>
      <trkpt lat="46.83039" lon="-0.35559">
        <ele>136.4</ele>
        <time>2024-03-10T10:59:54Z</time>
      </trkpt>
      <trkpt lat="46.83038" lon="-0.3556">
        <ele>136</ele>
        <time>2024-03-10T10:59:56Z</time>
      </trkpt>
      <trkpt lat="46.83038" lon="-0.3556">
        <ele>135.6</ele>
        <time>2024-03-10T10:59:59Z</time>
      </trkpt>
      <trkpt lat="46.83038" lon="-0.35562">
        <ele>135.2</ele>
        <time>2024-03-10T11:00:12Z</time>
      </trkpt>
      <trkpt lat="46.83039" lon="-0.35562">
        <ele>135.4</ele>
        <time>2024-03-10T11:00:16Z</time>
      </trkpt>
      <trkpt lat="46.83039" lon="-0.35562">
        <ele>135.4</ele>
        <time>2024-03-10T11:00:33Z</time>
      </trkpt>
      <trkpt lat="46.83039" lon="-0.35562">
        <ele>135.2</ele>
        <time>2024-03-10T11:00:46Z</time>
      </trkpt>
      <trkpt lat="46.83039" lon="-0.35563">
        <ele>135.2</ele>
        <time>2024-03-10T11:01:03Z</time>
      </trkpt>
      <trkpt lat="46.83032" lon="-0.35567">
        <ele>135.2</ele>
        <time>2024-03-10T11:01:10Z</time>
      </trkpt>
      <trkpt lat="46.83031" lon="-0.35571">
        <ele>135.2</ele>
        <time>2024-03-10T11:01:12Z</time>
      </trkpt>
      <trkpt lat="46.8303" lon="-0.35575">
        <ele>135.2</ele>
        <time>2024-03-10T11:01:14Z</time>
      </trkpt>
      <trkpt lat="46.83031" lon="-0.35589">
        <ele>135</ele>
        <time>2024-03-10T11:01:20Z</time>
      </trkpt>
      <trkpt lat="46.8303" lon="-0.35598">
        <ele>134</ele>
        <time>2024-03-10T11:01:25Z</time>
      </trkpt>
      <trkpt lat="46.8303" lon="-0.35599">
        <ele>134</ele>
        <time>2024-03-10T11:01:26Z</time>
      </trkpt>
      <trkpt lat="46.83024" lon="-0.35611">
        <ele>133</ele>
        <time>2024-03-10T11:01:32Z</time>
      </trkpt>
      <trkpt lat="46.83023" lon="-0.35613">
        <ele>132.8</ele>
        <time>2024-03-10T11:01:33Z</time>
      </trkpt>
      <trkpt lat="46.83021" lon="-0.35615">
        <ele>132.2</ele>
        <time>2024-03-10T11:01:36Z</time>
      </trkpt>
      <trkpt lat="46.83021" lon="-0.35616">
        <ele>132.2</ele>
        <time>2024-03-10T11:01:38Z</time>
      </trkpt>
      <trkpt lat="46.83021" lon="-0.35622">
        <ele>132</ele>
        <time>2024-03-10T11:01:51Z</time>
      </trkpt>
      <trkpt lat="46.83018" lon="-0.35622">
        <ele>132</ele>
        <time>2024-03-10T11:02:02Z</time>
      </trkpt>
      <trkpt lat="46.83017" lon="-0.35621">
        <ele>132</ele>
        <time>2024-03-10T11:02:13Z</time>
      </trkpt>
      <trkpt lat="46.8302" lon="-0.35619">
        <ele>131.8</ele>
        <time>2024-03-10T11:02:23Z</time>
      </trkpt>
      <trkpt lat="46.83021" lon="-0.35618">
        <ele>131.8</ele>
        <time>2024-03-10T11:02:30Z</time>
      </trkpt>
      <trkpt lat="46.83025" lon="-0.35616">
        <ele>131.8</ele>
        <time>2024-03-10T11:02:47Z</time>
      </trkpt>
      <trkpt lat="46.8303" lon="-0.35617">
        <ele>131.8</ele>
        <time>2024-03-10T11:03:04Z</time>
      </trkpt>
      <trkpt lat="46.83035" lon="-0.35616">
        <ele>131.8</ele>
        <time>2024-03-10T11:03:09Z</time>
      </trkpt>
      <trkpt lat="46.83039" lon="-0.35615">
        <ele>131.8</ele>
        <time>2024-03-10T11:03:22Z</time>
      </trkpt>
      <trkpt lat="46.83034" lon="-0.35617">
        <ele>131.8</ele>
        <time>2024-03-10T11:03:41Z</time>
      </trkpt>
      <trkpt lat="46.83033" lon="-0.35615">
        <ele>131.8</ele>
        <time>2024-03-10T11:03:58Z</time>
      </trkpt>
      <trkpt lat="46.83032" lon="-0.35615">
        <ele>131.8</ele>
        <time>2024-03-10T11:04:33Z</time>
      </trkpt>
      <trkpt lat="46.83032" lon="-0.35614">
        <ele>131.8</ele>
        <time>2024-03-10T11:05:13Z</time>
      </trkpt>
      <trkpt lat="46.83032" lon="-0.35615">
        <ele>131.8</ele>
        <time>2024-03-10T11:06:03Z</time>
      </trkpt>
      <trkpt lat="46.83032" lon="-0.35614">
        <ele>131.8</ele>
        <time>2024-03-10T11:07:45Z</time>
      </trkpt>
      <trkpt lat="46.83031" lon="-0.35613">
        <ele>131.8</ele>
        <time>2024-03-10T11:08:55Z</time>
      </trkpt>
      <trkpt lat="46.83031" lon="-0.35613">
        <ele>131.8</ele>
        <time>2024-03-10T11:09:29Z</time>
      </trkpt>
      <trkpt lat="46.83029" lon="-0.35613">
        <ele>131.8</ele>
        <time>2024-03-10T11:10:30Z</time>
      </trkpt>
      <trkpt lat="46.83024" lon="-0.35614">
        <ele>131.8</ele>
        <time>2024-03-10T11:11:25Z</time>
      </trkpt>
      <trkpt lat="46.83027" lon="-0.35617">
        <ele>131.8</ele>
        <time>2024-03-10T11:12:10Z</time>
      </trkpt>
      <trkpt lat="46.83036" lon="-0.35613">
        <ele>131.8</ele>
        <time>2024-03-10T11:12:39Z</time>
      </trkpt>
      <trkpt lat="46.83037" lon="-0.35613">
        <ele>131.8</ele>
        <time>2024-03-10T11:13:19Z</time>
      </trkpt>
      <trkpt lat="46.83036" lon="-0.35613">
        <ele>131.8</ele>
        <time>2024-03-10T11:14:23Z</time>
      </trkpt>
      <trkpt lat="46.83032" lon="-0.35612">
        <ele>131.8</ele>
        <time>2024-03-10T11:16:37Z</time>
      </trkpt>
      <trkpt lat="46.83032" lon="-0.35613">
        <ele>131.8</ele>
        <time>2024-03-10T11:16:58Z</time>
      </trkpt>
      <trkpt lat="46.83032" lon="-0.35613">
        <ele>131.8</ele>
        <time>2024-03-10T11:17:12Z</time>
      </trkpt>
      <trkpt lat="46.83032" lon="-0.35613">
        <ele>131.8</ele>
        <time>2024-03-10T11:18:06Z</time>
      </trkpt>
      <trkpt lat="46.8303" lon="-0.35615">
        <ele>131.8</ele>
        <time>2024-03-10T11:18:42Z</time>
      </trkpt>
      <trkpt lat="46.8303" lon="-0.35614">
        <ele>131.8</ele>
        <time>2024-03-10T11:19:28Z</time>
      </trkpt>
      <trkpt lat="46.83031" lon="-0.35614">
        <ele>131.8</ele>
        <time>2024-03-10T11:19:37Z</time>
      </trkpt>
      <trkpt lat="46.83031" lon="-0.35614">
        <ele>131.8</ele>
        <time>2024-03-10T11:19:59Z</time>
      </trkpt>
      <trkpt lat="46.83031" lon="-0.35614">
        <ele>131.8</ele>
        <time>2024-03-10T11:21:07Z</time>
      </trkpt>
      <trkpt lat="46.8303" lon="-0.35614">
        <ele>131.8</ele>
        <time>2024-03-10T11:21:32Z</time>
      </trkpt>
      <trkpt lat="46.83024" lon="-0.35616">
        <ele>131.8</ele>
        <time>2024-03-10T11:22:04Z</time>
      </trkpt>
      <trkpt lat="46.83014" lon="-0.35623">
        <ele>131.8</ele>
        <time>2024-03-10T11:22:30Z</time>
      </trkpt>
      <trkpt lat="46.83005" lon="-0.35625">
        <ele>131.8</ele>
        <time>2024-03-10T11:23:00Z</time>
      </trkpt>
      <trkpt lat="46.83004" lon="-0.35625">
        <ele>131.8</ele>
        <time>2024-03-10T11:23:23Z</time>
      </trkpt>
      <trkpt lat="46.83005" lon="-0.35623">
        <ele>131.8</ele>
        <time>2024-03-10T11:24:17Z</time>
      </trkpt>
      <trkpt lat="46.83004" lon="-0.35625">
        <ele>131.8</ele>
        <time>2024-03-10T11:25:32Z</time>
      </trkpt>
      <trkpt lat="46.83004" lon="-0.35624">
        <ele>131.8</ele>
        <time>2024-03-10T11:26:39Z</time>
      </trkpt>
      <trkpt lat="46.83006" lon="-0.35624">
        <ele>131.8</ele>
        <time>2024-03-10T11:27:01Z</time>
      </trkpt>
      <trkpt lat="46.83008" lon="-0.35625">
        <ele>131.8</ele>
        <time>2024-03-10T11:27:50Z</time>
      </trkpt>
      <trkpt lat="46.83008" lon="-0.35625">
        <ele>131.8</ele>
        <time>2024-03-10T11:29:12Z</time>
      </trkpt>
      <trkpt lat="46.83008" lon="-0.35625">
        <ele>131.8</ele>
        <time>2024-03-10T11:29:33Z</time>
      </trkpt>
      <trkpt lat="46.83007" lon="-0.35623">
        <ele>131.8</ele>
        <time>2024-03-10T11:30:23Z</time>
      </trkpt>
      <trkpt lat="46.83007" lon="-0.35623">
        <ele>131.8</ele>
        <time>2024-03-10T11:30:32Z</time>
      </trkpt>
      <trkpt lat="46.83007" lon="-0.35623">
        <ele>131.8</ele>
        <time>2024-03-10T11:31:23Z</time>
      </trkpt>
      <trkpt lat="46.83007" lon="-0.35624">
        <ele>131.8</ele>
        <time>2024-03-10T11:32:17Z</time>
      </trkpt>
      <trkpt lat="46.83007" lon="-0.35624">
        <ele>131.8</ele>
        <time>2024-03-10T11:33:02Z</time>
      </trkpt>
      <trkpt lat="46.83008" lon="-0.35625">
        <ele>131.8</ele>
        <time>2024-03-10T11:34:37Z</time>
      </trkpt>
      <trkpt lat="46.83008" lon="-0.35625">
        <ele>131.8</ele>
        <time>2024-03-10T11:35:23Z</time>
      </trkpt>
      <trkpt lat="46.83008" lon="-0.35625">
        <ele>131.8</ele>
        <time>2024-03-10T11:35:56Z</time>
      </trkpt>
      <trkpt lat="46.83006" lon="-0.35625">
        <ele>131.8</ele>
        <time>2024-03-10T11:37:31Z</time>
      </trkpt>
      <trkpt lat="46.83007" lon="-0.35625">
        <ele>131.8</ele>
        <time>2024-03-10T11:37:47Z</time>
      </trkpt>
      <trkpt lat="46.83007" lon="-0.35625">
        <ele>131.8</ele>
        <time>2024-03-10T11:38:12Z</time>
      </trkpt>
      <trkpt lat="46.8301" lon="-0.35623">
        <ele>131.8</ele>
        <time>2024-03-10T11:38:30Z</time>
      </trkpt>
      <trkpt lat="46.83013" lon="-0.35623">
        <ele>131.8</ele>
        <time>2024-03-10T11:38:42Z</time>
      </trkpt>
      <trkpt lat="46.83014" lon="-0.35625">
        <ele>131.8</ele>
        <time>2024-03-10T11:39:00Z</time>
      </trkpt>
      <trkpt lat="46.83015" lon="-0.35626">
        <ele>131.8</ele>
        <time>2024-03-10T11:39:19Z</time>
      </trkpt>
      <trkpt lat="46.83015" lon="-0.35625">
        <ele>131.8</ele>
        <time>2024-03-10T11:40:13Z</time>
      </trkpt>
      <trkpt lat="46.83015" lon="-0.35625">
        <ele>131.8</ele>
        <time>2024-03-10T11:40:53Z</time>
      </trkpt>
      <trkpt lat="46.83016" lon="-0.35625">
        <ele>131.8</ele>
        <time>2024-03-10T11:41:17Z</time>
      </trkpt>
      <trkpt lat="46.83014" lon="-0.35626">
        <ele>131.8</ele>
        <time>2024-03-10T11:41:39Z</time>
      </trkpt>
      <trkpt lat="46.83013" lon="-0.35626">
        <ele>131.8</ele>
        <time>2024-03-10T11:42:09Z</time>
      </trkpt>
      <trkpt lat="46.83013" lon="-0.35627">
        <ele>131.8</ele>
        <time>2024-03-10T11:42:23Z</time>
      </trkpt>
      <trkpt lat="46.83013" lon="-0.35626">
        <ele>131.8</ele>
        <time>2024-03-10T11:42:50Z</time>
      </trkpt>
      <trkpt lat="46.83013" lon="-0.35626">
        <ele>131.8</ele>
        <time>2024-03-10T11:43:40Z</time>
      </trkpt>
      <trkpt lat="46.83013" lon="-0.35626">
        <ele>131.8</ele>
        <time>2024-03-10T11:44:07Z</time>
      </trkpt>
      <trkpt lat="46.83012" lon="-0.35626">
        <ele>131.8</ele>
        <time>2024-03-10T11:44:36Z</time>
      </trkpt>
      <trkpt lat="46.83012" lon="-0.35625">
        <ele>131.8</ele>
        <time>2024-03-10T11:45:36Z</time>
      </trkpt>
      <trkpt lat="46.83012" lon="-0.35624">
        <ele>131.8</ele>
        <time>2024-03-10T11:46:05Z</time>
      </trkpt>
      <trkpt lat="46.83012" lon="-0.35624">
        <ele>131.8</ele>
        <time>2024-03-10T11:47:15Z</time>
      </trkpt>
      <trkpt lat="46.83012" lon="-0.35624">
        <ele>131.8</ele>
        <time>2024-03-10T11:47:57Z</time>
      </trkpt>
      <trkpt lat="46.83012" lon="-0.35624">
        <ele>131.8</ele>
        <time>2024-03-10T11:48:29Z</time>
      </trkpt>
      <trkpt lat="46.83012" lon="-0.35624">
        <ele>131.8</ele>
        <time>2024-03-10T11:49:02Z</time>
      </trkpt>
      <trkpt lat="46.83012" lon="-0.35624">
        <ele>131.8</ele>
        <time>2024-03-10T11:49:25Z</time>
      </trkpt>
      <trkpt lat="46.83012" lon="-0.35624">
        <ele>131.8</ele>
        <time>2024-03-10T11:49:52Z</time>
      </trkpt>
      <trkpt lat="46.83012" lon="-0.35623">
        <ele>131.8</ele>
        <time>2024-03-10T11:50:01Z</time>
      </trkpt>
      <trkpt lat="46.83012" lon="-0.35623">
        <ele>131.8</ele>
        <time>2024-03-10T11:50:16Z</time>
      </trkpt>
      <trkpt lat="46.83012" lon="-0.35623">
        <ele>131.8</ele>
        <time>2024-03-10T11:50:56Z</time>
      </trkpt>
      <trkpt lat="46.83011" lon="-0.35623">
        <ele>131.8</ele>
        <time>2024-03-10T11:51:21Z</time>
      </trkpt>
      <trkpt lat="46.83011" lon="-0.35622">
        <ele>131.8</ele>
        <time>2024-03-10T11:51:45Z</time>
      </trkpt>
      <trkpt lat="46.83011" lon="-0.35623">
        <ele>131.8</ele>
        <time>2024-03-10T11:52:07Z</time>
      </trkpt>
      <trkpt lat="46.83011" lon="-0.35623">
        <ele>131.8</ele>
        <time>2024-03-10T11:52:33Z</time>
      </trkpt>
      <trkpt lat="46.83011" lon="-0.35623">
        <ele>131.8</ele>
        <time>2024-03-10T11:53:15Z</time>
      </trkpt>
      <trkpt lat="46.83011" lon="-0.35623">
        <ele>131.8</ele>
        <time>2024-03-10T11:53:50Z</time>
      </trkpt>
      <trkpt lat="46.83011" lon="-0.35623">
        <ele>131.8</ele>
        <time>2024-03-10T11:54:28Z</time>
      </trkpt>
      <trkpt lat="46.83011" lon="-0.35623">
        <ele>131.8</ele>
        <time>2024-03-10T11:55:03Z</time>
      </trkpt>
      <trkpt lat="46.83012" lon="-0.35622">
        <ele>131.8</ele>
        <time>2024-03-10T11:55:54Z</time>
      </trkpt>
      <trkpt lat="46.83014" lon="-0.35618">
        <ele>131.8</ele>
        <time>2024-03-10T11:56:11Z</time>
      </trkpt>
      <trkpt lat="46.83014" lon="-0.35618">
        <ele>131.8</ele>
        <time>2024-03-10T11:56:37Z</time>
      </trkpt>
      <trkpt lat="46.83014" lon="-0.35617">
        <ele>131.8</ele>
        <time>2024-03-10T11:57:03Z</time>
      </trkpt>
      <trkpt lat="46.83014" lon="-0.35618">
        <ele>131.8</ele>
        <time>2024-03-10T11:57:31Z</time>
      </trkpt>
      <trkpt lat="46.83015" lon="-0.35617">
        <ele>131.8</ele>
        <time>2024-03-10T11:57:56Z</time>
      </trkpt>
      <trkpt lat="46.83017" lon="-0.35617">
        <ele>131.8</ele>
        <time>2024-03-10T11:58:17Z</time>
      </trkpt>
      <trkpt lat="46.83024" lon="-0.3561">
        <ele>131.8</ele>
        <time>2024-03-10T11:58:36Z</time>
      </trkpt>
      <trkpt lat="46.83025" lon="-0.35608">
        <ele>131.8</ele>
        <time>2024-03-10T11:58:38Z</time>
      </trkpt>
      <trkpt lat="46.83028" lon="-0.35597">
        <ele>131.8</ele>
        <time>2024-03-10T11:58:44Z</time>
      </trkpt>
      <trkpt lat="46.83026" lon="-0.35578">
        <ele>132.8</ele>
        <time>2024-03-10T11:58:52Z</time>
      </trkpt>
      <trkpt lat="46.83028" lon="-0.35571">
        <ele>133.2</ele>
        <time>2024-03-10T11:58:55Z</time>
      </trkpt>
      <trkpt lat="46.83031" lon="-0.35567">
        <ele>133.6</ele>
        <time>2024-03-10T11:58:58Z</time>
      </trkpt>
      <trkpt lat="46.83039" lon="-0.35557">
        <ele>134.2</ele>
        <time>2024-03-10T11:59:04Z</time>
      </trkpt>
      <trkpt lat="46.83043" lon="-0.35553">
        <ele>134.2</ele>
        <time>2024-03-10T11:59:05Z</time>
      </trkpt>
      <trkpt lat="46.83052" lon="-0.35545">
        <ele>134.8</ele>
        <time>2024-03-10T11:59:09Z</time>
      </trkpt>
      <trkpt lat="46.83064" lon="-0.35536">
        <ele>135.2</ele>
        <time>2024-03-10T11:59:14Z</time>
      </trkpt>
      <trkpt lat="46.8307" lon="-0.35531">
        <ele>135.2</ele>
        <time>2024-03-10T11:59:16Z</time>
      </trkpt>
      <trkpt lat="46.83081" lon="-0.3552">
        <ele>135.8</ele>
        <time>2024-03-10T11:59:20Z</time>
      </trkpt>
      <trkpt lat="46.83081" lon="-0.35515">
        <ele>136</ele>
        <time>2024-03-10T11:59:21Z</time>
      </trkpt>
      <trkpt lat="46.83079" lon="-0.35505">
        <ele>136.2</ele>
        <time>2024-03-10T11:59:23Z</time>
      </trkpt>
      <trkpt lat="46.83075" lon="-0.35488">
        <ele>136.6</ele>
        <time>2024-03-10T11:59:26Z</time>
      </trkpt>
      <trkpt lat="46.83072" lon="-0.35477">
        <ele>137</ele>
        <time>2024-03-10T11:59:28Z</time>
      </trkpt>
      <trkpt lat="46.83065" lon="-0.35444">
        <ele>136.8</ele>
        <time>2024-03-10T11:59:34Z</time>
      </trkpt>
      <trkpt lat="46.83054" lon="-0.35404">
        <ele>136.2</ele>
        <time>2024-03-10T11:59:40Z</time>
      </trkpt>
      <trkpt lat="46.83044" lon="-0.35364">
        <ele>135.8</ele>
        <time>2024-03-10T11:59:45Z</time>
      </trkpt>
      <trkpt lat="46.83042" lon="-0.35346">
        <ele>135.2</ele>
        <time>2024-03-10T11:59:47Z</time>
      </trkpt>
      <trkpt lat="46.83028" lon="-0.35284">
        <ele>134</ele>
        <time>2024-03-10T11:59:54Z</time>
      </trkpt>
      <trkpt lat="46.83011" lon="-0.35225">
        <ele>132.6</ele>
        <time>2024-03-10T12:00:01Z</time>
      </trkpt>
      <trkpt lat="46.83003" lon="-0.3518">
        <ele>131.6</ele>
        <time>2024-03-10T12:00:06Z</time>
      </trkpt>
      <trkpt lat="46.83" lon="-0.3516">
        <ele>131.2</ele>
        <time>2024-03-10T12:00:08Z</time>
      </trkpt>
      <trkpt lat="46.82999" lon="-0.35137">
        <ele>130.6</ele>
        <time>2024-03-10T12:00:10Z</time>
      </trkpt>
      <trkpt lat="46.82998" lon="-0.35101">
        <ele>129.4</ele>
        <time>2024-03-10T12:00:13Z</time>
      </trkpt>
      <trkpt lat="46.82999" lon="-0.35036">
        <ele>128.2</ele>
        <time>2024-03-10T12:00:18Z</time>
      </trkpt>
      <trkpt lat="46.82999" lon="-0.35023">
        <ele>127.8</ele>
        <time>2024-03-10T12:00:19Z</time>
      </trkpt>
      <trkpt lat="46.82999" lon="-0.35009">
        <ele>127</ele>
        <time>2024-03-10T12:00:20Z</time>
      </trkpt>
      <trkpt lat="46.82999" lon="-0.34995">
        <ele>125.4</ele>
        <time>2024-03-10T12:00:22Z</time>
      </trkpt>
      <trkpt lat="46.82998" lon="-0.34968">
        <ele>125</ele>
        <time>2024-03-10T12:00:23Z</time>
      </trkpt>
      <trkpt lat="46.82997" lon="-0.34954">
        <ele>124.6</ele>
        <time>2024-03-10T12:00:24Z</time>
      </trkpt>
      <trkpt lat="46.82997" lon="-0.3494">
        <ele>124.4</ele>
        <time>2024-03-10T12:00:25Z</time>
      </trkpt>
      <trkpt lat="46.82996" lon="-0.34899">
        <ele>123.2</ele>
        <time>2024-03-10T12:00:28Z</time>
      </trkpt>
      <trkpt lat="46.82995" lon="-0.34872">
        <ele>122.2</ele>
        <time>2024-03-10T12:00:30Z</time>
      </trkpt>
      <trkpt lat="46.82995" lon="-0.34872">
        <ele>121.6</ele>
        <time>2024-03-10T12:00:31Z</time>
      </trkpt>
      <trkpt lat="46.8299" lon="-0.34818">
        <ele>120.8</ele>
        <time>2024-03-10T12:00:35Z</time>
      </trkpt>
      <trkpt lat="46.8299" lon="-0.34818">
        <ele>120.4</ele>
        <time>2024-03-10T12:00:36Z</time>
      </trkpt>
      <trkpt lat="46.82985" lon="-0.34813">
        <ele>120.4</ele>
        <time>2024-03-10T12:00:37Z</time>
      </trkpt>
      <trkpt lat="46.8298" lon="-0.34809">
        <ele>120.2</ele>
        <time>2024-03-10T12:00:38Z</time>
      </trkpt>
      <trkpt lat="46.82962" lon="-0.34802">
        <ele>120.2</ele>
        <time>2024-03-10T12:00:40Z</time>
      </trkpt>
      <trkpt lat="46.82951" lon="-0.34792">
        <ele>120</ele>
        <time>2024-03-10T12:00:42Z</time>
      </trkpt>
      <trkpt lat="46.82941" lon="-0.3478">
        <ele>120</ele>
        <time>2024-03-10T12:00:44Z</time>
      </trkpt>
      <trkpt lat="46.82936" lon="-0.34774">
        <ele>120</ele>
        <time>2024-03-10T12:00:45Z</time>
      </trkpt>
      <trkpt lat="46.8292" lon="-0.34757">
        <ele>119.8</ele>
        <time>2024-03-10T12:00:48Z</time>
      </trkpt>
      <trkpt lat="46.82896" lon="-0.34746">
        <ele>119.8</ele>
        <time>2024-03-10T12:00:52Z</time>
      </trkpt>
      <trkpt lat="46.82872" lon="-0.3474">
        <ele>119.4</ele>
        <time>2024-03-10T12:00:56Z</time>
      </trkpt>
      <trkpt lat="46.82861" lon="-0.34736">
        <ele>119.4</ele>
        <time>2024-03-10T12:00:58Z</time>
      </trkpt>
      <trkpt lat="46.82823" lon="-0.34714">
        <ele>120</ele>
        <time>2024-03-10T12:01:05Z</time>
      </trkpt>
      <trkpt lat="46.828" lon="-0.34698">
        <ele>120.6</ele>
        <time>2024-03-10T12:01:10Z</time>
      </trkpt>
      <trkpt lat="46.82791" lon="-0.34688">
        <ele>120.6</ele>
        <time>2024-03-10T12:01:12Z</time>
      </trkpt>
      <trkpt lat="46.82754" lon="-0.34644">
        <ele>121.6</ele>
        <time>2024-03-10T12:01:21Z</time>
      </trkpt>
      <trkpt lat="46.8275" lon="-0.34639">
        <ele>121.6</ele>
        <time>2024-03-10T12:01:22Z</time>
      </trkpt>
      <trkpt lat="46.82729" lon="-0.34607">
        <ele>122.2</ele>
        <time>2024-03-10T12:01:30Z</time>
      </trkpt>
      <trkpt lat="46.82723" lon="-0.34599">
        <ele>122.4</ele>
        <time>2024-03-10T12:01:31Z</time>
      </trkpt>
      <trkpt lat="46.8272" lon="-0.34594">
        <ele>122.4</ele>
        <time>2024-03-10T12:01:33Z</time>
      </trkpt>
      <trkpt lat="46.82716" lon="-0.34584">
        <ele>122.6</ele>
        <time>2024-03-10T12:01:34Z</time>
      </trkpt>
      <trkpt lat="46.82711" lon="-0.34576">
        <ele>122.6</ele>
        <time>2024-03-10T12:01:36Z</time>
      </trkpt>
      <trkpt lat="46.82703" lon="-0.34555">
        <ele>123</ele>
        <time>2024-03-10T12:01:41Z</time>
      </trkpt>
      <trkpt lat="46.82702" lon="-0.3455">
        <ele>123.2</ele>
        <time>2024-03-10T12:01:42Z</time>
      </trkpt>
      <trkpt lat="46.82695" lon="-0.34532">
        <ele>123.4</ele>
        <time>2024-03-10T12:01:47Z</time>
      </trkpt>
      <trkpt lat="46.82697" lon="-0.34525">
        <ele>123.6</ele>
        <time>2024-03-10T12:01:49Z</time>
      </trkpt>
      <trkpt lat="46.82707" lon="-0.3451">
        <ele>124.2</ele>
        <time>2024-03-10T12:01:56Z</time>
      </trkpt>
      <trkpt lat="46.8271" lon="-0.34499">
        <ele>124.4</ele>
        <time>2024-03-10T12:01:59Z</time>
      </trkpt>
      <trkpt lat="46.82713" lon="-0.34496">
        <ele>124.4</ele>
        <time>2024-03-10T12:02:01Z</time>
      </trkpt>
      <trkpt lat="46.82717" lon="-0.34495">
        <ele>124.4</ele>
        <time>2024-03-10T12:02:03Z</time>
      </trkpt>
      <trkpt lat="46.82722" lon="-0.34499">
        <ele>124.6</ele>
        <time>2024-03-10T12:02:06Z</time>
      </trkpt>
      <trkpt lat="46.82724" lon="-0.34504">
        <ele>124.8</ele>
        <time>2024-03-10T12:02:10Z</time>
      </trkpt>
      <trkpt lat="46.82724" lon="-0.34504">
        <ele>124.8</ele>
        <time>2024-03-10T12:02:11Z</time>
      </trkpt>
    </trkseg>
  </trk>
</gpx>